<?xml version="1.0" encoding="UTF-8" standalone="no" ?>
<gpx xmlns="http://www.topografix.com/GPX/1/1" xmlns:xsi="http://www.w3.org/2001/XMLSchema-instance" xsi:schemaLocation="http://www.topografix.com/GPX/1/1 http://www.topografix.com/GPX/1/1/gpx.xsd" version="1.1" creator="VisuGPX - https://www.visugpx.com">
  <metadata>
    <name>VTT la roche des vents</name>
  </metadata>
  <trk>
    <name><![CDATA[VTT la roche des vents]]></name>
    <trkseg>
      <trkpt lat="45.29253" lon="4.73424">
        <ele>381.60000610352</ele>
        <time>2022-02-15T07:47:40Z</time>
      </trkpt>
      <trkpt lat="45.29254" lon="4.73424">
        <ele>383.20001220703</ele>
        <time>2022-02-15T07:47:49Z</time>
      </trkpt>
      <trkpt lat="45.29256" lon="4.73421">
        <ele>383.60000610352</ele>
        <time>2022-02-15T07:48:27Z</time>
      </trkpt>
      <trkpt lat="45.29252" lon="4.73403">
        <ele>383.39999389648</ele>
        <time>2022-02-15T07:48:36Z</time>
      </trkpt>
      <trkpt lat="45.29225" lon="4.73396">
        <ele>383.60000610352</ele>
        <time>2022-02-15T07:48:47Z</time>
      </trkpt>
      <trkpt lat="45.29205" lon="4.7342">
        <ele>383.39999389648</ele>
        <time>2022-02-15T07:48:52Z</time>
      </trkpt>
      <trkpt lat="45.29192" lon="4.73433">
        <ele>383.20001220703</ele>
        <time>2022-02-15T07:48:55Z</time>
      </trkpt>
      <trkpt lat="45.29183" lon="4.73433">
        <ele>382.39999389648</ele>
        <time>2022-02-15T07:48:59Z</time>
      </trkpt>
      <trkpt lat="45.29151" lon="4.73399">
        <ele>381.20001220703</ele>
        <time>2022-02-15T07:49:11Z</time>
      </trkpt>
      <trkpt lat="45.2913" lon="4.73421">
        <ele>381.20001220703</ele>
        <time>2022-02-15T07:49:18Z</time>
      </trkpt>
      <trkpt lat="45.29105" lon="4.73422">
        <ele>379.60000610352</ele>
        <time>2022-02-15T07:49:23Z</time>
      </trkpt>
      <trkpt lat="45.29082" lon="4.73402">
        <ele>378.20001220703</ele>
        <time>2022-02-15T07:49:28Z</time>
      </trkpt>
      <trkpt lat="45.29048" lon="4.73361">
        <ele>377.20001220703</ele>
        <time>2022-02-15T07:49:35Z</time>
      </trkpt>
      <trkpt lat="45.28941" lon="4.73204">
        <ele>374.20001220703</ele>
        <time>2022-02-15T07:49:59Z</time>
      </trkpt>
      <trkpt lat="45.28919" lon="4.73172">
        <ele>374</ele>
        <time>2022-02-15T07:50:04Z</time>
      </trkpt>
      <trkpt lat="45.2888" lon="4.73107">
        <ele>373.60000610352</ele>
        <time>2022-02-15T07:50:14Z</time>
      </trkpt>
      <trkpt lat="45.28866" lon="4.73072">
        <ele>373.20001220703</ele>
        <time>2022-02-15T07:50:19Z</time>
      </trkpt>
      <trkpt lat="45.28855" lon="4.73034">
        <ele>372.60000610352</ele>
        <time>2022-02-15T07:50:24Z</time>
      </trkpt>
      <trkpt lat="45.28847" lon="4.7301">
        <ele>372.39999389648</ele>
        <time>2022-02-15T07:50:27Z</time>
      </trkpt>
      <trkpt lat="45.28826" lon="4.72953">
        <ele>372.60000610352</ele>
        <time>2022-02-15T07:50:35Z</time>
      </trkpt>
      <trkpt lat="45.28819" lon="4.72941">
        <ele>372.79998779297</ele>
        <time>2022-02-15T07:50:37Z</time>
      </trkpt>
      <trkpt lat="45.28811" lon="4.7293">
        <ele>372.79998779297</ele>
        <time>2022-02-15T07:50:39Z</time>
      </trkpt>
      <trkpt lat="45.28798" lon="4.72918">
        <ele>373</ele>
        <time>2022-02-15T07:50:42Z</time>
      </trkpt>
      <trkpt lat="45.28779" lon="4.7291">
        <ele>373.20001220703</ele>
        <time>2022-02-15T07:50:46Z</time>
      </trkpt>
      <trkpt lat="45.2875" lon="4.72887">
        <ele>374</ele>
        <time>2022-02-15T07:50:54Z</time>
      </trkpt>
      <trkpt lat="45.28754" lon="4.72865">
        <ele>374.79998779297</ele>
        <time>2022-02-15T07:51:00Z</time>
      </trkpt>
      <trkpt lat="45.28771" lon="4.72814">
        <ele>376.79998779297</ele>
        <time>2022-02-15T07:51:12Z</time>
      </trkpt>
      <trkpt lat="45.28775" lon="4.72756">
        <ele>378.39999389648</ele>
        <time>2022-02-15T07:51:25Z</time>
      </trkpt>
      <trkpt lat="45.28774" lon="4.72705">
        <ele>380.20001220703</ele>
        <time>2022-02-15T07:51:37Z</time>
      </trkpt>
      <trkpt lat="45.28789" lon="4.72645">
        <ele>381.79998779297</ele>
        <time>2022-02-15T07:51:51Z</time>
      </trkpt>
      <trkpt lat="45.28786" lon="4.72578">
        <ele>383.39999389648</ele>
        <time>2022-02-15T07:52:06Z</time>
      </trkpt>
      <trkpt lat="45.28787" lon="4.72518">
        <ele>385.79998779297</ele>
        <time>2022-02-15T07:52:20Z</time>
      </trkpt>
      <trkpt lat="45.28795" lon="4.72468">
        <ele>387.39999389648</ele>
        <time>2022-02-15T07:52:31Z</time>
      </trkpt>
      <trkpt lat="45.28789" lon="4.72449">
        <ele>387.39999389648</ele>
        <time>2022-02-15T07:52:35Z</time>
      </trkpt>
      <trkpt lat="45.28758" lon="4.72389">
        <ele>389</ele>
        <time>2022-02-15T07:52:50Z</time>
      </trkpt>
      <trkpt lat="45.28727" lon="4.72333">
        <ele>390.60000610352</ele>
        <time>2022-02-15T07:53:05Z</time>
      </trkpt>
      <trkpt lat="45.28698" lon="4.72291">
        <ele>392</ele>
        <time>2022-02-15T07:53:18Z</time>
      </trkpt>
      <trkpt lat="45.28678" lon="4.7224">
        <ele>394</ele>
        <time>2022-02-15T07:53:33Z</time>
      </trkpt>
      <trkpt lat="45.2866" lon="4.72193">
        <ele>396.39999389648</ele>
        <time>2022-02-15T07:53:47Z</time>
      </trkpt>
      <trkpt lat="45.28642" lon="4.72144">
        <ele>399.39999389648</ele>
        <time>2022-02-15T07:54:02Z</time>
      </trkpt>
      <trkpt lat="45.28628" lon="4.72105">
        <ele>401.20001220703</ele>
        <time>2022-02-15T07:54:16Z</time>
      </trkpt>
      <trkpt lat="45.28614" lon="4.72062">
        <ele>403.20001220703</ele>
        <time>2022-02-15T07:54:29Z</time>
      </trkpt>
      <trkpt lat="45.28602" lon="4.7202">
        <ele>404.39999389648</ele>
        <time>2022-02-15T07:54:41Z</time>
      </trkpt>
      <trkpt lat="45.28587" lon="4.71969">
        <ele>406.39999389648</ele>
        <time>2022-02-15T07:54:56Z</time>
      </trkpt>
      <trkpt lat="45.28566" lon="4.71911">
        <ele>408.20001220703</ele>
        <time>2022-02-15T07:55:13Z</time>
      </trkpt>
      <trkpt lat="45.28547" lon="4.7186">
        <ele>409.60000610352</ele>
        <time>2022-02-15T07:55:27Z</time>
      </trkpt>
      <trkpt lat="45.28529" lon="4.71808">
        <ele>410.79998779297</ele>
        <time>2022-02-15T07:55:41Z</time>
      </trkpt>
      <trkpt lat="45.28512" lon="4.71746">
        <ele>413</ele>
        <time>2022-02-15T07:55:59Z</time>
      </trkpt>
      <trkpt lat="45.28499" lon="4.71693">
        <ele>415</ele>
        <time>2022-02-15T07:56:14Z</time>
      </trkpt>
      <trkpt lat="45.28489" lon="4.71635">
        <ele>417.39999389648</ele>
        <time>2022-02-15T07:56:30Z</time>
      </trkpt>
      <trkpt lat="45.28483" lon="4.71593">
        <ele>419.20001220703</ele>
        <time>2022-02-15T07:56:43Z</time>
      </trkpt>
      <trkpt lat="45.28479" lon="4.71549">
        <ele>421.60000610352</ele>
        <time>2022-02-15T07:56:56Z</time>
      </trkpt>
      <trkpt lat="45.28476" lon="4.71522">
        <ele>424.60000610352</ele>
        <time>2022-02-15T07:57:07Z</time>
      </trkpt>
      <trkpt lat="45.28475" lon="4.71496">
        <ele>427.60000610352</ele>
        <time>2022-02-15T07:57:18Z</time>
      </trkpt>
      <trkpt lat="45.28471" lon="4.71461">
        <ele>430.60000610352</ele>
        <time>2022-02-15T07:57:32Z</time>
      </trkpt>
      <trkpt lat="45.28469" lon="4.71437">
        <ele>432.39999389648</ele>
        <time>2022-02-15T07:57:42Z</time>
      </trkpt>
      <trkpt lat="45.28467" lon="4.71406">
        <ele>435</ele>
        <time>2022-02-15T07:57:55Z</time>
      </trkpt>
      <trkpt lat="45.28467" lon="4.71376">
        <ele>438</ele>
        <time>2022-02-15T07:58:09Z</time>
      </trkpt>
      <trkpt lat="45.28466" lon="4.71365">
        <ele>439.20001220703</ele>
        <time>2022-02-15T07:58:15Z</time>
      </trkpt>
      <trkpt lat="45.28465" lon="4.71357">
        <ele>440</ele>
        <time>2022-02-15T07:58:19Z</time>
      </trkpt>
      <trkpt lat="45.28462" lon="4.71335">
        <ele>443</ele>
        <time>2022-02-15T07:58:31Z</time>
      </trkpt>
      <trkpt lat="45.2846" lon="4.7131">
        <ele>446.20001220703</ele>
        <time>2022-02-15T07:58:44Z</time>
      </trkpt>
      <trkpt lat="45.28455" lon="4.71273">
        <ele>449</ele>
        <time>2022-02-15T07:59:01Z</time>
      </trkpt>
      <trkpt lat="45.28454" lon="4.71239">
        <ele>451</ele>
        <time>2022-02-15T07:59:16Z</time>
      </trkpt>
      <trkpt lat="45.28453" lon="4.71235">
        <ele>451.20001220703</ele>
        <time>2022-02-15T07:59:18Z</time>
      </trkpt>
      <trkpt lat="45.28456" lon="4.71222">
        <ele>452.20001220703</ele>
        <time>2022-02-15T07:59:24Z</time>
      </trkpt>
      <trkpt lat="45.28459" lon="4.71195">
        <ele>455.20001220703</ele>
        <time>2022-02-15T07:59:37Z</time>
      </trkpt>
      <trkpt lat="45.28461" lon="4.71167">
        <ele>458</ele>
        <time>2022-02-15T07:59:49Z</time>
      </trkpt>
      <trkpt lat="45.28464" lon="4.71133">
        <ele>459</ele>
        <time>2022-02-15T08:00:00Z</time>
      </trkpt>
      <trkpt lat="45.28468" lon="4.71085">
        <ele>461.39999389648</ele>
        <time>2022-02-15T08:00:18Z</time>
      </trkpt>
      <trkpt lat="45.28467" lon="4.71045">
        <ele>464.39999389648</ele>
        <time>2022-02-15T08:00:33Z</time>
      </trkpt>
      <trkpt lat="45.28466" lon="4.71006">
        <ele>466.60000610352</ele>
        <time>2022-02-15T08:00:47Z</time>
      </trkpt>
      <trkpt lat="45.28468" lon="4.70963">
        <ele>469.20001220703</ele>
        <time>2022-02-15T08:01:02Z</time>
      </trkpt>
      <trkpt lat="45.28465" lon="4.70925">
        <ele>472.20001220703</ele>
        <time>2022-02-15T08:01:15Z</time>
      </trkpt>
      <trkpt lat="45.28465" lon="4.70895">
        <ele>473.60000610352</ele>
        <time>2022-02-15T08:01:26Z</time>
      </trkpt>
      <trkpt lat="45.28464" lon="4.70865">
        <ele>474.60000610352</ele>
        <time>2022-02-15T08:01:36Z</time>
      </trkpt>
      <trkpt lat="45.28463" lon="4.70829">
        <ele>476</ele>
        <time>2022-02-15T08:01:47Z</time>
      </trkpt>
      <trkpt lat="45.28461" lon="4.70794">
        <ele>477.20001220703</ele>
        <time>2022-02-15T08:01:57Z</time>
      </trkpt>
      <trkpt lat="45.28459" lon="4.70764">
        <ele>478.20001220703</ele>
        <time>2022-02-15T08:02:05Z</time>
      </trkpt>
      <trkpt lat="45.28453" lon="4.70701">
        <ele>479.39999389648</ele>
        <time>2022-02-15T08:02:23Z</time>
      </trkpt>
      <trkpt lat="45.28422" lon="4.7058">
        <ele>479.79998779297</ele>
        <time>2022-02-15T08:02:52Z</time>
      </trkpt>
      <trkpt lat="45.28393" lon="4.70507">
        <ele>479.79998779297</ele>
        <time>2022-02-15T08:03:12Z</time>
      </trkpt>
      <trkpt lat="45.28368" lon="4.70471">
        <ele>481.60000610352</ele>
        <time>2022-02-15T08:03:27Z</time>
      </trkpt>
      <trkpt lat="45.28351" lon="4.70445">
        <ele>483.79998779297</ele>
        <time>2022-02-15T08:03:40Z</time>
      </trkpt>
      <trkpt lat="45.28339" lon="4.70416">
        <ele>486.20001220703</ele>
        <time>2022-02-15T08:03:52Z</time>
      </trkpt>
      <trkpt lat="45.28334" lon="4.70392">
        <ele>488</ele>
        <time>2022-02-15T08:04:01Z</time>
      </trkpt>
      <trkpt lat="45.28328" lon="4.70368">
        <ele>489.79998779297</ele>
        <time>2022-02-15T08:04:10Z</time>
      </trkpt>
      <trkpt lat="45.2832" lon="4.70366">
        <ele>491.20001220703</ele>
        <time>2022-02-15T08:04:15Z</time>
      </trkpt>
      <trkpt lat="45.28299" lon="4.70375">
        <ele>492.79998779297</ele>
        <time>2022-02-15T08:04:25Z</time>
      </trkpt>
      <trkpt lat="45.2828" lon="4.70384">
        <ele>494</ele>
        <time>2022-02-15T08:04:35Z</time>
      </trkpt>
      <trkpt lat="45.28257" lon="4.70395">
        <ele>495</ele>
        <time>2022-02-15T08:04:46Z</time>
      </trkpt>
      <trkpt lat="45.28234" lon="4.70404">
        <ele>495.60000610352</ele>
        <time>2022-02-15T08:04:57Z</time>
      </trkpt>
      <trkpt lat="45.28187" lon="4.70422">
        <ele>497</ele>
        <time>2022-02-15T08:05:20Z</time>
      </trkpt>
      <trkpt lat="45.28165" lon="4.70434">
        <ele>498.60000610352</ele>
        <time>2022-02-15T08:05:32Z</time>
      </trkpt>
      <trkpt lat="45.28163" lon="4.70435">
        <ele>498.79998779297</ele>
        <time>2022-02-15T08:05:33Z</time>
      </trkpt>
      <trkpt lat="45.28138" lon="4.70446">
        <ele>502</ele>
        <time>2022-02-15T08:05:47Z</time>
      </trkpt>
      <trkpt lat="45.28104" lon="4.70463">
        <ele>503.20001220703</ele>
        <time>2022-02-15T08:05:58Z</time>
      </trkpt>
      <trkpt lat="45.2808" lon="4.70477">
        <ele>501.79998779297</ele>
        <time>2022-02-15T08:06:06Z</time>
      </trkpt>
      <trkpt lat="45.2805" lon="4.7047">
        <ele>502.39999389648</ele>
        <time>2022-02-15T08:06:18Z</time>
      </trkpt>
      <trkpt lat="45.28028" lon="4.70453">
        <ele>503.79998779297</ele>
        <time>2022-02-15T08:06:29Z</time>
      </trkpt>
      <trkpt lat="45.28011" lon="4.70437">
        <ele>505.79998779297</ele>
        <time>2022-02-15T08:06:40Z</time>
      </trkpt>
      <trkpt lat="45.27999" lon="4.70421">
        <ele>508.39999389648</ele>
        <time>2022-02-15T08:06:49Z</time>
      </trkpt>
      <trkpt lat="45.27981" lon="4.70406">
        <ele>509.79998779297</ele>
        <time>2022-02-15T08:06:57Z</time>
      </trkpt>
      <trkpt lat="45.27963" lon="4.704">
        <ele>509.79998779297</ele>
        <time>2022-02-15T08:07:07Z</time>
      </trkpt>
      <trkpt lat="45.27947" lon="4.70389">
        <ele>510.20001220703</ele>
        <time>2022-02-15T08:07:17Z</time>
      </trkpt>
      <trkpt lat="45.27935" lon="4.70373">
        <ele>511.39999389648</ele>
        <time>2022-02-15T08:07:25Z</time>
      </trkpt>
      <trkpt lat="45.27926" lon="4.70357">
        <ele>512.79998779297</ele>
        <time>2022-02-15T08:07:32Z</time>
      </trkpt>
      <trkpt lat="45.27926" lon="4.70353">
        <ele>513</ele>
        <time>2022-02-15T08:07:33Z</time>
      </trkpt>
      <trkpt lat="45.2792" lon="4.7033">
        <ele>514.20001220703</ele>
        <time>2022-02-15T08:07:40Z</time>
      </trkpt>
      <trkpt lat="45.27918" lon="4.70327">
        <ele>514.20001220703</ele>
        <time>2022-02-15T08:07:41Z</time>
      </trkpt>
      <trkpt lat="45.27913" lon="4.70315">
        <ele>514.59997558594</ele>
        <time>2022-02-15T08:07:44Z</time>
      </trkpt>
      <trkpt lat="45.27913" lon="4.70304">
        <ele>514.79998779297</ele>
        <time>2022-02-15T08:07:46Z</time>
      </trkpt>
      <trkpt lat="45.27908" lon="4.70283">
        <ele>514.79998779297</ele>
        <time>2022-02-15T08:07:50Z</time>
      </trkpt>
      <trkpt lat="45.27904" lon="4.70278">
        <ele>514.79998779297</ele>
        <time>2022-02-15T08:07:51Z</time>
      </trkpt>
      <trkpt lat="45.27897" lon="4.70268">
        <ele>514.59997558594</ele>
        <time>2022-02-15T08:07:53Z</time>
      </trkpt>
      <trkpt lat="45.27891" lon="4.70256">
        <ele>514.40002441406</ele>
        <time>2022-02-15T08:07:55Z</time>
      </trkpt>
      <trkpt lat="45.27871" lon="4.70211">
        <ele>512.79998779297</ele>
        <time>2022-02-15T08:08:02Z</time>
      </trkpt>
      <trkpt lat="45.2785" lon="4.70173">
        <ele>510.79998779297</ele>
        <time>2022-02-15T08:08:07Z</time>
      </trkpt>
      <trkpt lat="45.27844" lon="4.70157">
        <ele>510.20001220703</ele>
        <time>2022-02-15T08:08:09Z</time>
      </trkpt>
      <trkpt lat="45.27824" lon="4.70126">
        <ele>507.39999389648</ele>
        <time>2022-02-15T08:08:14Z</time>
      </trkpt>
      <trkpt lat="45.27806" lon="4.70108">
        <ele>505.20001220703</ele>
        <time>2022-02-15T08:08:17Z</time>
      </trkpt>
      <trkpt lat="45.27789" lon="4.70097">
        <ele>503.39999389648</ele>
        <time>2022-02-15T08:08:20Z</time>
      </trkpt>
      <trkpt lat="45.27772" lon="4.70078">
        <ele>501.60000610352</ele>
        <time>2022-02-15T08:08:24Z</time>
      </trkpt>
      <trkpt lat="45.27752" lon="4.70068">
        <ele>499.60000610352</ele>
        <time>2022-02-15T08:08:28Z</time>
      </trkpt>
      <trkpt lat="45.27746" lon="4.70068">
        <ele>499.20001220703</ele>
        <time>2022-02-15T08:08:29Z</time>
      </trkpt>
      <trkpt lat="45.27673" lon="4.70058">
        <ele>500</ele>
        <time>2022-02-15T08:08:44Z</time>
      </trkpt>
      <trkpt lat="45.27646" lon="4.70027">
        <ele>500.39999389648</ele>
        <time>2022-02-15T08:08:51Z</time>
      </trkpt>
      <trkpt lat="45.27621" lon="4.70013">
        <ele>500.20001220703</ele>
        <time>2022-02-15T08:08:56Z</time>
      </trkpt>
      <trkpt lat="45.27588" lon="4.70009">
        <ele>499.60000610352</ele>
        <time>2022-02-15T08:09:02Z</time>
      </trkpt>
      <trkpt lat="45.27514" lon="4.70013">
        <ele>497</ele>
        <time>2022-02-15T08:09:13Z</time>
      </trkpt>
      <trkpt lat="45.27513" lon="4.70012">
        <ele>496.79998779297</ele>
        <time>2022-02-15T08:09:14Z</time>
      </trkpt>
      <trkpt lat="45.27511" lon="4.69991">
        <ele>494.79998779297</ele>
        <time>2022-02-15T08:09:18Z</time>
      </trkpt>
      <trkpt lat="45.27514" lon="4.69937">
        <ele>491.79998779297</ele>
        <time>2022-02-15T08:09:24Z</time>
      </trkpt>
      <trkpt lat="45.27511" lon="4.69922">
        <ele>490.79998779297</ele>
        <time>2022-02-15T08:09:26Z</time>
      </trkpt>
      <trkpt lat="45.27502" lon="4.6991">
        <ele>489</ele>
        <time>2022-02-15T08:09:28Z</time>
      </trkpt>
      <trkpt lat="45.27496" lon="4.69903">
        <ele>488.79998779297</ele>
        <time>2022-02-15T08:09:29Z</time>
      </trkpt>
      <trkpt lat="45.27468" lon="4.69874">
        <ele>485.79998779297</ele>
        <time>2022-02-15T08:09:33Z</time>
      </trkpt>
      <trkpt lat="45.27452" lon="4.6985">
        <ele>483.20001220703</ele>
        <time>2022-02-15T08:09:36Z</time>
      </trkpt>
      <trkpt lat="45.27443" lon="4.69815">
        <ele>479.79998779297</ele>
        <time>2022-02-15T08:09:39Z</time>
      </trkpt>
      <trkpt lat="45.27429" lon="4.69757">
        <ele>475.60000610352</ele>
        <time>2022-02-15T08:09:44Z</time>
      </trkpt>
      <trkpt lat="45.27418" lon="4.69703">
        <ele>472.60000610352</ele>
        <time>2022-02-15T08:09:49Z</time>
      </trkpt>
      <trkpt lat="45.27407" lon="4.69665">
        <ele>469.60000610352</ele>
        <time>2022-02-15T08:09:53Z</time>
      </trkpt>
      <trkpt lat="45.274" lon="4.69642">
        <ele>467.20001220703</ele>
        <time>2022-02-15T08:09:56Z</time>
      </trkpt>
      <trkpt lat="45.27398" lon="4.69634">
        <ele>467</ele>
        <time>2022-02-15T08:09:57Z</time>
      </trkpt>
      <trkpt lat="45.2739" lon="4.69598">
        <ele>464.20001220703</ele>
        <time>2022-02-15T08:10:01Z</time>
      </trkpt>
      <trkpt lat="45.27376" lon="4.69546">
        <ele>461.20001220703</ele>
        <time>2022-02-15T08:10:06Z</time>
      </trkpt>
      <trkpt lat="45.27364" lon="4.69505">
        <ele>457.60000610352</ele>
        <time>2022-02-15T08:10:10Z</time>
      </trkpt>
      <trkpt lat="45.27352" lon="4.69452">
        <ele>453.79998779297</ele>
        <time>2022-02-15T08:10:16Z</time>
      </trkpt>
      <trkpt lat="45.27344" lon="4.69417">
        <ele>452.20001220703</ele>
        <time>2022-02-15T08:10:20Z</time>
      </trkpt>
      <trkpt lat="45.27327" lon="4.69354">
        <ele>450.39999389648</ele>
        <time>2022-02-15T08:10:27Z</time>
      </trkpt>
      <trkpt lat="45.27312" lon="4.69304">
        <ele>448.20001220703</ele>
        <time>2022-02-15T08:10:32Z</time>
      </trkpt>
      <trkpt lat="45.27305" lon="4.69251">
        <ele>444.60000610352</ele>
        <time>2022-02-15T08:10:37Z</time>
      </trkpt>
      <trkpt lat="45.27307" lon="4.69211">
        <ele>442.39999389648</ele>
        <time>2022-02-15T08:10:41Z</time>
      </trkpt>
      <trkpt lat="45.27305" lon="4.69153">
        <ele>440.79998779297</ele>
        <time>2022-02-15T08:10:50Z</time>
      </trkpt>
      <trkpt lat="45.27309" lon="4.69111">
        <ele>442.20001220703</ele>
        <time>2022-02-15T08:10:58Z</time>
      </trkpt>
      <trkpt lat="45.27307" lon="4.69091">
        <ele>443.20001220703</ele>
        <time>2022-02-15T08:11:03Z</time>
      </trkpt>
      <trkpt lat="45.2731" lon="4.69057">
        <ele>445.79998779297</ele>
        <time>2022-02-15T08:11:12Z</time>
      </trkpt>
      <trkpt lat="45.27318" lon="4.69005">
        <ele>448.39999389648</ele>
        <time>2022-02-15T08:11:25Z</time>
      </trkpt>
      <trkpt lat="45.27326" lon="4.68957">
        <ele>449.79998779297</ele>
        <time>2022-02-15T08:11:35Z</time>
      </trkpt>
      <trkpt lat="45.27339" lon="4.68888">
        <ele>450</ele>
        <time>2022-02-15T08:11:49Z</time>
      </trkpt>
      <trkpt lat="45.27355" lon="4.688">
        <ele>450.39999389648</ele>
        <time>2022-02-15T08:12:06Z</time>
      </trkpt>
      <trkpt lat="45.2737" lon="4.68785">
        <ele>451.20001220703</ele>
        <time>2022-02-15T08:12:12Z</time>
      </trkpt>
      <trkpt lat="45.27406" lon="4.68786">
        <ele>454.20001220703</ele>
        <time>2022-02-15T08:12:25Z</time>
      </trkpt>
      <trkpt lat="45.27439" lon="4.68773">
        <ele>453.79998779297</ele>
        <time>2022-02-15T08:12:35Z</time>
      </trkpt>
      <trkpt lat="45.27527" lon="4.68662">
        <ele>450.60000610352</ele>
        <time>2022-02-15T08:13:00Z</time>
      </trkpt>
      <trkpt lat="45.27578" lon="4.68583">
        <ele>446.79998779297</ele>
        <time>2022-02-15T08:13:12Z</time>
      </trkpt>
      <trkpt lat="45.27615" lon="4.6852">
        <ele>443.39999389648</ele>
        <time>2022-02-15T08:13:19Z</time>
      </trkpt>
      <trkpt lat="45.27625" lon="4.68499">
        <ele>442.39999389648</ele>
        <time>2022-02-15T08:13:21Z</time>
      </trkpt>
      <trkpt lat="45.2764" lon="4.68455">
        <ele>439.20001220703</ele>
        <time>2022-02-15T08:13:25Z</time>
      </trkpt>
      <trkpt lat="45.27642" lon="4.68444">
        <ele>438</ele>
        <time>2022-02-15T08:13:26Z</time>
      </trkpt>
      <trkpt lat="45.27653" lon="4.68379">
        <ele>435.79998779297</ele>
        <time>2022-02-15T08:13:34Z</time>
      </trkpt>
      <trkpt lat="45.27668" lon="4.68327">
        <ele>438.79998779297</ele>
        <time>2022-02-15T08:13:45Z</time>
      </trkpt>
      <trkpt lat="45.27696" lon="4.68284">
        <ele>441.79998779297</ele>
        <time>2022-02-15T08:13:59Z</time>
      </trkpt>
      <trkpt lat="45.27726" lon="4.68247">
        <ele>443.60000610352</ele>
        <time>2022-02-15T08:14:12Z</time>
      </trkpt>
      <trkpt lat="45.27758" lon="4.68208">
        <ele>445.79998779297</ele>
        <time>2022-02-15T08:14:27Z</time>
      </trkpt>
      <trkpt lat="45.27755" lon="4.68177">
        <ele>448</ele>
        <time>2022-02-15T08:14:37Z</time>
      </trkpt>
      <trkpt lat="45.27745" lon="4.6816">
        <ele>448.20001220703</ele>
        <time>2022-02-15T08:14:42Z</time>
      </trkpt>
      <trkpt lat="45.27756" lon="4.68145">
        <ele>448.20001220703</ele>
        <time>2022-02-15T08:14:48Z</time>
      </trkpt>
      <trkpt lat="45.27775" lon="4.68127">
        <ele>449.20001220703</ele>
        <time>2022-02-15T08:14:59Z</time>
      </trkpt>
      <trkpt lat="45.27791" lon="4.68109">
        <ele>451.79998779297</ele>
        <time>2022-02-15T08:15:11Z</time>
      </trkpt>
      <trkpt lat="45.27795" lon="4.68106">
        <ele>452.20001220703</ele>
        <time>2022-02-15T08:15:14Z</time>
      </trkpt>
      <trkpt lat="45.278" lon="4.68087">
        <ele>454.20001220703</ele>
        <time>2022-02-15T08:15:22Z</time>
      </trkpt>
      <trkpt lat="45.27807" lon="4.68074">
        <ele>455.79998779297</ele>
        <time>2022-02-15T08:15:28Z</time>
      </trkpt>
      <trkpt lat="45.27812" lon="4.68069">
        <ele>456.39999389648</ele>
        <time>2022-02-15T08:15:32Z</time>
      </trkpt>
      <trkpt lat="45.27822" lon="4.68042">
        <ele>457.60000610352</ele>
        <time>2022-02-15T08:15:43Z</time>
      </trkpt>
      <trkpt lat="45.27823" lon="4.68013">
        <ele>458</ele>
        <time>2022-02-15T08:15:53Z</time>
      </trkpt>
      <trkpt lat="45.27827" lon="4.67967">
        <ele>458.60000610352</ele>
        <time>2022-02-15T08:16:05Z</time>
      </trkpt>
      <trkpt lat="45.27841" lon="4.67949">
        <ele>459.20001220703</ele>
        <time>2022-02-15T08:16:12Z</time>
      </trkpt>
      <trkpt lat="45.27846" lon="4.67938">
        <ele>459.60000610352</ele>
        <time>2022-02-15T08:16:16Z</time>
      </trkpt>
      <trkpt lat="45.27843" lon="4.67911">
        <ele>461.20001220703</ele>
        <time>2022-02-15T08:16:24Z</time>
      </trkpt>
      <trkpt lat="45.27848" lon="4.67892">
        <ele>462.39999389648</ele>
        <time>2022-02-15T08:16:33Z</time>
      </trkpt>
      <trkpt lat="45.2785" lon="4.6788">
        <ele>463.20001220703</ele>
        <time>2022-02-15T08:16:37Z</time>
      </trkpt>
      <trkpt lat="45.27841" lon="4.67839">
        <ele>464.79998779297</ele>
        <time>2022-02-15T08:16:49Z</time>
      </trkpt>
      <trkpt lat="45.2782" lon="4.6778">
        <ele>465.79998779297</ele>
        <time>2022-02-15T08:17:02Z</time>
      </trkpt>
      <trkpt lat="45.27816" lon="4.67736">
        <ele>467.39999389648</ele>
        <time>2022-02-15T08:17:11Z</time>
      </trkpt>
      <trkpt lat="45.27817" lon="4.67703">
        <ele>468.39999389648</ele>
        <time>2022-02-15T08:17:19Z</time>
      </trkpt>
      <trkpt lat="45.27816" lon="4.67662">
        <ele>469</ele>
        <time>2022-02-15T08:17:28Z</time>
      </trkpt>
      <trkpt lat="45.27805" lon="4.67596">
        <ele>468.60000610352</ele>
        <time>2022-02-15T08:17:42Z</time>
      </trkpt>
      <trkpt lat="45.27772" lon="4.67477">
        <ele>470</ele>
        <time>2022-02-15T08:18:07Z</time>
      </trkpt>
      <trkpt lat="45.27759" lon="4.67454">
        <ele>470.20001220703</ele>
        <time>2022-02-15T08:18:12Z</time>
      </trkpt>
      <trkpt lat="45.27713" lon="4.67371">
        <ele>469</ele>
        <time>2022-02-15T08:18:28Z</time>
      </trkpt>
      <trkpt lat="45.27703" lon="4.67353">
        <ele>469</ele>
        <time>2022-02-15T08:18:31Z</time>
      </trkpt>
      <trkpt lat="45.27696" lon="4.67341">
        <ele>468.79998779297</ele>
        <time>2022-02-15T08:18:33Z</time>
      </trkpt>
      <trkpt lat="45.27685" lon="4.67291">
        <ele>468.79998779297</ele>
        <time>2022-02-15T08:18:41Z</time>
      </trkpt>
      <trkpt lat="45.27677" lon="4.67243">
        <ele>471</ele>
        <time>2022-02-15T08:18:52Z</time>
      </trkpt>
      <trkpt lat="45.27673" lon="4.67234">
        <ele>471.20001220703</ele>
        <time>2022-02-15T08:18:54Z</time>
      </trkpt>
      <trkpt lat="45.27651" lon="4.67166">
        <ele>470.60000610352</ele>
        <time>2022-02-15T08:19:06Z</time>
      </trkpt>
      <trkpt lat="45.27625" lon="4.67097">
        <ele>471.39999389648</ele>
        <time>2022-02-15T08:19:21Z</time>
      </trkpt>
      <trkpt lat="45.27593" lon="4.67027">
        <ele>474</ele>
        <time>2022-02-15T08:19:38Z</time>
      </trkpt>
      <trkpt lat="45.2758" lon="4.66987">
        <ele>475.39999389648</ele>
        <time>2022-02-15T08:19:50Z</time>
      </trkpt>
      <trkpt lat="45.2757" lon="4.66953">
        <ele>477.79998779297</ele>
        <time>2022-02-15T08:20:02Z</time>
      </trkpt>
      <trkpt lat="45.2756" lon="4.66914">
        <ele>478.39999389648</ele>
        <time>2022-02-15T08:20:14Z</time>
      </trkpt>
      <trkpt lat="45.27551" lon="4.6689">
        <ele>480</ele>
        <time>2022-02-15T08:20:23Z</time>
      </trkpt>
      <trkpt lat="45.27536" lon="4.6685">
        <ele>482.20001220703</ele>
        <time>2022-02-15T08:20:37Z</time>
      </trkpt>
      <trkpt lat="45.27527" lon="4.66803">
        <ele>483.79998779297</ele>
        <time>2022-02-15T08:20:51Z</time>
      </trkpt>
      <trkpt lat="45.27517" lon="4.66761">
        <ele>486.20001220703</ele>
        <time>2022-02-15T08:21:04Z</time>
      </trkpt>
      <trkpt lat="45.27509" lon="4.66718">
        <ele>488.60000610352</ele>
        <time>2022-02-15T08:21:17Z</time>
      </trkpt>
      <trkpt lat="45.27498" lon="4.66682">
        <ele>490.79998779297</ele>
        <time>2022-02-15T08:21:29Z</time>
      </trkpt>
      <trkpt lat="45.27484" lon="4.66643">
        <ele>493.39999389648</ele>
        <time>2022-02-15T08:21:43Z</time>
      </trkpt>
      <trkpt lat="45.27473" lon="4.66607">
        <ele>495.39999389648</ele>
        <time>2022-02-15T08:21:55Z</time>
      </trkpt>
      <trkpt lat="45.27466" lon="4.66583">
        <ele>495.39999389648</ele>
        <time>2022-02-15T08:22:01Z</time>
      </trkpt>
      <trkpt lat="45.27463" lon="4.66523">
        <ele>495.39999389648</ele>
        <time>2022-02-15T08:22:14Z</time>
      </trkpt>
      <trkpt lat="45.27462" lon="4.6648">
        <ele>497</ele>
        <time>2022-02-15T08:22:23Z</time>
      </trkpt>
      <trkpt lat="45.27461" lon="4.66469">
        <ele>497</ele>
        <time>2022-02-15T08:22:25Z</time>
      </trkpt>
      <trkpt lat="45.27455" lon="4.66422">
        <ele>497</ele>
        <time>2022-02-15T08:22:33Z</time>
      </trkpt>
      <trkpt lat="45.27446" lon="4.66337">
        <ele>496.20001220703</ele>
        <time>2022-02-15T08:22:48Z</time>
      </trkpt>
      <trkpt lat="45.27446" lon="4.6631">
        <ele>495.79998779297</ele>
        <time>2022-02-15T08:22:52Z</time>
      </trkpt>
      <trkpt lat="45.27451" lon="4.66187">
        <ele>494</ele>
        <time>2022-02-15T08:23:10Z</time>
      </trkpt>
      <trkpt lat="45.27447" lon="4.66136">
        <ele>493.39999389648</ele>
        <time>2022-02-15T08:23:15Z</time>
      </trkpt>
      <trkpt lat="45.27432" lon="4.66072">
        <ele>490.20001220703</ele>
        <time>2022-02-15T08:23:20Z</time>
      </trkpt>
      <trkpt lat="45.27425" lon="4.66043">
        <ele>487.20001220703</ele>
        <time>2022-02-15T08:23:23Z</time>
      </trkpt>
      <trkpt lat="45.27421" lon="4.66029">
        <ele>483.79998779297</ele>
        <time>2022-02-15T08:23:26Z</time>
      </trkpt>
      <trkpt lat="45.27416" lon="4.66019">
        <ele>480.79998779297</ele>
        <time>2022-02-15T08:23:29Z</time>
      </trkpt>
      <trkpt lat="45.27416" lon="4.66013">
        <ele>480.60000610352</ele>
        <time>2022-02-15T08:23:30Z</time>
      </trkpt>
      <trkpt lat="45.27419" lon="4.65989">
        <ele>479.60000610352</ele>
        <time>2022-02-15T08:23:33Z</time>
      </trkpt>
      <trkpt lat="45.27417" lon="4.65886">
        <ele>477.20001220703</ele>
        <time>2022-02-15T08:23:46Z</time>
      </trkpt>
      <trkpt lat="45.2742" lon="4.65804">
        <ele>477</ele>
        <time>2022-02-15T08:23:58Z</time>
      </trkpt>
      <trkpt lat="45.27422" lon="4.65781">
        <ele>476.79998779297</ele>
        <time>2022-02-15T08:24:01Z</time>
      </trkpt>
      <trkpt lat="45.27423" lon="4.65719">
        <ele>473.60000610352</ele>
        <time>2022-02-15T08:24:10Z</time>
      </trkpt>
      <trkpt lat="45.27422" lon="4.65675">
        <ele>471.20001220703</ele>
        <time>2022-02-15T08:24:15Z</time>
      </trkpt>
      <trkpt lat="45.27433" lon="4.65639">
        <ele>469.20001220703</ele>
        <time>2022-02-15T08:24:19Z</time>
      </trkpt>
      <trkpt lat="45.27439" lon="4.65604">
        <ele>465.60000610352</ele>
        <time>2022-02-15T08:24:24Z</time>
      </trkpt>
      <trkpt lat="45.27411" lon="4.65598">
        <ele>463.20001220703</ele>
        <time>2022-02-15T08:24:28Z</time>
      </trkpt>
      <trkpt lat="45.27405" lon="4.65598">
        <ele>461.60000610352</ele>
        <time>2022-02-15T08:24:30Z</time>
      </trkpt>
      <trkpt lat="45.27399" lon="4.65597">
        <ele>458.20001220703</ele>
        <time>2022-02-15T08:24:34Z</time>
      </trkpt>
      <trkpt lat="45.2734" lon="4.65593">
        <ele>455.60000610352</ele>
        <time>2022-02-15T08:24:45Z</time>
      </trkpt>
      <trkpt lat="45.27324" lon="4.6559">
        <ele>454.79998779297</ele>
        <time>2022-02-15T08:24:47Z</time>
      </trkpt>
      <trkpt lat="45.27281" lon="4.65566">
        <ele>452.39999389648</ele>
        <time>2022-02-15T08:24:52Z</time>
      </trkpt>
      <trkpt lat="45.27236" lon="4.6553">
        <ele>449.39999389648</ele>
        <time>2022-02-15T08:24:57Z</time>
      </trkpt>
      <trkpt lat="45.27215" lon="4.65516">
        <ele>447</ele>
        <time>2022-02-15T08:25:00Z</time>
      </trkpt>
      <trkpt lat="45.27203" lon="4.65516">
        <ele>445</ele>
        <time>2022-02-15T08:25:04Z</time>
      </trkpt>
      <trkpt lat="45.27188" lon="4.65542">
        <ele>443.60000610352</ele>
        <time>2022-02-15T08:25:12Z</time>
      </trkpt>
      <trkpt lat="45.27186" lon="4.65554">
        <ele>443.60000610352</ele>
        <time>2022-02-15T08:25:14Z</time>
      </trkpt>
      <trkpt lat="45.27153" lon="4.6572">
        <ele>445.20001220703</ele>
        <time>2022-02-15T08:25:39Z</time>
      </trkpt>
      <trkpt lat="45.27148" lon="4.65739">
        <ele>445.39999389648</ele>
        <time>2022-02-15T08:25:43Z</time>
      </trkpt>
      <trkpt lat="45.27137" lon="4.65719">
        <ele>446.60000610352</ele>
        <time>2022-02-15T08:25:51Z</time>
      </trkpt>
      <trkpt lat="45.27106" lon="4.65625">
        <ele>444.60000610352</ele>
        <time>2022-02-15T08:26:04Z</time>
      </trkpt>
      <trkpt lat="45.27089" lon="4.65592">
        <ele>443</ele>
        <time>2022-02-15T08:26:08Z</time>
      </trkpt>
      <trkpt lat="45.27085" lon="4.65583">
        <ele>441.60000610352</ele>
        <time>2022-02-15T08:26:09Z</time>
      </trkpt>
      <trkpt lat="45.27076" lon="4.65559">
        <ele>438.20001220703</ele>
        <time>2022-02-15T08:26:14Z</time>
      </trkpt>
      <trkpt lat="45.2707" lon="4.65551">
        <ele>436</ele>
        <time>2022-02-15T08:26:18Z</time>
      </trkpt>
      <trkpt lat="45.27065" lon="4.65541">
        <ele>434.20001220703</ele>
        <time>2022-02-15T08:26:22Z</time>
      </trkpt>
      <trkpt lat="45.27063" lon="4.65535">
        <ele>432.79998779297</ele>
        <time>2022-02-15T08:26:25Z</time>
      </trkpt>
      <trkpt lat="45.2706" lon="4.6553">
        <ele>431.79998779297</ele>
        <time>2022-02-15T08:26:28Z</time>
      </trkpt>
      <trkpt lat="45.27058" lon="4.65529">
        <ele>431.60000610352</ele>
        <time>2022-02-15T08:26:29Z</time>
      </trkpt>
      <trkpt lat="45.27054" lon="4.65526">
        <ele>431</ele>
        <time>2022-02-15T08:26:32Z</time>
      </trkpt>
      <trkpt lat="45.27043" lon="4.65519">
        <ele>429.20001220703</ele>
        <time>2022-02-15T08:26:39Z</time>
      </trkpt>
      <trkpt lat="45.27038" lon="4.65517">
        <ele>426</ele>
        <time>2022-02-15T08:26:47Z</time>
      </trkpt>
      <trkpt lat="45.27038" lon="4.65516">
        <ele>425.79998779297</ele>
        <time>2022-02-15T08:26:48Z</time>
      </trkpt>
      <trkpt lat="45.27008" lon="4.65504">
        <ele>423.39999389648</ele>
        <time>2022-02-15T08:27:22Z</time>
      </trkpt>
      <trkpt lat="45.26989" lon="4.65493">
        <ele>422</ele>
        <time>2022-02-15T08:27:26Z</time>
      </trkpt>
      <trkpt lat="45.26978" lon="4.65485">
        <ele>420</ele>
        <time>2022-02-15T08:27:30Z</time>
      </trkpt>
      <trkpt lat="45.26968" lon="4.65493">
        <ele>417</ele>
        <time>2022-02-15T08:27:36Z</time>
      </trkpt>
      <trkpt lat="45.26967" lon="4.65496">
        <ele>416.60000610352</ele>
        <time>2022-02-15T08:27:37Z</time>
      </trkpt>
      <trkpt lat="45.26943" lon="4.65523">
        <ele>417.20001220703</ele>
        <time>2022-02-15T08:27:49Z</time>
      </trkpt>
      <trkpt lat="45.26924" lon="4.65539">
        <ele>420.60000610352</ele>
        <time>2022-02-15T08:28:00Z</time>
      </trkpt>
      <trkpt lat="45.26903" lon="4.65553">
        <ele>421.60000610352</ele>
        <time>2022-02-15T08:28:09Z</time>
      </trkpt>
      <trkpt lat="45.26892" lon="4.65574">
        <ele>421.79998779297</ele>
        <time>2022-02-15T08:28:15Z</time>
      </trkpt>
      <trkpt lat="45.2689" lon="4.65602">
        <ele>421.39999389648</ele>
        <time>2022-02-15T08:28:22Z</time>
      </trkpt>
      <trkpt lat="45.26889" lon="4.65623">
        <ele>421</ele>
        <time>2022-02-15T08:28:26Z</time>
      </trkpt>
      <trkpt lat="45.26905" lon="4.65668">
        <ele>421.20001220703</ele>
        <time>2022-02-15T08:28:39Z</time>
      </trkpt>
      <trkpt lat="45.26907" lon="4.65674">
        <ele>421.20001220703</ele>
        <time>2022-02-15T08:28:40Z</time>
      </trkpt>
      <trkpt lat="45.26918" lon="4.65713">
        <ele>421.20001220703</ele>
        <time>2022-02-15T08:28:45Z</time>
      </trkpt>
      <trkpt lat="45.26929" lon="4.6574">
        <ele>420.39999389648</ele>
        <time>2022-02-15T08:28:48Z</time>
      </trkpt>
      <trkpt lat="45.26942" lon="4.65761">
        <ele>416.60000610352</ele>
        <time>2022-02-15T08:28:54Z</time>
      </trkpt>
      <trkpt lat="45.26942" lon="4.65762">
        <ele>415.39999389648</ele>
        <time>2022-02-15T08:28:56Z</time>
      </trkpt>
      <trkpt lat="45.26946" lon="4.65766">
        <ele>414.60000610352</ele>
        <time>2022-02-15T08:28:58Z</time>
      </trkpt>
      <trkpt lat="45.26951" lon="4.65745">
        <ele>413.20001220703</ele>
        <time>2022-02-15T08:29:04Z</time>
      </trkpt>
      <trkpt lat="45.2693" lon="4.65667">
        <ele>413</ele>
        <time>2022-02-15T08:29:16Z</time>
      </trkpt>
      <trkpt lat="45.26927" lon="4.65641">
        <ele>413</ele>
        <time>2022-02-15T08:29:19Z</time>
      </trkpt>
      <trkpt lat="45.26924" lon="4.65566">
        <ele>412.60000610352</ele>
        <time>2022-02-15T08:29:27Z</time>
      </trkpt>
      <trkpt lat="45.26924" lon="4.65516">
        <ele>412.20001220703</ele>
        <time>2022-02-15T08:29:32Z</time>
      </trkpt>
      <trkpt lat="45.26903" lon="4.65368">
        <ele>409.20001220703</ele>
        <time>2022-02-15T08:29:48Z</time>
      </trkpt>
      <trkpt lat="45.26899" lon="4.65315">
        <ele>408.79998779297</ele>
        <time>2022-02-15T08:29:54Z</time>
      </trkpt>
      <trkpt lat="45.26893" lon="4.65272">
        <ele>407.60000610352</ele>
        <time>2022-02-15T08:30:02Z</time>
      </trkpt>
      <trkpt lat="45.26893" lon="4.65236">
        <ele>407.20001220703</ele>
        <time>2022-02-15T08:30:08Z</time>
      </trkpt>
      <trkpt lat="45.26904" lon="4.65121">
        <ele>406.20001220703</ele>
        <time>2022-02-15T08:30:24Z</time>
      </trkpt>
      <trkpt lat="45.26917" lon="4.65078">
        <ele>406.20001220703</ele>
        <time>2022-02-15T08:30:31Z</time>
      </trkpt>
      <trkpt lat="45.26954" lon="4.6499">
        <ele>406.60000610352</ele>
        <time>2022-02-15T08:30:43Z</time>
      </trkpt>
      <trkpt lat="45.2698" lon="4.64941">
        <ele>406.79998779297</ele>
        <time>2022-02-15T08:30:50Z</time>
      </trkpt>
      <trkpt lat="45.2699" lon="4.64929">
        <ele>406.79998779297</ele>
        <time>2022-02-15T08:30:52Z</time>
      </trkpt>
      <trkpt lat="45.27011" lon="4.64909">
        <ele>407</ele>
        <time>2022-02-15T08:30:57Z</time>
      </trkpt>
      <trkpt lat="45.2704" lon="4.64889">
        <ele>407.39999389648</ele>
        <time>2022-02-15T08:31:06Z</time>
      </trkpt>
      <trkpt lat="45.27045" lon="4.64876">
        <ele>408.39999389648</ele>
        <time>2022-02-15T08:31:11Z</time>
      </trkpt>
      <trkpt lat="45.27045" lon="4.64858">
        <ele>409</ele>
        <time>2022-02-15T08:31:14Z</time>
      </trkpt>
      <trkpt lat="45.27041" lon="4.64832">
        <ele>409.20001220703</ele>
        <time>2022-02-15T08:31:18Z</time>
      </trkpt>
      <trkpt lat="45.2704" lon="4.6481">
        <ele>409.20001220703</ele>
        <time>2022-02-15T08:31:21Z</time>
      </trkpt>
      <trkpt lat="45.2704" lon="4.64798">
        <ele>409</ele>
        <time>2022-02-15T08:31:23Z</time>
      </trkpt>
      <trkpt lat="45.27032" lon="4.64773">
        <ele>408.39999389648</ele>
        <time>2022-02-15T08:31:28Z</time>
      </trkpt>
      <trkpt lat="45.27011" lon="4.64717">
        <ele>408</ele>
        <time>2022-02-15T08:31:38Z</time>
      </trkpt>
      <trkpt lat="45.27" lon="4.64684">
        <ele>408.79998779297</ele>
        <time>2022-02-15T08:31:44Z</time>
      </trkpt>
      <trkpt lat="45.26978" lon="4.64636">
        <ele>410</ele>
        <time>2022-02-15T08:31:54Z</time>
      </trkpt>
      <trkpt lat="45.26984" lon="4.64611">
        <ele>410.39999389648</ele>
        <time>2022-02-15T08:31:58Z</time>
      </trkpt>
      <trkpt lat="45.26994" lon="4.64578">
        <ele>410.39999389648</ele>
        <time>2022-02-15T08:32:03Z</time>
      </trkpt>
      <trkpt lat="45.26987" lon="4.64557">
        <ele>410.39999389648</ele>
        <time>2022-02-15T08:32:07Z</time>
      </trkpt>
      <trkpt lat="45.26951" lon="4.64506">
        <ele>410.39999389648</ele>
        <time>2022-02-15T08:32:19Z</time>
      </trkpt>
      <trkpt lat="45.26929" lon="4.64474">
        <ele>411</ele>
        <time>2022-02-15T08:32:32Z</time>
      </trkpt>
      <trkpt lat="45.26925" lon="4.64473">
        <ele>411</ele>
        <time>2022-02-15T08:32:35Z</time>
      </trkpt>
      <trkpt lat="45.26919" lon="4.64477">
        <ele>411</ele>
        <time>2022-02-15T08:32:40Z</time>
      </trkpt>
      <trkpt lat="45.26917" lon="4.64502">
        <ele>411.20001220703</ele>
        <time>2022-02-15T08:32:50Z</time>
      </trkpt>
      <trkpt lat="45.26916" lon="4.64527">
        <ele>413.79998779297</ele>
        <time>2022-02-15T08:33:00Z</time>
      </trkpt>
      <trkpt lat="45.26915" lon="4.64535">
        <ele>414.20001220703</ele>
        <time>2022-02-15T08:33:03Z</time>
      </trkpt>
      <trkpt lat="45.26916" lon="4.64567">
        <ele>415.79998779297</ele>
        <time>2022-02-15T08:33:15Z</time>
      </trkpt>
      <trkpt lat="45.26916" lon="4.64598">
        <ele>418</ele>
        <time>2022-02-15T08:33:27Z</time>
      </trkpt>
      <trkpt lat="45.26908" lon="4.64629">
        <ele>420.20001220703</ele>
        <time>2022-02-15T08:33:41Z</time>
      </trkpt>
      <trkpt lat="45.26895" lon="4.6466">
        <ele>422</ele>
        <time>2022-02-15T08:33:57Z</time>
      </trkpt>
      <trkpt lat="45.26879" lon="4.64691">
        <ele>424.79998779297</ele>
        <time>2022-02-15T08:34:14Z</time>
      </trkpt>
      <trkpt lat="45.26864" lon="4.6471">
        <ele>427</ele>
        <time>2022-02-15T08:34:28Z</time>
      </trkpt>
      <trkpt lat="45.26852" lon="4.64727">
        <ele>429.20001220703</ele>
        <time>2022-02-15T08:34:40Z</time>
      </trkpt>
      <trkpt lat="45.26849" lon="4.64735">
        <ele>430.20001220703</ele>
        <time>2022-02-15T08:34:45Z</time>
      </trkpt>
      <trkpt lat="45.26844" lon="4.6475">
        <ele>431.20001220703</ele>
        <time>2022-02-15T08:34:53Z</time>
      </trkpt>
      <trkpt lat="45.26837" lon="4.64767">
        <ele>433.20001220703</ele>
        <time>2022-02-15T08:35:00Z</time>
      </trkpt>
      <trkpt lat="45.26832" lon="4.64774">
        <ele>434.20001220703</ele>
        <time>2022-02-15T08:35:04Z</time>
      </trkpt>
      <trkpt lat="45.26829" lon="4.64781">
        <ele>435.79998779297</ele>
        <time>2022-02-15T08:35:08Z</time>
      </trkpt>
      <trkpt lat="45.26823" lon="4.64792">
        <ele>437.60000610352</ele>
        <time>2022-02-15T08:35:13Z</time>
      </trkpt>
      <trkpt lat="45.26814" lon="4.64804">
        <ele>439.60000610352</ele>
        <time>2022-02-15T08:35:20Z</time>
      </trkpt>
      <trkpt lat="45.26813" lon="4.6481">
        <ele>440.39999389648</ele>
        <time>2022-02-15T08:35:23Z</time>
      </trkpt>
      <trkpt lat="45.26806" lon="4.6482">
        <ele>441.60000610352</ele>
        <time>2022-02-15T08:35:30Z</time>
      </trkpt>
      <trkpt lat="45.26797" lon="4.64834">
        <ele>443.39999389648</ele>
        <time>2022-02-15T08:35:39Z</time>
      </trkpt>
      <trkpt lat="45.26792" lon="4.64843">
        <ele>444</ele>
        <time>2022-02-15T08:35:44Z</time>
      </trkpt>
      <trkpt lat="45.26786" lon="4.64852">
        <ele>444.39999389648</ele>
        <time>2022-02-15T08:35:48Z</time>
      </trkpt>
      <trkpt lat="45.26782" lon="4.64857">
        <ele>444.39999389648</ele>
        <time>2022-02-15T08:35:50Z</time>
      </trkpt>
      <trkpt lat="45.26777" lon="4.64869">
        <ele>444.39999389648</ele>
        <time>2022-02-15T08:35:54Z</time>
      </trkpt>
      <trkpt lat="45.26763" lon="4.64903">
        <ele>444.60000610352</ele>
        <time>2022-02-15T08:36:03Z</time>
      </trkpt>
      <trkpt lat="45.2676" lon="4.64917">
        <ele>444.79998779297</ele>
        <time>2022-02-15T08:36:07Z</time>
      </trkpt>
      <trkpt lat="45.26753" lon="4.64951">
        <ele>445</ele>
        <time>2022-02-15T08:36:15Z</time>
      </trkpt>
      <trkpt lat="45.26752" lon="4.64975">
        <ele>445.20001220703</ele>
        <time>2022-02-15T08:36:21Z</time>
      </trkpt>
      <trkpt lat="45.26758" lon="4.65036">
        <ele>445.20001220703</ele>
        <time>2022-02-15T08:36:31Z</time>
      </trkpt>
      <trkpt lat="45.26762" lon="4.65047">
        <ele>445.20001220703</ele>
        <time>2022-02-15T08:36:33Z</time>
      </trkpt>
      <trkpt lat="45.26744" lon="4.65088">
        <ele>444.79998779297</ele>
        <time>2022-02-15T08:36:45Z</time>
      </trkpt>
      <trkpt lat="45.26722" lon="4.65103">
        <ele>444.79998779297</ele>
        <time>2022-02-15T08:36:50Z</time>
      </trkpt>
      <trkpt lat="45.26656" lon="4.65152">
        <ele>442.39999389648</ele>
        <time>2022-02-15T08:37:03Z</time>
      </trkpt>
      <trkpt lat="45.26632" lon="4.65159">
        <ele>442</ele>
        <time>2022-02-15T08:37:08Z</time>
      </trkpt>
      <trkpt lat="45.26604" lon="4.65174">
        <ele>441.79998779297</ele>
        <time>2022-02-15T08:37:14Z</time>
      </trkpt>
      <trkpt lat="45.266" lon="4.65175">
        <ele>441.79998779297</ele>
        <time>2022-02-15T08:37:15Z</time>
      </trkpt>
      <trkpt lat="45.26539" lon="4.65189">
        <ele>442.20001220703</ele>
        <time>2022-02-15T08:37:30Z</time>
      </trkpt>
      <trkpt lat="45.26492" lon="4.65197">
        <ele>442</ele>
        <time>2022-02-15T08:37:43Z</time>
      </trkpt>
      <trkpt lat="45.26471" lon="4.652">
        <ele>442</ele>
        <time>2022-02-15T08:37:48Z</time>
      </trkpt>
      <trkpt lat="45.26415" lon="4.65196">
        <ele>441</ele>
        <time>2022-02-15T08:37:58Z</time>
      </trkpt>
      <trkpt lat="45.26387" lon="4.65199">
        <ele>440.79998779297</ele>
        <time>2022-02-15T08:38:04Z</time>
      </trkpt>
      <trkpt lat="45.26387" lon="4.65202">
        <ele>440.79998779297</ele>
        <time>2022-02-15T08:38:05Z</time>
      </trkpt>
      <trkpt lat="45.26387" lon="4.65208">
        <ele>440.60000610352</ele>
        <time>2022-02-15T08:38:07Z</time>
      </trkpt>
      <trkpt lat="45.26396" lon="4.6522">
        <ele>440.39999389648</ele>
        <time>2022-02-15T08:38:14Z</time>
      </trkpt>
      <trkpt lat="45.26411" lon="4.6526">
        <ele>441.79998779297</ele>
        <time>2022-02-15T08:38:25Z</time>
      </trkpt>
      <trkpt lat="45.26444" lon="4.6534">
        <ele>443.39999389648</ele>
        <time>2022-02-15T08:38:43Z</time>
      </trkpt>
      <trkpt lat="45.26463" lon="4.6538">
        <ele>445.20001220703</ele>
        <time>2022-02-15T08:38:56Z</time>
      </trkpt>
      <trkpt lat="45.2648" lon="4.65423">
        <ele>447.20001220703</ele>
        <time>2022-02-15T08:39:09Z</time>
      </trkpt>
      <trkpt lat="45.26482" lon="4.65425">
        <ele>447.60000610352</ele>
        <time>2022-02-15T08:39:10Z</time>
      </trkpt>
      <trkpt lat="45.26486" lon="4.65441">
        <ele>448.60000610352</ele>
        <time>2022-02-15T08:39:15Z</time>
      </trkpt>
      <trkpt lat="45.26491" lon="4.65453">
        <ele>449.60000610352</ele>
        <time>2022-02-15T08:39:20Z</time>
      </trkpt>
      <trkpt lat="45.26491" lon="4.65496">
        <ele>452.39999389648</ele>
        <time>2022-02-15T08:39:37Z</time>
      </trkpt>
      <trkpt lat="45.26477" lon="4.65515">
        <ele>455</ele>
        <time>2022-02-15T08:39:50Z</time>
      </trkpt>
      <trkpt lat="45.26465" lon="4.65535">
        <ele>457.60000610352</ele>
        <time>2022-02-15T08:40:02Z</time>
      </trkpt>
      <trkpt lat="45.26452" lon="4.65563">
        <ele>460.20001220703</ele>
        <time>2022-02-15T08:40:17Z</time>
      </trkpt>
      <trkpt lat="45.26438" lon="4.65588">
        <ele>463.20001220703</ele>
        <time>2022-02-15T08:40:32Z</time>
      </trkpt>
      <trkpt lat="45.26423" lon="4.65601">
        <ele>465.20001220703</ele>
        <time>2022-02-15T08:40:44Z</time>
      </trkpt>
      <trkpt lat="45.26401" lon="4.65618">
        <ele>467.79998779297</ele>
        <time>2022-02-15T08:41:00Z</time>
      </trkpt>
      <trkpt lat="45.2638" lon="4.65634">
        <ele>469.20001220703</ele>
        <time>2022-02-15T08:41:14Z</time>
      </trkpt>
      <trkpt lat="45.26352" lon="4.65647">
        <ele>471.79998779297</ele>
        <time>2022-02-15T08:41:31Z</time>
      </trkpt>
      <trkpt lat="45.26322" lon="4.65661">
        <ele>473.60000610352</ele>
        <time>2022-02-15T08:41:48Z</time>
      </trkpt>
      <trkpt lat="45.2631" lon="4.65686">
        <ele>475.20001220703</ele>
        <time>2022-02-15T08:42:00Z</time>
      </trkpt>
      <trkpt lat="45.26298" lon="4.6574">
        <ele>475.79998779297</ele>
        <time>2022-02-15T08:42:12Z</time>
      </trkpt>
      <trkpt lat="45.26289" lon="4.65784">
        <ele>476</ele>
        <time>2022-02-15T08:42:19Z</time>
      </trkpt>
      <trkpt lat="45.26285" lon="4.65815">
        <ele>475.79998779297</ele>
        <time>2022-02-15T08:42:23Z</time>
      </trkpt>
      <trkpt lat="45.26272" lon="4.65846">
        <ele>475.20001220703</ele>
        <time>2022-02-15T08:42:27Z</time>
      </trkpt>
      <trkpt lat="45.26231" lon="4.65909">
        <ele>473</ele>
        <time>2022-02-15T08:42:35Z</time>
      </trkpt>
      <trkpt lat="45.26177" lon="4.65945">
        <ele>469.60000610352</ele>
        <time>2022-02-15T08:42:42Z</time>
      </trkpt>
      <trkpt lat="45.26128" lon="4.65976">
        <ele>467.20001220703</ele>
        <time>2022-02-15T08:42:48Z</time>
      </trkpt>
      <trkpt lat="45.26094" lon="4.6599">
        <ele>465.39999389648</ele>
        <time>2022-02-15T08:42:52Z</time>
      </trkpt>
      <trkpt lat="45.26068" lon="4.66015">
        <ele>464.39999389648</ele>
        <time>2022-02-15T08:42:56Z</time>
      </trkpt>
      <trkpt lat="45.26005" lon="4.66097">
        <ele>462.20001220703</ele>
        <time>2022-02-15T08:43:08Z</time>
      </trkpt>
      <trkpt lat="45.25982" lon="4.66094">
        <ele>462.20001220703</ele>
        <time>2022-02-15T08:43:13Z</time>
      </trkpt>
      <trkpt lat="45.25958" lon="4.66063">
        <ele>464.60000610352</ele>
        <time>2022-02-15T08:43:22Z</time>
      </trkpt>
      <trkpt lat="45.25943" lon="4.66026">
        <ele>467.60000610352</ele>
        <time>2022-02-15T08:43:33Z</time>
      </trkpt>
      <trkpt lat="45.25929" lon="4.65983">
        <ele>470.39999389648</ele>
        <time>2022-02-15T08:43:46Z</time>
      </trkpt>
      <trkpt lat="45.25916" lon="4.65947">
        <ele>473.39999389648</ele>
        <time>2022-02-15T08:43:58Z</time>
      </trkpt>
      <trkpt lat="45.25897" lon="4.65909">
        <ele>476.39999389648</ele>
        <time>2022-02-15T08:44:12Z</time>
      </trkpt>
      <trkpt lat="45.25856" lon="4.65913">
        <ele>478</ele>
        <time>2022-02-15T08:44:26Z</time>
      </trkpt>
      <trkpt lat="45.258" lon="4.65921">
        <ele>478.60000610352</ele>
        <time>2022-02-15T08:44:43Z</time>
      </trkpt>
      <trkpt lat="45.25731" lon="4.65923">
        <ele>478</ele>
        <time>2022-02-15T08:44:58Z</time>
      </trkpt>
      <trkpt lat="45.25707" lon="4.65895">
        <ele>477.79998779297</ele>
        <time>2022-02-15T08:45:05Z</time>
      </trkpt>
      <trkpt lat="45.25668" lon="4.65837">
        <ele>478.79998779297</ele>
        <time>2022-02-15T08:45:20Z</time>
      </trkpt>
      <trkpt lat="45.25601" lon="4.65759">
        <ele>480.79998779297</ele>
        <time>2022-02-15T08:45:43Z</time>
      </trkpt>
      <trkpt lat="45.25552" lon="4.65702">
        <ele>483.79998779297</ele>
        <time>2022-02-15T08:46:01Z</time>
      </trkpt>
      <trkpt lat="45.25517" lon="4.65661">
        <ele>486.79998779297</ele>
        <time>2022-02-15T08:46:16Z</time>
      </trkpt>
      <trkpt lat="45.25486" lon="4.65618">
        <ele>489.20001220703</ele>
        <time>2022-02-15T08:46:30Z</time>
      </trkpt>
      <trkpt lat="45.25454" lon="4.65577">
        <ele>491.60000610352</ele>
        <time>2022-02-15T08:46:44Z</time>
      </trkpt>
      <trkpt lat="45.25421" lon="4.65536">
        <ele>494.79998779297</ele>
        <time>2022-02-15T08:46:58Z</time>
      </trkpt>
      <trkpt lat="45.2539" lon="4.65509">
        <ele>497.60000610352</ele>
        <time>2022-02-15T08:47:10Z</time>
      </trkpt>
      <trkpt lat="45.2537" lon="4.65488">
        <ele>499.20001220703</ele>
        <time>2022-02-15T08:47:18Z</time>
      </trkpt>
      <trkpt lat="45.25342" lon="4.65457">
        <ele>500.39999389648</ele>
        <time>2022-02-15T08:47:28Z</time>
      </trkpt>
      <trkpt lat="45.25307" lon="4.65418">
        <ele>501.39999389648</ele>
        <time>2022-02-15T08:47:40Z</time>
      </trkpt>
      <trkpt lat="45.25273" lon="4.65371">
        <ele>502.39999389648</ele>
        <time>2022-02-15T08:47:53Z</time>
      </trkpt>
      <trkpt lat="45.25232" lon="4.65294">
        <ele>505.20001220703</ele>
        <time>2022-02-15T08:48:13Z</time>
      </trkpt>
      <trkpt lat="45.25198" lon="4.65232">
        <ele>507.60000610352</ele>
        <time>2022-02-15T08:48:29Z</time>
      </trkpt>
      <trkpt lat="45.25173" lon="4.65189">
        <ele>509.39999389648</ele>
        <time>2022-02-15T08:48:41Z</time>
      </trkpt>
      <trkpt lat="45.25151" lon="4.6514">
        <ele>511.60000610352</ele>
        <time>2022-02-15T08:48:54Z</time>
      </trkpt>
      <trkpt lat="45.25143" lon="4.65113">
        <ele>512.40002441406</ele>
        <time>2022-02-15T08:49:00Z</time>
      </trkpt>
      <trkpt lat="45.25124" lon="4.65075">
        <ele>513.20001220703</ele>
        <time>2022-02-15T08:49:09Z</time>
      </trkpt>
      <trkpt lat="45.25113" lon="4.65041">
        <ele>513.79998779297</ele>
        <time>2022-02-15T08:49:17Z</time>
      </trkpt>
      <trkpt lat="45.25087" lon="4.65003">
        <ele>515.20001220703</ele>
        <time>2022-02-15T08:49:28Z</time>
      </trkpt>
      <trkpt lat="45.25074" lon="4.64988">
        <ele>515.20001220703</ele>
        <time>2022-02-15T08:49:32Z</time>
      </trkpt>
      <trkpt lat="45.25054" lon="4.64968">
        <ele>514.79998779297</ele>
        <time>2022-02-15T08:49:37Z</time>
      </trkpt>
      <trkpt lat="45.25027" lon="4.64936">
        <ele>513.79998779297</ele>
        <time>2022-02-15T08:49:43Z</time>
      </trkpt>
      <trkpt lat="45.25008" lon="4.64907">
        <ele>512.59997558594</ele>
        <time>2022-02-15T08:49:47Z</time>
      </trkpt>
      <trkpt lat="45.24976" lon="4.64839">
        <ele>510.20001220703</ele>
        <time>2022-02-15T08:49:55Z</time>
      </trkpt>
      <trkpt lat="45.24947" lon="4.64781">
        <ele>509</ele>
        <time>2022-02-15T08:50:03Z</time>
      </trkpt>
      <trkpt lat="45.24944" lon="4.64767">
        <ele>508.79998779297</ele>
        <time>2022-02-15T08:50:05Z</time>
      </trkpt>
      <trkpt lat="45.24932" lon="4.6473">
        <ele>508.79998779297</ele>
        <time>2022-02-15T08:50:10Z</time>
      </trkpt>
      <trkpt lat="45.24929" lon="4.64717">
        <ele>509</ele>
        <time>2022-02-15T08:50:12Z</time>
      </trkpt>
      <trkpt lat="45.24921" lon="4.64699">
        <ele>509.20001220703</ele>
        <time>2022-02-15T08:50:15Z</time>
      </trkpt>
      <trkpt lat="45.24907" lon="4.64677">
        <ele>509.79998779297</ele>
        <time>2022-02-15T08:50:20Z</time>
      </trkpt>
      <trkpt lat="45.24879" lon="4.6462">
        <ele>511.79998779297</ele>
        <time>2022-02-15T08:50:33Z</time>
      </trkpt>
      <trkpt lat="45.24845" lon="4.64574">
        <ele>514.20001220703</ele>
        <time>2022-02-15T08:50:47Z</time>
      </trkpt>
      <trkpt lat="45.24827" lon="4.64567">
        <ele>515</ele>
        <time>2022-02-15T08:50:53Z</time>
      </trkpt>
      <trkpt lat="45.24796" lon="4.64555">
        <ele>516.79998779297</ele>
        <time>2022-02-15T08:51:03Z</time>
      </trkpt>
      <trkpt lat="45.24771" lon="4.64547">
        <ele>517.59997558594</ele>
        <time>2022-02-15T08:51:12Z</time>
      </trkpt>
      <trkpt lat="45.2474" lon="4.64528">
        <ele>518.20001220703</ele>
        <time>2022-02-15T08:51:24Z</time>
      </trkpt>
      <trkpt lat="45.24715" lon="4.64499">
        <ele>519.59997558594</ele>
        <time>2022-02-15T08:51:35Z</time>
      </trkpt>
      <trkpt lat="45.247" lon="4.6447">
        <ele>522.59997558594</ele>
        <time>2022-02-15T08:51:46Z</time>
      </trkpt>
      <trkpt lat="45.24685" lon="4.64441">
        <ele>525.59997558594</ele>
        <time>2022-02-15T08:51:57Z</time>
      </trkpt>
      <trkpt lat="45.24665" lon="4.6441">
        <ele>528.59997558594</ele>
        <time>2022-02-15T08:52:09Z</time>
      </trkpt>
      <trkpt lat="45.24634" lon="4.64372">
        <ele>530.40002441406</ele>
        <time>2022-02-15T08:52:24Z</time>
      </trkpt>
      <trkpt lat="45.24599" lon="4.64329">
        <ele>532.20001220703</ele>
        <time>2022-02-15T08:52:40Z</time>
      </trkpt>
      <trkpt lat="45.24573" lon="4.64289">
        <ele>533.59997558594</ele>
        <time>2022-02-15T08:52:55Z</time>
      </trkpt>
      <trkpt lat="45.2455" lon="4.6424">
        <ele>534.59997558594</ele>
        <time>2022-02-15T08:53:08Z</time>
      </trkpt>
      <trkpt lat="45.24534" lon="4.64174">
        <ele>534.40002441406</ele>
        <time>2022-02-15T08:53:23Z</time>
      </trkpt>
      <trkpt lat="45.24523" lon="4.64147">
        <ele>534.40002441406</ele>
        <time>2022-02-15T08:53:28Z</time>
      </trkpt>
      <trkpt lat="45.24506" lon="4.64111">
        <ele>533.59997558594</ele>
        <time>2022-02-15T08:53:34Z</time>
      </trkpt>
      <trkpt lat="45.24484" lon="4.64082">
        <ele>532.59997558594</ele>
        <time>2022-02-15T08:53:39Z</time>
      </trkpt>
      <trkpt lat="45.24465" lon="4.6406">
        <ele>532</ele>
        <time>2022-02-15T08:53:43Z</time>
      </trkpt>
      <trkpt lat="45.24447" lon="4.64009">
        <ele>530.59997558594</ele>
        <time>2022-02-15T08:53:49Z</time>
      </trkpt>
      <trkpt lat="45.24462" lon="4.63988">
        <ele>527.40002441406</ele>
        <time>2022-02-15T08:53:54Z</time>
      </trkpt>
      <trkpt lat="45.24474" lon="4.63987">
        <ele>526</ele>
        <time>2022-02-15T08:53:56Z</time>
      </trkpt>
      <trkpt lat="45.24479" lon="4.63987">
        <ele>525.79998779297</ele>
        <time>2022-02-15T08:53:57Z</time>
      </trkpt>
      <trkpt lat="45.24517" lon="4.6399">
        <ele>524.59997558594</ele>
        <time>2022-02-15T08:54:05Z</time>
      </trkpt>
      <trkpt lat="45.24547" lon="4.63978">
        <ele>524.20001220703</ele>
        <time>2022-02-15T08:54:11Z</time>
      </trkpt>
      <trkpt lat="45.24563" lon="4.63965">
        <ele>524.20001220703</ele>
        <time>2022-02-15T08:54:14Z</time>
      </trkpt>
      <trkpt lat="45.24576" lon="4.6395">
        <ele>523.20001220703</ele>
        <time>2022-02-15T08:54:17Z</time>
      </trkpt>
      <trkpt lat="45.2459" lon="4.6394">
        <ele>522</ele>
        <time>2022-02-15T08:54:20Z</time>
      </trkpt>
      <trkpt lat="45.24605" lon="4.63923">
        <ele>520.79998779297</ele>
        <time>2022-02-15T08:54:23Z</time>
      </trkpt>
      <trkpt lat="45.24618" lon="4.63903">
        <ele>519.59997558594</ele>
        <time>2022-02-15T08:54:26Z</time>
      </trkpt>
      <trkpt lat="45.24648" lon="4.6387">
        <ele>519.20001220703</ele>
        <time>2022-02-15T08:54:34Z</time>
      </trkpt>
      <trkpt lat="45.24671" lon="4.63853">
        <ele>519</ele>
        <time>2022-02-15T08:54:38Z</time>
      </trkpt>
      <trkpt lat="45.247" lon="4.63851">
        <ele>516.59997558594</ele>
        <time>2022-02-15T08:54:43Z</time>
      </trkpt>
      <trkpt lat="45.24707" lon="4.63851">
        <ele>516.20001220703</ele>
        <time>2022-02-15T08:54:44Z</time>
      </trkpt>
      <trkpt lat="45.24746" lon="4.63843">
        <ele>513.59997558594</ele>
        <time>2022-02-15T08:54:49Z</time>
      </trkpt>
      <trkpt lat="45.24762" lon="4.63838">
        <ele>513</ele>
        <time>2022-02-15T08:54:51Z</time>
      </trkpt>
      <trkpt lat="45.24793" lon="4.6385">
        <ele>511</ele>
        <time>2022-02-15T08:54:56Z</time>
      </trkpt>
      <trkpt lat="45.24804" lon="4.63859">
        <ele>510.39999389648</ele>
        <time>2022-02-15T08:54:58Z</time>
      </trkpt>
      <trkpt lat="45.24821" lon="4.63862">
        <ele>509.39999389648</ele>
        <time>2022-02-15T08:55:01Z</time>
      </trkpt>
      <trkpt lat="45.24836" lon="4.63831">
        <ele>508.20001220703</ele>
        <time>2022-02-15T08:55:07Z</time>
      </trkpt>
      <trkpt lat="45.24841" lon="4.63794">
        <ele>508.20001220703</ele>
        <time>2022-02-15T08:55:13Z</time>
      </trkpt>
      <trkpt lat="45.24835" lon="4.63756">
        <ele>507.79998779297</ele>
        <time>2022-02-15T08:55:18Z</time>
      </trkpt>
      <trkpt lat="45.24822" lon="4.63672">
        <ele>506.20001220703</ele>
        <time>2022-02-15T08:55:29Z</time>
      </trkpt>
      <trkpt lat="45.24823" lon="4.63648">
        <ele>505.79998779297</ele>
        <time>2022-02-15T08:55:32Z</time>
      </trkpt>
      <trkpt lat="45.24807" lon="4.63606">
        <ele>505.39999389648</ele>
        <time>2022-02-15T08:55:38Z</time>
      </trkpt>
      <trkpt lat="45.24786" lon="4.63581">
        <ele>504.20001220703</ele>
        <time>2022-02-15T08:55:43Z</time>
      </trkpt>
      <trkpt lat="45.24738" lon="4.63516">
        <ele>504.20001220703</ele>
        <time>2022-02-15T08:55:58Z</time>
      </trkpt>
      <trkpt lat="45.24703" lon="4.63448">
        <ele>506.39999389648</ele>
        <time>2022-02-15T08:56:17Z</time>
      </trkpt>
      <trkpt lat="45.24647" lon="4.6336">
        <ele>505.79998779297</ele>
        <time>2022-02-15T08:56:39Z</time>
      </trkpt>
      <trkpt lat="45.24638" lon="4.63348">
        <ele>505.60000610352</ele>
        <time>2022-02-15T08:56:42Z</time>
      </trkpt>
      <trkpt lat="45.24635" lon="4.63344">
        <ele>505.60000610352</ele>
        <time>2022-02-15T08:56:43Z</time>
      </trkpt>
      <trkpt lat="45.24607" lon="4.63324">
        <ele>505.39999389648</ele>
        <time>2022-02-15T08:56:50Z</time>
      </trkpt>
      <trkpt lat="45.24524" lon="4.63297">
        <ele>502.79998779297</ele>
        <time>2022-02-15T08:57:04Z</time>
      </trkpt>
      <trkpt lat="45.24517" lon="4.63295">
        <ele>502.60000610352</ele>
        <time>2022-02-15T08:57:05Z</time>
      </trkpt>
      <trkpt lat="45.24505" lon="4.6329">
        <ele>502.20001220703</ele>
        <time>2022-02-15T08:57:07Z</time>
      </trkpt>
      <trkpt lat="45.24496" lon="4.63285">
        <ele>500.79998779297</ele>
        <time>2022-02-15T08:57:09Z</time>
      </trkpt>
      <trkpt lat="45.24479" lon="4.63285">
        <ele>499.60000610352</ele>
        <time>2022-02-15T08:57:13Z</time>
      </trkpt>
      <trkpt lat="45.24474" lon="4.63286">
        <ele>499.60000610352</ele>
        <time>2022-02-15T08:57:14Z</time>
      </trkpt>
      <trkpt lat="45.24449" lon="4.63281">
        <ele>498.39999389648</ele>
        <time>2022-02-15T08:57:18Z</time>
      </trkpt>
      <trkpt lat="45.24414" lon="4.63268">
        <ele>495.39999389648</ele>
        <time>2022-02-15T08:57:23Z</time>
      </trkpt>
      <trkpt lat="45.24369" lon="4.63258">
        <ele>491.79998779297</ele>
        <time>2022-02-15T08:57:29Z</time>
      </trkpt>
      <trkpt lat="45.24363" lon="4.63256">
        <ele>491.60000610352</ele>
        <time>2022-02-15T08:57:30Z</time>
      </trkpt>
      <trkpt lat="45.24355" lon="4.6325">
        <ele>490.20001220703</ele>
        <time>2022-02-15T08:57:32Z</time>
      </trkpt>
      <trkpt lat="45.24342" lon="4.63246">
        <ele>488.20001220703</ele>
        <time>2022-02-15T08:57:35Z</time>
      </trkpt>
      <trkpt lat="45.24323" lon="4.63248">
        <ele>486.79998779297</ele>
        <time>2022-02-15T08:57:39Z</time>
      </trkpt>
      <trkpt lat="45.24312" lon="4.6325">
        <ele>486.60000610352</ele>
        <time>2022-02-15T08:57:41Z</time>
      </trkpt>
      <trkpt lat="45.24264" lon="4.63255">
        <ele>483</ele>
        <time>2022-02-15T08:57:50Z</time>
      </trkpt>
      <trkpt lat="45.24227" lon="4.63256">
        <ele>479.60000610352</ele>
        <time>2022-02-15T08:57:56Z</time>
      </trkpt>
      <trkpt lat="45.24191" lon="4.63257">
        <ele>476.20001220703</ele>
        <time>2022-02-15T08:58:02Z</time>
      </trkpt>
      <trkpt lat="45.24173" lon="4.63253">
        <ele>474.20001220703</ele>
        <time>2022-02-15T08:58:05Z</time>
      </trkpt>
      <trkpt lat="45.24163" lon="4.63248">
        <ele>473.20001220703</ele>
        <time>2022-02-15T08:58:07Z</time>
      </trkpt>
      <trkpt lat="45.24154" lon="4.63243">
        <ele>472.20001220703</ele>
        <time>2022-02-15T08:58:09Z</time>
      </trkpt>
      <trkpt lat="45.24136" lon="4.63236">
        <ele>470</ele>
        <time>2022-02-15T08:58:13Z</time>
      </trkpt>
      <trkpt lat="45.24131" lon="4.63234">
        <ele>469.79998779297</ele>
        <time>2022-02-15T08:58:14Z</time>
      </trkpt>
      <trkpt lat="45.2412" lon="4.63231">
        <ele>468.39999389648</ele>
        <time>2022-02-15T08:58:17Z</time>
      </trkpt>
      <trkpt lat="45.24116" lon="4.63232">
        <ele>468</ele>
        <time>2022-02-15T08:58:18Z</time>
      </trkpt>
      <trkpt lat="45.24095" lon="4.63249">
        <ele>465</ele>
        <time>2022-02-15T08:58:24Z</time>
      </trkpt>
      <trkpt lat="45.2409" lon="4.63252">
        <ele>463.79998779297</ele>
        <time>2022-02-15T08:58:26Z</time>
      </trkpt>
      <trkpt lat="45.24086" lon="4.6325">
        <ele>462.79998779297</ele>
        <time>2022-02-15T08:58:28Z</time>
      </trkpt>
      <trkpt lat="45.2408" lon="4.63238">
        <ele>461.39999389648</ele>
        <time>2022-02-15T08:58:31Z</time>
      </trkpt>
      <trkpt lat="45.24073" lon="4.63223">
        <ele>460.79998779297</ele>
        <time>2022-02-15T08:58:34Z</time>
      </trkpt>
      <trkpt lat="45.24065" lon="4.6318">
        <ele>459.60000610352</ele>
        <time>2022-02-15T08:58:40Z</time>
      </trkpt>
      <trkpt lat="45.24045" lon="4.63064">
        <ele>456.60000610352</ele>
        <time>2022-02-15T08:58:52Z</time>
      </trkpt>
      <trkpt lat="45.24027" lon="4.63023">
        <ele>455.39999389648</ele>
        <time>2022-02-15T08:58:57Z</time>
      </trkpt>
      <trkpt lat="45.24017" lon="4.63002">
        <ele>455</ele>
        <time>2022-02-15T08:59:00Z</time>
      </trkpt>
      <trkpt lat="45.23997" lon="4.62972">
        <ele>454</ele>
        <time>2022-02-15T08:59:05Z</time>
      </trkpt>
      <trkpt lat="45.23974" lon="4.62933">
        <ele>453.60000610352</ele>
        <time>2022-02-15T08:59:11Z</time>
      </trkpt>
      <trkpt lat="45.23968" lon="4.62919">
        <ele>453.39999389648</ele>
        <time>2022-02-15T08:59:13Z</time>
      </trkpt>
      <trkpt lat="45.23952" lon="4.62877">
        <ele>452.20001220703</ele>
        <time>2022-02-15T08:59:19Z</time>
      </trkpt>
      <trkpt lat="45.2394" lon="4.62843">
        <ele>452.20001220703</ele>
        <time>2022-02-15T08:59:24Z</time>
      </trkpt>
      <trkpt lat="45.23926" lon="4.62815">
        <ele>451.79998779297</ele>
        <time>2022-02-15T08:59:28Z</time>
      </trkpt>
      <trkpt lat="45.23915" lon="4.6274">
        <ele>448.39999389648</ele>
        <time>2022-02-15T08:59:37Z</time>
      </trkpt>
      <trkpt lat="45.23926" lon="4.627">
        <ele>444.79998779297</ele>
        <time>2022-02-15T08:59:42Z</time>
      </trkpt>
      <trkpt lat="45.23935" lon="4.62677">
        <ele>443</ele>
        <time>2022-02-15T08:59:46Z</time>
      </trkpt>
      <trkpt lat="45.23943" lon="4.62662">
        <ele>441.39999389648</ele>
        <time>2022-02-15T08:59:49Z</time>
      </trkpt>
      <trkpt lat="45.23956" lon="4.6265">
        <ele>440</ele>
        <time>2022-02-15T08:59:53Z</time>
      </trkpt>
      <trkpt lat="45.23965" lon="4.62644">
        <ele>438.79998779297</ele>
        <time>2022-02-15T08:59:56Z</time>
      </trkpt>
      <trkpt lat="45.23994" lon="4.6263">
        <ele>436.39999389648</ele>
        <time>2022-02-15T09:00:03Z</time>
      </trkpt>
      <trkpt lat="45.24043" lon="4.62623">
        <ele>434.20001220703</ele>
        <time>2022-02-15T09:00:12Z</time>
      </trkpt>
      <trkpt lat="45.24099" lon="4.62646">
        <ele>430.60000610352</ele>
        <time>2022-02-15T09:00:19Z</time>
      </trkpt>
      <trkpt lat="45.24121" lon="4.62654">
        <ele>427.39999389648</ele>
        <time>2022-02-15T09:00:22Z</time>
      </trkpt>
      <trkpt lat="45.24136" lon="4.62659">
        <ele>424.20001220703</ele>
        <time>2022-02-15T09:00:24Z</time>
      </trkpt>
      <trkpt lat="45.24145" lon="4.62666">
        <ele>422.39999389648</ele>
        <time>2022-02-15T09:00:26Z</time>
      </trkpt>
      <trkpt lat="45.24158" lon="4.62659">
        <ele>419.20001220703</ele>
        <time>2022-02-15T09:00:30Z</time>
      </trkpt>
      <trkpt lat="45.24158" lon="4.6265">
        <ele>418.20001220703</ele>
        <time>2022-02-15T09:00:32Z</time>
      </trkpt>
      <trkpt lat="45.24158" lon="4.62611">
        <ele>417</ele>
        <time>2022-02-15T09:00:40Z</time>
      </trkpt>
      <trkpt lat="45.24157" lon="4.6259">
        <ele>417.20001220703</ele>
        <time>2022-02-15T09:00:44Z</time>
      </trkpt>
      <trkpt lat="45.24155" lon="4.62558">
        <ele>417.60000610352</ele>
        <time>2022-02-15T09:00:50Z</time>
      </trkpt>
      <trkpt lat="45.24164" lon="4.6253">
        <ele>417.39999389648</ele>
        <time>2022-02-15T09:00:54Z</time>
      </trkpt>
      <trkpt lat="45.2418" lon="4.62507">
        <ele>416.39999389648</ele>
        <time>2022-02-15T09:00:57Z</time>
      </trkpt>
      <trkpt lat="45.24222" lon="4.62466">
        <ele>413.39999389648</ele>
        <time>2022-02-15T09:01:04Z</time>
      </trkpt>
      <trkpt lat="45.24227" lon="4.62446">
        <ele>411</ele>
        <time>2022-02-15T09:01:08Z</time>
      </trkpt>
      <trkpt lat="45.24212" lon="4.62433">
        <ele>408.79998779297</ele>
        <time>2022-02-15T09:01:17Z</time>
      </trkpt>
      <trkpt lat="45.24165" lon="4.62442">
        <ele>410.39999389648</ele>
        <time>2022-02-15T09:01:33Z</time>
      </trkpt>
      <trkpt lat="45.2416" lon="4.62445">
        <ele>411.20001220703</ele>
        <time>2022-02-15T09:01:36Z</time>
      </trkpt>
      <trkpt lat="45.24143" lon="4.62455">
        <ele>412</ele>
        <time>2022-02-15T09:01:44Z</time>
      </trkpt>
      <trkpt lat="45.24131" lon="4.62461">
        <ele>413.60000610352</ele>
        <time>2022-02-15T09:01:50Z</time>
      </trkpt>
      <trkpt lat="45.24119" lon="4.62464">
        <ele>415.20001220703</ele>
        <time>2022-02-15T09:01:57Z</time>
      </trkpt>
      <trkpt lat="45.24101" lon="4.62452">
        <ele>417.60000610352</ele>
        <time>2022-02-15T09:02:08Z</time>
      </trkpt>
      <trkpt lat="45.24088" lon="4.62423">
        <ele>418.39999389648</ele>
        <time>2022-02-15T09:02:18Z</time>
      </trkpt>
      <trkpt lat="45.24072" lon="4.62398">
        <ele>418.60000610352</ele>
        <time>2022-02-15T09:02:26Z</time>
      </trkpt>
      <trkpt lat="45.24058" lon="4.62379">
        <ele>418.79998779297</ele>
        <time>2022-02-15T09:02:33Z</time>
      </trkpt>
      <trkpt lat="45.24033" lon="4.62363">
        <ele>419.39999389648</ele>
        <time>2022-02-15T09:02:44Z</time>
      </trkpt>
      <trkpt lat="45.2398" lon="4.62355">
        <ele>421</ele>
        <time>2022-02-15T09:02:59Z</time>
      </trkpt>
      <trkpt lat="45.23932" lon="4.62324">
        <ele>421.39999389648</ele>
        <time>2022-02-15T09:03:14Z</time>
      </trkpt>
      <trkpt lat="45.23909" lon="4.62297">
        <ele>421.60000610352</ele>
        <time>2022-02-15T09:03:21Z</time>
      </trkpt>
      <trkpt lat="45.23899" lon="4.62267">
        <ele>421.20001220703</ele>
        <time>2022-02-15T09:03:26Z</time>
      </trkpt>
      <trkpt lat="45.23889" lon="4.62238">
        <ele>420.39999389648</ele>
        <time>2022-02-15T09:03:30Z</time>
      </trkpt>
      <trkpt lat="45.23883" lon="4.62226">
        <ele>419.60000610352</ele>
        <time>2022-02-15T09:03:32Z</time>
      </trkpt>
      <trkpt lat="45.23875" lon="4.6221">
        <ele>419</ele>
        <time>2022-02-15T09:03:35Z</time>
      </trkpt>
      <trkpt lat="45.23866" lon="4.62188">
        <ele>418.79998779297</ele>
        <time>2022-02-15T09:03:39Z</time>
      </trkpt>
      <trkpt lat="45.23856" lon="4.62168">
        <ele>419</ele>
        <time>2022-02-15T09:03:43Z</time>
      </trkpt>
      <trkpt lat="45.23827" lon="4.6211">
        <ele>421.39999389648</ele>
        <time>2022-02-15T09:03:57Z</time>
      </trkpt>
      <trkpt lat="45.23827" lon="4.62068">
        <ele>424</ele>
        <time>2022-02-15T09:04:10Z</time>
      </trkpt>
      <trkpt lat="45.23828" lon="4.62031">
        <ele>427</ele>
        <time>2022-02-15T09:04:22Z</time>
      </trkpt>
      <trkpt lat="45.23821" lon="4.61989">
        <ele>429.60000610352</ele>
        <time>2022-02-15T09:04:37Z</time>
      </trkpt>
      <trkpt lat="45.23824" lon="4.61937">
        <ele>431.20001220703</ele>
        <time>2022-02-15T09:04:50Z</time>
      </trkpt>
      <trkpt lat="45.23816" lon="4.61869">
        <ele>431.60000610352</ele>
        <time>2022-02-15T09:05:04Z</time>
      </trkpt>
      <trkpt lat="45.2381" lon="4.61857">
        <ele>431.79998779297</ele>
        <time>2022-02-15T09:05:07Z</time>
      </trkpt>
      <trkpt lat="45.23764" lon="4.61798">
        <ele>431.60000610352</ele>
        <time>2022-02-15T09:05:21Z</time>
      </trkpt>
      <trkpt lat="45.23732" lon="4.61719">
        <ele>429.60000610352</ele>
        <time>2022-02-15T09:05:30Z</time>
      </trkpt>
      <trkpt lat="45.23721" lon="4.61701">
        <ele>428</ele>
        <time>2022-02-15T09:05:34Z</time>
      </trkpt>
      <trkpt lat="45.23719" lon="4.61699">
        <ele>427.20001220703</ele>
        <time>2022-02-15T09:05:36Z</time>
      </trkpt>
      <trkpt lat="45.23726" lon="4.61702">
        <ele>426</ele>
        <time>2022-02-15T09:05:43Z</time>
      </trkpt>
      <trkpt lat="45.23738" lon="4.6172">
        <ele>427.79998779297</ele>
        <time>2022-02-15T09:05:54Z</time>
      </trkpt>
      <trkpt lat="45.23725" lon="4.61699">
        <ele>428</ele>
        <time>2022-02-15T09:06:01Z</time>
      </trkpt>
      <trkpt lat="45.23728" lon="4.61654">
        <ele>426.79998779297</ele>
        <time>2022-02-15T09:06:07Z</time>
      </trkpt>
      <trkpt lat="45.23778" lon="4.61629">
        <ele>424.39999389648</ele>
        <time>2022-02-15T09:06:14Z</time>
      </trkpt>
      <trkpt lat="45.23806" lon="4.61628">
        <ele>422.20001220703</ele>
        <time>2022-02-15T09:06:17Z</time>
      </trkpt>
      <trkpt lat="45.23816" lon="4.61626">
        <ele>422</ele>
        <time>2022-02-15T09:06:18Z</time>
      </trkpt>
      <trkpt lat="45.23837" lon="4.6162">
        <ele>420.60000610352</ele>
        <time>2022-02-15T09:06:20Z</time>
      </trkpt>
      <trkpt lat="45.23879" lon="4.61604">
        <ele>417.60000610352</ele>
        <time>2022-02-15T09:06:24Z</time>
      </trkpt>
      <trkpt lat="45.23897" lon="4.61595">
        <ele>415.39999389648</ele>
        <time>2022-02-15T09:06:26Z</time>
      </trkpt>
      <trkpt lat="45.23918" lon="4.61579">
        <ele>412</ele>
        <time>2022-02-15T09:06:29Z</time>
      </trkpt>
      <trkpt lat="45.23924" lon="4.61574">
        <ele>411.20001220703</ele>
        <time>2022-02-15T09:06:30Z</time>
      </trkpt>
      <trkpt lat="45.23926" lon="4.61546">
        <ele>408</ele>
        <time>2022-02-15T09:06:34Z</time>
      </trkpt>
      <trkpt lat="45.23904" lon="4.61538">
        <ele>405.79998779297</ele>
        <time>2022-02-15T09:06:38Z</time>
      </trkpt>
      <trkpt lat="45.23899" lon="4.61538">
        <ele>405.60000610352</ele>
        <time>2022-02-15T09:06:39Z</time>
      </trkpt>
      <trkpt lat="45.23893" lon="4.61537">
        <ele>405</ele>
        <time>2022-02-15T09:06:40Z</time>
      </trkpt>
      <trkpt lat="45.23841" lon="4.61535">
        <ele>404.20001220703</ele>
        <time>2022-02-15T09:06:49Z</time>
      </trkpt>
      <trkpt lat="45.23763" lon="4.61499">
        <ele>404</ele>
        <time>2022-02-15T09:07:03Z</time>
      </trkpt>
      <trkpt lat="45.23743" lon="4.61484">
        <ele>404.20001220703</ele>
        <time>2022-02-15T09:07:08Z</time>
      </trkpt>
      <trkpt lat="45.23726" lon="4.61475">
        <ele>404.20001220703</ele>
        <time>2022-02-15T09:07:12Z</time>
      </trkpt>
      <trkpt lat="45.23722" lon="4.61472">
        <ele>404.20001220703</ele>
        <time>2022-02-15T09:07:13Z</time>
      </trkpt>
      <trkpt lat="45.23666" lon="4.61413">
        <ele>404</ele>
        <time>2022-02-15T09:07:27Z</time>
      </trkpt>
      <trkpt lat="45.23662" lon="4.61411">
        <ele>400.39999389648</ele>
        <time>2022-02-15T09:07:37Z</time>
      </trkpt>
      <trkpt lat="45.23662" lon="4.6141">
        <ele>400.39999389648</ele>
        <time>2022-02-15T09:07:38Z</time>
      </trkpt>
      <trkpt lat="45.23659" lon="4.61412">
        <ele>400.20001220703</ele>
        <time>2022-02-15T09:07:40Z</time>
      </trkpt>
      <trkpt lat="45.23659" lon="4.61432">
        <ele>400.20001220703</ele>
        <time>2022-02-15T09:07:45Z</time>
      </trkpt>
      <trkpt lat="45.23665" lon="4.61495">
        <ele>400.60000610352</ele>
        <time>2022-02-15T09:07:55Z</time>
      </trkpt>
      <trkpt lat="45.23644" lon="4.61517">
        <ele>400.20001220703</ele>
        <time>2022-02-15T09:08:01Z</time>
      </trkpt>
      <trkpt lat="45.23604" lon="4.61543">
        <ele>399.20001220703</ele>
        <time>2022-02-15T09:08:07Z</time>
      </trkpt>
      <trkpt lat="45.23583" lon="4.61561">
        <ele>398.39999389648</ele>
        <time>2022-02-15T09:08:10Z</time>
      </trkpt>
      <trkpt lat="45.23558" lon="4.61553">
        <ele>395.20001220703</ele>
        <time>2022-02-15T09:08:15Z</time>
      </trkpt>
      <trkpt lat="45.23524" lon="4.61497">
        <ele>391.39999389648</ele>
        <time>2022-02-15T09:08:21Z</time>
      </trkpt>
      <trkpt lat="45.23479" lon="4.61467">
        <ele>387.79998779297</ele>
        <time>2022-02-15T09:08:26Z</time>
      </trkpt>
      <trkpt lat="45.23469" lon="4.61462">
        <ele>387.60000610352</ele>
        <time>2022-02-15T09:08:27Z</time>
      </trkpt>
      <trkpt lat="45.23435" lon="4.61445">
        <ele>385</ele>
        <time>2022-02-15T09:08:31Z</time>
      </trkpt>
      <trkpt lat="45.23412" lon="4.61434">
        <ele>383.20001220703</ele>
        <time>2022-02-15T09:08:34Z</time>
      </trkpt>
      <trkpt lat="45.23388" lon="4.6142">
        <ele>381.79998779297</ele>
        <time>2022-02-15T09:08:38Z</time>
      </trkpt>
      <trkpt lat="45.23366" lon="4.61398">
        <ele>381</ele>
        <time>2022-02-15T09:08:45Z</time>
      </trkpt>
      <trkpt lat="45.23364" lon="4.61395">
        <ele>381.39999389648</ele>
        <time>2022-02-15T09:08:47Z</time>
      </trkpt>
      <trkpt lat="45.23363" lon="4.6139">
        <ele>383.60000610352</ele>
        <time>2022-02-15T09:08:53Z</time>
      </trkpt>
      <trkpt lat="45.23359" lon="4.61381">
        <ele>385</ele>
        <time>2022-02-15T09:08:57Z</time>
      </trkpt>
      <trkpt lat="45.23358" lon="4.61377">
        <ele>386</ele>
        <time>2022-02-15T09:09:00Z</time>
      </trkpt>
      <trkpt lat="45.23348" lon="4.61353">
        <ele>388.39999389648</ele>
        <time>2022-02-15T09:09:10Z</time>
      </trkpt>
      <trkpt lat="45.23344" lon="4.61343">
        <ele>389.60000610352</ele>
        <time>2022-02-15T09:09:15Z</time>
      </trkpt>
      <trkpt lat="45.23342" lon="4.61342">
        <ele>389.79998779297</ele>
        <time>2022-02-15T09:09:17Z</time>
      </trkpt>
      <trkpt lat="45.23343" lon="4.61342">
        <ele>390.20001220703</ele>
        <time>2022-02-15T09:09:20Z</time>
      </trkpt>
      <trkpt lat="45.23339" lon="4.61338">
        <ele>391.20001220703</ele>
        <time>2022-02-15T09:09:24Z</time>
      </trkpt>
      <trkpt lat="45.23332" lon="4.61332">
        <ele>392.39999389648</ele>
        <time>2022-02-15T09:09:29Z</time>
      </trkpt>
      <trkpt lat="45.23325" lon="4.61325">
        <ele>393</ele>
        <time>2022-02-15T09:09:33Z</time>
      </trkpt>
      <trkpt lat="45.23313" lon="4.61314">
        <ele>394.60000610352</ele>
        <time>2022-02-15T09:09:40Z</time>
      </trkpt>
      <trkpt lat="45.23306" lon="4.61303">
        <ele>395.39999389648</ele>
        <time>2022-02-15T09:09:45Z</time>
      </trkpt>
      <trkpt lat="45.233" lon="4.61293">
        <ele>396.20001220703</ele>
        <time>2022-02-15T09:09:51Z</time>
      </trkpt>
      <trkpt lat="45.233" lon="4.61292">
        <ele>396.39999389648</ele>
        <time>2022-02-15T09:09:52Z</time>
      </trkpt>
      <trkpt lat="45.23295" lon="4.61286">
        <ele>397.79998779297</ele>
        <time>2022-02-15T09:09:58Z</time>
      </trkpt>
      <trkpt lat="45.2329" lon="4.61281">
        <ele>398.60000610352</ele>
        <time>2022-02-15T09:10:02Z</time>
      </trkpt>
      <trkpt lat="45.23278" lon="4.61273">
        <ele>400</ele>
        <time>2022-02-15T09:10:10Z</time>
      </trkpt>
      <trkpt lat="45.23272" lon="4.61268">
        <ele>401</ele>
        <time>2022-02-15T09:10:16Z</time>
      </trkpt>
      <trkpt lat="45.23266" lon="4.61262">
        <ele>402.20001220703</ele>
        <time>2022-02-15T09:10:24Z</time>
      </trkpt>
      <trkpt lat="45.23266" lon="4.61262">
        <ele>402.39999389648</ele>
        <time>2022-02-15T09:14:47Z</time>
      </trkpt>
      <trkpt lat="45.23258" lon="4.61242">
        <ele>401.79998779297</ele>
        <time>2022-02-15T09:18:32Z</time>
      </trkpt>
      <trkpt lat="45.23255" lon="4.61235">
        <ele>402</ele>
        <time>2022-02-15T09:18:34Z</time>
      </trkpt>
      <trkpt lat="45.23252" lon="4.612">
        <ele>403</ele>
        <time>2022-02-15T09:18:43Z</time>
      </trkpt>
      <trkpt lat="45.23249" lon="4.61176">
        <ele>403.79998779297</ele>
        <time>2022-02-15T09:18:51Z</time>
      </trkpt>
      <trkpt lat="45.23244" lon="4.61153">
        <ele>404.20001220703</ele>
        <time>2022-02-15T09:18:58Z</time>
      </trkpt>
      <trkpt lat="45.23242" lon="4.6113">
        <ele>404</ele>
        <time>2022-02-15T09:19:06Z</time>
      </trkpt>
      <trkpt lat="45.23244" lon="4.61128">
        <ele>404.20001220703</ele>
        <time>2022-02-15T09:19:07Z</time>
      </trkpt>
      <trkpt lat="45.23248" lon="4.61125">
        <ele>404.20001220703</ele>
        <time>2022-02-15T09:19:08Z</time>
      </trkpt>
      <trkpt lat="45.2325" lon="4.61106">
        <ele>404.20001220703</ele>
        <time>2022-02-15T09:19:15Z</time>
      </trkpt>
      <trkpt lat="45.23255" lon="4.61066">
        <ele>404.20001220703</ele>
        <time>2022-02-15T09:19:23Z</time>
      </trkpt>
      <trkpt lat="45.23248" lon="4.61024">
        <ele>404</ele>
        <time>2022-02-15T09:19:29Z</time>
      </trkpt>
      <trkpt lat="45.2324" lon="4.61002">
        <ele>404</ele>
        <time>2022-02-15T09:19:33Z</time>
      </trkpt>
      <trkpt lat="45.23231" lon="4.60991">
        <ele>403.79998779297</ele>
        <time>2022-02-15T09:19:36Z</time>
      </trkpt>
      <trkpt lat="45.23209" lon="4.6096">
        <ele>402.60000610352</ele>
        <time>2022-02-15T09:19:43Z</time>
      </trkpt>
      <trkpt lat="45.23206" lon="4.60959">
        <ele>402.60000610352</ele>
        <time>2022-02-15T09:19:44Z</time>
      </trkpt>
      <trkpt lat="45.23201" lon="4.60956">
        <ele>402.60000610352</ele>
        <time>2022-02-15T09:19:47Z</time>
      </trkpt>
      <trkpt lat="45.23192" lon="4.6096">
        <ele>404.60000610352</ele>
        <time>2022-02-15T09:19:53Z</time>
      </trkpt>
      <trkpt lat="45.23188" lon="4.60958">
        <ele>405.20001220703</ele>
        <time>2022-02-15T09:19:56Z</time>
      </trkpt>
      <trkpt lat="45.23178" lon="4.60957">
        <ele>406.79998779297</ele>
        <time>2022-02-15T09:20:01Z</time>
      </trkpt>
      <trkpt lat="45.23174" lon="4.60963">
        <ele>408.20001220703</ele>
        <time>2022-02-15T09:20:06Z</time>
      </trkpt>
      <trkpt lat="45.23173" lon="4.60966">
        <ele>408.60000610352</ele>
        <time>2022-02-15T09:20:08Z</time>
      </trkpt>
      <trkpt lat="45.23179" lon="4.60982">
        <ele>410.60000610352</ele>
        <time>2022-02-15T09:20:18Z</time>
      </trkpt>
      <trkpt lat="45.23182" lon="4.60994">
        <ele>412.39999389648</ele>
        <time>2022-02-15T09:20:28Z</time>
      </trkpt>
      <trkpt lat="45.23183" lon="4.61001">
        <ele>413</ele>
        <time>2022-02-15T09:20:32Z</time>
      </trkpt>
      <trkpt lat="45.23193" lon="4.61013">
        <ele>414.39999389648</ele>
        <time>2022-02-15T09:20:40Z</time>
      </trkpt>
      <trkpt lat="45.23205" lon="4.61023">
        <ele>417</ele>
        <time>2022-02-15T09:20:51Z</time>
      </trkpt>
      <trkpt lat="45.23209" lon="4.61028">
        <ele>417.79998779297</ele>
        <time>2022-02-15T09:20:55Z</time>
      </trkpt>
      <trkpt lat="45.23211" lon="4.6103">
        <ele>418</ele>
        <time>2022-02-15T09:20:57Z</time>
      </trkpt>
      <trkpt lat="45.23217" lon="4.61046">
        <ele>419.20001220703</ele>
        <time>2022-02-15T09:21:03Z</time>
      </trkpt>
      <trkpt lat="45.23209" lon="4.61055">
        <ele>420.79998779297</ele>
        <time>2022-02-15T09:21:13Z</time>
      </trkpt>
      <trkpt lat="45.23205" lon="4.61054">
        <ele>421</ele>
        <time>2022-02-15T09:21:17Z</time>
      </trkpt>
      <trkpt lat="45.23198" lon="4.61055">
        <ele>422.20001220703</ele>
        <time>2022-02-15T09:21:23Z</time>
      </trkpt>
      <trkpt lat="45.23185" lon="4.61055">
        <ele>423.60000610352</ele>
        <time>2022-02-15T09:21:32Z</time>
      </trkpt>
      <trkpt lat="45.23181" lon="4.61057">
        <ele>424.79998779297</ele>
        <time>2022-02-15T09:21:39Z</time>
      </trkpt>
      <trkpt lat="45.23169" lon="4.61054">
        <ele>426</ele>
        <time>2022-02-15T09:21:48Z</time>
      </trkpt>
      <trkpt lat="45.23165" lon="4.61052">
        <ele>426.79998779297</ele>
        <time>2022-02-15T09:21:51Z</time>
      </trkpt>
      <trkpt lat="45.23163" lon="4.61052">
        <ele>427.60000610352</ele>
        <time>2022-02-15T09:21:56Z</time>
      </trkpt>
      <trkpt lat="45.23143" lon="4.61033">
        <ele>429</ele>
        <time>2022-02-15T09:22:05Z</time>
      </trkpt>
      <trkpt lat="45.23139" lon="4.6103">
        <ele>429.39999389648</ele>
        <time>2022-02-15T09:22:07Z</time>
      </trkpt>
      <trkpt lat="45.2314" lon="4.61023">
        <ele>429.79998779297</ele>
        <time>2022-02-15T09:22:10Z</time>
      </trkpt>
      <trkpt lat="45.23138" lon="4.61012">
        <ele>430.79998779297</ele>
        <time>2022-02-15T09:22:15Z</time>
      </trkpt>
      <trkpt lat="45.23136" lon="4.61008">
        <ele>431.20001220703</ele>
        <time>2022-02-15T09:22:17Z</time>
      </trkpt>
      <trkpt lat="45.23132" lon="4.60993">
        <ele>431.79998779297</ele>
        <time>2022-02-15T09:22:23Z</time>
      </trkpt>
      <trkpt lat="45.2313" lon="4.60982">
        <ele>432.60000610352</ele>
        <time>2022-02-15T09:22:29Z</time>
      </trkpt>
      <trkpt lat="45.23123" lon="4.60971">
        <ele>433.39999389648</ele>
        <time>2022-02-15T09:22:35Z</time>
      </trkpt>
      <trkpt lat="45.23112" lon="4.60961">
        <ele>434.39999389648</ele>
        <time>2022-02-15T09:22:43Z</time>
      </trkpt>
      <trkpt lat="45.23105" lon="4.60955">
        <ele>435.39999389648</ele>
        <time>2022-02-15T09:22:48Z</time>
      </trkpt>
      <trkpt lat="45.23095" lon="4.60944">
        <ele>436.60000610352</ele>
        <time>2022-02-15T09:22:57Z</time>
      </trkpt>
      <trkpt lat="45.23083" lon="4.60929">
        <ele>437.20001220703</ele>
        <time>2022-02-15T09:23:06Z</time>
      </trkpt>
      <trkpt lat="45.2308" lon="4.60925">
        <ele>437.79998779297</ele>
        <time>2022-02-15T09:23:09Z</time>
      </trkpt>
      <trkpt lat="45.2307" lon="4.60914">
        <ele>439.39999389648</ele>
        <time>2022-02-15T09:23:16Z</time>
      </trkpt>
      <trkpt lat="45.23061" lon="4.60905">
        <ele>440.60000610352</ele>
        <time>2022-02-15T09:23:24Z</time>
      </trkpt>
      <trkpt lat="45.23049" lon="4.60899">
        <ele>442.60000610352</ele>
        <time>2022-02-15T09:23:32Z</time>
      </trkpt>
      <trkpt lat="45.23037" lon="4.60895">
        <ele>444.79998779297</ele>
        <time>2022-02-15T09:23:42Z</time>
      </trkpt>
      <trkpt lat="45.23025" lon="4.6089">
        <ele>447</ele>
        <time>2022-02-15T09:23:51Z</time>
      </trkpt>
      <trkpt lat="45.23023" lon="4.6089">
        <ele>447.39999389648</ele>
        <time>2022-02-15T09:23:53Z</time>
      </trkpt>
      <trkpt lat="45.23014" lon="4.60881">
        <ele>448.60000610352</ele>
        <time>2022-02-15T09:23:58Z</time>
      </trkpt>
      <trkpt lat="45.23004" lon="4.60876">
        <ele>450.39999389648</ele>
        <time>2022-02-15T09:24:06Z</time>
      </trkpt>
      <trkpt lat="45.22995" lon="4.60871">
        <ele>452</ele>
        <time>2022-02-15T09:24:13Z</time>
      </trkpt>
      <trkpt lat="45.22981" lon="4.60859">
        <ele>454.20001220703</ele>
        <time>2022-02-15T09:24:21Z</time>
      </trkpt>
      <trkpt lat="45.22976" lon="4.60857">
        <ele>454.60000610352</ele>
        <time>2022-02-15T09:24:24Z</time>
      </trkpt>
      <trkpt lat="45.2297" lon="4.60863">
        <ele>455.60000610352</ele>
        <time>2022-02-15T09:24:29Z</time>
      </trkpt>
      <trkpt lat="45.22973" lon="4.60873">
        <ele>456.79998779297</ele>
        <time>2022-02-15T09:24:35Z</time>
      </trkpt>
      <trkpt lat="45.22976" lon="4.60874">
        <ele>457</ele>
        <time>2022-02-15T09:24:37Z</time>
      </trkpt>
      <trkpt lat="45.22986" lon="4.60881">
        <ele>458.79998779297</ele>
        <time>2022-02-15T09:24:46Z</time>
      </trkpt>
      <trkpt lat="45.22996" lon="4.60892">
        <ele>460.20001220703</ele>
        <time>2022-02-15T09:24:55Z</time>
      </trkpt>
      <trkpt lat="45.23006" lon="4.60906">
        <ele>461.20001220703</ele>
        <time>2022-02-15T09:25:04Z</time>
      </trkpt>
      <trkpt lat="45.23017" lon="4.60924">
        <ele>463.60000610352</ele>
        <time>2022-02-15T09:25:14Z</time>
      </trkpt>
      <trkpt lat="45.23022" lon="4.60933">
        <ele>464.39999389648</ele>
        <time>2022-02-15T09:25:21Z</time>
      </trkpt>
      <trkpt lat="45.23032" lon="4.6095">
        <ele>466.60000610352</ele>
        <time>2022-02-15T09:25:32Z</time>
      </trkpt>
      <trkpt lat="45.23041" lon="4.60975">
        <ele>468</ele>
        <time>2022-02-15T09:25:45Z</time>
      </trkpt>
      <trkpt lat="45.23043" lon="4.60979">
        <ele>468.20001220703</ele>
        <time>2022-02-15T09:25:47Z</time>
      </trkpt>
      <trkpt lat="45.23048" lon="4.60997">
        <ele>469.20001220703</ele>
        <time>2022-02-15T09:25:55Z</time>
      </trkpt>
      <trkpt lat="45.23049" lon="4.61">
        <ele>469.20001220703</ele>
        <time>2022-02-15T09:25:56Z</time>
      </trkpt>
      <trkpt lat="45.23051" lon="4.6102">
        <ele>470.20001220703</ele>
        <time>2022-02-15T09:26:06Z</time>
      </trkpt>
      <trkpt lat="45.23052" lon="4.61029">
        <ele>470.60000610352</ele>
        <time>2022-02-15T09:26:09Z</time>
      </trkpt>
      <trkpt lat="45.23053" lon="4.61042">
        <ele>471.60000610352</ele>
        <time>2022-02-15T09:26:15Z</time>
      </trkpt>
      <trkpt lat="45.23051" lon="4.61059">
        <ele>473</ele>
        <time>2022-02-15T09:26:25Z</time>
      </trkpt>
      <trkpt lat="45.23051" lon="4.61061">
        <ele>473.20001220703</ele>
        <time>2022-02-15T09:26:26Z</time>
      </trkpt>
      <trkpt lat="45.23056" lon="4.61083">
        <ele>475</ele>
        <time>2022-02-15T09:26:37Z</time>
      </trkpt>
      <trkpt lat="45.23057" lon="4.61084">
        <ele>475.20001220703</ele>
        <time>2022-02-15T09:26:39Z</time>
      </trkpt>
      <trkpt lat="45.23063" lon="4.61097">
        <ele>476.20001220703</ele>
        <time>2022-02-15T09:26:46Z</time>
      </trkpt>
      <trkpt lat="45.23067" lon="4.61109">
        <ele>477.20001220703</ele>
        <time>2022-02-15T09:26:52Z</time>
      </trkpt>
      <trkpt lat="45.2307" lon="4.61116">
        <ele>477.60000610352</ele>
        <time>2022-02-15T09:26:56Z</time>
      </trkpt>
      <trkpt lat="45.23078" lon="4.61136">
        <ele>478.60000610352</ele>
        <time>2022-02-15T09:27:02Z</time>
      </trkpt>
      <trkpt lat="45.2308" lon="4.61144">
        <ele>479.60000610352</ele>
        <time>2022-02-15T09:27:06Z</time>
      </trkpt>
      <trkpt lat="45.23085" lon="4.61153">
        <ele>480.39999389648</ele>
        <time>2022-02-15T09:27:10Z</time>
      </trkpt>
      <trkpt lat="45.23091" lon="4.61161">
        <ele>481.60000610352</ele>
        <time>2022-02-15T09:27:16Z</time>
      </trkpt>
      <trkpt lat="45.23091" lon="4.61162">
        <ele>481.79998779297</ele>
        <time>2022-02-15T09:27:17Z</time>
      </trkpt>
      <trkpt lat="45.23097" lon="4.61174">
        <ele>483</ele>
        <time>2022-02-15T09:27:22Z</time>
      </trkpt>
      <trkpt lat="45.23103" lon="4.61191">
        <ele>483.79998779297</ele>
        <time>2022-02-15T09:27:29Z</time>
      </trkpt>
      <trkpt lat="45.23105" lon="4.612">
        <ele>484.79998779297</ele>
        <time>2022-02-15T09:27:34Z</time>
      </trkpt>
      <trkpt lat="45.23104" lon="4.61214">
        <ele>485.60000610352</ele>
        <time>2022-02-15T09:27:39Z</time>
      </trkpt>
      <trkpt lat="45.23104" lon="4.61222">
        <ele>486.20001220703</ele>
        <time>2022-02-15T09:27:42Z</time>
      </trkpt>
      <trkpt lat="45.23103" lon="4.61229">
        <ele>486.39999389648</ele>
        <time>2022-02-15T09:27:45Z</time>
      </trkpt>
      <trkpt lat="45.23097" lon="4.61236">
        <ele>487.20001220703</ele>
        <time>2022-02-15T09:27:49Z</time>
      </trkpt>
      <trkpt lat="45.23098" lon="4.6124">
        <ele>487.39999389648</ele>
        <time>2022-02-15T09:27:51Z</time>
      </trkpt>
      <trkpt lat="45.23092" lon="4.61248">
        <ele>488</ele>
        <time>2022-02-15T09:27:55Z</time>
      </trkpt>
      <trkpt lat="45.23085" lon="4.61256">
        <ele>488.79998779297</ele>
        <time>2022-02-15T09:28:03Z</time>
      </trkpt>
      <trkpt lat="45.23081" lon="4.61269">
        <ele>490</ele>
        <time>2022-02-15T09:28:10Z</time>
      </trkpt>
      <trkpt lat="45.23072" lon="4.61276">
        <ele>491</ele>
        <time>2022-02-15T09:28:18Z</time>
      </trkpt>
      <trkpt lat="45.23064" lon="4.61286">
        <ele>492.60000610352</ele>
        <time>2022-02-15T09:28:28Z</time>
      </trkpt>
      <trkpt lat="45.23059" lon="4.61293">
        <ele>494</ele>
        <time>2022-02-15T09:28:39Z</time>
      </trkpt>
      <trkpt lat="45.23046" lon="4.61303">
        <ele>495.79998779297</ele>
        <time>2022-02-15T09:28:47Z</time>
      </trkpt>
      <trkpt lat="45.23032" lon="4.61304">
        <ele>497.20001220703</ele>
        <time>2022-02-15T09:28:52Z</time>
      </trkpt>
      <trkpt lat="45.23031" lon="4.61304">
        <ele>497.60000610352</ele>
        <time>2022-02-15T09:28:54Z</time>
      </trkpt>
      <trkpt lat="45.23016" lon="4.6131">
        <ele>498.79998779297</ele>
        <time>2022-02-15T09:29:00Z</time>
      </trkpt>
      <trkpt lat="45.23014" lon="4.61313">
        <ele>499.20001220703</ele>
        <time>2022-02-15T09:29:02Z</time>
      </trkpt>
      <trkpt lat="45.23014" lon="4.61335">
        <ele>499.79998779297</ele>
        <time>2022-02-15T09:29:05Z</time>
      </trkpt>
      <trkpt lat="45.23013" lon="4.61338">
        <ele>500</ele>
        <time>2022-02-15T09:29:06Z</time>
      </trkpt>
      <trkpt lat="45.22992" lon="4.61348">
        <ele>501</ele>
        <time>2022-02-15T09:29:12Z</time>
      </trkpt>
      <trkpt lat="45.22992" lon="4.61349">
        <ele>501.39999389648</ele>
        <time>2022-02-15T09:29:14Z</time>
      </trkpt>
      <trkpt lat="45.22994" lon="4.61353">
        <ele>501.79998779297</ele>
        <time>2022-02-15T09:29:17Z</time>
      </trkpt>
      <trkpt lat="45.23" lon="4.61362">
        <ele>502.39999389648</ele>
        <time>2022-02-15T09:29:20Z</time>
      </trkpt>
      <trkpt lat="45.23003" lon="4.61372">
        <ele>503.79998779297</ele>
        <time>2022-02-15T09:29:29Z</time>
      </trkpt>
      <trkpt lat="45.23003" lon="4.61373">
        <ele>504.20001220703</ele>
        <time>2022-02-15T09:29:31Z</time>
      </trkpt>
      <trkpt lat="45.23006" lon="4.61379">
        <ele>505</ele>
        <time>2022-02-15T09:29:37Z</time>
      </trkpt>
      <trkpt lat="45.2301" lon="4.61385">
        <ele>505.20001220703</ele>
        <time>2022-02-15T09:29:40Z</time>
      </trkpt>
      <trkpt lat="45.23012" lon="4.61392">
        <ele>506</ele>
        <time>2022-02-15T09:29:46Z</time>
      </trkpt>
      <trkpt lat="45.23012" lon="4.61396">
        <ele>506</ele>
        <time>2022-02-15T09:29:47Z</time>
      </trkpt>
      <trkpt lat="45.23029" lon="4.61419">
        <ele>506.20001220703</ele>
        <time>2022-02-15T09:29:50Z</time>
      </trkpt>
      <trkpt lat="45.23031" lon="4.61424">
        <ele>506.39999389648</ele>
        <time>2022-02-15T09:29:54Z</time>
      </trkpt>
      <trkpt lat="45.23036" lon="4.61444">
        <ele>506.79998779297</ele>
        <time>2022-02-15T09:30:00Z</time>
      </trkpt>
      <trkpt lat="45.23035" lon="4.61448">
        <ele>507.60000610352</ele>
        <time>2022-02-15T09:30:05Z</time>
      </trkpt>
      <trkpt lat="45.23041" lon="4.61461">
        <ele>508.60000610352</ele>
        <time>2022-02-15T09:30:09Z</time>
      </trkpt>
      <trkpt lat="45.23044" lon="4.61464">
        <ele>508.79998779297</ele>
        <time>2022-02-15T09:30:10Z</time>
      </trkpt>
      <trkpt lat="45.23051" lon="4.61477">
        <ele>511</ele>
        <time>2022-02-15T09:30:17Z</time>
      </trkpt>
      <trkpt lat="45.23053" lon="4.61481">
        <ele>511.39999389648</ele>
        <time>2022-02-15T09:30:19Z</time>
      </trkpt>
      <trkpt lat="45.23051" lon="4.61486">
        <ele>513.20001220703</ele>
        <time>2022-02-15T09:30:25Z</time>
      </trkpt>
      <trkpt lat="45.23054" lon="4.61495">
        <ele>514.20001220703</ele>
        <time>2022-02-15T09:30:30Z</time>
      </trkpt>
      <trkpt lat="45.23057" lon="4.61505">
        <ele>514.79998779297</ele>
        <time>2022-02-15T09:30:34Z</time>
      </trkpt>
      <trkpt lat="45.23063" lon="4.61533">
        <ele>516.20001220703</ele>
        <time>2022-02-15T09:30:46Z</time>
      </trkpt>
      <trkpt lat="45.23063" lon="4.61542">
        <ele>516.59997558594</ele>
        <time>2022-02-15T09:30:49Z</time>
      </trkpt>
      <trkpt lat="45.2306" lon="4.61549">
        <ele>517</ele>
        <time>2022-02-15T09:30:52Z</time>
      </trkpt>
      <trkpt lat="45.23057" lon="4.61554">
        <ele>518.20001220703</ele>
        <time>2022-02-15T09:30:56Z</time>
      </trkpt>
      <trkpt lat="45.23046" lon="4.61553">
        <ele>520.20001220703</ele>
        <time>2022-02-15T09:31:04Z</time>
      </trkpt>
      <trkpt lat="45.23037" lon="4.61531">
        <ele>521.79998779297</ele>
        <time>2022-02-15T09:31:15Z</time>
      </trkpt>
      <trkpt lat="45.23026" lon="4.61507">
        <ele>522.79998779297</ele>
        <time>2022-02-15T09:31:27Z</time>
      </trkpt>
      <trkpt lat="45.23021" lon="4.61496">
        <ele>522.79998779297</ele>
        <time>2022-02-15T09:31:33Z</time>
      </trkpt>
      <trkpt lat="45.23009" lon="4.61477">
        <ele>523.40002441406</ele>
        <time>2022-02-15T09:31:44Z</time>
      </trkpt>
      <trkpt lat="45.22997" lon="4.61462">
        <ele>524.79998779297</ele>
        <time>2022-02-15T09:31:55Z</time>
      </trkpt>
      <trkpt lat="45.22988" lon="4.6145">
        <ele>526.40002441406</ele>
        <time>2022-02-15T09:32:03Z</time>
      </trkpt>
      <trkpt lat="45.22981" lon="4.61442">
        <ele>527</ele>
        <time>2022-02-15T09:32:07Z</time>
      </trkpt>
      <trkpt lat="45.22978" lon="4.61436">
        <ele>527.40002441406</ele>
        <time>2022-02-15T09:32:10Z</time>
      </trkpt>
      <trkpt lat="45.22975" lon="4.6143">
        <ele>528.20001220703</ele>
        <time>2022-02-15T09:32:16Z</time>
      </trkpt>
      <trkpt lat="45.22971" lon="4.61416">
        <ele>529</ele>
        <time>2022-02-15T09:32:21Z</time>
      </trkpt>
      <trkpt lat="45.22968" lon="4.61405">
        <ele>529.40002441406</ele>
        <time>2022-02-15T09:32:26Z</time>
      </trkpt>
      <trkpt lat="45.22961" lon="4.61397">
        <ele>530.20001220703</ele>
        <time>2022-02-15T09:32:30Z</time>
      </trkpt>
      <trkpt lat="45.22956" lon="4.61389">
        <ele>530.79998779297</ele>
        <time>2022-02-15T09:32:35Z</time>
      </trkpt>
      <trkpt lat="45.22957" lon="4.61379">
        <ele>531.40002441406</ele>
        <time>2022-02-15T09:32:40Z</time>
      </trkpt>
      <trkpt lat="45.22954" lon="4.61373">
        <ele>532.20001220703</ele>
        <time>2022-02-15T09:32:48Z</time>
      </trkpt>
      <trkpt lat="45.2296" lon="4.6137">
        <ele>532.79998779297</ele>
        <time>2022-02-15T09:32:53Z</time>
      </trkpt>
      <trkpt lat="45.22962" lon="4.61365">
        <ele>533.59997558594</ele>
        <time>2022-02-15T09:33:01Z</time>
      </trkpt>
      <trkpt lat="45.22956" lon="4.61352">
        <ele>534.20001220703</ele>
        <time>2022-02-15T09:33:05Z</time>
      </trkpt>
      <trkpt lat="45.22956" lon="4.6135">
        <ele>534.40002441406</ele>
        <time>2022-02-15T09:33:06Z</time>
      </trkpt>
      <trkpt lat="45.22948" lon="4.61339">
        <ele>534.79998779297</ele>
        <time>2022-02-15T09:33:08Z</time>
      </trkpt>
      <trkpt lat="45.22947" lon="4.61313">
        <ele>535.40002441406</ele>
        <time>2022-02-15T09:33:13Z</time>
      </trkpt>
      <trkpt lat="45.22951" lon="4.61295">
        <ele>536.79998779297</ele>
        <time>2022-02-15T09:33:19Z</time>
      </trkpt>
      <trkpt lat="45.22957" lon="4.61279">
        <ele>537.59997558594</ele>
        <time>2022-02-15T09:33:24Z</time>
      </trkpt>
      <trkpt lat="45.22944" lon="4.6125">
        <ele>538.40002441406</ele>
        <time>2022-02-15T09:33:31Z</time>
      </trkpt>
      <trkpt lat="45.22946" lon="4.61245">
        <ele>538.59997558594</ele>
        <time>2022-02-15T09:33:34Z</time>
      </trkpt>
      <trkpt lat="45.22948" lon="4.61243">
        <ele>538.59997558594</ele>
        <time>2022-02-15T09:33:35Z</time>
      </trkpt>
      <trkpt lat="45.22948" lon="4.61238">
        <ele>539</ele>
        <time>2022-02-15T09:33:39Z</time>
      </trkpt>
      <trkpt lat="45.22945" lon="4.61227">
        <ele>540</ele>
        <time>2022-02-15T09:33:47Z</time>
      </trkpt>
      <trkpt lat="45.22932" lon="4.61205">
        <ele>541.59997558594</ele>
        <time>2022-02-15T09:33:57Z</time>
      </trkpt>
      <trkpt lat="45.22927" lon="4.61197">
        <ele>542.20001220703</ele>
        <time>2022-02-15T09:34:01Z</time>
      </trkpt>
      <trkpt lat="45.22927" lon="4.61194">
        <ele>542.40002441406</ele>
        <time>2022-02-15T09:34:03Z</time>
      </trkpt>
      <trkpt lat="45.22919" lon="4.61186">
        <ele>542.79998779297</ele>
        <time>2022-02-15T09:34:09Z</time>
      </trkpt>
      <trkpt lat="45.22913" lon="4.61177">
        <ele>543.79998779297</ele>
        <time>2022-02-15T09:34:15Z</time>
      </trkpt>
      <trkpt lat="45.22893" lon="4.61166">
        <ele>545.20001220703</ele>
        <time>2022-02-15T09:34:27Z</time>
      </trkpt>
      <trkpt lat="45.22872" lon="4.61164">
        <ele>546</ele>
        <time>2022-02-15T09:34:38Z</time>
      </trkpt>
      <trkpt lat="45.22836" lon="4.61166">
        <ele>546.79998779297</ele>
        <time>2022-02-15T09:34:54Z</time>
      </trkpt>
      <trkpt lat="45.22809" lon="4.6117">
        <ele>548.20001220703</ele>
        <time>2022-02-15T09:35:07Z</time>
      </trkpt>
      <trkpt lat="45.22784" lon="4.61171">
        <ele>548.79998779297</ele>
        <time>2022-02-15T09:35:17Z</time>
      </trkpt>
      <trkpt lat="45.22771" lon="4.61166">
        <ele>549.40002441406</ele>
        <time>2022-02-15T09:35:23Z</time>
      </trkpt>
      <trkpt lat="45.22767" lon="4.61159">
        <ele>550.20001220703</ele>
        <time>2022-02-15T09:35:26Z</time>
      </trkpt>
      <trkpt lat="45.22767" lon="4.61145">
        <ele>551.79998779297</ele>
        <time>2022-02-15T09:35:32Z</time>
      </trkpt>
      <trkpt lat="45.22768" lon="4.61131">
        <ele>553</ele>
        <time>2022-02-15T09:35:39Z</time>
      </trkpt>
      <trkpt lat="45.22765" lon="4.61126">
        <ele>553.40002441406</ele>
        <time>2022-02-15T09:35:41Z</time>
      </trkpt>
      <trkpt lat="45.22754" lon="4.61109">
        <ele>555</ele>
        <time>2022-02-15T09:35:49Z</time>
      </trkpt>
      <trkpt lat="45.22752" lon="4.61106">
        <ele>555.59997558594</ele>
        <time>2022-02-15T09:35:53Z</time>
      </trkpt>
      <trkpt lat="45.22743" lon="4.61101">
        <ele>557</ele>
        <time>2022-02-15T09:35:59Z</time>
      </trkpt>
      <trkpt lat="45.2273" lon="4.61097">
        <ele>558.40002441406</ele>
        <time>2022-02-15T09:36:08Z</time>
      </trkpt>
      <trkpt lat="45.22719" lon="4.61091">
        <ele>560.40002441406</ele>
        <time>2022-02-15T09:36:16Z</time>
      </trkpt>
      <trkpt lat="45.22708" lon="4.61089">
        <ele>561.20001220703</ele>
        <time>2022-02-15T09:36:24Z</time>
      </trkpt>
      <trkpt lat="45.22694" lon="4.61086">
        <ele>562</ele>
        <time>2022-02-15T09:36:31Z</time>
      </trkpt>
      <trkpt lat="45.22691" lon="4.61087">
        <ele>562.20001220703</ele>
        <time>2022-02-15T09:36:32Z</time>
      </trkpt>
      <trkpt lat="45.22679" lon="4.61081">
        <ele>563</ele>
        <time>2022-02-15T09:36:38Z</time>
      </trkpt>
      <trkpt lat="45.22666" lon="4.6108">
        <ele>564.79998779297</ele>
        <time>2022-02-15T09:36:45Z</time>
      </trkpt>
      <trkpt lat="45.22659" lon="4.61086">
        <ele>566.20001220703</ele>
        <time>2022-02-15T09:36:52Z</time>
      </trkpt>
      <trkpt lat="45.22658" lon="4.61087">
        <ele>566.40002441406</ele>
        <time>2022-02-15T09:36:54Z</time>
      </trkpt>
      <trkpt lat="45.2265" lon="4.61093">
        <ele>568.40002441406</ele>
        <time>2022-02-15T09:37:03Z</time>
      </trkpt>
      <trkpt lat="45.22646" lon="4.61095">
        <ele>569.59997558594</ele>
        <time>2022-02-15T09:37:10Z</time>
      </trkpt>
      <trkpt lat="45.22639" lon="4.61093">
        <ele>571.59997558594</ele>
        <time>2022-02-15T09:37:18Z</time>
      </trkpt>
      <trkpt lat="45.22637" lon="4.61094">
        <ele>573.79998779297</ele>
        <time>2022-02-15T09:37:43Z</time>
      </trkpt>
      <trkpt lat="45.22634" lon="4.61092">
        <ele>575.20001220703</ele>
        <time>2022-02-15T09:38:31Z</time>
      </trkpt>
      <trkpt lat="45.22627" lon="4.61089">
        <ele>575</ele>
        <time>2022-02-15T09:39:04Z</time>
      </trkpt>
      <trkpt lat="45.22618" lon="4.6107">
        <ele>575.79998779297</ele>
        <time>2022-02-15T09:39:10Z</time>
      </trkpt>
      <trkpt lat="45.22614" lon="4.6106">
        <ele>575.79998779297</ele>
        <time>2022-02-15T09:39:13Z</time>
      </trkpt>
      <trkpt lat="45.22616" lon="4.61048">
        <ele>575.79998779297</ele>
        <time>2022-02-15T09:39:18Z</time>
      </trkpt>
      <trkpt lat="45.22619" lon="4.61031">
        <ele>575.59997558594</ele>
        <time>2022-02-15T09:39:24Z</time>
      </trkpt>
      <trkpt lat="45.22604" lon="4.61002">
        <ele>576.40002441406</ele>
        <time>2022-02-15T09:39:32Z</time>
      </trkpt>
      <trkpt lat="45.22587" lon="4.60985">
        <ele>577</ele>
        <time>2022-02-15T09:39:41Z</time>
      </trkpt>
      <trkpt lat="45.22577" lon="4.60985">
        <ele>577.79998779297</ele>
        <time>2022-02-15T09:39:46Z</time>
      </trkpt>
      <trkpt lat="45.22566" lon="4.61">
        <ele>579.20001220703</ele>
        <time>2022-02-15T09:39:56Z</time>
      </trkpt>
      <trkpt lat="45.2256" lon="4.61025">
        <ele>582.20001220703</ele>
        <time>2022-02-15T09:40:09Z</time>
      </trkpt>
      <trkpt lat="45.22557" lon="4.6103">
        <ele>583.20001220703</ele>
        <time>2022-02-15T09:40:13Z</time>
      </trkpt>
      <trkpt lat="45.22558" lon="4.61035">
        <ele>585.59997558594</ele>
        <time>2022-02-15T09:40:24Z</time>
      </trkpt>
      <trkpt lat="45.22555" lon="4.61036">
        <ele>586.59997558594</ele>
        <time>2022-02-15T09:40:28Z</time>
      </trkpt>
      <trkpt lat="45.22554" lon="4.61041">
        <ele>587.20001220703</ele>
        <time>2022-02-15T09:40:32Z</time>
      </trkpt>
      <trkpt lat="45.22551" lon="4.61044">
        <ele>588.79998779297</ele>
        <time>2022-02-15T09:40:38Z</time>
      </trkpt>
      <trkpt lat="45.22552" lon="4.61048">
        <ele>590</ele>
        <time>2022-02-15T09:40:44Z</time>
      </trkpt>
      <trkpt lat="45.22553" lon="4.61053">
        <ele>591.59997558594</ele>
        <time>2022-02-15T09:40:54Z</time>
      </trkpt>
      <trkpt lat="45.22553" lon="4.61054">
        <ele>592</ele>
        <time>2022-02-15T09:40:58Z</time>
      </trkpt>
      <trkpt lat="45.22553" lon="4.61065">
        <ele>593</ele>
        <time>2022-02-15T09:41:05Z</time>
      </trkpt>
      <trkpt lat="45.22554" lon="4.61067">
        <ele>593</ele>
        <time>2022-02-15T09:41:06Z</time>
      </trkpt>
      <trkpt lat="45.22557" lon="4.61073">
        <ele>593.59997558594</ele>
        <time>2022-02-15T09:41:14Z</time>
      </trkpt>
      <trkpt lat="45.22556" lon="4.61081">
        <ele>594.59997558594</ele>
        <time>2022-02-15T09:41:21Z</time>
      </trkpt>
      <trkpt lat="45.22556" lon="4.61081">
        <ele>595.20001220703</ele>
        <time>2022-02-15T09:41:25Z</time>
      </trkpt>
      <trkpt lat="45.22554" lon="4.61083">
        <ele>595.40002441406</ele>
        <time>2022-02-15T09:41:27Z</time>
      </trkpt>
      <trkpt lat="45.22553" lon="4.61086">
        <ele>595.79998779297</ele>
        <time>2022-02-15T09:41:31Z</time>
      </trkpt>
      <trkpt lat="45.22544" lon="4.61094">
        <ele>596.40002441406</ele>
        <time>2022-02-15T09:41:35Z</time>
      </trkpt>
      <trkpt lat="45.22544" lon="4.61094">
        <ele>596.59997558594</ele>
        <time>2022-02-15T09:41:36Z</time>
      </trkpt>
      <trkpt lat="45.22545" lon="4.61103">
        <ele>597.59997558594</ele>
        <time>2022-02-15T09:41:43Z</time>
      </trkpt>
      <trkpt lat="45.22547" lon="4.61111">
        <ele>598.59997558594</ele>
        <time>2022-02-15T09:41:52Z</time>
      </trkpt>
      <trkpt lat="45.22547" lon="4.61111">
        <ele>598.79998779297</ele>
        <time>2022-02-15T09:41:53Z</time>
      </trkpt>
      <trkpt lat="45.22549" lon="4.61113">
        <ele>599.40002441406</ele>
        <time>2022-02-15T09:41:55Z</time>
      </trkpt>
      <trkpt lat="45.22551" lon="4.61116">
        <ele>599.59997558594</ele>
        <time>2022-02-15T09:41:58Z</time>
      </trkpt>
      <trkpt lat="45.22555" lon="4.61131">
        <ele>600</ele>
        <time>2022-02-15T09:42:05Z</time>
      </trkpt>
      <trkpt lat="45.22556" lon="4.61136">
        <ele>600.79998779297</ele>
        <time>2022-02-15T09:42:10Z</time>
      </trkpt>
      <trkpt lat="45.22559" lon="4.61144">
        <ele>601.59997558594</ele>
        <time>2022-02-15T09:42:16Z</time>
      </trkpt>
      <trkpt lat="45.22561" lon="4.61146">
        <ele>602.40002441406</ele>
        <time>2022-02-15T09:42:21Z</time>
      </trkpt>
      <trkpt lat="45.22562" lon="4.61147">
        <ele>603</ele>
        <time>2022-02-15T09:42:24Z</time>
      </trkpt>
      <trkpt lat="45.22559" lon="4.61154">
        <ele>603.40002441406</ele>
        <time>2022-02-15T09:42:28Z</time>
      </trkpt>
      <trkpt lat="45.22559" lon="4.61154">
        <ele>603.40002441406</ele>
        <time>2022-02-15T09:42:29Z</time>
      </trkpt>
      <trkpt lat="45.22565" lon="4.61159">
        <ele>604.79998779297</ele>
        <time>2022-02-15T09:42:34Z</time>
      </trkpt>
      <trkpt lat="45.22565" lon="4.61159">
        <ele>605</ele>
        <time>2022-02-15T09:42:35Z</time>
      </trkpt>
      <trkpt lat="45.2257" lon="4.61162">
        <ele>605.59997558594</ele>
        <time>2022-02-15T09:42:40Z</time>
      </trkpt>
      <trkpt lat="45.2257" lon="4.61164">
        <ele>606</ele>
        <time>2022-02-15T09:42:42Z</time>
      </trkpt>
      <trkpt lat="45.2257" lon="4.61167">
        <ele>606.59997558594</ele>
        <time>2022-02-15T09:42:47Z</time>
      </trkpt>
      <trkpt lat="45.22565" lon="4.61165">
        <ele>608.20001220703</ele>
        <time>2022-02-15T09:42:59Z</time>
      </trkpt>
      <trkpt lat="45.22565" lon="4.61165">
        <ele>608.40002441406</ele>
        <time>2022-02-15T09:43:01Z</time>
      </trkpt>
      <trkpt lat="45.22565" lon="4.61172">
        <ele>609.59997558594</ele>
        <time>2022-02-15T09:43:09Z</time>
      </trkpt>
      <trkpt lat="45.22562" lon="4.61173">
        <ele>612.79998779297</ele>
        <time>2022-02-15T09:43:33Z</time>
      </trkpt>
      <trkpt lat="45.22564" lon="4.61179">
        <ele>616.20001220703</ele>
        <time>2022-02-15T09:43:56Z</time>
      </trkpt>
      <trkpt lat="45.22567" lon="4.61188">
        <ele>617.59997558594</ele>
        <time>2022-02-15T09:44:06Z</time>
      </trkpt>
      <trkpt lat="45.22567" lon="4.61189">
        <ele>617.79998779297</ele>
        <time>2022-02-15T09:44:07Z</time>
      </trkpt>
      <trkpt lat="45.22573" lon="4.61205">
        <ele>618.79998779297</ele>
        <time>2022-02-15T09:44:14Z</time>
      </trkpt>
      <trkpt lat="45.22574" lon="4.61207">
        <ele>621.40002441406</ele>
        <time>2022-02-15T09:44:35Z</time>
      </trkpt>
      <trkpt lat="45.22575" lon="4.61208">
        <ele>621.59997558594</ele>
        <time>2022-02-15T09:44:36Z</time>
      </trkpt>
      <trkpt lat="45.22578" lon="4.61215">
        <ele>623.79998779297</ele>
        <time>2022-02-15T09:44:53Z</time>
      </trkpt>
      <trkpt lat="45.22596" lon="4.61251">
        <ele>625.40002441406</ele>
        <time>2022-02-15T09:45:06Z</time>
      </trkpt>
      <trkpt lat="45.22604" lon="4.61263">
        <ele>626.20001220703</ele>
        <time>2022-02-15T09:45:13Z</time>
      </trkpt>
      <trkpt lat="45.22609" lon="4.61273">
        <ele>627.59997558594</ele>
        <time>2022-02-15T09:45:21Z</time>
      </trkpt>
      <trkpt lat="45.2261" lon="4.6128">
        <ele>628.20001220703</ele>
        <time>2022-02-15T09:45:27Z</time>
      </trkpt>
      <trkpt lat="45.2261" lon="4.61286">
        <ele>629.59997558594</ele>
        <time>2022-02-15T09:45:35Z</time>
      </trkpt>
      <trkpt lat="45.2261" lon="4.61286">
        <ele>630.40002441406</ele>
        <time>2022-02-15T09:45:49Z</time>
      </trkpt>
      <trkpt lat="45.22601" lon="4.61285">
        <ele>631</ele>
        <time>2022-02-15T09:45:57Z</time>
      </trkpt>
      <trkpt lat="45.22587" lon="4.61287">
        <ele>633</ele>
        <time>2022-02-15T09:46:08Z</time>
      </trkpt>
      <trkpt lat="45.22585" lon="4.61288">
        <ele>633.20001220703</ele>
        <time>2022-02-15T09:46:09Z</time>
      </trkpt>
      <trkpt lat="45.22581" lon="4.61297">
        <ele>633.79998779297</ele>
        <time>2022-02-15T09:46:13Z</time>
      </trkpt>
      <trkpt lat="45.22586" lon="4.61307">
        <ele>635.79998779297</ele>
        <time>2022-02-15T09:46:20Z</time>
      </trkpt>
      <trkpt lat="45.22588" lon="4.61315">
        <ele>637.79998779297</ele>
        <time>2022-02-15T09:46:28Z</time>
      </trkpt>
      <trkpt lat="45.22596" lon="4.61327">
        <ele>639.79998779297</ele>
        <time>2022-02-15T09:46:38Z</time>
      </trkpt>
      <trkpt lat="45.22602" lon="4.61338">
        <ele>641.40002441406</ele>
        <time>2022-02-15T09:46:47Z</time>
      </trkpt>
      <trkpt lat="45.22604" lon="4.61344">
        <ele>643.59997558594</ele>
        <time>2022-02-15T09:47:01Z</time>
      </trkpt>
      <trkpt lat="45.22608" lon="4.61356">
        <ele>644.59997558594</ele>
        <time>2022-02-15T09:47:10Z</time>
      </trkpt>
      <trkpt lat="45.22611" lon="4.61372">
        <ele>646.40002441406</ele>
        <time>2022-02-15T09:47:17Z</time>
      </trkpt>
      <trkpt lat="45.22613" lon="4.61396">
        <ele>647.40002441406</ele>
        <time>2022-02-15T09:47:26Z</time>
      </trkpt>
      <trkpt lat="45.2261" lon="4.61402">
        <ele>647.79998779297</ele>
        <time>2022-02-15T09:47:30Z</time>
      </trkpt>
      <trkpt lat="45.22611" lon="4.6142">
        <ele>648.59997558594</ele>
        <time>2022-02-15T09:47:37Z</time>
      </trkpt>
      <trkpt lat="45.22614" lon="4.61457">
        <ele>648.20001220703</ele>
        <time>2022-02-15T09:47:44Z</time>
      </trkpt>
      <trkpt lat="45.22614" lon="4.61464">
        <ele>648.20001220703</ele>
        <time>2022-02-15T09:47:45Z</time>
      </trkpt>
      <trkpt lat="45.22615" lon="4.61499">
        <ele>646.40002441406</ele>
        <time>2022-02-15T09:47:49Z</time>
      </trkpt>
      <trkpt lat="45.22602" lon="4.61532">
        <ele>644.40002441406</ele>
        <time>2022-02-15T09:47:54Z</time>
      </trkpt>
      <trkpt lat="45.22592" lon="4.61554">
        <ele>644.59997558594</ele>
        <time>2022-02-15T09:48:01Z</time>
      </trkpt>
      <trkpt lat="45.22594" lon="4.61572">
        <ele>645</ele>
        <time>2022-02-15T09:48:05Z</time>
      </trkpt>
      <trkpt lat="45.22586" lon="4.61585">
        <ele>645.20001220703</ele>
        <time>2022-02-15T09:48:10Z</time>
      </trkpt>
      <trkpt lat="45.22578" lon="4.61588">
        <ele>645.20001220703</ele>
        <time>2022-02-15T09:48:12Z</time>
      </trkpt>
      <trkpt lat="45.2256" lon="4.61593">
        <ele>645.20001220703</ele>
        <time>2022-02-15T09:48:15Z</time>
      </trkpt>
      <trkpt lat="45.22558" lon="4.61602">
        <ele>645.20001220703</ele>
        <time>2022-02-15T09:48:22Z</time>
      </trkpt>
      <trkpt lat="45.22552" lon="4.61602">
        <ele>645.40002441406</ele>
        <time>2022-02-15T09:48:26Z</time>
      </trkpt>
      <trkpt lat="45.22544" lon="4.61603">
        <ele>645.79998779297</ele>
        <time>2022-02-15T09:48:36Z</time>
      </trkpt>
      <trkpt lat="45.2254" lon="4.61603">
        <ele>647</ele>
        <time>2022-02-15T09:48:53Z</time>
      </trkpt>
      <trkpt lat="45.22538" lon="4.61605">
        <ele>648.59997558594</ele>
        <time>2022-02-15T09:49:55Z</time>
      </trkpt>
      <trkpt lat="45.2251" lon="4.61606">
        <ele>650.40002441406</ele>
        <time>2022-02-15T09:50:08Z</time>
      </trkpt>
      <trkpt lat="45.22499" lon="4.61604">
        <ele>650.59997558594</ele>
        <time>2022-02-15T09:50:11Z</time>
      </trkpt>
      <trkpt lat="45.22456" lon="4.61595">
        <ele>651</ele>
        <time>2022-02-15T09:50:20Z</time>
      </trkpt>
      <trkpt lat="45.2245" lon="4.61591">
        <ele>650.79998779297</ele>
        <time>2022-02-15T09:50:22Z</time>
      </trkpt>
      <trkpt lat="45.22439" lon="4.61585">
        <ele>650.59997558594</ele>
        <time>2022-02-15T09:50:25Z</time>
      </trkpt>
      <trkpt lat="45.22416" lon="4.61583">
        <ele>649</ele>
        <time>2022-02-15T09:50:30Z</time>
      </trkpt>
      <trkpt lat="45.22402" lon="4.61573">
        <ele>646.79998779297</ele>
        <time>2022-02-15T09:50:34Z</time>
      </trkpt>
      <trkpt lat="45.224" lon="4.61569">
        <ele>646.59997558594</ele>
        <time>2022-02-15T09:50:35Z</time>
      </trkpt>
      <trkpt lat="45.22398" lon="4.61565">
        <ele>646.20001220703</ele>
        <time>2022-02-15T09:50:36Z</time>
      </trkpt>
      <trkpt lat="45.22391" lon="4.61549">
        <ele>644.59997558594</ele>
        <time>2022-02-15T09:50:39Z</time>
      </trkpt>
      <trkpt lat="45.22373" lon="4.61533">
        <ele>643.79998779297</ele>
        <time>2022-02-15T09:50:44Z</time>
      </trkpt>
      <trkpt lat="45.2237" lon="4.61529">
        <ele>644.79998779297</ele>
        <time>2022-02-15T09:50:50Z</time>
      </trkpt>
      <trkpt lat="45.22361" lon="4.61525">
        <ele>646.59997558594</ele>
        <time>2022-02-15T09:50:54Z</time>
      </trkpt>
      <trkpt lat="45.22358" lon="4.61523">
        <ele>649.40002441406</ele>
        <time>2022-02-15T09:51:02Z</time>
      </trkpt>
      <trkpt lat="45.22352" lon="4.61521">
        <ele>652.59997558594</ele>
        <time>2022-02-15T09:51:12Z</time>
      </trkpt>
      <trkpt lat="45.22352" lon="4.61521">
        <ele>652.79998779297</ele>
        <time>2022-02-15T09:51:13Z</time>
      </trkpt>
      <trkpt lat="45.22338" lon="4.61518">
        <ele>653.59997558594</ele>
        <time>2022-02-15T09:51:25Z</time>
      </trkpt>
      <trkpt lat="45.22333" lon="4.61515">
        <ele>653.59997558594</ele>
        <time>2022-02-15T09:51:29Z</time>
      </trkpt>
      <trkpt lat="45.22327" lon="4.61512">
        <ele>653.79998779297</ele>
        <time>2022-02-15T09:51:37Z</time>
      </trkpt>
      <trkpt lat="45.22296" lon="4.61502">
        <ele>654.20001220703</ele>
        <time>2022-02-15T09:51:44Z</time>
      </trkpt>
      <trkpt lat="45.22277" lon="4.61501">
        <ele>653</ele>
        <time>2022-02-15T09:51:52Z</time>
      </trkpt>
      <trkpt lat="45.22274" lon="4.61502">
        <ele>652.59997558594</ele>
        <time>2022-02-15T09:51:55Z</time>
      </trkpt>
      <trkpt lat="45.22273" lon="4.61502">
        <ele>652.20001220703</ele>
        <time>2022-02-15T09:51:57Z</time>
      </trkpt>
      <trkpt lat="45.2225" lon="4.61502">
        <ele>650.20001220703</ele>
        <time>2022-02-15T09:52:01Z</time>
      </trkpt>
      <trkpt lat="45.22249" lon="4.61503">
        <ele>648.79998779297</ele>
        <time>2022-02-15T09:52:04Z</time>
      </trkpt>
      <trkpt lat="45.22246" lon="4.61503">
        <ele>648</ele>
        <time>2022-02-15T09:52:05Z</time>
      </trkpt>
      <trkpt lat="45.22209" lon="4.61509">
        <ele>644.20001220703</ele>
        <time>2022-02-15T09:52:12Z</time>
      </trkpt>
      <trkpt lat="45.22198" lon="4.61509">
        <ele>642.59997558594</ele>
        <time>2022-02-15T09:52:15Z</time>
      </trkpt>
      <trkpt lat="45.22193" lon="4.61508">
        <ele>640.40002441406</ele>
        <time>2022-02-15T09:52:18Z</time>
      </trkpt>
      <trkpt lat="45.22182" lon="4.6151">
        <ele>639</ele>
        <time>2022-02-15T09:52:21Z</time>
      </trkpt>
      <trkpt lat="45.2217" lon="4.61507">
        <ele>636.59997558594</ele>
        <time>2022-02-15T09:52:26Z</time>
      </trkpt>
      <trkpt lat="45.22168" lon="4.61507">
        <ele>635.20001220703</ele>
        <time>2022-02-15T09:52:27Z</time>
      </trkpt>
      <trkpt lat="45.22163" lon="4.61516">
        <ele>634</ele>
        <time>2022-02-15T09:52:30Z</time>
      </trkpt>
      <trkpt lat="45.22164" lon="4.61518">
        <ele>633.59997558594</ele>
        <time>2022-02-15T09:52:31Z</time>
      </trkpt>
      <trkpt lat="45.22156" lon="4.61519">
        <ele>631.59997558594</ele>
        <time>2022-02-15T09:52:35Z</time>
      </trkpt>
      <trkpt lat="45.22156" lon="4.6152">
        <ele>628.40002441406</ele>
        <time>2022-02-15T09:52:50Z</time>
      </trkpt>
      <trkpt lat="45.22144" lon="4.61521">
        <ele>625.79998779297</ele>
        <time>2022-02-15T09:53:00Z</time>
      </trkpt>
      <trkpt lat="45.2214" lon="4.6152">
        <ele>625.59997558594</ele>
        <time>2022-02-15T09:53:01Z</time>
      </trkpt>
      <trkpt lat="45.2213" lon="4.61521">
        <ele>622.59997558594</ele>
        <time>2022-02-15T09:53:07Z</time>
      </trkpt>
      <trkpt lat="45.2213" lon="4.61521">
        <ele>622.59997558594</ele>
        <time>2022-02-15T09:53:08Z</time>
      </trkpt>
      <trkpt lat="45.2212" lon="4.61523">
        <ele>619.40002441406</ele>
        <time>2022-02-15T09:53:15Z</time>
      </trkpt>
      <trkpt lat="45.22117" lon="4.61522">
        <ele>618</ele>
        <time>2022-02-15T09:53:19Z</time>
      </trkpt>
      <trkpt lat="45.22095" lon="4.61523">
        <ele>615.79998779297</ele>
        <time>2022-02-15T09:53:28Z</time>
      </trkpt>
      <trkpt lat="45.2209" lon="4.61519">
        <ele>615.59997558594</ele>
        <time>2022-02-15T09:53:30Z</time>
      </trkpt>
      <trkpt lat="45.2208" lon="4.61514">
        <ele>615.59997558594</ele>
        <time>2022-02-15T09:53:34Z</time>
      </trkpt>
      <trkpt lat="45.22055" lon="4.61495">
        <ele>616.79998779297</ele>
        <time>2022-02-15T09:53:44Z</time>
      </trkpt>
      <trkpt lat="45.22041" lon="4.6149">
        <ele>617.40002441406</ele>
        <time>2022-02-15T09:53:52Z</time>
      </trkpt>
      <trkpt lat="45.22033" lon="4.61486">
        <ele>619.20001220703</ele>
        <time>2022-02-15T09:53:59Z</time>
      </trkpt>
      <trkpt lat="45.22021" lon="4.61477">
        <ele>620.20001220703</ele>
        <time>2022-02-15T09:54:08Z</time>
      </trkpt>
      <trkpt lat="45.22006" lon="4.61463">
        <ele>621.79998779297</ele>
        <time>2022-02-15T09:54:17Z</time>
      </trkpt>
      <trkpt lat="45.22005" lon="4.61461">
        <ele>622</ele>
        <time>2022-02-15T09:54:18Z</time>
      </trkpt>
      <trkpt lat="45.22" lon="4.61452">
        <ele>623.20001220703</ele>
        <time>2022-02-15T09:54:25Z</time>
      </trkpt>
      <trkpt lat="45.22" lon="4.61446">
        <ele>623.79998779297</ele>
        <time>2022-02-15T09:54:30Z</time>
      </trkpt>
      <trkpt lat="45.21995" lon="4.61435">
        <ele>625.59997558594</ele>
        <time>2022-02-15T09:54:39Z</time>
      </trkpt>
      <trkpt lat="45.21994" lon="4.61434">
        <ele>625.79998779297</ele>
        <time>2022-02-15T09:54:40Z</time>
      </trkpt>
      <trkpt lat="45.21995" lon="4.6143">
        <ele>626.79998779297</ele>
        <time>2022-02-15T09:54:47Z</time>
      </trkpt>
      <trkpt lat="45.21995" lon="4.61426">
        <ele>627.40002441406</ele>
        <time>2022-02-15T09:54:50Z</time>
      </trkpt>
      <trkpt lat="45.21994" lon="4.61423">
        <ele>628.20001220703</ele>
        <time>2022-02-15T09:54:54Z</time>
      </trkpt>
      <trkpt lat="45.21983" lon="4.61408">
        <ele>629</ele>
        <time>2022-02-15T09:54:59Z</time>
      </trkpt>
      <trkpt lat="45.21979" lon="4.61401">
        <ele>629.40002441406</ele>
        <time>2022-02-15T09:55:02Z</time>
      </trkpt>
      <trkpt lat="45.21962" lon="4.61378">
        <ele>630.79998779297</ele>
        <time>2022-02-15T09:55:10Z</time>
      </trkpt>
      <trkpt lat="45.21961" lon="4.61378">
        <ele>631</ele>
        <time>2022-02-15T09:55:12Z</time>
      </trkpt>
      <trkpt lat="45.21957" lon="4.61374">
        <ele>631.79998779297</ele>
        <time>2022-02-15T09:55:16Z</time>
      </trkpt>
      <trkpt lat="45.21934" lon="4.61364">
        <ele>632.40002441406</ele>
        <time>2022-02-15T09:55:21Z</time>
      </trkpt>
      <trkpt lat="45.21929" lon="4.61364">
        <ele>632.79998779297</ele>
        <time>2022-02-15T09:55:23Z</time>
      </trkpt>
      <trkpt lat="45.21923" lon="4.61364">
        <ele>633</ele>
        <time>2022-02-15T09:55:24Z</time>
      </trkpt>
      <trkpt lat="45.21921" lon="4.61367">
        <ele>633.40002441406</ele>
        <time>2022-02-15T09:55:26Z</time>
      </trkpt>
      <trkpt lat="45.21919" lon="4.61377">
        <ele>634</ele>
        <time>2022-02-15T09:55:31Z</time>
      </trkpt>
      <trkpt lat="45.21917" lon="4.6139">
        <ele>634.20001220703</ele>
        <time>2022-02-15T09:55:36Z</time>
      </trkpt>
      <trkpt lat="45.21906" lon="4.61398">
        <ele>634.79998779297</ele>
        <time>2022-02-15T09:55:41Z</time>
      </trkpt>
      <trkpt lat="45.21889" lon="4.61407">
        <ele>635.40002441406</ele>
        <time>2022-02-15T09:55:48Z</time>
      </trkpt>
      <trkpt lat="45.21884" lon="4.61425">
        <ele>636.59997558594</ele>
        <time>2022-02-15T09:55:56Z</time>
      </trkpt>
      <trkpt lat="45.21874" lon="4.61431">
        <ele>637</ele>
        <time>2022-02-15T09:56:00Z</time>
      </trkpt>
      <trkpt lat="45.21873" lon="4.61433">
        <ele>637.20001220703</ele>
        <time>2022-02-15T09:56:01Z</time>
      </trkpt>
      <trkpt lat="45.21863" lon="4.61437">
        <ele>637.40002441406</ele>
        <time>2022-02-15T09:56:06Z</time>
      </trkpt>
      <trkpt lat="45.21853" lon="4.61449">
        <ele>638.20001220703</ele>
        <time>2022-02-15T09:56:12Z</time>
      </trkpt>
      <trkpt lat="45.21839" lon="4.61458">
        <ele>639.20001220703</ele>
        <time>2022-02-15T09:56:19Z</time>
      </trkpt>
      <trkpt lat="45.21836" lon="4.61459">
        <ele>639.40002441406</ele>
        <time>2022-02-15T09:56:20Z</time>
      </trkpt>
      <trkpt lat="45.2183" lon="4.61463">
        <ele>640.40002441406</ele>
        <time>2022-02-15T09:56:26Z</time>
      </trkpt>
      <trkpt lat="45.21825" lon="4.61463">
        <ele>640.59997558594</ele>
        <time>2022-02-15T09:56:28Z</time>
      </trkpt>
      <trkpt lat="45.21823" lon="4.61468">
        <ele>640.79998779297</ele>
        <time>2022-02-15T09:56:31Z</time>
      </trkpt>
      <trkpt lat="45.21813" lon="4.6147">
        <ele>641.59997558594</ele>
        <time>2022-02-15T09:56:37Z</time>
      </trkpt>
      <trkpt lat="45.21807" lon="4.61487">
        <ele>642.20001220703</ele>
        <time>2022-02-15T09:56:42Z</time>
      </trkpt>
      <trkpt lat="45.21802" lon="4.61509">
        <ele>643.59997558594</ele>
        <time>2022-02-15T09:56:49Z</time>
      </trkpt>
      <trkpt lat="45.21801" lon="4.61512">
        <ele>644.79998779297</ele>
        <time>2022-02-15T09:56:55Z</time>
      </trkpt>
      <trkpt lat="45.21802" lon="4.61517">
        <ele>645.79998779297</ele>
        <time>2022-02-15T09:57:00Z</time>
      </trkpt>
      <trkpt lat="45.21801" lon="4.61517">
        <ele>647</ele>
        <time>2022-02-15T09:57:08Z</time>
      </trkpt>
      <trkpt lat="45.2181" lon="4.6153">
        <ele>647.40002441406</ele>
        <time>2022-02-15T09:57:11Z</time>
      </trkpt>
      <trkpt lat="45.21811" lon="4.61531">
        <ele>648.40002441406</ele>
        <time>2022-02-15T09:57:17Z</time>
      </trkpt>
      <trkpt lat="45.21824" lon="4.6155">
        <ele>649.59997558594</ele>
        <time>2022-02-15T09:57:22Z</time>
      </trkpt>
      <trkpt lat="45.21827" lon="4.61554">
        <ele>649.79998779297</ele>
        <time>2022-02-15T09:57:25Z</time>
      </trkpt>
      <trkpt lat="45.21832" lon="4.6156">
        <ele>650.20001220703</ele>
        <time>2022-02-15T09:57:27Z</time>
      </trkpt>
      <trkpt lat="45.2184" lon="4.61574">
        <ele>650.59997558594</ele>
        <time>2022-02-15T09:57:30Z</time>
      </trkpt>
      <trkpt lat="45.2184" lon="4.61574">
        <ele>650.79998779297</ele>
        <time>2022-02-15T09:57:31Z</time>
      </trkpt>
      <trkpt lat="45.21847" lon="4.61583">
        <ele>651</ele>
        <time>2022-02-15T09:57:34Z</time>
      </trkpt>
      <trkpt lat="45.21851" lon="4.61589">
        <ele>651.40002441406</ele>
        <time>2022-02-15T09:57:38Z</time>
      </trkpt>
      <trkpt lat="45.21858" lon="4.61596">
        <ele>651.79998779297</ele>
        <time>2022-02-15T09:57:41Z</time>
      </trkpt>
      <trkpt lat="45.21869" lon="4.61606">
        <ele>652</ele>
        <time>2022-02-15T09:57:42Z</time>
      </trkpt>
      <trkpt lat="45.21873" lon="4.61613">
        <ele>652.20001220703</ele>
        <time>2022-02-15T09:57:45Z</time>
      </trkpt>
      <trkpt lat="45.21874" lon="4.61616">
        <ele>652.20001220703</ele>
        <time>2022-02-15T09:57:47Z</time>
      </trkpt>
      <trkpt lat="45.2188" lon="4.61629">
        <ele>652.59997558594</ele>
        <time>2022-02-15T09:57:50Z</time>
      </trkpt>
      <trkpt lat="45.21882" lon="4.61631">
        <ele>653</ele>
        <time>2022-02-15T09:57:52Z</time>
      </trkpt>
      <trkpt lat="45.21884" lon="4.61637">
        <ele>653</ele>
        <time>2022-02-15T09:57:54Z</time>
      </trkpt>
      <trkpt lat="45.21889" lon="4.61644">
        <ele>653.20001220703</ele>
        <time>2022-02-15T09:57:56Z</time>
      </trkpt>
      <trkpt lat="45.21897" lon="4.61649">
        <ele>653.20001220703</ele>
        <time>2022-02-15T09:57:59Z</time>
      </trkpt>
      <trkpt lat="45.21902" lon="4.61652">
        <ele>653.20001220703</ele>
        <time>2022-02-15T09:58:00Z</time>
      </trkpt>
      <trkpt lat="45.2191" lon="4.61663">
        <ele>653.79998779297</ele>
        <time>2022-02-15T09:58:04Z</time>
      </trkpt>
      <trkpt lat="45.2191" lon="4.61663">
        <ele>654</ele>
        <time>2022-02-15T09:58:05Z</time>
      </trkpt>
      <trkpt lat="45.21911" lon="4.61665">
        <ele>654.40002441406</ele>
        <time>2022-02-15T09:58:07Z</time>
      </trkpt>
      <trkpt lat="45.21918" lon="4.6167">
        <ele>655.20001220703</ele>
        <time>2022-02-15T09:58:11Z</time>
      </trkpt>
      <trkpt lat="45.21926" lon="4.61687">
        <ele>656.40002441406</ele>
        <time>2022-02-15T09:58:19Z</time>
      </trkpt>
      <trkpt lat="45.21926" lon="4.61689">
        <ele>656.79998779297</ele>
        <time>2022-02-15T09:58:21Z</time>
      </trkpt>
      <trkpt lat="45.21931" lon="4.61704">
        <ele>657.40002441406</ele>
        <time>2022-02-15T09:58:27Z</time>
      </trkpt>
      <trkpt lat="45.21934" lon="4.61713">
        <ele>657.59997558594</ele>
        <time>2022-02-15T09:58:31Z</time>
      </trkpt>
      <trkpt lat="45.21939" lon="4.61724">
        <ele>659.20001220703</ele>
        <time>2022-02-15T09:58:38Z</time>
      </trkpt>
      <trkpt lat="45.2195" lon="4.61744">
        <ele>659.79998779297</ele>
        <time>2022-02-15T09:58:42Z</time>
      </trkpt>
      <trkpt lat="45.21953" lon="4.61749">
        <ele>660.79998779297</ele>
        <time>2022-02-15T09:58:47Z</time>
      </trkpt>
      <trkpt lat="45.21953" lon="4.6175">
        <ele>661.20001220703</ele>
        <time>2022-02-15T09:58:48Z</time>
      </trkpt>
      <trkpt lat="45.21958" lon="4.61765">
        <ele>662.40002441406</ele>
        <time>2022-02-15T09:58:55Z</time>
      </trkpt>
      <trkpt lat="45.21967" lon="4.61775">
        <ele>662.79998779297</ele>
        <time>2022-02-15T09:59:00Z</time>
      </trkpt>
      <trkpt lat="45.21975" lon="4.61794">
        <ele>664</ele>
        <time>2022-02-15T09:59:08Z</time>
      </trkpt>
      <trkpt lat="45.21979" lon="4.61804">
        <ele>664.79998779297</ele>
        <time>2022-02-15T09:59:13Z</time>
      </trkpt>
      <trkpt lat="45.21984" lon="4.61816">
        <ele>665.40002441406</ele>
        <time>2022-02-15T09:59:18Z</time>
      </trkpt>
      <trkpt lat="45.21989" lon="4.61822">
        <ele>665.79998779297</ele>
        <time>2022-02-15T09:59:21Z</time>
      </trkpt>
      <trkpt lat="45.21995" lon="4.61832">
        <ele>666.40002441406</ele>
        <time>2022-02-15T09:59:26Z</time>
      </trkpt>
      <trkpt lat="45.22008" lon="4.61854">
        <ele>666.79998779297</ele>
        <time>2022-02-15T09:59:30Z</time>
      </trkpt>
      <trkpt lat="45.22009" lon="4.61856">
        <ele>666.79998779297</ele>
        <time>2022-02-15T09:59:31Z</time>
      </trkpt>
      <trkpt lat="45.22009" lon="4.61866">
        <ele>667.40002441406</ele>
        <time>2022-02-15T09:59:35Z</time>
      </trkpt>
      <trkpt lat="45.22015" lon="4.61879">
        <ele>668</ele>
        <time>2022-02-15T09:59:42Z</time>
      </trkpt>
      <trkpt lat="45.22016" lon="4.61889">
        <ele>668.20001220703</ele>
        <time>2022-02-15T09:59:46Z</time>
      </trkpt>
      <trkpt lat="45.22017" lon="4.61898">
        <ele>668.40002441406</ele>
        <time>2022-02-15T09:59:50Z</time>
      </trkpt>
      <trkpt lat="45.22012" lon="4.61905">
        <ele>669.40002441406</ele>
        <time>2022-02-15T09:59:55Z</time>
      </trkpt>
      <trkpt lat="45.2201" lon="4.61907">
        <ele>669.59997558594</ele>
        <time>2022-02-15T09:59:56Z</time>
      </trkpt>
      <trkpt lat="45.22002" lon="4.61919">
        <ele>670.20001220703</ele>
        <time>2022-02-15T10:00:03Z</time>
      </trkpt>
      <trkpt lat="45.22001" lon="4.6192">
        <ele>670.40002441406</ele>
        <time>2022-02-15T10:00:04Z</time>
      </trkpt>
      <trkpt lat="45.21988" lon="4.61943">
        <ele>673</ele>
        <time>2022-02-15T10:00:17Z</time>
      </trkpt>
      <trkpt lat="45.21984" lon="4.61954">
        <ele>673.79998779297</ele>
        <time>2022-02-15T10:00:23Z</time>
      </trkpt>
      <trkpt lat="45.21981" lon="4.6196">
        <ele>674.40002441406</ele>
        <time>2022-02-15T10:00:26Z</time>
      </trkpt>
      <trkpt lat="45.21981" lon="4.61968">
        <ele>674.59997558594</ele>
        <time>2022-02-15T10:00:29Z</time>
      </trkpt>
      <trkpt lat="45.21988" lon="4.61987">
        <ele>675.20001220703</ele>
        <time>2022-02-15T10:00:35Z</time>
      </trkpt>
      <trkpt lat="45.21991" lon="4.61993">
        <ele>675.59997558594</ele>
        <time>2022-02-15T10:00:37Z</time>
      </trkpt>
      <trkpt lat="45.21992" lon="4.62004">
        <ele>675.59997558594</ele>
        <time>2022-02-15T10:00:41Z</time>
      </trkpt>
      <trkpt lat="45.21994" lon="4.62006">
        <ele>675.79998779297</ele>
        <time>2022-02-15T10:00:42Z</time>
      </trkpt>
      <trkpt lat="45.21993" lon="4.62011">
        <ele>676.20001220703</ele>
        <time>2022-02-15T10:00:46Z</time>
      </trkpt>
      <trkpt lat="45.21992" lon="4.62014">
        <ele>676.40002441406</ele>
        <time>2022-02-15T10:00:48Z</time>
      </trkpt>
      <trkpt lat="45.21997" lon="4.62032">
        <ele>676.79998779297</ele>
        <time>2022-02-15T10:00:53Z</time>
      </trkpt>
      <trkpt lat="45.21999" lon="4.62035">
        <ele>676.79998779297</ele>
        <time>2022-02-15T10:00:54Z</time>
      </trkpt>
      <trkpt lat="45.22006" lon="4.62045">
        <ele>677</ele>
        <time>2022-02-15T10:01:00Z</time>
      </trkpt>
      <trkpt lat="45.22006" lon="4.62046">
        <ele>677</ele>
        <time>2022-02-15T10:01:01Z</time>
      </trkpt>
      <trkpt lat="45.2201" lon="4.62058">
        <ele>677</ele>
        <time>2022-02-15T10:01:06Z</time>
      </trkpt>
      <trkpt lat="45.2202" lon="4.62075">
        <ele>677.40002441406</ele>
        <time>2022-02-15T10:01:13Z</time>
      </trkpt>
      <trkpt lat="45.22027" lon="4.62094">
        <ele>679.79998779297</ele>
        <time>2022-02-15T10:01:23Z</time>
      </trkpt>
      <trkpt lat="45.22034" lon="4.62103">
        <ele>680.59997558594</ele>
        <time>2022-02-15T10:01:29Z</time>
      </trkpt>
      <trkpt lat="45.22042" lon="4.62116">
        <ele>682</ele>
        <time>2022-02-15T10:01:37Z</time>
      </trkpt>
      <trkpt lat="45.22057" lon="4.62131">
        <ele>683.79998779297</ele>
        <time>2022-02-15T10:01:46Z</time>
      </trkpt>
      <trkpt lat="45.22077" lon="4.62158">
        <ele>686.40002441406</ele>
        <time>2022-02-15T10:02:00Z</time>
      </trkpt>
      <trkpt lat="45.22092" lon="4.62185">
        <ele>687.79998779297</ele>
        <time>2022-02-15T10:02:12Z</time>
      </trkpt>
      <trkpt lat="45.22097" lon="4.62202">
        <ele>688</ele>
        <time>2022-02-15T10:02:16Z</time>
      </trkpt>
      <trkpt lat="45.22102" lon="4.62224">
        <ele>688.40002441406</ele>
        <time>2022-02-15T10:02:22Z</time>
      </trkpt>
      <trkpt lat="45.221" lon="4.62239">
        <ele>689</ele>
        <time>2022-02-15T10:02:27Z</time>
      </trkpt>
      <trkpt lat="45.22097" lon="4.62248">
        <ele>689</ele>
        <time>2022-02-15T10:02:30Z</time>
      </trkpt>
      <trkpt lat="45.22095" lon="4.62273">
        <ele>689.20001220703</ele>
        <time>2022-02-15T10:02:36Z</time>
      </trkpt>
      <trkpt lat="45.22097" lon="4.62301">
        <ele>689.20001220703</ele>
        <time>2022-02-15T10:02:42Z</time>
      </trkpt>
      <trkpt lat="45.22089" lon="4.62335">
        <ele>689.40002441406</ele>
        <time>2022-02-15T10:02:50Z</time>
      </trkpt>
      <trkpt lat="45.2207" lon="4.62341">
        <ele>689.40002441406</ele>
        <time>2022-02-15T10:02:56Z</time>
      </trkpt>
      <trkpt lat="45.22047" lon="4.62336">
        <ele>690</ele>
        <time>2022-02-15T10:03:08Z</time>
      </trkpt>
      <trkpt lat="45.22044" lon="4.62336">
        <ele>689.79998779297</ele>
        <time>2022-02-15T10:03:27Z</time>
      </trkpt>
      <trkpt lat="45.22027" lon="4.62321">
        <ele>690.79998779297</ele>
        <time>2022-02-15T10:06:58Z</time>
      </trkpt>
      <trkpt lat="45.2199" lon="4.62286">
        <ele>693.59997558594</ele>
        <time>2022-02-15T10:07:17Z</time>
      </trkpt>
      <trkpt lat="45.21987" lon="4.62282">
        <ele>694</ele>
        <time>2022-02-15T10:07:19Z</time>
      </trkpt>
      <trkpt lat="45.21967" lon="4.62264">
        <ele>696.20001220703</ele>
        <time>2022-02-15T10:07:31Z</time>
      </trkpt>
      <trkpt lat="45.21943" lon="4.6225">
        <ele>698.20001220703</ele>
        <time>2022-02-15T10:07:45Z</time>
      </trkpt>
      <trkpt lat="45.21922" lon="4.62245">
        <ele>701</ele>
        <time>2022-02-15T10:07:59Z</time>
      </trkpt>
      <trkpt lat="45.21907" lon="4.62241">
        <ele>702.40002441406</ele>
        <time>2022-02-15T10:08:07Z</time>
      </trkpt>
      <trkpt lat="45.21892" lon="4.62236">
        <ele>703.20001220703</ele>
        <time>2022-02-15T10:08:15Z</time>
      </trkpt>
      <trkpt lat="45.21878" lon="4.62234">
        <ele>704.40002441406</ele>
        <time>2022-02-15T10:08:24Z</time>
      </trkpt>
      <trkpt lat="45.21857" lon="4.62227">
        <ele>705.79998779297</ele>
        <time>2022-02-15T10:08:33Z</time>
      </trkpt>
      <trkpt lat="45.21836" lon="4.62214">
        <ele>707</ele>
        <time>2022-02-15T10:08:46Z</time>
      </trkpt>
      <trkpt lat="45.2182" lon="4.62212">
        <ele>709</ele>
        <time>2022-02-15T10:08:56Z</time>
      </trkpt>
      <trkpt lat="45.21804" lon="4.62209">
        <ele>710.40002441406</ele>
        <time>2022-02-15T10:09:05Z</time>
      </trkpt>
      <trkpt lat="45.2179" lon="4.62212">
        <ele>712</ele>
        <time>2022-02-15T10:09:14Z</time>
      </trkpt>
      <trkpt lat="45.21772" lon="4.62214">
        <ele>713.20001220703</ele>
        <time>2022-02-15T10:09:20Z</time>
      </trkpt>
      <trkpt lat="45.21755" lon="4.62216">
        <ele>713.79998779297</ele>
        <time>2022-02-15T10:09:24Z</time>
      </trkpt>
      <trkpt lat="45.21752" lon="4.62234">
        <ele>714.79998779297</ele>
        <time>2022-02-15T10:09:29Z</time>
      </trkpt>
      <trkpt lat="45.21739" lon="4.62246">
        <ele>716.20001220703</ele>
        <time>2022-02-15T10:09:37Z</time>
      </trkpt>
      <trkpt lat="45.21737" lon="4.62248">
        <ele>716.40002441406</ele>
        <time>2022-02-15T10:09:38Z</time>
      </trkpt>
      <trkpt lat="45.21718" lon="4.62249">
        <ele>717</ele>
        <time>2022-02-15T10:09:47Z</time>
      </trkpt>
      <trkpt lat="45.21693" lon="4.62244">
        <ele>717.20001220703</ele>
        <time>2022-02-15T10:09:56Z</time>
      </trkpt>
      <trkpt lat="45.21672" lon="4.62234">
        <ele>718.59997558594</ele>
        <time>2022-02-15T10:10:07Z</time>
      </trkpt>
      <trkpt lat="45.21648" lon="4.62227">
        <ele>720.59997558594</ele>
        <time>2022-02-15T10:10:19Z</time>
      </trkpt>
      <trkpt lat="45.21637" lon="4.62222">
        <ele>720.79998779297</ele>
        <time>2022-02-15T10:10:23Z</time>
      </trkpt>
      <trkpt lat="45.21626" lon="4.62215">
        <ele>721.40002441406</ele>
        <time>2022-02-15T10:10:27Z</time>
      </trkpt>
      <trkpt lat="45.21613" lon="4.62207">
        <ele>722</ele>
        <time>2022-02-15T10:10:31Z</time>
      </trkpt>
      <trkpt lat="45.21591" lon="4.62197">
        <ele>722.59997558594</ele>
        <time>2022-02-15T10:10:38Z</time>
      </trkpt>
      <trkpt lat="45.21581" lon="4.62192">
        <ele>722.79998779297</ele>
        <time>2022-02-15T10:10:41Z</time>
      </trkpt>
      <trkpt lat="45.21569" lon="4.62184">
        <ele>723.20001220703</ele>
        <time>2022-02-15T10:10:46Z</time>
      </trkpt>
      <trkpt lat="45.21541" lon="4.6217">
        <ele>723.79998779297</ele>
        <time>2022-02-15T10:10:58Z</time>
      </trkpt>
      <trkpt lat="45.21516" lon="4.62156">
        <ele>723.40002441406</ele>
        <time>2022-02-15T10:11:06Z</time>
      </trkpt>
      <trkpt lat="45.2149" lon="4.62146">
        <ele>723.79998779297</ele>
        <time>2022-02-15T10:11:13Z</time>
      </trkpt>
      <trkpt lat="45.21465" lon="4.62131">
        <ele>723.79998779297</ele>
        <time>2022-02-15T10:11:21Z</time>
      </trkpt>
      <trkpt lat="45.21428" lon="4.62109">
        <ele>723.79998779297</ele>
        <time>2022-02-15T10:11:31Z</time>
      </trkpt>
      <trkpt lat="45.21398" lon="4.62065">
        <ele>725.20001220703</ele>
        <time>2022-02-15T10:11:45Z</time>
      </trkpt>
      <trkpt lat="45.21398" lon="4.6205">
        <ele>726</ele>
        <time>2022-02-15T10:11:49Z</time>
      </trkpt>
      <trkpt lat="45.214" lon="4.62015">
        <ele>726.59997558594</ele>
        <time>2022-02-15T10:11:56Z</time>
      </trkpt>
      <trkpt lat="45.21401" lon="4.61993">
        <ele>727</ele>
        <time>2022-02-15T10:12:01Z</time>
      </trkpt>
      <trkpt lat="45.21398" lon="4.61977">
        <ele>727.59997558594</ele>
        <time>2022-02-15T10:12:05Z</time>
      </trkpt>
      <trkpt lat="45.21402" lon="4.61957">
        <ele>728.40002441406</ele>
        <time>2022-02-15T10:12:09Z</time>
      </trkpt>
      <trkpt lat="45.21407" lon="4.61934">
        <ele>729.59997558594</ele>
        <time>2022-02-15T10:12:15Z</time>
      </trkpt>
      <trkpt lat="45.21415" lon="4.61897">
        <ele>730.59997558594</ele>
        <time>2022-02-15T10:12:24Z</time>
      </trkpt>
      <trkpt lat="45.21418" lon="4.6188">
        <ele>731.20001220703</ele>
        <time>2022-02-15T10:12:29Z</time>
      </trkpt>
      <trkpt lat="45.21422" lon="4.61866">
        <ele>731.40002441406</ele>
        <time>2022-02-15T10:12:33Z</time>
      </trkpt>
      <trkpt lat="45.21445" lon="4.61825">
        <ele>733.20001220703</ele>
        <time>2022-02-15T10:12:45Z</time>
      </trkpt>
      <trkpt lat="45.2146" lon="4.61809">
        <ele>735.20001220703</ele>
        <time>2022-02-15T10:12:52Z</time>
      </trkpt>
      <trkpt lat="45.2148" lon="4.61772">
        <ele>737.40002441406</ele>
        <time>2022-02-15T10:13:06Z</time>
      </trkpt>
      <trkpt lat="45.21504" lon="4.61733">
        <ele>739.40002441406</ele>
        <time>2022-02-15T10:13:21Z</time>
      </trkpt>
      <trkpt lat="45.21527" lon="4.61697">
        <ele>740.20001220703</ele>
        <time>2022-02-15T10:13:35Z</time>
      </trkpt>
      <trkpt lat="45.21561" lon="4.6165">
        <ele>742.20001220703</ele>
        <time>2022-02-15T10:13:53Z</time>
      </trkpt>
      <trkpt lat="45.21564" lon="4.61637">
        <ele>742.59997558594</ele>
        <time>2022-02-15T10:13:58Z</time>
      </trkpt>
      <trkpt lat="45.21575" lon="4.61624">
        <ele>743.40002441406</ele>
        <time>2022-02-15T10:14:09Z</time>
      </trkpt>
      <trkpt lat="45.21578" lon="4.61623">
        <ele>743.79998779297</ele>
        <time>2022-02-15T10:14:12Z</time>
      </trkpt>
      <trkpt lat="45.2158" lon="4.61625">
        <ele>743.79998779297</ele>
        <time>2022-02-15T10:14:14Z</time>
      </trkpt>
      <trkpt lat="45.21575" lon="4.61629">
        <ele>743.79998779297</ele>
        <time>2022-02-15T10:14:19Z</time>
      </trkpt>
      <trkpt lat="45.21537" lon="4.61613">
        <ele>743.79998779297</ele>
        <time>2022-02-15T10:14:37Z</time>
      </trkpt>
      <trkpt lat="45.21527" lon="4.61593">
        <ele>744.79998779297</ele>
        <time>2022-02-15T10:14:46Z</time>
      </trkpt>
      <trkpt lat="45.2152" lon="4.61581">
        <ele>745.79998779297</ele>
        <time>2022-02-15T10:14:51Z</time>
      </trkpt>
      <trkpt lat="45.21519" lon="4.61579">
        <ele>746</ele>
        <time>2022-02-15T10:14:52Z</time>
      </trkpt>
      <trkpt lat="45.21511" lon="4.61554">
        <ele>747.40002441406</ele>
        <time>2022-02-15T10:14:59Z</time>
      </trkpt>
      <trkpt lat="45.21505" lon="4.61541">
        <ele>747.79998779297</ele>
        <time>2022-02-15T10:15:02Z</time>
      </trkpt>
      <trkpt lat="45.21493" lon="4.61515">
        <ele>748</ele>
        <time>2022-02-15T10:15:08Z</time>
      </trkpt>
      <trkpt lat="45.21482" lon="4.61485">
        <ele>747.59997558594</ele>
        <time>2022-02-15T10:15:13Z</time>
      </trkpt>
      <trkpt lat="45.21469" lon="4.61458">
        <ele>747.20001220703</ele>
        <time>2022-02-15T10:15:18Z</time>
      </trkpt>
      <trkpt lat="45.21461" lon="4.61425">
        <ele>746.59997558594</ele>
        <time>2022-02-15T10:15:26Z</time>
      </trkpt>
      <trkpt lat="45.21422" lon="4.61385">
        <ele>745.40002441406</ele>
        <time>2022-02-15T10:15:37Z</time>
      </trkpt>
      <trkpt lat="45.21397" lon="4.61377">
        <ele>745.40002441406</ele>
        <time>2022-02-15T10:15:47Z</time>
      </trkpt>
      <trkpt lat="45.21396" lon="4.61378">
        <ele>745.79998779297</ele>
        <time>2022-02-15T10:15:50Z</time>
      </trkpt>
      <trkpt lat="45.21378" lon="4.61379">
        <ele>746.40002441406</ele>
        <time>2022-02-15T10:15:54Z</time>
      </trkpt>
      <trkpt lat="45.21371" lon="4.61379">
        <ele>747</ele>
        <time>2022-02-15T10:15:56Z</time>
      </trkpt>
      <trkpt lat="45.21342" lon="4.61382">
        <ele>748.59997558594</ele>
        <time>2022-02-15T10:16:05Z</time>
      </trkpt>
      <trkpt lat="45.21319" lon="4.61393">
        <ele>750.20001220703</ele>
        <time>2022-02-15T10:16:12Z</time>
      </trkpt>
      <trkpt lat="45.2131" lon="4.61407">
        <ele>751.59997558594</ele>
        <time>2022-02-15T10:16:19Z</time>
      </trkpt>
      <trkpt lat="45.21293" lon="4.61421">
        <ele>752.79998779297</ele>
        <time>2022-02-15T10:16:26Z</time>
      </trkpt>
      <trkpt lat="45.21285" lon="4.61424">
        <ele>753.20001220703</ele>
        <time>2022-02-15T10:16:29Z</time>
      </trkpt>
      <trkpt lat="45.21268" lon="4.61428">
        <ele>753.79998779297</ele>
        <time>2022-02-15T10:16:35Z</time>
      </trkpt>
      <trkpt lat="45.21261" lon="4.61434">
        <ele>754.20001220703</ele>
        <time>2022-02-15T10:16:40Z</time>
      </trkpt>
      <trkpt lat="45.21257" lon="4.61437">
        <ele>754.40002441406</ele>
        <time>2022-02-15T10:16:42Z</time>
      </trkpt>
      <trkpt lat="45.21241" lon="4.61441">
        <ele>755.40002441406</ele>
        <time>2022-02-15T10:16:52Z</time>
      </trkpt>
      <trkpt lat="45.21215" lon="4.61435">
        <ele>756.59997558594</ele>
        <time>2022-02-15T10:17:04Z</time>
      </trkpt>
      <trkpt lat="45.21181" lon="4.61414">
        <ele>758.20001220703</ele>
        <time>2022-02-15T10:17:17Z</time>
      </trkpt>
      <trkpt lat="45.21173" lon="4.61399">
        <ele>758.79998779297</ele>
        <time>2022-02-15T10:17:24Z</time>
      </trkpt>
      <trkpt lat="45.2116" lon="4.61373">
        <ele>760.20001220703</ele>
        <time>2022-02-15T10:17:34Z</time>
      </trkpt>
      <trkpt lat="45.21155" lon="4.61338">
        <ele>761.59997558594</ele>
        <time>2022-02-15T10:17:44Z</time>
      </trkpt>
      <trkpt lat="45.21154" lon="4.61329">
        <ele>762</ele>
        <time>2022-02-15T10:17:47Z</time>
      </trkpt>
      <trkpt lat="45.21149" lon="4.61312">
        <ele>762.59997558594</ele>
        <time>2022-02-15T10:17:51Z</time>
      </trkpt>
      <trkpt lat="45.21145" lon="4.61289">
        <ele>763.40002441406</ele>
        <time>2022-02-15T10:17:57Z</time>
      </trkpt>
      <trkpt lat="45.21145" lon="4.61277">
        <ele>764</ele>
        <time>2022-02-15T10:18:01Z</time>
      </trkpt>
      <trkpt lat="45.21141" lon="4.61257">
        <ele>765</ele>
        <time>2022-02-15T10:18:07Z</time>
      </trkpt>
      <trkpt lat="45.21137" lon="4.61249">
        <ele>765.40002441406</ele>
        <time>2022-02-15T10:18:09Z</time>
      </trkpt>
      <trkpt lat="45.21134" lon="4.61239">
        <ele>765.59997558594</ele>
        <time>2022-02-15T10:18:14Z</time>
      </trkpt>
      <trkpt lat="45.21132" lon="4.61227">
        <ele>766.20001220703</ele>
        <time>2022-02-15T10:18:20Z</time>
      </trkpt>
      <trkpt lat="45.2113" lon="4.61221">
        <ele>766.40002441406</ele>
        <time>2022-02-15T10:18:23Z</time>
      </trkpt>
      <trkpt lat="45.2112" lon="4.61207">
        <ele>767.40002441406</ele>
        <time>2022-02-15T10:18:29Z</time>
      </trkpt>
      <trkpt lat="45.21115" lon="4.61201">
        <ele>767.79998779297</ele>
        <time>2022-02-15T10:18:31Z</time>
      </trkpt>
      <trkpt lat="45.21103" lon="4.61175">
        <ele>768.59997558594</ele>
        <time>2022-02-15T10:18:38Z</time>
      </trkpt>
      <trkpt lat="45.21098" lon="4.61163">
        <ele>769</ele>
        <time>2022-02-15T10:18:42Z</time>
      </trkpt>
      <trkpt lat="45.21089" lon="4.6115">
        <ele>769.40002441406</ele>
        <time>2022-02-15T10:18:47Z</time>
      </trkpt>
      <trkpt lat="45.2108" lon="4.61131">
        <ele>769.79998779297</ele>
        <time>2022-02-15T10:18:52Z</time>
      </trkpt>
      <trkpt lat="45.21075" lon="4.61115">
        <ele>770.59997558594</ele>
        <time>2022-02-15T10:18:59Z</time>
      </trkpt>
      <trkpt lat="45.21075" lon="4.61114">
        <ele>770.59997558594</ele>
        <time>2022-02-15T10:19:00Z</time>
      </trkpt>
      <trkpt lat="45.21071" lon="4.61106">
        <ele>771.59997558594</ele>
        <time>2022-02-15T10:19:05Z</time>
      </trkpt>
      <trkpt lat="45.21071" lon="4.61103">
        <ele>771.79998779297</ele>
        <time>2022-02-15T10:19:07Z</time>
      </trkpt>
      <trkpt lat="45.21064" lon="4.61078">
        <ele>773.40002441406</ele>
        <time>2022-02-15T10:19:15Z</time>
      </trkpt>
      <trkpt lat="45.21064" lon="4.61078">
        <ele>773.40002441406</ele>
        <time>2022-02-15T10:19:16Z</time>
      </trkpt>
      <trkpt lat="45.21056" lon="4.61053">
        <ele>774.40002441406</ele>
        <time>2022-02-15T10:19:22Z</time>
      </trkpt>
      <trkpt lat="45.21051" lon="4.61045">
        <ele>775</ele>
        <time>2022-02-15T10:19:25Z</time>
      </trkpt>
      <trkpt lat="45.21048" lon="4.61029">
        <ele>775.59997558594</ele>
        <time>2022-02-15T10:19:30Z</time>
      </trkpt>
      <trkpt lat="45.21039" lon="4.61013">
        <ele>776</ele>
        <time>2022-02-15T10:19:35Z</time>
      </trkpt>
      <trkpt lat="45.21039" lon="4.61011">
        <ele>776.20001220703</ele>
        <time>2022-02-15T10:19:36Z</time>
      </trkpt>
      <trkpt lat="45.21039" lon="4.6101">
        <ele>776.40002441406</ele>
        <time>2022-02-15T10:19:37Z</time>
      </trkpt>
      <trkpt lat="45.21032" lon="4.60987">
        <ele>777</ele>
        <time>2022-02-15T10:19:43Z</time>
      </trkpt>
      <trkpt lat="45.21031" lon="4.60983">
        <ele>777</ele>
        <time>2022-02-15T10:19:44Z</time>
      </trkpt>
      <trkpt lat="45.21023" lon="4.60964">
        <ele>777.59997558594</ele>
        <time>2022-02-15T10:19:50Z</time>
      </trkpt>
      <trkpt lat="45.21012" lon="4.60941">
        <ele>778.59997558594</ele>
        <time>2022-02-15T10:19:58Z</time>
      </trkpt>
      <trkpt lat="45.21006" lon="4.60923">
        <ele>779.79998779297</ele>
        <time>2022-02-15T10:20:06Z</time>
      </trkpt>
      <trkpt lat="45.21004" lon="4.60921">
        <ele>780</ele>
        <time>2022-02-15T10:20:07Z</time>
      </trkpt>
      <trkpt lat="45.21004" lon="4.60917">
        <ele>780.20001220703</ele>
        <time>2022-02-15T10:20:09Z</time>
      </trkpt>
      <trkpt lat="45.20996" lon="4.6089">
        <ele>781.20001220703</ele>
        <time>2022-02-15T10:20:21Z</time>
      </trkpt>
      <trkpt lat="45.20977" lon="4.6086">
        <ele>782.20001220703</ele>
        <time>2022-02-15T10:20:31Z</time>
      </trkpt>
      <trkpt lat="45.20969" lon="4.60849">
        <ele>782.59997558594</ele>
        <time>2022-02-15T10:20:34Z</time>
      </trkpt>
      <trkpt lat="45.20963" lon="4.60841">
        <ele>783.20001220703</ele>
        <time>2022-02-15T10:20:39Z</time>
      </trkpt>
      <trkpt lat="45.20953" lon="4.60835">
        <ele>783.59997558594</ele>
        <time>2022-02-15T10:20:43Z</time>
      </trkpt>
      <trkpt lat="45.20948" lon="4.60831">
        <ele>784.20001220703</ele>
        <time>2022-02-15T10:20:47Z</time>
      </trkpt>
      <trkpt lat="45.20942" lon="4.60828">
        <ele>784.40002441406</ele>
        <time>2022-02-15T10:20:49Z</time>
      </trkpt>
      <trkpt lat="45.20922" lon="4.60822">
        <ele>785</ele>
        <time>2022-02-15T10:20:56Z</time>
      </trkpt>
      <trkpt lat="45.20909" lon="4.60829">
        <ele>785.59997558594</ele>
        <time>2022-02-15T10:21:01Z</time>
      </trkpt>
      <trkpt lat="45.20905" lon="4.60831">
        <ele>785.59997558594</ele>
        <time>2022-02-15T10:21:02Z</time>
      </trkpt>
      <trkpt lat="45.20898" lon="4.60838">
        <ele>785.79998779297</ele>
        <time>2022-02-15T10:21:04Z</time>
      </trkpt>
      <trkpt lat="45.20886" lon="4.6084">
        <ele>786.40002441406</ele>
        <time>2022-02-15T10:21:09Z</time>
      </trkpt>
      <trkpt lat="45.20878" lon="4.60843">
        <ele>786.79998779297</ele>
        <time>2022-02-15T10:21:12Z</time>
      </trkpt>
      <trkpt lat="45.2086" lon="4.60856">
        <ele>787.40002441406</ele>
        <time>2022-02-15T10:21:18Z</time>
      </trkpt>
      <trkpt lat="45.20846" lon="4.60863">
        <ele>788.20001220703</ele>
        <time>2022-02-15T10:21:23Z</time>
      </trkpt>
      <trkpt lat="45.20828" lon="4.60872">
        <ele>789</ele>
        <time>2022-02-15T10:21:29Z</time>
      </trkpt>
      <trkpt lat="45.20824" lon="4.60885">
        <ele>789.20001220703</ele>
        <time>2022-02-15T10:21:33Z</time>
      </trkpt>
      <trkpt lat="45.2082" lon="4.60891">
        <ele>789.79998779297</ele>
        <time>2022-02-15T10:21:36Z</time>
      </trkpt>
      <trkpt lat="45.20806" lon="4.60903">
        <ele>791</ele>
        <time>2022-02-15T10:21:43Z</time>
      </trkpt>
      <trkpt lat="45.20803" lon="4.60927">
        <ele>791.40002441406</ele>
        <time>2022-02-15T10:21:50Z</time>
      </trkpt>
      <trkpt lat="45.20792" lon="4.60941">
        <ele>792</ele>
        <time>2022-02-15T10:21:57Z</time>
      </trkpt>
      <trkpt lat="45.2079" lon="4.60954">
        <ele>792.79998779297</ele>
        <time>2022-02-15T10:22:03Z</time>
      </trkpt>
      <trkpt lat="45.20787" lon="4.6096">
        <ele>793.20001220703</ele>
        <time>2022-02-15T10:22:06Z</time>
      </trkpt>
      <trkpt lat="45.20781" lon="4.60981">
        <ele>794.40002441406</ele>
        <time>2022-02-15T10:22:15Z</time>
      </trkpt>
      <trkpt lat="45.20779" lon="4.60991">
        <ele>794.59997558594</ele>
        <time>2022-02-15T10:22:18Z</time>
      </trkpt>
      <trkpt lat="45.20761" lon="4.61013">
        <ele>795.20001220703</ele>
        <time>2022-02-15T10:22:28Z</time>
      </trkpt>
      <trkpt lat="45.20726" lon="4.61015">
        <ele>796.40002441406</ele>
        <time>2022-02-15T10:22:45Z</time>
      </trkpt>
      <trkpt lat="45.20686" lon="4.60999">
        <ele>797.79998779297</ele>
        <time>2022-02-15T10:23:02Z</time>
      </trkpt>
      <trkpt lat="45.20662" lon="4.60979">
        <ele>799.59997558594</ele>
        <time>2022-02-15T10:23:14Z</time>
      </trkpt>
      <trkpt lat="45.20658" lon="4.60973">
        <ele>800.20001220703</ele>
        <time>2022-02-15T10:23:17Z</time>
      </trkpt>
      <trkpt lat="45.20651" lon="4.60963">
        <ele>800.79998779297</ele>
        <time>2022-02-15T10:23:22Z</time>
      </trkpt>
      <trkpt lat="45.2065" lon="4.6096">
        <ele>802.20001220703</ele>
        <time>2022-02-15T10:23:35Z</time>
      </trkpt>
      <trkpt lat="45.2065" lon="4.6096">
        <ele>802</ele>
        <time>2022-02-15T10:25:09Z</time>
      </trkpt>
      <trkpt lat="45.20628" lon="4.60936">
        <ele>802.40002441406</ele>
        <time>2022-02-15T10:25:19Z</time>
      </trkpt>
      <trkpt lat="45.20612" lon="4.6092">
        <ele>803.59997558594</ele>
        <time>2022-02-15T10:25:26Z</time>
      </trkpt>
      <trkpt lat="45.20611" lon="4.60918">
        <ele>803.59997558594</ele>
        <time>2022-02-15T10:25:27Z</time>
      </trkpt>
      <trkpt lat="45.20604" lon="4.60906">
        <ele>804.20001220703</ele>
        <time>2022-02-15T10:25:31Z</time>
      </trkpt>
      <trkpt lat="45.20583" lon="4.60886">
        <ele>805.59997558594</ele>
        <time>2022-02-15T10:25:42Z</time>
      </trkpt>
      <trkpt lat="45.20566" lon="4.60887">
        <ele>806.79998779297</ele>
        <time>2022-02-15T10:25:52Z</time>
      </trkpt>
      <trkpt lat="45.20558" lon="4.6089">
        <ele>807.40002441406</ele>
        <time>2022-02-15T10:25:57Z</time>
      </trkpt>
      <trkpt lat="45.20539" lon="4.60894">
        <ele>808.59997558594</ele>
        <time>2022-02-15T10:26:05Z</time>
      </trkpt>
      <trkpt lat="45.2052" lon="4.60892">
        <ele>809.59997558594</ele>
        <time>2022-02-15T10:26:14Z</time>
      </trkpt>
      <trkpt lat="45.20502" lon="4.60892">
        <ele>810</ele>
        <time>2022-02-15T10:26:21Z</time>
      </trkpt>
      <trkpt lat="45.20488" lon="4.60896">
        <ele>810.20001220703</ele>
        <time>2022-02-15T10:26:24Z</time>
      </trkpt>
      <trkpt lat="45.20468" lon="4.60901">
        <ele>811</ele>
        <time>2022-02-15T10:26:30Z</time>
      </trkpt>
      <trkpt lat="45.20462" lon="4.60912">
        <ele>811.40002441406</ele>
        <time>2022-02-15T10:26:35Z</time>
      </trkpt>
      <trkpt lat="45.20454" lon="4.60918">
        <ele>812</ele>
        <time>2022-02-15T10:26:40Z</time>
      </trkpt>
      <trkpt lat="45.20423" lon="4.60948">
        <ele>814</ele>
        <time>2022-02-15T10:26:56Z</time>
      </trkpt>
      <trkpt lat="45.2042" lon="4.6095">
        <ele>814.20001220703</ele>
        <time>2022-02-15T10:26:57Z</time>
      </trkpt>
      <trkpt lat="45.204" lon="4.60966">
        <ele>814.79998779297</ele>
        <time>2022-02-15T10:27:07Z</time>
      </trkpt>
      <trkpt lat="45.20393" lon="4.6097">
        <ele>815.20001220703</ele>
        <time>2022-02-15T10:27:09Z</time>
      </trkpt>
      <trkpt lat="45.20377" lon="4.60978">
        <ele>816.20001220703</ele>
        <time>2022-02-15T10:27:17Z</time>
      </trkpt>
      <trkpt lat="45.20363" lon="4.60979">
        <ele>817</ele>
        <time>2022-02-15T10:27:23Z</time>
      </trkpt>
      <trkpt lat="45.20345" lon="4.60965">
        <ele>817.59997558594</ele>
        <time>2022-02-15T10:27:31Z</time>
      </trkpt>
      <trkpt lat="45.20333" lon="4.60954">
        <ele>819</ele>
        <time>2022-02-15T10:27:38Z</time>
      </trkpt>
      <trkpt lat="45.20321" lon="4.60941">
        <ele>820.40002441406</ele>
        <time>2022-02-15T10:27:45Z</time>
      </trkpt>
      <trkpt lat="45.20318" lon="4.60931">
        <ele>821.20001220703</ele>
        <time>2022-02-15T10:27:49Z</time>
      </trkpt>
      <trkpt lat="45.20317" lon="4.60928">
        <ele>821.20001220703</ele>
        <time>2022-02-15T10:27:50Z</time>
      </trkpt>
      <trkpt lat="45.20311" lon="4.60921">
        <ele>822.40002441406</ele>
        <time>2022-02-15T10:27:56Z</time>
      </trkpt>
      <trkpt lat="45.20306" lon="4.6091">
        <ele>823.59997558594</ele>
        <time>2022-02-15T10:28:02Z</time>
      </trkpt>
      <trkpt lat="45.20305" lon="4.60908">
        <ele>823.59997558594</ele>
        <time>2022-02-15T10:28:03Z</time>
      </trkpt>
      <trkpt lat="45.20296" lon="4.60892">
        <ele>824.59997558594</ele>
        <time>2022-02-15T10:28:12Z</time>
      </trkpt>
      <trkpt lat="45.20293" lon="4.60887">
        <ele>825</ele>
        <time>2022-02-15T10:28:14Z</time>
      </trkpt>
      <trkpt lat="45.20287" lon="4.60881">
        <ele>826.20001220703</ele>
        <time>2022-02-15T10:28:19Z</time>
      </trkpt>
      <trkpt lat="45.20285" lon="4.60877">
        <ele>827</ele>
        <time>2022-02-15T10:28:22Z</time>
      </trkpt>
      <trkpt lat="45.20282" lon="4.60867">
        <ele>827.59997558594</ele>
        <time>2022-02-15T10:28:27Z</time>
      </trkpt>
      <trkpt lat="45.20282" lon="4.60865">
        <ele>827.79998779297</ele>
        <time>2022-02-15T10:28:28Z</time>
      </trkpt>
      <trkpt lat="45.20272" lon="4.60847">
        <ele>828.79998779297</ele>
        <time>2022-02-15T10:28:35Z</time>
      </trkpt>
      <trkpt lat="45.20267" lon="4.60834">
        <ele>830.79998779297</ele>
        <time>2022-02-15T10:28:42Z</time>
      </trkpt>
      <trkpt lat="45.20264" lon="4.60828">
        <ele>832.59997558594</ele>
        <time>2022-02-15T10:28:50Z</time>
      </trkpt>
      <trkpt lat="45.2026" lon="4.60818">
        <ele>833.59997558594</ele>
        <time>2022-02-15T10:28:57Z</time>
      </trkpt>
      <trkpt lat="45.20258" lon="4.60809">
        <ele>834.20001220703</ele>
        <time>2022-02-15T10:29:01Z</time>
      </trkpt>
      <trkpt lat="45.20253" lon="4.60797">
        <ele>835.79998779297</ele>
        <time>2022-02-15T10:29:11Z</time>
      </trkpt>
      <trkpt lat="45.20251" lon="4.60793">
        <ele>836.20001220703</ele>
        <time>2022-02-15T10:29:14Z</time>
      </trkpt>
      <trkpt lat="45.20246" lon="4.60767">
        <ele>837.40002441406</ele>
        <time>2022-02-15T10:29:23Z</time>
      </trkpt>
      <trkpt lat="45.20243" lon="4.60763">
        <ele>838</ele>
        <time>2022-02-15T10:29:25Z</time>
      </trkpt>
      <trkpt lat="45.20242" lon="4.60762">
        <ele>838.20001220703</ele>
        <time>2022-02-15T10:29:26Z</time>
      </trkpt>
      <trkpt lat="45.20238" lon="4.60746">
        <ele>839.59997558594</ele>
        <time>2022-02-15T10:29:33Z</time>
      </trkpt>
      <trkpt lat="45.20235" lon="4.60742">
        <ele>840</ele>
        <time>2022-02-15T10:29:36Z</time>
      </trkpt>
      <trkpt lat="45.20233" lon="4.60737">
        <ele>840.40002441406</ele>
        <time>2022-02-15T10:29:39Z</time>
      </trkpt>
      <trkpt lat="45.2023" lon="4.60728">
        <ele>842.20001220703</ele>
        <time>2022-02-15T10:29:49Z</time>
      </trkpt>
      <trkpt lat="45.20227" lon="4.60717">
        <ele>843.59997558594</ele>
        <time>2022-02-15T10:29:58Z</time>
      </trkpt>
      <trkpt lat="45.20223" lon="4.60703">
        <ele>844.79998779297</ele>
        <time>2022-02-15T10:30:07Z</time>
      </trkpt>
      <trkpt lat="45.20215" lon="4.60684">
        <ele>846</ele>
        <time>2022-02-15T10:30:15Z</time>
      </trkpt>
      <trkpt lat="45.20204" lon="4.60668">
        <ele>846.79998779297</ele>
        <time>2022-02-15T10:30:20Z</time>
      </trkpt>
      <trkpt lat="45.20204" lon="4.60665">
        <ele>848.20001220703</ele>
        <time>2022-02-15T10:30:26Z</time>
      </trkpt>
      <trkpt lat="45.20204" lon="4.60662">
        <ele>849</ele>
        <time>2022-02-15T10:30:30Z</time>
      </trkpt>
      <trkpt lat="45.202" lon="4.60657">
        <ele>850.59997558594</ele>
        <time>2022-02-15T10:30:35Z</time>
      </trkpt>
      <trkpt lat="45.20196" lon="4.60646">
        <ele>851.59997558594</ele>
        <time>2022-02-15T10:30:39Z</time>
      </trkpt>
      <trkpt lat="45.20191" lon="4.6063">
        <ele>853.20001220703</ele>
        <time>2022-02-15T10:30:46Z</time>
      </trkpt>
      <trkpt lat="45.20184" lon="4.60612">
        <ele>855</ele>
        <time>2022-02-15T10:30:53Z</time>
      </trkpt>
      <trkpt lat="45.20178" lon="4.60602">
        <ele>855.59997558594</ele>
        <time>2022-02-15T10:30:57Z</time>
      </trkpt>
      <trkpt lat="45.20172" lon="4.60587">
        <ele>857.59997558594</ele>
        <time>2022-02-15T10:31:04Z</time>
      </trkpt>
      <trkpt lat="45.20172" lon="4.60586">
        <ele>859</ele>
        <time>2022-02-15T10:31:08Z</time>
      </trkpt>
      <trkpt lat="45.20163" lon="4.60571">
        <ele>862</ele>
        <time>2022-02-15T10:31:18Z</time>
      </trkpt>
      <trkpt lat="45.20162" lon="4.6057">
        <ele>862</ele>
        <time>2022-02-15T10:31:19Z</time>
      </trkpt>
      <trkpt lat="45.20159" lon="4.60564">
        <ele>862.79998779297</ele>
        <time>2022-02-15T10:31:23Z</time>
      </trkpt>
      <trkpt lat="45.20158" lon="4.60557">
        <ele>863.79998779297</ele>
        <time>2022-02-15T10:31:27Z</time>
      </trkpt>
      <trkpt lat="45.20157" lon="4.60554">
        <ele>864.20001220703</ele>
        <time>2022-02-15T10:31:29Z</time>
      </trkpt>
      <trkpt lat="45.20154" lon="4.60549">
        <ele>865.59997558594</ele>
        <time>2022-02-15T10:31:36Z</time>
      </trkpt>
      <trkpt lat="45.2015" lon="4.60542">
        <ele>867.20001220703</ele>
        <time>2022-02-15T10:31:46Z</time>
      </trkpt>
      <trkpt lat="45.20143" lon="4.60529">
        <ele>868</ele>
        <time>2022-02-15T10:31:54Z</time>
      </trkpt>
      <trkpt lat="45.20136" lon="4.60517">
        <ele>868.59997558594</ele>
        <time>2022-02-15T10:32:00Z</time>
      </trkpt>
      <trkpt lat="45.2013" lon="4.60503">
        <ele>869.20001220703</ele>
        <time>2022-02-15T10:32:06Z</time>
      </trkpt>
      <trkpt lat="45.20129" lon="4.60495">
        <ele>869.79998779297</ele>
        <time>2022-02-15T10:32:10Z</time>
      </trkpt>
      <trkpt lat="45.20125" lon="4.60479">
        <ele>870.79998779297</ele>
        <time>2022-02-15T10:32:17Z</time>
      </trkpt>
      <trkpt lat="45.2012" lon="4.60468">
        <ele>872.79998779297</ele>
        <time>2022-02-15T10:32:26Z</time>
      </trkpt>
      <trkpt lat="45.20111" lon="4.60448">
        <ele>875</ele>
        <time>2022-02-15T10:32:37Z</time>
      </trkpt>
      <trkpt lat="45.20109" lon="4.60446">
        <ele>875.20001220703</ele>
        <time>2022-02-15T10:32:39Z</time>
      </trkpt>
      <trkpt lat="45.20105" lon="4.60442">
        <ele>875.59997558594</ele>
        <time>2022-02-15T10:32:43Z</time>
      </trkpt>
      <trkpt lat="45.20101" lon="4.6043">
        <ele>877</ele>
        <time>2022-02-15T10:32:49Z</time>
      </trkpt>
      <trkpt lat="45.20097" lon="4.60425">
        <ele>877.59997558594</ele>
        <time>2022-02-15T10:32:54Z</time>
      </trkpt>
      <trkpt lat="45.20096" lon="4.60423">
        <ele>878</ele>
        <time>2022-02-15T10:32:57Z</time>
      </trkpt>
      <trkpt lat="45.20092" lon="4.60418">
        <ele>879.20001220703</ele>
        <time>2022-02-15T10:33:02Z</time>
      </trkpt>
      <trkpt lat="45.20088" lon="4.60415">
        <ele>879.59997558594</ele>
        <time>2022-02-15T10:33:03Z</time>
      </trkpt>
      <trkpt lat="45.20082" lon="4.60401">
        <ele>880.79998779297</ele>
        <time>2022-02-15T10:33:09Z</time>
      </trkpt>
      <trkpt lat="45.20077" lon="4.60394">
        <ele>881.40002441406</ele>
        <time>2022-02-15T10:33:13Z</time>
      </trkpt>
      <trkpt lat="45.20076" lon="4.60393">
        <ele>881.79998779297</ele>
        <time>2022-02-15T10:33:15Z</time>
      </trkpt>
      <trkpt lat="45.20075" lon="4.60392">
        <ele>882.20001220703</ele>
        <time>2022-02-15T10:33:17Z</time>
      </trkpt>
      <trkpt lat="45.20066" lon="4.60387">
        <ele>883.59997558594</ele>
        <time>2022-02-15T10:33:27Z</time>
      </trkpt>
      <trkpt lat="45.20065" lon="4.60383">
        <ele>885</ele>
        <time>2022-02-15T10:33:31Z</time>
      </trkpt>
      <trkpt lat="45.20069" lon="4.60376">
        <ele>887.59997558594</ele>
        <time>2022-02-15T10:33:41Z</time>
      </trkpt>
      <trkpt lat="45.20072" lon="4.60374">
        <ele>888.59997558594</ele>
        <time>2022-02-15T10:33:44Z</time>
      </trkpt>
      <trkpt lat="45.20078" lon="4.60366">
        <ele>891.59997558594</ele>
        <time>2022-02-15T10:33:54Z</time>
      </trkpt>
      <trkpt lat="45.20092" lon="4.60357">
        <ele>894.20001220703</ele>
        <time>2022-02-15T10:34:08Z</time>
      </trkpt>
      <trkpt lat="45.20096" lon="4.60353">
        <ele>895</ele>
        <time>2022-02-15T10:34:12Z</time>
      </trkpt>
      <trkpt lat="45.20098" lon="4.60345">
        <ele>895.59997558594</ele>
        <time>2022-02-15T10:34:16Z</time>
      </trkpt>
      <trkpt lat="45.201" lon="4.6034">
        <ele>895.79998779297</ele>
        <time>2022-02-15T10:34:19Z</time>
      </trkpt>
      <trkpt lat="45.20101" lon="4.60332">
        <ele>896.40002441406</ele>
        <time>2022-02-15T10:34:23Z</time>
      </trkpt>
      <trkpt lat="45.20098" lon="4.60319">
        <ele>897.79998779297</ele>
        <time>2022-02-15T10:34:30Z</time>
      </trkpt>
      <trkpt lat="45.20096" lon="4.60314">
        <ele>898</ele>
        <time>2022-02-15T10:34:33Z</time>
      </trkpt>
      <trkpt lat="45.20092" lon="4.60306">
        <ele>898.20001220703</ele>
        <time>2022-02-15T10:34:38Z</time>
      </trkpt>
      <trkpt lat="45.20088" lon="4.60298">
        <ele>898.40002441406</ele>
        <time>2022-02-15T10:34:44Z</time>
      </trkpt>
      <trkpt lat="45.2008" lon="4.60287">
        <ele>900</ele>
        <time>2022-02-15T10:34:52Z</time>
      </trkpt>
      <trkpt lat="45.20077" lon="4.6028">
        <ele>900.59997558594</ele>
        <time>2022-02-15T10:34:56Z</time>
      </trkpt>
      <trkpt lat="45.20065" lon="4.60263">
        <ele>902</ele>
        <time>2022-02-15T10:35:07Z</time>
      </trkpt>
      <trkpt lat="45.20045" lon="4.60247">
        <ele>904.40002441406</ele>
        <time>2022-02-15T10:35:23Z</time>
      </trkpt>
      <trkpt lat="45.2003" lon="4.60238">
        <ele>906.40002441406</ele>
        <time>2022-02-15T10:35:35Z</time>
      </trkpt>
      <trkpt lat="45.20021" lon="4.60232">
        <ele>907.59997558594</ele>
        <time>2022-02-15T10:35:44Z</time>
      </trkpt>
      <trkpt lat="45.2001" lon="4.60229">
        <ele>909</ele>
        <time>2022-02-15T10:35:53Z</time>
      </trkpt>
      <trkpt lat="45.19994" lon="4.6022">
        <ele>910.79998779297</ele>
        <time>2022-02-15T10:36:02Z</time>
      </trkpt>
      <trkpt lat="45.19986" lon="4.60209">
        <ele>911.79998779297</ele>
        <time>2022-02-15T10:36:10Z</time>
      </trkpt>
      <trkpt lat="45.19981" lon="4.60198">
        <ele>912.59997558594</ele>
        <time>2022-02-15T10:36:15Z</time>
      </trkpt>
      <trkpt lat="45.19977" lon="4.60183">
        <ele>914</ele>
        <time>2022-02-15T10:36:26Z</time>
      </trkpt>
      <trkpt lat="45.19976" lon="4.6018">
        <ele>915</ele>
        <time>2022-02-15T10:36:31Z</time>
      </trkpt>
      <trkpt lat="45.19968" lon="4.60164">
        <ele>916.20001220703</ele>
        <time>2022-02-15T10:36:39Z</time>
      </trkpt>
      <trkpt lat="45.19966" lon="4.60161">
        <ele>916.40002441406</ele>
        <time>2022-02-15T10:36:40Z</time>
      </trkpt>
      <trkpt lat="45.19952" lon="4.60139">
        <ele>917.20001220703</ele>
        <time>2022-02-15T10:36:47Z</time>
      </trkpt>
      <trkpt lat="45.19945" lon="4.60121">
        <ele>917.59997558594</ele>
        <time>2022-02-15T10:36:56Z</time>
      </trkpt>
      <trkpt lat="45.19931" lon="4.60088">
        <ele>919.40002441406</ele>
        <time>2022-02-15T10:37:11Z</time>
      </trkpt>
      <trkpt lat="45.19918" lon="4.60071">
        <ele>919.40002441406</ele>
        <time>2022-02-15T10:37:24Z</time>
      </trkpt>
      <trkpt lat="45.19909" lon="4.60041">
        <ele>920.59997558594</ele>
        <time>2022-02-15T10:37:39Z</time>
      </trkpt>
      <trkpt lat="45.19905" lon="4.60036">
        <ele>920.79998779297</ele>
        <time>2022-02-15T10:37:41Z</time>
      </trkpt>
      <trkpt lat="45.19898" lon="4.60023">
        <ele>922.59997558594</ele>
        <time>2022-02-15T10:37:48Z</time>
      </trkpt>
      <trkpt lat="45.19897" lon="4.60012">
        <ele>923.40002441406</ele>
        <time>2022-02-15T10:37:51Z</time>
      </trkpt>
      <trkpt lat="45.19885" lon="4.59998">
        <ele>924.79998779297</ele>
        <time>2022-02-15T10:37:57Z</time>
      </trkpt>
      <trkpt lat="45.19884" lon="4.59997">
        <ele>925</ele>
        <time>2022-02-15T10:37:59Z</time>
      </trkpt>
      <trkpt lat="45.19874" lon="4.59984">
        <ele>927.20001220703</ele>
        <time>2022-02-15T10:38:10Z</time>
      </trkpt>
      <trkpt lat="45.19863" lon="4.59968">
        <ele>929</ele>
        <time>2022-02-15T10:38:24Z</time>
      </trkpt>
      <trkpt lat="45.19852" lon="4.59955">
        <ele>930.20001220703</ele>
        <time>2022-02-15T10:38:34Z</time>
      </trkpt>
      <trkpt lat="45.19832" lon="4.59947">
        <ele>932.79998779297</ele>
        <time>2022-02-15T10:38:47Z</time>
      </trkpt>
      <trkpt lat="45.19819" lon="4.59945">
        <ele>934.59997558594</ele>
        <time>2022-02-15T10:38:57Z</time>
      </trkpt>
      <trkpt lat="45.19817" lon="4.59945">
        <ele>934.79998779297</ele>
        <time>2022-02-15T10:38:58Z</time>
      </trkpt>
      <trkpt lat="45.19801" lon="4.59946">
        <ele>936.40002441406</ele>
        <time>2022-02-15T10:39:09Z</time>
      </trkpt>
      <trkpt lat="45.19779" lon="4.59952">
        <ele>938.59997558594</ele>
        <time>2022-02-15T10:39:24Z</time>
      </trkpt>
      <trkpt lat="45.19764" lon="4.59961">
        <ele>939.79998779297</ele>
        <time>2022-02-15T10:39:35Z</time>
      </trkpt>
      <trkpt lat="45.19743" lon="4.59961">
        <ele>942.20001220703</ele>
        <time>2022-02-15T10:39:48Z</time>
      </trkpt>
      <trkpt lat="45.19725" lon="4.59962">
        <ele>943.40002441406</ele>
        <time>2022-02-15T10:40:00Z</time>
      </trkpt>
      <trkpt lat="45.19724" lon="4.59962">
        <ele>943.59997558594</ele>
        <time>2022-02-15T10:40:01Z</time>
      </trkpt>
      <trkpt lat="45.19709" lon="4.5996">
        <ele>945</ele>
        <time>2022-02-15T10:40:12Z</time>
      </trkpt>
      <trkpt lat="45.19691" lon="4.59958">
        <ele>946.59997558594</ele>
        <time>2022-02-15T10:40:24Z</time>
      </trkpt>
      <trkpt lat="45.19674" lon="4.59956">
        <ele>948.20001220703</ele>
        <time>2022-02-15T10:40:37Z</time>
      </trkpt>
      <trkpt lat="45.19668" lon="4.59952">
        <ele>948.40002441406</ele>
        <time>2022-02-15T10:40:42Z</time>
      </trkpt>
      <trkpt lat="45.19651" lon="4.59954">
        <ele>949.59997558594</ele>
        <time>2022-02-15T10:40:53Z</time>
      </trkpt>
      <trkpt lat="45.19632" lon="4.59956">
        <ele>951.40002441406</ele>
        <time>2022-02-15T10:41:05Z</time>
      </trkpt>
      <trkpt lat="45.19612" lon="4.59959">
        <ele>953</ele>
        <time>2022-02-15T10:41:17Z</time>
      </trkpt>
      <trkpt lat="45.19594" lon="4.59972">
        <ele>954.59997558594</ele>
        <time>2022-02-15T10:41:30Z</time>
      </trkpt>
      <trkpt lat="45.19579" lon="4.59988">
        <ele>957.79998779297</ele>
        <time>2022-02-15T10:41:43Z</time>
      </trkpt>
      <trkpt lat="45.19564" lon="4.60009">
        <ele>959.79998779297</ele>
        <time>2022-02-15T10:41:56Z</time>
      </trkpt>
      <trkpt lat="45.19552" lon="4.60023">
        <ele>961</ele>
        <time>2022-02-15T10:42:08Z</time>
      </trkpt>
      <trkpt lat="45.19534" lon="4.60037">
        <ele>962.79998779297</ele>
        <time>2022-02-15T10:42:21Z</time>
      </trkpt>
      <trkpt lat="45.19519" lon="4.60041">
        <ele>964.20001220703</ele>
        <time>2022-02-15T10:42:30Z</time>
      </trkpt>
      <trkpt lat="45.19501" lon="4.60046">
        <ele>965.20001220703</ele>
        <time>2022-02-15T10:42:40Z</time>
      </trkpt>
      <trkpt lat="45.19478" lon="4.60045">
        <ele>968</ele>
        <time>2022-02-15T10:42:54Z</time>
      </trkpt>
      <trkpt lat="45.19456" lon="4.60037">
        <ele>968.59997558594</ele>
        <time>2022-02-15T10:43:07Z</time>
      </trkpt>
      <trkpt lat="45.19426" lon="4.60027">
        <ele>970.20001220703</ele>
        <time>2022-02-15T10:43:24Z</time>
      </trkpt>
      <trkpt lat="45.19396" lon="4.60015">
        <ele>972.40002441406</ele>
        <time>2022-02-15T10:43:42Z</time>
      </trkpt>
      <trkpt lat="45.19378" lon="4.60009">
        <ele>973.20001220703</ele>
        <time>2022-02-15T10:43:53Z</time>
      </trkpt>
      <trkpt lat="45.19352" lon="4.60002">
        <ele>975.20001220703</ele>
        <time>2022-02-15T10:44:06Z</time>
      </trkpt>
      <trkpt lat="45.19324" lon="4.59993">
        <ele>977</ele>
        <time>2022-02-15T10:44:20Z</time>
      </trkpt>
      <trkpt lat="45.19303" lon="4.59985">
        <ele>978.40002441406</ele>
        <time>2022-02-15T10:44:31Z</time>
      </trkpt>
      <trkpt lat="45.19283" lon="4.59973">
        <ele>980.20001220703</ele>
        <time>2022-02-15T10:44:42Z</time>
      </trkpt>
      <trkpt lat="45.19262" lon="4.59961">
        <ele>982.20001220703</ele>
        <time>2022-02-15T10:44:53Z</time>
      </trkpt>
      <trkpt lat="45.19245" lon="4.59952">
        <ele>984.20001220703</ele>
        <time>2022-02-15T10:45:03Z</time>
      </trkpt>
      <trkpt lat="45.19224" lon="4.59937">
        <ele>986.20001220703</ele>
        <time>2022-02-15T10:45:17Z</time>
      </trkpt>
      <trkpt lat="45.19201" lon="4.5992">
        <ele>988.59997558594</ele>
        <time>2022-02-15T10:45:30Z</time>
      </trkpt>
      <trkpt lat="45.19183" lon="4.59907">
        <ele>990.40002441406</ele>
        <time>2022-02-15T10:45:41Z</time>
      </trkpt>
      <trkpt lat="45.19162" lon="4.59888">
        <ele>991.59997558594</ele>
        <time>2022-02-15T10:45:52Z</time>
      </trkpt>
      <trkpt lat="45.19141" lon="4.5987">
        <ele>992.20001220703</ele>
        <time>2022-02-15T10:46:02Z</time>
      </trkpt>
      <trkpt lat="45.19115" lon="4.5985">
        <ele>994.40002441406</ele>
        <time>2022-02-15T10:46:15Z</time>
      </trkpt>
      <trkpt lat="45.19099" lon="4.5982">
        <ele>995.40002441406</ele>
        <time>2022-02-15T10:46:29Z</time>
      </trkpt>
      <trkpt lat="45.19082" lon="4.59789">
        <ele>996.79998779297</ele>
        <time>2022-02-15T10:46:49Z</time>
      </trkpt>
      <trkpt lat="45.1908" lon="4.59785">
        <ele>997.20001220703</ele>
        <time>2022-02-15T10:46:52Z</time>
      </trkpt>
      <trkpt lat="45.19077" lon="4.59783">
        <ele>998.20001220703</ele>
        <time>2022-02-15T10:47:12Z</time>
      </trkpt>
      <trkpt lat="45.19076" lon="4.59783">
        <ele>997.59997558594</ele>
        <time>2022-02-15T10:48:54Z</time>
      </trkpt>
      <trkpt lat="45.19075" lon="4.59822">
        <ele>996.40002441406</ele>
        <time>2022-02-15T10:49:02Z</time>
      </trkpt>
      <trkpt lat="45.19079" lon="4.59838">
        <ele>994.40002441406</ele>
        <time>2022-02-15T10:49:06Z</time>
      </trkpt>
      <trkpt lat="45.19078" lon="4.5987">
        <ele>991.79998779297</ele>
        <time>2022-02-15T10:49:12Z</time>
      </trkpt>
      <trkpt lat="45.19077" lon="4.59875">
        <ele>991.59997558594</ele>
        <time>2022-02-15T10:49:13Z</time>
      </trkpt>
      <trkpt lat="45.19075" lon="4.59886">
        <ele>990</ele>
        <time>2022-02-15T10:49:15Z</time>
      </trkpt>
      <trkpt lat="45.19069" lon="4.59916">
        <ele>987</ele>
        <time>2022-02-15T10:49:20Z</time>
      </trkpt>
      <trkpt lat="45.19065" lon="4.5994">
        <ele>984</ele>
        <time>2022-02-15T10:49:25Z</time>
      </trkpt>
      <trkpt lat="45.19063" lon="4.59953">
        <ele>982</ele>
        <time>2022-02-15T10:49:28Z</time>
      </trkpt>
      <trkpt lat="45.1906" lon="4.59983">
        <ele>978.59997558594</ele>
        <time>2022-02-15T10:49:33Z</time>
      </trkpt>
      <trkpt lat="45.19059" lon="4.59988">
        <ele>978.20001220703</ele>
        <time>2022-02-15T10:49:34Z</time>
      </trkpt>
      <trkpt lat="45.19056" lon="4.59997">
        <ele>974.59997558594</ele>
        <time>2022-02-15T10:49:40Z</time>
      </trkpt>
      <trkpt lat="45.19055" lon="4.60002">
        <ele>971.59997558594</ele>
        <time>2022-02-15T10:50:51Z</time>
      </trkpt>
      <trkpt lat="45.19046" lon="4.60036">
        <ele>968.40002441406</ele>
        <time>2022-02-15T10:51:04Z</time>
      </trkpt>
      <trkpt lat="45.19039" lon="4.60049">
        <ele>967</ele>
        <time>2022-02-15T10:51:08Z</time>
      </trkpt>
      <trkpt lat="45.19039" lon="4.60053">
        <ele>966.59997558594</ele>
        <time>2022-02-15T10:51:09Z</time>
      </trkpt>
      <trkpt lat="45.1903" lon="4.6009">
        <ele>963.59997558594</ele>
        <time>2022-02-15T10:51:17Z</time>
      </trkpt>
      <trkpt lat="45.19016" lon="4.60131">
        <ele>961.40002441406</ele>
        <time>2022-02-15T10:51:22Z</time>
      </trkpt>
      <trkpt lat="45.19015" lon="4.6014">
        <ele>961</ele>
        <time>2022-02-15T10:51:23Z</time>
      </trkpt>
      <trkpt lat="45.19015" lon="4.60145">
        <ele>960.59997558594</ele>
        <time>2022-02-15T10:51:24Z</time>
      </trkpt>
      <trkpt lat="45.19012" lon="4.60166">
        <ele>958.79998779297</ele>
        <time>2022-02-15T10:51:29Z</time>
      </trkpt>
      <trkpt lat="45.19007" lon="4.60187">
        <ele>956.59997558594</ele>
        <time>2022-02-15T10:51:34Z</time>
      </trkpt>
      <trkpt lat="45.19007" lon="4.60231">
        <ele>955</ele>
        <time>2022-02-15T10:51:42Z</time>
      </trkpt>
      <trkpt lat="45.19016" lon="4.60258">
        <ele>954.20001220703</ele>
        <time>2022-02-15T10:51:47Z</time>
      </trkpt>
      <trkpt lat="45.19024" lon="4.60291">
        <ele>953</ele>
        <time>2022-02-15T10:51:52Z</time>
      </trkpt>
      <trkpt lat="45.19032" lon="4.60319">
        <ele>950.79998779297</ele>
        <time>2022-02-15T10:51:56Z</time>
      </trkpt>
      <trkpt lat="45.19033" lon="4.60348">
        <ele>947.40002441406</ele>
        <time>2022-02-15T10:52:01Z</time>
      </trkpt>
      <trkpt lat="45.19036" lon="4.60368">
        <ele>944.40002441406</ele>
        <time>2022-02-15T10:52:05Z</time>
      </trkpt>
      <trkpt lat="45.1904" lon="4.60387">
        <ele>941</ele>
        <time>2022-02-15T10:52:09Z</time>
      </trkpt>
      <trkpt lat="45.19046" lon="4.60414">
        <ele>937.40002441406</ele>
        <time>2022-02-15T10:52:13Z</time>
      </trkpt>
      <trkpt lat="45.19047" lon="4.60425">
        <ele>935.79998779297</ele>
        <time>2022-02-15T10:52:15Z</time>
      </trkpt>
      <trkpt lat="45.19048" lon="4.60433">
        <ele>934.79998779297</ele>
        <time>2022-02-15T10:52:16Z</time>
      </trkpt>
      <trkpt lat="45.19048" lon="4.6046">
        <ele>931</ele>
        <time>2022-02-15T10:52:20Z</time>
      </trkpt>
      <trkpt lat="45.19054" lon="4.60484">
        <ele>927.59997558594</ele>
        <time>2022-02-15T10:52:24Z</time>
      </trkpt>
      <trkpt lat="45.19054" lon="4.60489">
        <ele>927</ele>
        <time>2022-02-15T10:52:25Z</time>
      </trkpt>
      <trkpt lat="45.19056" lon="4.60506">
        <ele>925.59997558594</ele>
        <time>2022-02-15T10:52:28Z</time>
      </trkpt>
      <trkpt lat="45.19053" lon="4.60531">
        <ele>922.40002441406</ele>
        <time>2022-02-15T10:52:33Z</time>
      </trkpt>
      <trkpt lat="45.19055" lon="4.60545">
        <ele>919.59997558594</ele>
        <time>2022-02-15T10:52:36Z</time>
      </trkpt>
      <trkpt lat="45.19052" lon="4.60569">
        <ele>916.20001220703</ele>
        <time>2022-02-15T10:52:41Z</time>
      </trkpt>
      <trkpt lat="45.19051" lon="4.60575">
        <ele>916</ele>
        <time>2022-02-15T10:52:42Z</time>
      </trkpt>
      <trkpt lat="45.19045" lon="4.60602">
        <ele>912.79998779297</ele>
        <time>2022-02-15T10:52:47Z</time>
      </trkpt>
      <trkpt lat="45.19045" lon="4.60605">
        <ele>912</ele>
        <time>2022-02-15T10:52:48Z</time>
      </trkpt>
      <trkpt lat="45.19043" lon="4.60611">
        <ele>911.79998779297</ele>
        <time>2022-02-15T10:52:49Z</time>
      </trkpt>
      <trkpt lat="45.1904" lon="4.60627">
        <ele>909.20001220703</ele>
        <time>2022-02-15T10:52:52Z</time>
      </trkpt>
      <trkpt lat="45.19039" lon="4.60633">
        <ele>908</ele>
        <time>2022-02-15T10:52:53Z</time>
      </trkpt>
      <trkpt lat="45.19038" lon="4.60639">
        <ele>907.79998779297</ele>
        <time>2022-02-15T10:52:54Z</time>
      </trkpt>
      <trkpt lat="45.19035" lon="4.60654">
        <ele>904.59997558594</ele>
        <time>2022-02-15T10:52:57Z</time>
      </trkpt>
      <trkpt lat="45.19036" lon="4.60675">
        <ele>902.40002441406</ele>
        <time>2022-02-15T10:53:01Z</time>
      </trkpt>
      <trkpt lat="45.19034" lon="4.60697">
        <ele>898.79998779297</ele>
        <time>2022-02-15T10:53:06Z</time>
      </trkpt>
      <trkpt lat="45.19033" lon="4.60702">
        <ele>898.40002441406</ele>
        <time>2022-02-15T10:53:07Z</time>
      </trkpt>
      <trkpt lat="45.19032" lon="4.6072">
        <ele>894.79998779297</ele>
        <time>2022-02-15T10:53:11Z</time>
      </trkpt>
      <trkpt lat="45.1903" lon="4.60742">
        <ele>891.59997558594</ele>
        <time>2022-02-15T10:53:16Z</time>
      </trkpt>
      <trkpt lat="45.1903" lon="4.60748">
        <ele>891</ele>
        <time>2022-02-15T10:53:17Z</time>
      </trkpt>
      <trkpt lat="45.19032" lon="4.60772">
        <ele>887.40002441406</ele>
        <time>2022-02-15T10:53:21Z</time>
      </trkpt>
      <trkpt lat="45.19033" lon="4.60791">
        <ele>883.40002441406</ele>
        <time>2022-02-15T10:53:25Z</time>
      </trkpt>
      <trkpt lat="45.19035" lon="4.60816">
        <ele>880.40002441406</ele>
        <time>2022-02-15T10:53:29Z</time>
      </trkpt>
      <trkpt lat="45.19039" lon="4.60826">
        <ele>878.79998779297</ele>
        <time>2022-02-15T10:53:31Z</time>
      </trkpt>
      <trkpt lat="45.19042" lon="4.60831">
        <ele>878</ele>
        <time>2022-02-15T10:53:32Z</time>
      </trkpt>
      <trkpt lat="45.19043" lon="4.60849">
        <ele>875</ele>
        <time>2022-02-15T10:53:35Z</time>
      </trkpt>
      <trkpt lat="45.19044" lon="4.60855">
        <ele>874.59997558594</ele>
        <time>2022-02-15T10:53:36Z</time>
      </trkpt>
      <trkpt lat="45.19047" lon="4.60875">
        <ele>872.59997558594</ele>
        <time>2022-02-15T10:53:39Z</time>
      </trkpt>
      <trkpt lat="45.19054" lon="4.60902">
        <ele>869.59997558594</ele>
        <time>2022-02-15T10:53:43Z</time>
      </trkpt>
      <trkpt lat="45.19057" lon="4.60923">
        <ele>866.20001220703</ele>
        <time>2022-02-15T10:53:46Z</time>
      </trkpt>
      <trkpt lat="45.19062" lon="4.60943">
        <ele>863</ele>
        <time>2022-02-15T10:53:49Z</time>
      </trkpt>
      <trkpt lat="45.19066" lon="4.60958">
        <ele>861.40002441406</ele>
        <time>2022-02-15T10:53:51Z</time>
      </trkpt>
      <trkpt lat="45.19071" lon="4.60979">
        <ele>857.79998779297</ele>
        <time>2022-02-15T10:53:54Z</time>
      </trkpt>
      <trkpt lat="45.19066" lon="4.60994">
        <ele>856.59997558594</ele>
        <time>2022-02-15T10:53:57Z</time>
      </trkpt>
      <trkpt lat="45.19059" lon="4.61009">
        <ele>853.59997558594</ele>
        <time>2022-02-15T10:54:00Z</time>
      </trkpt>
      <trkpt lat="45.1905" lon="4.61036">
        <ele>849.59997558594</ele>
        <time>2022-02-15T10:54:05Z</time>
      </trkpt>
      <trkpt lat="45.19043" lon="4.61057">
        <ele>846.59997558594</ele>
        <time>2022-02-15T10:54:09Z</time>
      </trkpt>
      <trkpt lat="45.19043" lon="4.6106">
        <ele>845.40002441406</ele>
        <time>2022-02-15T10:54:10Z</time>
      </trkpt>
      <trkpt lat="45.19042" lon="4.61064">
        <ele>845</ele>
        <time>2022-02-15T10:54:11Z</time>
      </trkpt>
      <trkpt lat="45.19034" lon="4.61081">
        <ele>841.40002441406</ele>
        <time>2022-02-15T10:54:14Z</time>
      </trkpt>
      <trkpt lat="45.19029" lon="4.61093">
        <ele>839.20001220703</ele>
        <time>2022-02-15T10:54:16Z</time>
      </trkpt>
      <trkpt lat="45.19016" lon="4.61131">
        <ele>835.40002441406</ele>
        <time>2022-02-15T10:54:22Z</time>
      </trkpt>
      <trkpt lat="45.19015" lon="4.61139">
        <ele>835.20001220703</ele>
        <time>2022-02-15T10:54:23Z</time>
      </trkpt>
      <trkpt lat="45.19016" lon="4.6115">
        <ele>834.20001220703</ele>
        <time>2022-02-15T10:54:25Z</time>
      </trkpt>
      <trkpt lat="45.19013" lon="4.61163">
        <ele>833.40002441406</ele>
        <time>2022-02-15T10:54:27Z</time>
      </trkpt>
      <trkpt lat="45.19007" lon="4.61179">
        <ele>832</ele>
        <time>2022-02-15T10:54:29Z</time>
      </trkpt>
      <trkpt lat="45.19" lon="4.612">
        <ele>830.59997558594</ele>
        <time>2022-02-15T10:54:32Z</time>
      </trkpt>
      <trkpt lat="45.18997" lon="4.61222">
        <ele>827.40002441406</ele>
        <time>2022-02-15T10:54:36Z</time>
      </trkpt>
      <trkpt lat="45.18994" lon="4.61249">
        <ele>823.59997558594</ele>
        <time>2022-02-15T10:54:40Z</time>
      </trkpt>
      <trkpt lat="45.18991" lon="4.61298">
        <ele>819.79998779297</ele>
        <time>2022-02-15T10:54:46Z</time>
      </trkpt>
      <trkpt lat="45.1899" lon="4.61341">
        <ele>817.40002441406</ele>
        <time>2022-02-15T10:54:51Z</time>
      </trkpt>
      <trkpt lat="45.18992" lon="4.61348">
        <ele>816.79998779297</ele>
        <time>2022-02-15T10:54:52Z</time>
      </trkpt>
      <trkpt lat="45.18991" lon="4.61362">
        <ele>815.59997558594</ele>
        <time>2022-02-15T10:54:54Z</time>
      </trkpt>
      <trkpt lat="45.18994" lon="4.61386">
        <ele>813.40002441406</ele>
        <time>2022-02-15T10:54:58Z</time>
      </trkpt>
      <trkpt lat="45.19001" lon="4.61407">
        <ele>810.20001220703</ele>
        <time>2022-02-15T10:55:01Z</time>
      </trkpt>
      <trkpt lat="45.19008" lon="4.6142">
        <ele>808.59997558594</ele>
        <time>2022-02-15T10:55:03Z</time>
      </trkpt>
      <trkpt lat="45.19016" lon="4.61433">
        <ele>807.40002441406</ele>
        <time>2022-02-15T10:55:05Z</time>
      </trkpt>
      <trkpt lat="45.19025" lon="4.61455">
        <ele>803.40002441406</ele>
        <time>2022-02-15T10:55:08Z</time>
      </trkpt>
      <trkpt lat="45.19031" lon="4.61467">
        <ele>801.40002441406</ele>
        <time>2022-02-15T10:55:10Z</time>
      </trkpt>
      <trkpt lat="45.19038" lon="4.61491">
        <ele>798.40002441406</ele>
        <time>2022-02-15T10:55:13Z</time>
      </trkpt>
      <trkpt lat="45.1904" lon="4.61511">
        <ele>796.20001220703</ele>
        <time>2022-02-15T10:55:15Z</time>
      </trkpt>
      <trkpt lat="45.19031" lon="4.61541">
        <ele>793.20001220703</ele>
        <time>2022-02-15T10:55:18Z</time>
      </trkpt>
      <trkpt lat="45.19033" lon="4.61592">
        <ele>788.79998779297</ele>
        <time>2022-02-15T10:55:23Z</time>
      </trkpt>
      <trkpt lat="45.19032" lon="4.61604">
        <ele>788.40002441406</ele>
        <time>2022-02-15T10:55:24Z</time>
      </trkpt>
      <trkpt lat="45.1903" lon="4.61627">
        <ele>787.20001220703</ele>
        <time>2022-02-15T10:55:26Z</time>
      </trkpt>
      <trkpt lat="45.19022" lon="4.6166">
        <ele>784</ele>
        <time>2022-02-15T10:55:29Z</time>
      </trkpt>
      <trkpt lat="45.19021" lon="4.61668">
        <ele>783.20001220703</ele>
        <time>2022-02-15T10:55:30Z</time>
      </trkpt>
      <trkpt lat="45.19003" lon="4.6171">
        <ele>780.59997558594</ele>
        <time>2022-02-15T10:55:34Z</time>
      </trkpt>
      <trkpt lat="45.19001" lon="4.61718">
        <ele>780.40002441406</ele>
        <time>2022-02-15T10:55:35Z</time>
      </trkpt>
      <trkpt lat="45.18999" lon="4.6174">
        <ele>778.59997558594</ele>
        <time>2022-02-15T10:55:38Z</time>
      </trkpt>
      <trkpt lat="45.18999" lon="4.61747">
        <ele>778.20001220703</ele>
        <time>2022-02-15T10:55:39Z</time>
      </trkpt>
      <trkpt lat="45.18999" lon="4.61775">
        <ele>777.59997558594</ele>
        <time>2022-02-15T10:55:43Z</time>
      </trkpt>
      <trkpt lat="45.18986" lon="4.61829">
        <ele>776.40002441406</ele>
        <time>2022-02-15T10:55:49Z</time>
      </trkpt>
      <trkpt lat="45.18985" lon="4.61858">
        <ele>774.79998779297</ele>
        <time>2022-02-15T10:55:52Z</time>
      </trkpt>
      <trkpt lat="45.18984" lon="4.61877">
        <ele>773.79998779297</ele>
        <time>2022-02-15T10:55:54Z</time>
      </trkpt>
      <trkpt lat="45.18988" lon="4.61908">
        <ele>772.59997558594</ele>
        <time>2022-02-15T10:55:57Z</time>
      </trkpt>
      <trkpt lat="45.18989" lon="4.61926">
        <ele>772</ele>
        <time>2022-02-15T10:55:59Z</time>
      </trkpt>
      <trkpt lat="45.18991" lon="4.61934">
        <ele>771.79998779297</ele>
        <time>2022-02-15T10:56:00Z</time>
      </trkpt>
      <trkpt lat="45.18995" lon="4.61975">
        <ele>768.40002441406</ele>
        <time>2022-02-15T10:56:05Z</time>
      </trkpt>
      <trkpt lat="45.18998" lon="4.62002">
        <ele>767</ele>
        <time>2022-02-15T10:56:08Z</time>
      </trkpt>
      <trkpt lat="45.18998" lon="4.62044">
        <ele>763.79998779297</ele>
        <time>2022-02-15T10:56:12Z</time>
      </trkpt>
      <trkpt lat="45.19" lon="4.62066">
        <ele>762</ele>
        <time>2022-02-15T10:56:14Z</time>
      </trkpt>
      <trkpt lat="45.19" lon="4.62101">
        <ele>760.59997558594</ele>
        <time>2022-02-15T10:56:17Z</time>
      </trkpt>
      <trkpt lat="45.19" lon="4.62149">
        <ele>757.59997558594</ele>
        <time>2022-02-15T10:56:21Z</time>
      </trkpt>
      <trkpt lat="45.19007" lon="4.62169">
        <ele>756.79998779297</ele>
        <time>2022-02-15T10:56:23Z</time>
      </trkpt>
      <trkpt lat="45.19023" lon="4.62225">
        <ele>755</ele>
        <time>2022-02-15T10:56:28Z</time>
      </trkpt>
      <trkpt lat="45.1903" lon="4.62287">
        <ele>752.40002441406</ele>
        <time>2022-02-15T10:56:33Z</time>
      </trkpt>
      <trkpt lat="45.19034" lon="4.62312">
        <ele>751.20001220703</ele>
        <time>2022-02-15T10:56:35Z</time>
      </trkpt>
      <trkpt lat="45.19042" lon="4.62333">
        <ele>749.79998779297</ele>
        <time>2022-02-15T10:56:37Z</time>
      </trkpt>
      <trkpt lat="45.19052" lon="4.62349">
        <ele>748.40002441406</ele>
        <time>2022-02-15T10:56:39Z</time>
      </trkpt>
      <trkpt lat="45.19059" lon="4.62366">
        <ele>747.59997558594</ele>
        <time>2022-02-15T10:56:41Z</time>
      </trkpt>
      <trkpt lat="45.19066" lon="4.62386">
        <ele>746.59997558594</ele>
        <time>2022-02-15T10:56:44Z</time>
      </trkpt>
      <trkpt lat="45.19079" lon="4.62408">
        <ele>743</ele>
        <time>2022-02-15T10:56:49Z</time>
      </trkpt>
      <trkpt lat="45.19091" lon="4.62431">
        <ele>740</ele>
        <time>2022-02-15T10:56:53Z</time>
      </trkpt>
      <trkpt lat="45.19109" lon="4.62444">
        <ele>738.20001220703</ele>
        <time>2022-02-15T10:56:56Z</time>
      </trkpt>
      <trkpt lat="45.19127" lon="4.62454">
        <ele>736.59997558594</ele>
        <time>2022-02-15T10:56:59Z</time>
      </trkpt>
      <trkpt lat="45.19145" lon="4.62465">
        <ele>734.59997558594</ele>
        <time>2022-02-15T10:57:03Z</time>
      </trkpt>
      <trkpt lat="45.1917" lon="4.62491">
        <ele>733.59997558594</ele>
        <time>2022-02-15T10:57:10Z</time>
      </trkpt>
      <trkpt lat="45.19187" lon="4.62541">
        <ele>734.20001220703</ele>
        <time>2022-02-15T10:57:20Z</time>
      </trkpt>
      <trkpt lat="45.19187" lon="4.62601">
        <ele>732</ele>
        <time>2022-02-15T10:57:28Z</time>
      </trkpt>
      <trkpt lat="45.19154" lon="4.62603">
        <ele>728.79998779297</ele>
        <time>2022-02-15T10:57:33Z</time>
      </trkpt>
      <trkpt lat="45.19122" lon="4.62585">
        <ele>727.20001220703</ele>
        <time>2022-02-15T10:57:39Z</time>
      </trkpt>
      <trkpt lat="45.19108" lon="4.62574">
        <ele>726.20001220703</ele>
        <time>2022-02-15T10:57:42Z</time>
      </trkpt>
      <trkpt lat="45.191" lon="4.62565">
        <ele>725.79998779297</ele>
        <time>2022-02-15T10:57:44Z</time>
      </trkpt>
      <trkpt lat="45.19088" lon="4.62544">
        <ele>722.59997558594</ele>
        <time>2022-02-15T10:57:48Z</time>
      </trkpt>
      <trkpt lat="45.19045" lon="4.62524">
        <ele>719.40002441406</ele>
        <time>2022-02-15T10:57:55Z</time>
      </trkpt>
      <trkpt lat="45.19037" lon="4.62523">
        <ele>719.20001220703</ele>
        <time>2022-02-15T10:57:56Z</time>
      </trkpt>
      <trkpt lat="45.19023" lon="4.62523">
        <ele>718.20001220703</ele>
        <time>2022-02-15T10:57:58Z</time>
      </trkpt>
      <trkpt lat="45.19011" lon="4.62531">
        <ele>716.20001220703</ele>
        <time>2022-02-15T10:58:00Z</time>
      </trkpt>
      <trkpt lat="45.18985" lon="4.62556">
        <ele>712</ele>
        <time>2022-02-15T10:58:06Z</time>
      </trkpt>
      <trkpt lat="45.18955" lon="4.626">
        <ele>709</ele>
        <time>2022-02-15T10:58:13Z</time>
      </trkpt>
      <trkpt lat="45.18951" lon="4.62609">
        <ele>708.40002441406</ele>
        <time>2022-02-15T10:58:14Z</time>
      </trkpt>
      <trkpt lat="45.1894" lon="4.62639">
        <ele>705.20001220703</ele>
        <time>2022-02-15T10:58:18Z</time>
      </trkpt>
      <trkpt lat="45.18937" lon="4.6266">
        <ele>703.79998779297</ele>
        <time>2022-02-15T10:58:21Z</time>
      </trkpt>
      <trkpt lat="45.18934" lon="4.62688">
        <ele>700.40002441406</ele>
        <time>2022-02-15T10:58:24Z</time>
      </trkpt>
      <trkpt lat="45.18932" lon="4.62699">
        <ele>699.40002441406</ele>
        <time>2022-02-15T10:58:25Z</time>
      </trkpt>
      <trkpt lat="45.18924" lon="4.6274">
        <ele>696.59997558594</ele>
        <time>2022-02-15T10:58:30Z</time>
      </trkpt>
      <trkpt lat="45.1892" lon="4.62746">
        <ele>695.59997558594</ele>
        <time>2022-02-15T10:58:31Z</time>
      </trkpt>
      <trkpt lat="45.18912" lon="4.62761">
        <ele>694.79998779297</ele>
        <time>2022-02-15T10:58:33Z</time>
      </trkpt>
      <trkpt lat="45.18889" lon="4.62796">
        <ele>690.79998779297</ele>
        <time>2022-02-15T10:58:38Z</time>
      </trkpt>
      <trkpt lat="45.18885" lon="4.62802">
        <ele>690.20001220703</ele>
        <time>2022-02-15T10:58:39Z</time>
      </trkpt>
      <trkpt lat="45.18883" lon="4.62817">
        <ele>688.40002441406</ele>
        <time>2022-02-15T10:58:42Z</time>
      </trkpt>
      <trkpt lat="45.1889" lon="4.62823">
        <ele>686.79998779297</ele>
        <time>2022-02-15T10:58:45Z</time>
      </trkpt>
      <trkpt lat="45.18898" lon="4.62826">
        <ele>685.79998779297</ele>
        <time>2022-02-15T10:58:47Z</time>
      </trkpt>
      <trkpt lat="45.18913" lon="4.62831">
        <ele>682.79998779297</ele>
        <time>2022-02-15T10:58:50Z</time>
      </trkpt>
      <trkpt lat="45.18918" lon="4.62832">
        <ele>682.40002441406</ele>
        <time>2022-02-15T10:58:51Z</time>
      </trkpt>
      <trkpt lat="45.18933" lon="4.62839">
        <ele>680.59997558594</ele>
        <time>2022-02-15T10:58:54Z</time>
      </trkpt>
      <trkpt lat="45.18956" lon="4.62843">
        <ele>679</ele>
        <time>2022-02-15T10:58:58Z</time>
      </trkpt>
      <trkpt lat="45.18981" lon="4.62846">
        <ele>674.79998779297</ele>
        <time>2022-02-15T10:59:02Z</time>
      </trkpt>
      <trkpt lat="45.18985" lon="4.62845">
        <ele>674.59997558594</ele>
        <time>2022-02-15T10:59:03Z</time>
      </trkpt>
      <trkpt lat="45.1901" lon="4.62852">
        <ele>671</ele>
        <time>2022-02-15T10:59:08Z</time>
      </trkpt>
      <trkpt lat="45.19028" lon="4.62851">
        <ele>668</ele>
        <time>2022-02-15T10:59:12Z</time>
      </trkpt>
      <trkpt lat="45.19034" lon="4.62852">
        <ele>665.40002441406</ele>
        <time>2022-02-15T10:59:14Z</time>
      </trkpt>
      <trkpt lat="45.19058" lon="4.62846">
        <ele>662.20001220703</ele>
        <time>2022-02-15T10:59:18Z</time>
      </trkpt>
      <trkpt lat="45.19067" lon="4.62844">
        <ele>661</ele>
        <time>2022-02-15T10:59:20Z</time>
      </trkpt>
      <trkpt lat="45.19083" lon="4.62865">
        <ele>658</ele>
        <time>2022-02-15T10:59:25Z</time>
      </trkpt>
      <trkpt lat="45.19096" lon="4.62873">
        <ele>655</ele>
        <time>2022-02-15T10:59:28Z</time>
      </trkpt>
      <trkpt lat="45.19122" lon="4.62871">
        <ele>652</ele>
        <time>2022-02-15T10:59:32Z</time>
      </trkpt>
      <trkpt lat="45.1913" lon="4.62872">
        <ele>651.20001220703</ele>
        <time>2022-02-15T10:59:33Z</time>
      </trkpt>
      <trkpt lat="45.19157" lon="4.62884">
        <ele>646.59997558594</ele>
        <time>2022-02-15T10:59:37Z</time>
      </trkpt>
      <trkpt lat="45.19183" lon="4.6289">
        <ele>643.59997558594</ele>
        <time>2022-02-15T10:59:41Z</time>
      </trkpt>
      <trkpt lat="45.19197" lon="4.62891">
        <ele>641.59997558594</ele>
        <time>2022-02-15T10:59:43Z</time>
      </trkpt>
      <trkpt lat="45.19216" lon="4.62902">
        <ele>638.40002441406</ele>
        <time>2022-02-15T10:59:46Z</time>
      </trkpt>
      <trkpt lat="45.19236" lon="4.62915">
        <ele>634.59997558594</ele>
        <time>2022-02-15T10:59:49Z</time>
      </trkpt>
      <trkpt lat="45.1925" lon="4.62927">
        <ele>632.59997558594</ele>
        <time>2022-02-15T10:59:52Z</time>
      </trkpt>
      <trkpt lat="45.1927" lon="4.62939">
        <ele>629</ele>
        <time>2022-02-15T10:59:56Z</time>
      </trkpt>
      <trkpt lat="45.1928" lon="4.62946">
        <ele>627.20001220703</ele>
        <time>2022-02-15T10:59:58Z</time>
      </trkpt>
      <trkpt lat="45.19295" lon="4.62955">
        <ele>625</ele>
        <time>2022-02-15T11:00:01Z</time>
      </trkpt>
      <trkpt lat="45.19312" lon="4.62977">
        <ele>621.20001220703</ele>
        <time>2022-02-15T11:00:05Z</time>
      </trkpt>
      <trkpt lat="45.19323" lon="4.62993">
        <ele>619.20001220703</ele>
        <time>2022-02-15T11:00:07Z</time>
      </trkpt>
      <trkpt lat="45.19341" lon="4.63014">
        <ele>616</ele>
        <time>2022-02-15T11:00:10Z</time>
      </trkpt>
      <trkpt lat="45.19385" lon="4.63052">
        <ele>612.40002441406</ele>
        <time>2022-02-15T11:00:17Z</time>
      </trkpt>
      <trkpt lat="45.19419" lon="4.63078">
        <ele>611.20001220703</ele>
        <time>2022-02-15T11:00:22Z</time>
      </trkpt>
      <trkpt lat="45.19434" lon="4.63084">
        <ele>610.59997558594</ele>
        <time>2022-02-15T11:00:24Z</time>
      </trkpt>
      <trkpt lat="45.19458" lon="4.63091">
        <ele>609.40002441406</ele>
        <time>2022-02-15T11:00:27Z</time>
      </trkpt>
      <trkpt lat="45.19493" lon="4.63108">
        <ele>606.20001220703</ele>
        <time>2022-02-15T11:00:32Z</time>
      </trkpt>
      <trkpt lat="45.19504" lon="4.63119">
        <ele>603</ele>
        <time>2022-02-15T11:00:36Z</time>
      </trkpt>
      <trkpt lat="45.19503" lon="4.63129">
        <ele>599.59997558594</ele>
        <time>2022-02-15T11:00:39Z</time>
      </trkpt>
      <trkpt lat="45.19495" lon="4.63136">
        <ele>597.40002441406</ele>
        <time>2022-02-15T11:00:42Z</time>
      </trkpt>
      <trkpt lat="45.1949" lon="4.63138">
        <ele>597.20001220703</ele>
        <time>2022-02-15T11:00:43Z</time>
      </trkpt>
      <trkpt lat="45.19473" lon="4.63146">
        <ele>595.59997558594</ele>
        <time>2022-02-15T11:00:47Z</time>
      </trkpt>
      <trkpt lat="45.19451" lon="4.63169">
        <ele>591.79998779297</ele>
        <time>2022-02-15T11:00:52Z</time>
      </trkpt>
      <trkpt lat="45.19437" lon="4.63182">
        <ele>590</ele>
        <time>2022-02-15T11:00:55Z</time>
      </trkpt>
      <trkpt lat="45.19424" lon="4.63196">
        <ele>587.20001220703</ele>
        <time>2022-02-15T11:00:58Z</time>
      </trkpt>
      <trkpt lat="45.19414" lon="4.63211">
        <ele>582.79998779297</ele>
        <time>2022-02-15T11:01:01Z</time>
      </trkpt>
      <trkpt lat="45.19411" lon="4.63216">
        <ele>582</ele>
        <time>2022-02-15T11:01:02Z</time>
      </trkpt>
      <trkpt lat="45.19403" lon="4.6323">
        <ele>578.40002441406</ele>
        <time>2022-02-15T11:01:05Z</time>
      </trkpt>
      <trkpt lat="45.19393" lon="4.63247">
        <ele>574.79998779297</ele>
        <time>2022-02-15T11:01:10Z</time>
      </trkpt>
      <trkpt lat="45.19386" lon="4.63251">
        <ele>571.79998779297</ele>
        <time>2022-02-15T11:01:13Z</time>
      </trkpt>
      <trkpt lat="45.19369" lon="4.63263">
        <ele>568.59997558594</ele>
        <time>2022-02-15T11:01:20Z</time>
      </trkpt>
      <trkpt lat="45.19355" lon="4.63269">
        <ele>565.20001220703</ele>
        <time>2022-02-15T11:01:28Z</time>
      </trkpt>
      <trkpt lat="45.19347" lon="4.63276">
        <ele>562.20001220703</ele>
        <time>2022-02-15T11:01:34Z</time>
      </trkpt>
      <trkpt lat="45.19345" lon="4.63278">
        <ele>559</ele>
        <time>2022-02-15T11:01:42Z</time>
      </trkpt>
      <trkpt lat="45.19343" lon="4.6328">
        <ele>556.40002441406</ele>
        <time>2022-02-15T11:02:03Z</time>
      </trkpt>
      <trkpt lat="45.19323" lon="4.63296">
        <ele>555</ele>
        <time>2022-02-15T11:02:20Z</time>
      </trkpt>
      <trkpt lat="45.193" lon="4.63303">
        <ele>552</ele>
        <time>2022-02-15T11:02:27Z</time>
      </trkpt>
      <trkpt lat="45.19295" lon="4.63304">
        <ele>551.79998779297</ele>
        <time>2022-02-15T11:02:28Z</time>
      </trkpt>
      <trkpt lat="45.19289" lon="4.63304">
        <ele>550.40002441406</ele>
        <time>2022-02-15T11:02:30Z</time>
      </trkpt>
      <trkpt lat="45.19271" lon="4.63307">
        <ele>549.40002441406</ele>
        <time>2022-02-15T11:02:34Z</time>
      </trkpt>
      <trkpt lat="45.1924" lon="4.63299">
        <ele>547.20001220703</ele>
        <time>2022-02-15T11:02:41Z</time>
      </trkpt>
      <trkpt lat="45.19235" lon="4.63301">
        <ele>547</ele>
        <time>2022-02-15T11:02:42Z</time>
      </trkpt>
      <trkpt lat="45.1923" lon="4.63303">
        <ele>546.79998779297</ele>
        <time>2022-02-15T11:02:43Z</time>
      </trkpt>
      <trkpt lat="45.19215" lon="4.63316">
        <ele>543.59997558594</ele>
        <time>2022-02-15T11:02:50Z</time>
      </trkpt>
      <trkpt lat="45.19196" lon="4.63329">
        <ele>540.20001220703</ele>
        <time>2022-02-15T11:02:58Z</time>
      </trkpt>
      <trkpt lat="45.19176" lon="4.63345">
        <ele>537</ele>
        <time>2022-02-15T11:03:03Z</time>
      </trkpt>
      <trkpt lat="45.19156" lon="4.63349">
        <ele>535</ele>
        <time>2022-02-15T11:03:06Z</time>
      </trkpt>
      <trkpt lat="45.19149" lon="4.63348">
        <ele>534.79998779297</ele>
        <time>2022-02-15T11:03:07Z</time>
      </trkpt>
      <trkpt lat="45.19136" lon="4.63345">
        <ele>533.40002441406</ele>
        <time>2022-02-15T11:03:09Z</time>
      </trkpt>
      <trkpt lat="45.1911" lon="4.6335">
        <ele>530.20001220703</ele>
        <time>2022-02-15T11:03:13Z</time>
      </trkpt>
      <trkpt lat="45.19091" lon="4.63372">
        <ele>527</ele>
        <time>2022-02-15T11:03:16Z</time>
      </trkpt>
      <trkpt lat="45.19071" lon="4.63403">
        <ele>522.59997558594</ele>
        <time>2022-02-15T11:03:19Z</time>
      </trkpt>
      <trkpt lat="45.19059" lon="4.63421">
        <ele>521</ele>
        <time>2022-02-15T11:03:21Z</time>
      </trkpt>
      <trkpt lat="45.19027" lon="4.63453">
        <ele>516.79998779297</ele>
        <time>2022-02-15T11:03:25Z</time>
      </trkpt>
      <trkpt lat="45.18982" lon="4.63477">
        <ele>512.40002441406</ele>
        <time>2022-02-15T11:03:30Z</time>
      </trkpt>
      <trkpt lat="45.18929" lon="4.63499">
        <ele>508.79998779297</ele>
        <time>2022-02-15T11:03:35Z</time>
      </trkpt>
      <trkpt lat="45.1891" lon="4.63506">
        <ele>506.20001220703</ele>
        <time>2022-02-15T11:03:37Z</time>
      </trkpt>
      <trkpt lat="45.18881" lon="4.63526">
        <ele>501.39999389648</ele>
        <time>2022-02-15T11:03:40Z</time>
      </trkpt>
      <trkpt lat="45.18865" lon="4.63543">
        <ele>498.39999389648</ele>
        <time>2022-02-15T11:03:42Z</time>
      </trkpt>
      <trkpt lat="45.18857" lon="4.63552">
        <ele>497.39999389648</ele>
        <time>2022-02-15T11:03:43Z</time>
      </trkpt>
      <trkpt lat="45.1883" lon="4.63567">
        <ele>492.79998779297</ele>
        <time>2022-02-15T11:03:46Z</time>
      </trkpt>
      <trkpt lat="45.1882" lon="4.6357">
        <ele>490.79998779297</ele>
        <time>2022-02-15T11:03:47Z</time>
      </trkpt>
      <trkpt lat="45.18796" lon="4.6359">
        <ele>487.79998779297</ele>
        <time>2022-02-15T11:03:50Z</time>
      </trkpt>
      <trkpt lat="45.18788" lon="4.63611">
        <ele>486.20001220703</ele>
        <time>2022-02-15T11:03:52Z</time>
      </trkpt>
      <trkpt lat="45.18784" lon="4.63627">
        <ele>484</ele>
        <time>2022-02-15T11:03:54Z</time>
      </trkpt>
      <trkpt lat="45.18783" lon="4.63642">
        <ele>481.79998779297</ele>
        <time>2022-02-15T11:03:57Z</time>
      </trkpt>
      <trkpt lat="45.18779" lon="4.63645">
        <ele>478.60000610352</ele>
        <time>2022-02-15T11:04:01Z</time>
      </trkpt>
      <trkpt lat="45.18777" lon="4.63644">
        <ele>478.20001220703</ele>
        <time>2022-02-15T11:04:03Z</time>
      </trkpt>
      <trkpt lat="45.18744" lon="4.63662">
        <ele>478.39999389648</ele>
        <time>2022-02-15T11:04:15Z</time>
      </trkpt>
      <trkpt lat="45.18731" lon="4.63671">
        <ele>478.39999389648</ele>
        <time>2022-02-15T11:04:18Z</time>
      </trkpt>
      <trkpt lat="45.18705" lon="4.6372">
        <ele>475.79998779297</ele>
        <time>2022-02-15T11:04:27Z</time>
      </trkpt>
      <trkpt lat="45.1871" lon="4.63743">
        <ele>473</ele>
        <time>2022-02-15T11:04:35Z</time>
      </trkpt>
      <trkpt lat="45.18712" lon="4.63747">
        <ele>473</ele>
        <time>2022-02-15T11:04:36Z</time>
      </trkpt>
      <trkpt lat="45.18717" lon="4.63758">
        <ele>472.60000610352</ele>
        <time>2022-02-15T11:04:39Z</time>
      </trkpt>
      <trkpt lat="45.18715" lon="4.63772">
        <ele>471.60000610352</ele>
        <time>2022-02-15T11:04:43Z</time>
      </trkpt>
      <trkpt lat="45.18711" lon="4.63786">
        <ele>470.60000610352</ele>
        <time>2022-02-15T11:04:47Z</time>
      </trkpt>
      <trkpt lat="45.18696" lon="4.63804">
        <ele>470</ele>
        <time>2022-02-15T11:04:51Z</time>
      </trkpt>
      <trkpt lat="45.18692" lon="4.63809">
        <ele>469.39999389648</ele>
        <time>2022-02-15T11:04:52Z</time>
      </trkpt>
      <trkpt lat="45.18676" lon="4.63838">
        <ele>468.39999389648</ele>
        <time>2022-02-15T11:04:57Z</time>
      </trkpt>
      <trkpt lat="45.18663" lon="4.63866">
        <ele>467</ele>
        <time>2022-02-15T11:05:01Z</time>
      </trkpt>
      <trkpt lat="45.18648" lon="4.63889">
        <ele>465.39999389648</ele>
        <time>2022-02-15T11:05:05Z</time>
      </trkpt>
      <trkpt lat="45.18627" lon="4.63915">
        <ele>464.60000610352</ele>
        <time>2022-02-15T11:05:10Z</time>
      </trkpt>
      <trkpt lat="45.18622" lon="4.63919">
        <ele>464.60000610352</ele>
        <time>2022-02-15T11:05:11Z</time>
      </trkpt>
      <trkpt lat="45.18517" lon="4.63986">
        <ele>463.20001220703</ele>
        <time>2022-02-15T11:05:30Z</time>
      </trkpt>
      <trkpt lat="45.18503" lon="4.63996">
        <ele>463</ele>
        <time>2022-02-15T11:05:33Z</time>
      </trkpt>
      <trkpt lat="45.18455" lon="4.64069">
        <ele>462.79998779297</ele>
        <time>2022-02-15T11:05:46Z</time>
      </trkpt>
      <trkpt lat="45.1843" lon="4.64103">
        <ele>463.60000610352</ele>
        <time>2022-02-15T11:05:52Z</time>
      </trkpt>
      <trkpt lat="45.18355" lon="4.64194">
        <ele>462.79998779297</ele>
        <time>2022-02-15T11:06:09Z</time>
      </trkpt>
      <trkpt lat="45.18333" lon="4.64222">
        <ele>462.20001220703</ele>
        <time>2022-02-15T11:06:14Z</time>
      </trkpt>
      <trkpt lat="45.18327" lon="4.64253">
        <ele>461.79998779297</ele>
        <time>2022-02-15T11:06:18Z</time>
      </trkpt>
      <trkpt lat="45.18329" lon="4.64268">
        <ele>461.79998779297</ele>
        <time>2022-02-15T11:06:20Z</time>
      </trkpt>
      <trkpt lat="45.1832" lon="4.64323">
        <ele>463</ele>
        <time>2022-02-15T11:06:30Z</time>
      </trkpt>
      <trkpt lat="45.18288" lon="4.6433">
        <ele>466.39999389648</ele>
        <time>2022-02-15T11:06:41Z</time>
      </trkpt>
      <trkpt lat="45.18244" lon="4.64311">
        <ele>469.39999389648</ele>
        <time>2022-02-15T11:06:58Z</time>
      </trkpt>
      <trkpt lat="45.18218" lon="4.64329">
        <ele>471.60000610352</ele>
        <time>2022-02-15T11:07:10Z</time>
      </trkpt>
      <trkpt lat="45.18224" lon="4.64364">
        <ele>474</ele>
        <time>2022-02-15T11:07:22Z</time>
      </trkpt>
      <trkpt lat="45.18207" lon="4.64393">
        <ele>475.79998779297</ele>
        <time>2022-02-15T11:07:34Z</time>
      </trkpt>
      <trkpt lat="45.18181" lon="4.64407">
        <ele>477.60000610352</ele>
        <time>2022-02-15T11:07:46Z</time>
      </trkpt>
      <trkpt lat="45.18148" lon="4.64426">
        <ele>480.20001220703</ele>
        <time>2022-02-15T11:08:02Z</time>
      </trkpt>
      <trkpt lat="45.18111" lon="4.6444">
        <ele>482.79998779297</ele>
        <time>2022-02-15T11:08:19Z</time>
      </trkpt>
      <trkpt lat="45.18084" lon="4.64421">
        <ele>485</ele>
        <time>2022-02-15T11:08:33Z</time>
      </trkpt>
      <trkpt lat="45.18053" lon="4.64403">
        <ele>486.79998779297</ele>
        <time>2022-02-15T11:08:48Z</time>
      </trkpt>
      <trkpt lat="45.18021" lon="4.64423">
        <ele>489</ele>
        <time>2022-02-15T11:09:03Z</time>
      </trkpt>
      <trkpt lat="45.17995" lon="4.64421">
        <ele>491.39999389648</ele>
        <time>2022-02-15T11:09:15Z</time>
      </trkpt>
      <trkpt lat="45.17968" lon="4.64434">
        <ele>493.20001220703</ele>
        <time>2022-02-15T11:09:28Z</time>
      </trkpt>
      <trkpt lat="45.17943" lon="4.6447">
        <ele>496</ele>
        <time>2022-02-15T11:09:44Z</time>
      </trkpt>
      <trkpt lat="45.17919" lon="4.64477">
        <ele>497.39999389648</ele>
        <time>2022-02-15T11:09:55Z</time>
      </trkpt>
      <trkpt lat="45.17927" lon="4.64492">
        <ele>499.20001220703</ele>
        <time>2022-02-15T11:10:03Z</time>
      </trkpt>
      <trkpt lat="45.17931" lon="4.64497">
        <ele>499.60000610352</ele>
        <time>2022-02-15T11:10:05Z</time>
      </trkpt>
      <trkpt lat="45.17974" lon="4.64549">
        <ele>499.79998779297</ele>
        <time>2022-02-15T11:10:18Z</time>
      </trkpt>
      <trkpt lat="45.17991" lon="4.6457">
        <ele>498.39999389648</ele>
        <time>2022-02-15T11:10:21Z</time>
      </trkpt>
      <trkpt lat="45.18031" lon="4.64604">
        <ele>496</ele>
        <time>2022-02-15T11:10:27Z</time>
      </trkpt>
      <trkpt lat="45.18062" lon="4.64652">
        <ele>494</ele>
        <time>2022-02-15T11:10:33Z</time>
      </trkpt>
      <trkpt lat="45.18076" lon="4.64677">
        <ele>492.60000610352</ele>
        <time>2022-02-15T11:10:36Z</time>
      </trkpt>
      <trkpt lat="45.18096" lon="4.64706">
        <ele>491.60000610352</ele>
        <time>2022-02-15T11:10:40Z</time>
      </trkpt>
      <trkpt lat="45.181" lon="4.64714">
        <ele>491.60000610352</ele>
        <time>2022-02-15T11:10:41Z</time>
      </trkpt>
      <trkpt lat="45.18135" lon="4.64793">
        <ele>487.79998779297</ele>
        <time>2022-02-15T11:10:49Z</time>
      </trkpt>
      <trkpt lat="45.18144" lon="4.64812">
        <ele>486.79998779297</ele>
        <time>2022-02-15T11:10:51Z</time>
      </trkpt>
      <trkpt lat="45.18149" lon="4.64831">
        <ele>485.79998779297</ele>
        <time>2022-02-15T11:10:53Z</time>
      </trkpt>
      <trkpt lat="45.18156" lon="4.64867">
        <ele>482.60000610352</ele>
        <time>2022-02-15T11:10:57Z</time>
      </trkpt>
      <trkpt lat="45.18165" lon="4.64905">
        <ele>478.79998779297</ele>
        <time>2022-02-15T11:11:01Z</time>
      </trkpt>
      <trkpt lat="45.18172" lon="4.64934">
        <ele>477.79998779297</ele>
        <time>2022-02-15T11:11:04Z</time>
      </trkpt>
      <trkpt lat="45.18197" lon="4.6498">
        <ele>474.20001220703</ele>
        <time>2022-02-15T11:11:10Z</time>
      </trkpt>
      <trkpt lat="45.18212" lon="4.64995">
        <ele>471.39999389648</ele>
        <time>2022-02-15T11:11:17Z</time>
      </trkpt>
      <trkpt lat="45.18228" lon="4.6501">
        <ele>470</ele>
        <time>2022-02-15T11:11:23Z</time>
      </trkpt>
      <trkpt lat="45.18266" lon="4.6504">
        <ele>468.39999389648</ele>
        <time>2022-02-15T11:11:31Z</time>
      </trkpt>
      <trkpt lat="45.18296" lon="4.65102">
        <ele>467.39999389648</ele>
        <time>2022-02-15T11:11:41Z</time>
      </trkpt>
      <trkpt lat="45.18299" lon="4.65198">
        <ele>467.20001220703</ele>
        <time>2022-02-15T11:11:55Z</time>
      </trkpt>
      <trkpt lat="45.18315" lon="4.65291">
        <ele>468.39999389648</ele>
        <time>2022-02-15T11:12:09Z</time>
      </trkpt>
      <trkpt lat="45.18324" lon="4.65308">
        <ele>468.60000610352</ele>
        <time>2022-02-15T11:12:12Z</time>
      </trkpt>
      <trkpt lat="45.18335" lon="4.65324">
        <ele>466.79998779297</ele>
        <time>2022-02-15T11:12:15Z</time>
      </trkpt>
      <trkpt lat="45.18352" lon="4.65373">
        <ele>463.39999389648</ele>
        <time>2022-02-15T11:12:22Z</time>
      </trkpt>
      <trkpt lat="45.18352" lon="4.6539">
        <ele>462.79998779297</ele>
        <time>2022-02-15T11:12:24Z</time>
      </trkpt>
      <trkpt lat="45.18353" lon="4.6543">
        <ele>459.79998779297</ele>
        <time>2022-02-15T11:12:29Z</time>
      </trkpt>
      <trkpt lat="45.18375" lon="4.65464">
        <ele>459.39999389648</ele>
        <time>2022-02-15T11:12:36Z</time>
      </trkpt>
      <trkpt lat="45.18385" lon="4.6547">
        <ele>459.20001220703</ele>
        <time>2022-02-15T11:12:38Z</time>
      </trkpt>
      <trkpt lat="45.18434" lon="4.65525">
        <ele>459.60000610352</ele>
        <time>2022-02-15T11:12:50Z</time>
      </trkpt>
      <trkpt lat="45.18451" lon="4.65591">
        <ele>461</ele>
        <time>2022-02-15T11:13:03Z</time>
      </trkpt>
      <trkpt lat="45.18446" lon="4.65661">
        <ele>463</ele>
        <time>2022-02-15T11:13:20Z</time>
      </trkpt>
      <trkpt lat="45.18436" lon="4.65726">
        <ele>464.39999389648</ele>
        <time>2022-02-15T11:13:35Z</time>
      </trkpt>
      <trkpt lat="45.18424" lon="4.65779">
        <ele>465.60000610352</ele>
        <time>2022-02-15T11:13:48Z</time>
      </trkpt>
      <trkpt lat="45.18404" lon="4.65831">
        <ele>468.39999389648</ele>
        <time>2022-02-15T11:14:04Z</time>
      </trkpt>
      <trkpt lat="45.18375" lon="4.65875">
        <ele>471.39999389648</ele>
        <time>2022-02-15T11:14:18Z</time>
      </trkpt>
      <trkpt lat="45.18347" lon="4.65923">
        <ele>471.39999389648</ele>
        <time>2022-02-15T11:14:31Z</time>
      </trkpt>
      <trkpt lat="45.1833" lon="4.65965">
        <ele>470.79998779297</ele>
        <time>2022-02-15T11:14:41Z</time>
      </trkpt>
      <trkpt lat="45.18296" lon="4.66023">
        <ele>469.39999389648</ele>
        <time>2022-02-15T11:14:51Z</time>
      </trkpt>
      <trkpt lat="45.18277" lon="4.66074">
        <ele>467.20001220703</ele>
        <time>2022-02-15T11:14:57Z</time>
      </trkpt>
      <trkpt lat="45.1825" lon="4.66106">
        <ele>464.20001220703</ele>
        <time>2022-02-15T11:15:02Z</time>
      </trkpt>
      <trkpt lat="45.18226" lon="4.66117">
        <ele>462</ele>
        <time>2022-02-15T11:15:05Z</time>
      </trkpt>
      <trkpt lat="45.18201" lon="4.66126">
        <ele>460.60000610352</ele>
        <time>2022-02-15T11:15:08Z</time>
      </trkpt>
      <trkpt lat="45.18179" lon="4.66142">
        <ele>458.79998779297</ele>
        <time>2022-02-15T11:15:11Z</time>
      </trkpt>
      <trkpt lat="45.18167" lon="4.66158">
        <ele>458.39999389648</ele>
        <time>2022-02-15T11:15:13Z</time>
      </trkpt>
      <trkpt lat="45.18128" lon="4.66206">
        <ele>457.39999389648</ele>
        <time>2022-02-15T11:15:23Z</time>
      </trkpt>
      <trkpt lat="45.18124" lon="4.6621">
        <ele>457</ele>
        <time>2022-02-15T11:15:38Z</time>
      </trkpt>
      <trkpt lat="45.18103" lon="4.66231">
        <ele>457.79998779297</ele>
        <time>2022-02-15T11:16:17Z</time>
      </trkpt>
      <trkpt lat="45.18073" lon="4.66259">
        <ele>459.79998779297</ele>
        <time>2022-02-15T11:16:32Z</time>
      </trkpt>
      <trkpt lat="45.18041" lon="4.66284">
        <ele>461.20001220703</ele>
        <time>2022-02-15T11:16:44Z</time>
      </trkpt>
      <trkpt lat="45.17992" lon="4.66319">
        <ele>463.60000610352</ele>
        <time>2022-02-15T11:17:00Z</time>
      </trkpt>
      <trkpt lat="45.17953" lon="4.6635">
        <ele>464.60000610352</ele>
        <time>2022-02-15T11:17:12Z</time>
      </trkpt>
      <trkpt lat="45.17931" lon="4.66363">
        <ele>465</ele>
        <time>2022-02-15T11:17:17Z</time>
      </trkpt>
      <trkpt lat="45.17919" lon="4.66415">
        <ele>464.20001220703</ele>
        <time>2022-02-15T11:17:24Z</time>
      </trkpt>
      <trkpt lat="45.17922" lon="4.66437">
        <ele>463.79998779297</ele>
        <time>2022-02-15T11:17:27Z</time>
      </trkpt>
      <trkpt lat="45.17922" lon="4.66456">
        <ele>463.20001220703</ele>
        <time>2022-02-15T11:17:30Z</time>
      </trkpt>
      <trkpt lat="45.17915" lon="4.66488">
        <ele>460.20001220703</ele>
        <time>2022-02-15T11:17:36Z</time>
      </trkpt>
      <trkpt lat="45.17898" lon="4.66535">
        <ele>457.20001220703</ele>
        <time>2022-02-15T11:17:44Z</time>
      </trkpt>
      <trkpt lat="45.17893" lon="4.66559">
        <ele>454.20001220703</ele>
        <time>2022-02-15T11:17:49Z</time>
      </trkpt>
      <trkpt lat="45.17894" lon="4.66564">
        <ele>453</ele>
        <time>2022-02-15T11:17:50Z</time>
      </trkpt>
      <trkpt lat="45.17904" lon="4.66595">
        <ele>449.60000610352</ele>
        <time>2022-02-15T11:17:54Z</time>
      </trkpt>
      <trkpt lat="45.17911" lon="4.66615">
        <ele>448.39999389648</ele>
        <time>2022-02-15T11:17:56Z</time>
      </trkpt>
      <trkpt lat="45.17915" lon="4.66675">
        <ele>445.39999389648</ele>
        <time>2022-02-15T11:18:01Z</time>
      </trkpt>
      <trkpt lat="45.17908" lon="4.66718">
        <ele>442.39999389648</ele>
        <time>2022-02-15T11:18:04Z</time>
      </trkpt>
      <trkpt lat="45.179" lon="4.66776">
        <ele>439.20001220703</ele>
        <time>2022-02-15T11:18:08Z</time>
      </trkpt>
      <trkpt lat="45.17896" lon="4.66802">
        <ele>437.20001220703</ele>
        <time>2022-02-15T11:18:10Z</time>
      </trkpt>
      <trkpt lat="45.17903" lon="4.66853">
        <ele>433.79998779297</ele>
        <time>2022-02-15T11:18:14Z</time>
      </trkpt>
      <trkpt lat="45.17903" lon="4.66902">
        <ele>430.79998779297</ele>
        <time>2022-02-15T11:18:18Z</time>
      </trkpt>
      <trkpt lat="45.17897" lon="4.66961">
        <ele>428.20001220703</ele>
        <time>2022-02-15T11:18:23Z</time>
      </trkpt>
      <trkpt lat="45.17896" lon="4.66968">
        <ele>427.39999389648</ele>
        <time>2022-02-15T11:18:24Z</time>
      </trkpt>
      <trkpt lat="45.17899" lon="4.66981">
        <ele>426.39999389648</ele>
        <time>2022-02-15T11:18:26Z</time>
      </trkpt>
      <trkpt lat="45.17906" lon="4.66991">
        <ele>425.39999389648</ele>
        <time>2022-02-15T11:18:28Z</time>
      </trkpt>
      <trkpt lat="45.17915" lon="4.67">
        <ele>424.39999389648</ele>
        <time>2022-02-15T11:18:30Z</time>
      </trkpt>
      <trkpt lat="45.17923" lon="4.67008">
        <ele>423.79998779297</ele>
        <time>2022-02-15T11:18:32Z</time>
      </trkpt>
      <trkpt lat="45.17961" lon="4.67022">
        <ele>421</ele>
        <time>2022-02-15T11:18:40Z</time>
      </trkpt>
      <trkpt lat="45.18029" lon="4.67007">
        <ele>420.20001220703</ele>
        <time>2022-02-15T11:18:57Z</time>
      </trkpt>
      <trkpt lat="45.18033" lon="4.67006">
        <ele>420.20001220703</ele>
        <time>2022-02-15T11:18:58Z</time>
      </trkpt>
      <trkpt lat="45.18061" lon="4.66999">
        <ele>420.20001220703</ele>
        <time>2022-02-15T11:19:04Z</time>
      </trkpt>
      <trkpt lat="45.18124" lon="4.66978">
        <ele>419.20001220703</ele>
        <time>2022-02-15T11:19:19Z</time>
      </trkpt>
      <trkpt lat="45.18128" lon="4.66976">
        <ele>419.20001220703</ele>
        <time>2022-02-15T11:19:20Z</time>
      </trkpt>
      <trkpt lat="45.1821" lon="4.66937">
        <ele>416.20001220703</ele>
        <time>2022-02-15T11:19:37Z</time>
      </trkpt>
      <trkpt lat="45.18244" lon="4.66917">
        <ele>415.60000610352</ele>
        <time>2022-02-15T11:19:44Z</time>
      </trkpt>
      <trkpt lat="45.1828" lon="4.66905">
        <ele>414</ele>
        <time>2022-02-15T11:19:50Z</time>
      </trkpt>
      <trkpt lat="45.18307" lon="4.6691">
        <ele>413.20001220703</ele>
        <time>2022-02-15T11:19:54Z</time>
      </trkpt>
      <trkpt lat="45.18403" lon="4.66921">
        <ele>410.20001220703</ele>
        <time>2022-02-15T11:20:09Z</time>
      </trkpt>
      <trkpt lat="45.18476" lon="4.66916">
        <ele>407.60000610352</ele>
        <time>2022-02-15T11:20:23Z</time>
      </trkpt>
      <trkpt lat="45.18481" lon="4.66915">
        <ele>407.39999389648</ele>
        <time>2022-02-15T11:20:24Z</time>
      </trkpt>
      <trkpt lat="45.18539" lon="4.66913">
        <ele>406.39999389648</ele>
        <time>2022-02-15T11:20:35Z</time>
      </trkpt>
      <trkpt lat="45.18549" lon="4.66916">
        <ele>406.60000610352</ele>
        <time>2022-02-15T11:20:37Z</time>
      </trkpt>
      <trkpt lat="45.18592" lon="4.66928">
        <ele>407.20001220703</ele>
        <time>2022-02-15T11:20:45Z</time>
      </trkpt>
      <trkpt lat="45.18607" lon="4.66936">
        <ele>407</ele>
        <time>2022-02-15T11:20:49Z</time>
      </trkpt>
      <trkpt lat="45.18641" lon="4.66949">
        <ele>407</ele>
        <time>2022-02-15T11:20:57Z</time>
      </trkpt>
      <trkpt lat="45.18657" lon="4.66952">
        <ele>407.20001220703</ele>
        <time>2022-02-15T11:21:01Z</time>
      </trkpt>
      <trkpt lat="45.18662" lon="4.66953">
        <ele>407.20001220703</ele>
        <time>2022-02-15T11:21:02Z</time>
      </trkpt>
      <trkpt lat="45.18704" lon="4.66956">
        <ele>407.79998779297</ele>
        <time>2022-02-15T11:21:12Z</time>
      </trkpt>
      <trkpt lat="45.18753" lon="4.6697">
        <ele>408.60000610352</ele>
        <time>2022-02-15T11:21:24Z</time>
      </trkpt>
      <trkpt lat="45.18818" lon="4.6698">
        <ele>409.79998779297</ele>
        <time>2022-02-15T11:21:42Z</time>
      </trkpt>
      <trkpt lat="45.18882" lon="4.66994">
        <ele>411</ele>
        <time>2022-02-15T11:22:03Z</time>
      </trkpt>
      <trkpt lat="45.19" lon="4.67018">
        <ele>412.60000610352</ele>
        <time>2022-02-15T11:22:36Z</time>
      </trkpt>
      <trkpt lat="45.1908" lon="4.67021">
        <ele>414</ele>
        <time>2022-02-15T11:23:00Z</time>
      </trkpt>
      <trkpt lat="45.19141" lon="4.67013">
        <ele>415.39999389648</ele>
        <time>2022-02-15T11:23:20Z</time>
      </trkpt>
      <trkpt lat="45.19155" lon="4.67012">
        <ele>415.60000610352</ele>
        <time>2022-02-15T11:23:24Z</time>
      </trkpt>
      <trkpt lat="45.19191" lon="4.67049">
        <ele>415.20001220703</ele>
        <time>2022-02-15T11:23:34Z</time>
      </trkpt>
      <trkpt lat="45.19245" lon="4.67074">
        <ele>413.60000610352</ele>
        <time>2022-02-15T11:23:44Z</time>
      </trkpt>
      <trkpt lat="45.19266" lon="4.67078">
        <ele>412.60000610352</ele>
        <time>2022-02-15T11:23:48Z</time>
      </trkpt>
      <trkpt lat="45.19271" lon="4.67079">
        <ele>412.39999389648</ele>
        <time>2022-02-15T11:23:49Z</time>
      </trkpt>
      <trkpt lat="45.19276" lon="4.67079">
        <ele>412.20001220703</ele>
        <time>2022-02-15T11:23:50Z</time>
      </trkpt>
      <trkpt lat="45.19301" lon="4.6708">
        <ele>411</ele>
        <time>2022-02-15T11:23:55Z</time>
      </trkpt>
      <trkpt lat="45.19354" lon="4.67084">
        <ele>408.60000610352</ele>
        <time>2022-02-15T11:24:05Z</time>
      </trkpt>
      <trkpt lat="45.19395" lon="4.67086">
        <ele>406.60000610352</ele>
        <time>2022-02-15T11:24:12Z</time>
      </trkpt>
      <trkpt lat="45.194" lon="4.67087">
        <ele>406.39999389648</ele>
        <time>2022-02-15T11:24:13Z</time>
      </trkpt>
      <trkpt lat="45.19406" lon="4.67088">
        <ele>406.20001220703</ele>
        <time>2022-02-15T11:24:14Z</time>
      </trkpt>
      <trkpt lat="45.19442" lon="4.6709">
        <ele>402.79998779297</ele>
        <time>2022-02-15T11:24:20Z</time>
      </trkpt>
      <trkpt lat="45.19492" lon="4.67091">
        <ele>399.39999389648</ele>
        <time>2022-02-15T11:24:28Z</time>
      </trkpt>
      <trkpt lat="45.19498" lon="4.6709">
        <ele>399.20001220703</ele>
        <time>2022-02-15T11:24:29Z</time>
      </trkpt>
      <trkpt lat="45.19592" lon="4.6709">
        <ele>395.79998779297</ele>
        <time>2022-02-15T11:24:45Z</time>
      </trkpt>
      <trkpt lat="45.19614" lon="4.67088">
        <ele>395.39999389648</ele>
        <time>2022-02-15T11:24:49Z</time>
      </trkpt>
      <trkpt lat="45.19634" lon="4.67093">
        <ele>394.79998779297</ele>
        <time>2022-02-15T11:24:54Z</time>
      </trkpt>
      <trkpt lat="45.19642" lon="4.67098">
        <ele>394.39999389648</ele>
        <time>2022-02-15T11:24:56Z</time>
      </trkpt>
      <trkpt lat="45.19655" lon="4.67111">
        <ele>394.20001220703</ele>
        <time>2022-02-15T11:24:59Z</time>
      </trkpt>
      <trkpt lat="45.1974" lon="4.67218">
        <ele>390.20001220703</ele>
        <time>2022-02-15T11:25:14Z</time>
      </trkpt>
      <trkpt lat="45.19774" lon="4.67264">
        <ele>387</ele>
        <time>2022-02-15T11:25:19Z</time>
      </trkpt>
      <trkpt lat="45.19799" lon="4.67294">
        <ele>384</ele>
        <time>2022-02-15T11:25:23Z</time>
      </trkpt>
      <trkpt lat="45.19818" lon="4.67318">
        <ele>383.20001220703</ele>
        <time>2022-02-15T11:25:27Z</time>
      </trkpt>
      <trkpt lat="45.19848" lon="4.67353">
        <ele>384.60000610352</ele>
        <time>2022-02-15T11:25:38Z</time>
      </trkpt>
      <trkpt lat="45.19873" lon="4.67383">
        <ele>387.60000610352</ele>
        <time>2022-02-15T11:25:50Z</time>
      </trkpt>
      <trkpt lat="45.19911" lon="4.6743">
        <ele>389.60000610352</ele>
        <time>2022-02-15T11:26:06Z</time>
      </trkpt>
      <trkpt lat="45.19932" lon="4.67459">
        <ele>391.79998779297</ele>
        <time>2022-02-15T11:26:17Z</time>
      </trkpt>
      <trkpt lat="45.19955" lon="4.67495">
        <ele>393.20001220703</ele>
        <time>2022-02-15T11:26:29Z</time>
      </trkpt>
      <trkpt lat="45.19966" lon="4.67541">
        <ele>395.20001220703</ele>
        <time>2022-02-15T11:26:41Z</time>
      </trkpt>
      <trkpt lat="45.19974" lon="4.67581">
        <ele>397</ele>
        <time>2022-02-15T11:26:51Z</time>
      </trkpt>
      <trkpt lat="45.19978" lon="4.67592">
        <ele>397</ele>
        <time>2022-02-15T11:26:54Z</time>
      </trkpt>
      <trkpt lat="45.19982" lon="4.67615">
        <ele>397.39999389648</ele>
        <time>2022-02-15T11:27:01Z</time>
      </trkpt>
      <trkpt lat="45.19984" lon="4.67639">
        <ele>398.60000610352</ele>
        <time>2022-02-15T11:27:09Z</time>
      </trkpt>
      <trkpt lat="45.1999" lon="4.6767">
        <ele>399</ele>
        <time>2022-02-15T11:27:20Z</time>
      </trkpt>
      <trkpt lat="45.20003" lon="4.67723">
        <ele>399.60000610352</ele>
        <time>2022-02-15T11:27:30Z</time>
      </trkpt>
      <trkpt lat="45.20015" lon="4.67775">
        <ele>399.39999389648</ele>
        <time>2022-02-15T11:27:39Z</time>
      </trkpt>
      <trkpt lat="45.20028" lon="4.67829">
        <ele>398.60000610352</ele>
        <time>2022-02-15T11:27:47Z</time>
      </trkpt>
      <trkpt lat="45.20056" lon="4.67955">
        <ele>395.79998779297</ele>
        <time>2022-02-15T11:28:01Z</time>
      </trkpt>
      <trkpt lat="45.20061" lon="4.67984">
        <ele>393.39999389648</ele>
        <time>2022-02-15T11:28:08Z</time>
      </trkpt>
      <trkpt lat="45.20069" lon="4.68022">
        <ele>391.60000610352</ele>
        <time>2022-02-15T11:28:23Z</time>
      </trkpt>
      <trkpt lat="45.20084" lon="4.68114">
        <ele>390.20001220703</ele>
        <time>2022-02-15T11:28:35Z</time>
      </trkpt>
      <trkpt lat="45.20086" lon="4.6813">
        <ele>390</ele>
        <time>2022-02-15T11:28:37Z</time>
      </trkpt>
      <trkpt lat="45.20098" lon="4.68185">
        <ele>389.39999389648</ele>
        <time>2022-02-15T11:28:47Z</time>
      </trkpt>
      <trkpt lat="45.20099" lon="4.68192">
        <ele>389.39999389648</ele>
        <time>2022-02-15T11:28:48Z</time>
      </trkpt>
      <trkpt lat="45.20112" lon="4.68242">
        <ele>389.79998779297</ele>
        <time>2022-02-15T11:28:56Z</time>
      </trkpt>
      <trkpt lat="45.20131" lon="4.68291">
        <ele>390.20001220703</ele>
        <time>2022-02-15T11:29:04Z</time>
      </trkpt>
      <trkpt lat="45.20171" lon="4.68301">
        <ele>391.20001220703</ele>
        <time>2022-02-15T11:29:14Z</time>
      </trkpt>
      <trkpt lat="45.20176" lon="4.68301">
        <ele>391.20001220703</ele>
        <time>2022-02-15T11:29:15Z</time>
      </trkpt>
      <trkpt lat="45.20271" lon="4.683">
        <ele>389.39999389648</ele>
        <time>2022-02-15T11:29:32Z</time>
      </trkpt>
      <trkpt lat="45.20311" lon="4.68299">
        <ele>387.20001220703</ele>
        <time>2022-02-15T11:29:37Z</time>
      </trkpt>
      <trkpt lat="45.20359" lon="4.683">
        <ele>383.79998779297</ele>
        <time>2022-02-15T11:29:43Z</time>
      </trkpt>
      <trkpt lat="45.2038" lon="4.68294">
        <ele>383</ele>
        <time>2022-02-15T11:29:46Z</time>
      </trkpt>
      <trkpt lat="45.20399" lon="4.68286">
        <ele>381.60000610352</ele>
        <time>2022-02-15T11:29:49Z</time>
      </trkpt>
      <trkpt lat="45.20465" lon="4.68258">
        <ele>380.20001220703</ele>
        <time>2022-02-15T11:30:00Z</time>
      </trkpt>
      <trkpt lat="45.20477" lon="4.68251">
        <ele>379</ele>
        <time>2022-02-15T11:30:02Z</time>
      </trkpt>
      <trkpt lat="45.20508" lon="4.68267">
        <ele>376</ele>
        <time>2022-02-15T11:30:08Z</time>
      </trkpt>
      <trkpt lat="45.20514" lon="4.68279">
        <ele>375</ele>
        <time>2022-02-15T11:30:10Z</time>
      </trkpt>
      <trkpt lat="45.20517" lon="4.68286">
        <ele>374.39999389648</ele>
        <time>2022-02-15T11:30:11Z</time>
      </trkpt>
      <trkpt lat="45.20523" lon="4.68299">
        <ele>374</ele>
        <time>2022-02-15T11:30:13Z</time>
      </trkpt>
      <trkpt lat="45.20553" lon="4.68402">
        <ele>373.79998779297</ele>
        <time>2022-02-15T11:30:26Z</time>
      </trkpt>
      <trkpt lat="45.2056" lon="4.68415">
        <ele>374</ele>
        <time>2022-02-15T11:30:28Z</time>
      </trkpt>
      <trkpt lat="45.20574" lon="4.68445">
        <ele>374.20001220703</ele>
        <time>2022-02-15T11:30:32Z</time>
      </trkpt>
      <trkpt lat="45.20616" lon="4.68502">
        <ele>372.20001220703</ele>
        <time>2022-02-15T11:30:40Z</time>
      </trkpt>
      <trkpt lat="45.2062" lon="4.68509">
        <ele>370.79998779297</ele>
        <time>2022-02-15T11:30:42Z</time>
      </trkpt>
      <trkpt lat="45.20608" lon="4.68546">
        <ele>368.39999389648</ele>
        <time>2022-02-15T11:30:51Z</time>
      </trkpt>
      <trkpt lat="45.20593" lon="4.68587">
        <ele>367.39999389648</ele>
        <time>2022-02-15T11:30:57Z</time>
      </trkpt>
      <trkpt lat="45.20576" lon="4.68621">
        <ele>366.79998779297</ele>
        <time>2022-02-15T11:31:02Z</time>
      </trkpt>
      <trkpt lat="45.20569" lon="4.68708">
        <ele>366.20001220703</ele>
        <time>2022-02-15T11:31:12Z</time>
      </trkpt>
      <trkpt lat="45.20581" lon="4.68749">
        <ele>365.60000610352</ele>
        <time>2022-02-15T11:31:17Z</time>
      </trkpt>
      <trkpt lat="45.20585" lon="4.68776">
        <ele>364.79998779297</ele>
        <time>2022-02-15T11:31:27Z</time>
      </trkpt>
      <trkpt lat="45.20585" lon="4.68779">
        <ele>364.79998779297</ele>
        <time>2022-02-15T11:31:28Z</time>
      </trkpt>
      <trkpt lat="45.20578" lon="4.68789">
        <ele>364.39999389648</ele>
        <time>2022-02-15T11:31:33Z</time>
      </trkpt>
      <trkpt lat="45.2058" lon="4.68825">
        <ele>364.60000610352</ele>
        <time>2022-02-15T11:31:44Z</time>
      </trkpt>
      <trkpt lat="45.20573" lon="4.68886">
        <ele>364.20001220703</ele>
        <time>2022-02-15T11:31:56Z</time>
      </trkpt>
      <trkpt lat="45.20559" lon="4.68923">
        <ele>363.79998779297</ele>
        <time>2022-02-15T11:32:02Z</time>
      </trkpt>
      <trkpt lat="45.20557" lon="4.68929">
        <ele>363.79998779297</ele>
        <time>2022-02-15T11:32:03Z</time>
      </trkpt>
      <trkpt lat="45.20555" lon="4.68955">
        <ele>363.60000610352</ele>
        <time>2022-02-15T11:32:07Z</time>
      </trkpt>
      <trkpt lat="45.2056" lon="4.69009">
        <ele>362.39999389648</ele>
        <time>2022-02-15T11:32:13Z</time>
      </trkpt>
      <trkpt lat="45.2057" lon="4.69044">
        <ele>360.79998779297</ele>
        <time>2022-02-15T11:32:17Z</time>
      </trkpt>
      <trkpt lat="45.20582" lon="4.6907">
        <ele>359.39999389648</ele>
        <time>2022-02-15T11:32:20Z</time>
      </trkpt>
      <trkpt lat="45.20607" lon="4.69135">
        <ele>356.79998779297</ele>
        <time>2022-02-15T11:32:28Z</time>
      </trkpt>
      <trkpt lat="45.20605" lon="4.69145">
        <ele>356.39999389648</ele>
        <time>2022-02-15T11:32:29Z</time>
      </trkpt>
      <trkpt lat="45.20596" lon="4.69173">
        <ele>353.79998779297</ele>
        <time>2022-02-15T11:32:32Z</time>
      </trkpt>
      <trkpt lat="45.20593" lon="4.69182">
        <ele>353.60000610352</ele>
        <time>2022-02-15T11:32:33Z</time>
      </trkpt>
      <trkpt lat="45.20589" lon="4.69208">
        <ele>353.20001220703</ele>
        <time>2022-02-15T11:32:36Z</time>
      </trkpt>
      <trkpt lat="45.20605" lon="4.69258">
        <ele>353</ele>
        <time>2022-02-15T11:32:43Z</time>
      </trkpt>
      <trkpt lat="45.20634" lon="4.69297">
        <ele>352.79998779297</ele>
        <time>2022-02-15T11:32:50Z</time>
      </trkpt>
      <trkpt lat="45.20646" lon="4.69349">
        <ele>353</ele>
        <time>2022-02-15T11:32:57Z</time>
      </trkpt>
      <trkpt lat="45.20648" lon="4.69378">
        <ele>353.39999389648</ele>
        <time>2022-02-15T11:33:01Z</time>
      </trkpt>
      <trkpt lat="45.20658" lon="4.69496">
        <ele>354.20001220703</ele>
        <time>2022-02-15T11:33:19Z</time>
      </trkpt>
      <trkpt lat="45.20663" lon="4.69555">
        <ele>353.79998779297</ele>
        <time>2022-02-15T11:33:26Z</time>
      </trkpt>
      <trkpt lat="45.20671" lon="4.6959">
        <ele>352.39999389648</ele>
        <time>2022-02-15T11:33:30Z</time>
      </trkpt>
      <trkpt lat="45.2068" lon="4.69625">
        <ele>351.20001220703</ele>
        <time>2022-02-15T11:33:34Z</time>
      </trkpt>
      <trkpt lat="45.20679" lon="4.69654">
        <ele>350.60000610352</ele>
        <time>2022-02-15T11:33:37Z</time>
      </trkpt>
      <trkpt lat="45.20671" lon="4.69712">
        <ele>349</ele>
        <time>2022-02-15T11:33:43Z</time>
      </trkpt>
      <trkpt lat="45.2066" lon="4.69752">
        <ele>347.60000610352</ele>
        <time>2022-02-15T11:33:47Z</time>
      </trkpt>
      <trkpt lat="45.20649" lon="4.69789">
        <ele>346.39999389648</ele>
        <time>2022-02-15T11:33:51Z</time>
      </trkpt>
      <trkpt lat="45.20647" lon="4.69798">
        <ele>346.20001220703</ele>
        <time>2022-02-15T11:33:52Z</time>
      </trkpt>
      <trkpt lat="45.20621" lon="4.69919">
        <ele>344.39999389648</ele>
        <time>2022-02-15T11:34:05Z</time>
      </trkpt>
      <trkpt lat="45.20609" lon="4.69985">
        <ele>342.79998779297</ele>
        <time>2022-02-15T11:34:12Z</time>
      </trkpt>
      <trkpt lat="45.20612" lon="4.70018">
        <ele>342.39999389648</ele>
        <time>2022-02-15T11:34:16Z</time>
      </trkpt>
      <trkpt lat="45.20628" lon="4.70055">
        <ele>341.79998779297</ele>
        <time>2022-02-15T11:34:24Z</time>
      </trkpt>
      <trkpt lat="45.20655" lon="4.70088">
        <ele>340.20001220703</ele>
        <time>2022-02-15T11:34:32Z</time>
      </trkpt>
      <trkpt lat="45.2066" lon="4.70092">
        <ele>339.79998779297</ele>
        <time>2022-02-15T11:34:33Z</time>
      </trkpt>
      <trkpt lat="45.20668" lon="4.70105">
        <ele>339.20001220703</ele>
        <time>2022-02-15T11:34:35Z</time>
      </trkpt>
      <trkpt lat="45.20677" lon="4.70123">
        <ele>338</ele>
        <time>2022-02-15T11:34:38Z</time>
      </trkpt>
      <trkpt lat="45.20685" lon="4.7011">
        <ele>334.79998779297</ele>
        <time>2022-02-15T11:34:42Z</time>
      </trkpt>
      <trkpt lat="45.20684" lon="4.70104">
        <ele>333.79998779297</ele>
        <time>2022-02-15T11:34:43Z</time>
      </trkpt>
      <trkpt lat="45.20684" lon="4.70084">
        <ele>332.39999389648</ele>
        <time>2022-02-15T11:34:46Z</time>
      </trkpt>
      <trkpt lat="45.20685" lon="4.70079">
        <ele>331.60000610352</ele>
        <time>2022-02-15T11:34:47Z</time>
      </trkpt>
      <trkpt lat="45.20696" lon="4.70086">
        <ele>328.39999389648</ele>
        <time>2022-02-15T11:34:52Z</time>
      </trkpt>
      <trkpt lat="45.20702" lon="4.70092">
        <ele>327.60000610352</ele>
        <time>2022-02-15T11:34:54Z</time>
      </trkpt>
      <trkpt lat="45.2071" lon="4.70101">
        <ele>326.39999389648</ele>
        <time>2022-02-15T11:34:56Z</time>
      </trkpt>
      <trkpt lat="45.2073" lon="4.70113">
        <ele>323.39999389648</ele>
        <time>2022-02-15T11:35:00Z</time>
      </trkpt>
      <trkpt lat="45.20746" lon="4.7012">
        <ele>321.60000610352</ele>
        <time>2022-02-15T11:35:03Z</time>
      </trkpt>
      <trkpt lat="45.20769" lon="4.70121">
        <ele>318.39999389648</ele>
        <time>2022-02-15T11:35:07Z</time>
      </trkpt>
      <trkpt lat="45.20784" lon="4.7012">
        <ele>317.20001220703</ele>
        <time>2022-02-15T11:35:09Z</time>
      </trkpt>
      <trkpt lat="45.20814" lon="4.70135">
        <ele>314.79998779297</ele>
        <time>2022-02-15T11:35:15Z</time>
      </trkpt>
      <trkpt lat="45.20825" lon="4.70179">
        <ele>310.60000610352</ele>
        <time>2022-02-15T11:35:20Z</time>
      </trkpt>
      <trkpt lat="45.20835" lon="4.70214">
        <ele>307.39999389648</ele>
        <time>2022-02-15T11:35:24Z</time>
      </trkpt>
      <trkpt lat="45.20843" lon="4.7024">
        <ele>303.60000610352</ele>
        <time>2022-02-15T11:35:27Z</time>
      </trkpt>
      <trkpt lat="45.2085" lon="4.7026">
        <ele>302.39999389648</ele>
        <time>2022-02-15T11:35:30Z</time>
      </trkpt>
      <trkpt lat="45.20851" lon="4.70266">
        <ele>301.79998779297</ele>
        <time>2022-02-15T11:35:31Z</time>
      </trkpt>
      <trkpt lat="45.20844" lon="4.70299">
        <ele>299.60000610352</ele>
        <time>2022-02-15T11:35:35Z</time>
      </trkpt>
      <trkpt lat="45.20837" lon="4.70314">
        <ele>298</ele>
        <time>2022-02-15T11:35:37Z</time>
      </trkpt>
      <trkpt lat="45.20831" lon="4.70327">
        <ele>296.60000610352</ele>
        <time>2022-02-15T11:35:39Z</time>
      </trkpt>
      <trkpt lat="45.20826" lon="4.70361">
        <ele>293.20001220703</ele>
        <time>2022-02-15T11:35:44Z</time>
      </trkpt>
      <trkpt lat="45.20825" lon="4.70371">
        <ele>290</ele>
        <time>2022-02-15T11:35:47Z</time>
      </trkpt>
      <trkpt lat="45.20835" lon="4.70351">
        <ele>286.79998779297</ele>
        <time>2022-02-15T11:35:53Z</time>
      </trkpt>
      <trkpt lat="45.20841" lon="4.70345">
        <ele>285.39999389648</ele>
        <time>2022-02-15T11:35:56Z</time>
      </trkpt>
      <trkpt lat="45.20844" lon="4.70343">
        <ele>284.79998779297</ele>
        <time>2022-02-15T11:35:57Z</time>
      </trkpt>
      <trkpt lat="45.20859" lon="4.7033">
        <ele>283.39999389648</ele>
        <time>2022-02-15T11:36:00Z</time>
      </trkpt>
      <trkpt lat="45.20867" lon="4.70323">
        <ele>280.20001220703</ele>
        <time>2022-02-15T11:36:04Z</time>
      </trkpt>
      <trkpt lat="45.20881" lon="4.70317">
        <ele>278.79998779297</ele>
        <time>2022-02-15T11:36:07Z</time>
      </trkpt>
      <trkpt lat="45.20889" lon="4.70315">
        <ele>278.79998779297</ele>
        <time>2022-02-15T11:36:08Z</time>
      </trkpt>
      <trkpt lat="45.209" lon="4.70313">
        <ele>277.39999389648</ele>
        <time>2022-02-15T11:36:09Z</time>
      </trkpt>
      <trkpt lat="45.20928" lon="4.70315">
        <ele>274</ele>
        <time>2022-02-15T11:36:13Z</time>
      </trkpt>
      <trkpt lat="45.20935" lon="4.7031">
        <ele>273.79998779297</ele>
        <time>2022-02-15T11:36:14Z</time>
      </trkpt>
      <trkpt lat="45.20938" lon="4.70307">
        <ele>273</ele>
        <time>2022-02-15T11:36:15Z</time>
      </trkpt>
      <trkpt lat="45.20941" lon="4.70304">
        <ele>272.39999389648</ele>
        <time>2022-02-15T11:36:16Z</time>
      </trkpt>
      <trkpt lat="45.20944" lon="4.70301">
        <ele>272.20001220703</ele>
        <time>2022-02-15T11:36:17Z</time>
      </trkpt>
      <trkpt lat="45.20957" lon="4.7029">
        <ele>271.60000610352</ele>
        <time>2022-02-15T11:36:19Z</time>
      </trkpt>
      <trkpt lat="45.20969" lon="4.7025">
        <ele>268.79998779297</ele>
        <time>2022-02-15T11:36:24Z</time>
      </trkpt>
      <trkpt lat="45.20971" lon="4.70226">
        <ele>265.79998779297</ele>
        <time>2022-02-15T11:36:29Z</time>
      </trkpt>
      <trkpt lat="45.20975" lon="4.70228">
        <ele>263.20001220703</ele>
        <time>2022-02-15T11:36:32Z</time>
      </trkpt>
      <trkpt lat="45.2098" lon="4.70235">
        <ele>262</ele>
        <time>2022-02-15T11:36:34Z</time>
      </trkpt>
      <trkpt lat="45.20982" lon="4.7024">
        <ele>261.79998779297</ele>
        <time>2022-02-15T11:36:35Z</time>
      </trkpt>
      <trkpt lat="45.20991" lon="4.7026">
        <ele>259.60000610352</ele>
        <time>2022-02-15T11:36:38Z</time>
      </trkpt>
      <trkpt lat="45.20997" lon="4.70308">
        <ele>256.39999389648</ele>
        <time>2022-02-15T11:36:44Z</time>
      </trkpt>
      <trkpt lat="45.20991" lon="4.70337">
        <ele>253.39999389648</ele>
        <time>2022-02-15T11:36:47Z</time>
      </trkpt>
      <trkpt lat="45.20989" lon="4.70353">
        <ele>251.19999694824</ele>
        <time>2022-02-15T11:36:50Z</time>
      </trkpt>
      <trkpt lat="45.20975" lon="4.70391">
        <ele>247.19999694824</ele>
        <time>2022-02-15T11:36:55Z</time>
      </trkpt>
      <trkpt lat="45.20959" lon="4.70403">
        <ele>243.39999389648</ele>
        <time>2022-02-15T11:36:59Z</time>
      </trkpt>
      <trkpt lat="45.20956" lon="4.70406">
        <ele>242.60000610352</ele>
        <time>2022-02-15T11:37:01Z</time>
      </trkpt>
      <trkpt lat="45.20966" lon="4.70414">
        <ele>239.80000305176</ele>
        <time>2022-02-15T11:37:05Z</time>
      </trkpt>
      <trkpt lat="45.20978" lon="4.70414">
        <ele>236.39999389648</ele>
        <time>2022-02-15T11:37:09Z</time>
      </trkpt>
      <trkpt lat="45.2098" lon="4.70406">
        <ele>235.19999694824</ele>
        <time>2022-02-15T11:37:11Z</time>
      </trkpt>
      <trkpt lat="45.20982" lon="4.70399">
        <ele>233.80000305176</ele>
        <time>2022-02-15T11:37:13Z</time>
      </trkpt>
      <trkpt lat="45.20991" lon="4.70386">
        <ele>233</ele>
        <time>2022-02-15T11:37:15Z</time>
      </trkpt>
      <trkpt lat="45.20999" lon="4.70368">
        <ele>231.80000305176</ele>
        <time>2022-02-15T11:37:17Z</time>
      </trkpt>
      <trkpt lat="45.21026" lon="4.70332">
        <ele>228.19999694824</ele>
        <time>2022-02-15T11:37:21Z</time>
      </trkpt>
      <trkpt lat="45.21032" lon="4.70322">
        <ele>227.60000610352</ele>
        <time>2022-02-15T11:37:22Z</time>
      </trkpt>
      <trkpt lat="45.21037" lon="4.70315">
        <ele>226.80000305176</ele>
        <time>2022-02-15T11:37:23Z</time>
      </trkpt>
      <trkpt lat="45.21049" lon="4.70315">
        <ele>223.19999694824</ele>
        <time>2022-02-15T11:37:28Z</time>
      </trkpt>
      <trkpt lat="45.21051" lon="4.70321">
        <ele>221.39999389648</ele>
        <time>2022-02-15T11:37:31Z</time>
      </trkpt>
      <trkpt lat="45.21053" lon="4.70324">
        <ele>221.19999694824</ele>
        <time>2022-02-15T11:37:32Z</time>
      </trkpt>
      <trkpt lat="45.21084" lon="4.70358">
        <ele>220.80000305176</ele>
        <time>2022-02-15T11:37:43Z</time>
      </trkpt>
      <trkpt lat="45.21081" lon="4.70369">
        <ele>221.80000305176</ele>
        <time>2022-02-15T11:37:51Z</time>
      </trkpt>
      <trkpt lat="45.21073" lon="4.70388">
        <ele>223.60000610352</ele>
        <time>2022-02-15T11:38:02Z</time>
      </trkpt>
      <trkpt lat="45.21069" lon="4.70396">
        <ele>224.80000305176</ele>
        <time>2022-02-15T11:38:07Z</time>
      </trkpt>
      <trkpt lat="45.21068" lon="4.70397">
        <ele>225.19999694824</ele>
        <time>2022-02-15T11:38:08Z</time>
      </trkpt>
      <trkpt lat="45.21068" lon="4.704">
        <ele>225.80000305176</ele>
        <time>2022-02-15T11:38:10Z</time>
      </trkpt>
      <trkpt lat="45.21065" lon="4.70408">
        <ele>227</ele>
        <time>2022-02-15T11:38:16Z</time>
      </trkpt>
      <trkpt lat="45.21065" lon="4.70412">
        <ele>227.39999389648</ele>
        <time>2022-02-15T11:38:19Z</time>
      </trkpt>
      <trkpt lat="45.21064" lon="4.70414">
        <ele>227.80000305176</ele>
        <time>2022-02-15T11:38:21Z</time>
      </trkpt>
      <trkpt lat="45.21061" lon="4.70423">
        <ele>228.80000305176</ele>
        <time>2022-02-15T11:38:28Z</time>
      </trkpt>
      <trkpt lat="45.21063" lon="4.70427">
        <ele>229.80000305176</ele>
        <time>2022-02-15T11:38:32Z</time>
      </trkpt>
      <trkpt lat="45.21065" lon="4.70425">
        <ele>230.39999389648</ele>
        <time>2022-02-15T11:38:35Z</time>
      </trkpt>
      <trkpt lat="45.21071" lon="4.70414">
        <ele>231.39999389648</ele>
        <time>2022-02-15T11:38:42Z</time>
      </trkpt>
      <trkpt lat="45.21077" lon="4.70404">
        <ele>232.39999389648</ele>
        <time>2022-02-15T11:38:54Z</time>
      </trkpt>
      <trkpt lat="45.21078" lon="4.70408">
        <ele>232.39999389648</ele>
        <time>2022-02-15T11:38:57Z</time>
      </trkpt>
      <trkpt lat="45.21075" lon="4.70415">
        <ele>232.60000610352</ele>
        <time>2022-02-15T11:39:01Z</time>
      </trkpt>
      <trkpt lat="45.21073" lon="4.70429">
        <ele>234.60000610352</ele>
        <time>2022-02-15T11:39:09Z</time>
      </trkpt>
      <trkpt lat="45.21071" lon="4.70437">
        <ele>235.39999389648</ele>
        <time>2022-02-15T11:39:13Z</time>
      </trkpt>
      <trkpt lat="45.21071" lon="4.70442">
        <ele>236.80000305176</ele>
        <time>2022-02-15T11:39:16Z</time>
      </trkpt>
      <trkpt lat="45.21069" lon="4.70445">
        <ele>238</ele>
        <time>2022-02-15T11:39:18Z</time>
      </trkpt>
      <trkpt lat="45.21068" lon="4.70456">
        <ele>241.19999694824</ele>
        <time>2022-02-15T11:39:26Z</time>
      </trkpt>
      <trkpt lat="45.21068" lon="4.70462">
        <ele>242.60000610352</ele>
        <time>2022-02-15T11:39:30Z</time>
      </trkpt>
      <trkpt lat="45.21052" lon="4.70491">
        <ele>244.39999389648</ele>
        <time>2022-02-15T11:39:40Z</time>
      </trkpt>
      <trkpt lat="45.21039" lon="4.70509">
        <ele>244.39999389648</ele>
        <time>2022-02-15T11:39:45Z</time>
      </trkpt>
      <trkpt lat="45.21022" lon="4.70534">
        <ele>244.19999694824</ele>
        <time>2022-02-15T11:39:51Z</time>
      </trkpt>
      <trkpt lat="45.21011" lon="4.70545">
        <ele>244.19999694824</ele>
        <time>2022-02-15T11:39:54Z</time>
      </trkpt>
      <trkpt lat="45.20995" lon="4.70555">
        <ele>244.19999694824</ele>
        <time>2022-02-15T11:39:58Z</time>
      </trkpt>
      <trkpt lat="45.20983" lon="4.70605">
        <ele>244.80000305176</ele>
        <time>2022-02-15T11:40:08Z</time>
      </trkpt>
      <trkpt lat="45.21002" lon="4.70691">
        <ele>245</ele>
        <time>2022-02-15T11:40:21Z</time>
      </trkpt>
      <trkpt lat="45.21004" lon="4.70712">
        <ele>245.19999694824</ele>
        <time>2022-02-15T11:40:24Z</time>
      </trkpt>
      <trkpt lat="45.20999" lon="4.70746">
        <ele>245.19999694824</ele>
        <time>2022-02-15T11:40:29Z</time>
      </trkpt>
      <trkpt lat="45.20998" lon="4.70775">
        <ele>245.39999389648</ele>
        <time>2022-02-15T11:40:33Z</time>
      </trkpt>
      <trkpt lat="45.20981" lon="4.70847">
        <ele>245.39999389648</ele>
        <time>2022-02-15T11:40:44Z</time>
      </trkpt>
      <trkpt lat="45.20962" lon="4.70876">
        <ele>245.39999389648</ele>
        <time>2022-02-15T11:40:49Z</time>
      </trkpt>
      <trkpt lat="45.20957" lon="4.70879">
        <ele>245.39999389648</ele>
        <time>2022-02-15T11:40:50Z</time>
      </trkpt>
      <trkpt lat="45.20898" lon="4.70907">
        <ele>245.39999389648</ele>
        <time>2022-02-15T11:41:01Z</time>
      </trkpt>
      <trkpt lat="45.20872" lon="4.70919">
        <ele>246</ele>
        <time>2022-02-15T11:41:06Z</time>
      </trkpt>
      <trkpt lat="45.20848" lon="4.70935">
        <ele>246</ele>
        <time>2022-02-15T11:41:11Z</time>
      </trkpt>
      <trkpt lat="45.20837" lon="4.70971">
        <ele>246.19999694824</ele>
        <time>2022-02-15T11:41:16Z</time>
      </trkpt>
      <trkpt lat="45.20833" lon="4.71036">
        <ele>246.80000305176</ele>
        <time>2022-02-15T11:41:24Z</time>
      </trkpt>
      <trkpt lat="45.20828" lon="4.71127">
        <ele>246.60000610352</ele>
        <time>2022-02-15T11:41:35Z</time>
      </trkpt>
      <trkpt lat="45.20833" lon="4.71145">
        <ele>246.60000610352</ele>
        <time>2022-02-15T11:41:37Z</time>
      </trkpt>
      <trkpt lat="45.20834" lon="4.71151">
        <ele>246.39999389648</ele>
        <time>2022-02-15T11:41:38Z</time>
      </trkpt>
      <trkpt lat="45.20836" lon="4.71201">
        <ele>246.39999389648</ele>
        <time>2022-02-15T11:41:44Z</time>
      </trkpt>
      <trkpt lat="45.20848" lon="4.71309">
        <ele>245.60000610352</ele>
        <time>2022-02-15T11:41:57Z</time>
      </trkpt>
      <trkpt lat="45.20852" lon="4.71484">
        <ele>244.60000610352</ele>
        <time>2022-02-15T11:42:17Z</time>
      </trkpt>
      <trkpt lat="45.20845" lon="4.71563">
        <ele>244.19999694824</ele>
        <time>2022-02-15T11:42:27Z</time>
      </trkpt>
      <trkpt lat="45.20834" lon="4.71574">
        <ele>243.80000305176</ele>
        <time>2022-02-15T11:42:29Z</time>
      </trkpt>
      <trkpt lat="45.20832" lon="4.71613">
        <ele>243.39999389648</ele>
        <time>2022-02-15T11:42:34Z</time>
      </trkpt>
      <trkpt lat="45.20858" lon="4.71631">
        <ele>243.39999389648</ele>
        <time>2022-02-15T11:42:39Z</time>
      </trkpt>
      <trkpt lat="45.20868" lon="4.7164">
        <ele>243.39999389648</ele>
        <time>2022-02-15T11:42:41Z</time>
      </trkpt>
      <trkpt lat="45.20871" lon="4.71678">
        <ele>243</ele>
        <time>2022-02-15T11:42:48Z</time>
      </trkpt>
      <trkpt lat="45.20864" lon="4.71682">
        <ele>243</ele>
        <time>2022-02-15T11:42:50Z</time>
      </trkpt>
      <trkpt lat="45.20856" lon="4.71686">
        <ele>243</ele>
        <time>2022-02-15T11:42:52Z</time>
      </trkpt>
      <trkpt lat="45.20841" lon="4.7169">
        <ele>242.80000305176</ele>
        <time>2022-02-15T11:42:55Z</time>
      </trkpt>
      <trkpt lat="45.20833" lon="4.71696">
        <ele>242.80000305176</ele>
        <time>2022-02-15T11:42:57Z</time>
      </trkpt>
      <trkpt lat="45.20807" lon="4.71705">
        <ele>242.80000305176</ele>
        <time>2022-02-15T11:43:02Z</time>
      </trkpt>
      <trkpt lat="45.20791" lon="4.71714">
        <ele>242.60000610352</ele>
        <time>2022-02-15T11:43:05Z</time>
      </trkpt>
      <trkpt lat="45.20768" lon="4.71738">
        <ele>242.39999389648</ele>
        <time>2022-02-15T11:43:10Z</time>
      </trkpt>
      <trkpt lat="45.20752" lon="4.71765">
        <ele>242</ele>
        <time>2022-02-15T11:43:14Z</time>
      </trkpt>
      <trkpt lat="45.20749" lon="4.71832">
        <ele>241.60000610352</ele>
        <time>2022-02-15T11:43:23Z</time>
      </trkpt>
      <trkpt lat="45.20752" lon="4.71839">
        <ele>241.80000305176</ele>
        <time>2022-02-15T11:43:24Z</time>
      </trkpt>
      <trkpt lat="45.20756" lon="4.71845">
        <ele>241.80000305176</ele>
        <time>2022-02-15T11:43:25Z</time>
      </trkpt>
      <trkpt lat="45.2075" lon="4.71888">
        <ele>241.80000305176</ele>
        <time>2022-02-15T11:43:31Z</time>
      </trkpt>
      <trkpt lat="45.20746" lon="4.71895">
        <ele>241.80000305176</ele>
        <time>2022-02-15T11:43:32Z</time>
      </trkpt>
      <trkpt lat="45.20746" lon="4.71953">
        <ele>241.60000610352</ele>
        <time>2022-02-15T11:43:39Z</time>
      </trkpt>
      <trkpt lat="45.20773" lon="4.72001">
        <ele>241.19999694824</ele>
        <time>2022-02-15T11:43:46Z</time>
      </trkpt>
      <trkpt lat="45.20801" lon="4.72037">
        <ele>241.19999694824</ele>
        <time>2022-02-15T11:43:52Z</time>
      </trkpt>
      <trkpt lat="45.20821" lon="4.72058">
        <ele>241</ele>
        <time>2022-02-15T11:43:56Z</time>
      </trkpt>
      <trkpt lat="45.20822" lon="4.72096">
        <ele>240.60000610352</ele>
        <time>2022-02-15T11:44:01Z</time>
      </trkpt>
      <trkpt lat="45.20795" lon="4.72106">
        <ele>240.19999694824</ele>
        <time>2022-02-15T11:44:06Z</time>
      </trkpt>
      <trkpt lat="45.20766" lon="4.72099">
        <ele>239.39999389648</ele>
        <time>2022-02-15T11:44:11Z</time>
      </trkpt>
      <trkpt lat="45.20734" lon="4.72128">
        <ele>239</ele>
        <time>2022-02-15T11:44:17Z</time>
      </trkpt>
      <trkpt lat="45.20731" lon="4.72136">
        <ele>239</ele>
        <time>2022-02-15T11:44:18Z</time>
      </trkpt>
      <trkpt lat="45.2072" lon="4.72161">
        <ele>239</ele>
        <time>2022-02-15T11:44:21Z</time>
      </trkpt>
      <trkpt lat="45.20698" lon="4.72192">
        <ele>238.80000305176</ele>
        <time>2022-02-15T11:44:26Z</time>
      </trkpt>
      <trkpt lat="45.20675" lon="4.7222">
        <ele>238.60000610352</ele>
        <time>2022-02-15T11:44:31Z</time>
      </trkpt>
      <trkpt lat="45.20618" lon="4.72223">
        <ele>238</ele>
        <time>2022-02-15T11:44:40Z</time>
      </trkpt>
      <trkpt lat="45.20599" lon="4.72213">
        <ele>237.80000305176</ele>
        <time>2022-02-15T11:44:43Z</time>
      </trkpt>
      <trkpt lat="45.20581" lon="4.722">
        <ele>237.39999389648</ele>
        <time>2022-02-15T11:44:46Z</time>
      </trkpt>
      <trkpt lat="45.20539" lon="4.72197">
        <ele>236.60000610352</ele>
        <time>2022-02-15T11:44:54Z</time>
      </trkpt>
      <trkpt lat="45.20553" lon="4.72251">
        <ele>235.60000610352</ele>
        <time>2022-02-15T11:45:00Z</time>
      </trkpt>
      <trkpt lat="45.20548" lon="4.72336">
        <ele>234.60000610352</ele>
        <time>2022-02-15T11:45:09Z</time>
      </trkpt>
      <trkpt lat="45.20549" lon="4.72345">
        <ele>234.39999389648</ele>
        <time>2022-02-15T11:45:10Z</time>
      </trkpt>
      <trkpt lat="45.2055" lon="4.72355">
        <ele>234.39999389648</ele>
        <time>2022-02-15T11:45:11Z</time>
      </trkpt>
      <trkpt lat="45.2056" lon="4.7245">
        <ele>233.19999694824</ele>
        <time>2022-02-15T11:45:21Z</time>
      </trkpt>
      <trkpt lat="45.20604" lon="4.72499">
        <ele>232.60000610352</ele>
        <time>2022-02-15T11:45:30Z</time>
      </trkpt>
      <trkpt lat="45.20608" lon="4.72501">
        <ele>232.80000305176</ele>
        <time>2022-02-15T11:45:31Z</time>
      </trkpt>
      <trkpt lat="45.20642" lon="4.7253">
        <ele>235.19999694824</ele>
        <time>2022-02-15T11:45:44Z</time>
      </trkpt>
      <trkpt lat="45.20643" lon="4.72545">
        <ele>236</ele>
        <time>2022-02-15T11:45:49Z</time>
      </trkpt>
      <trkpt lat="45.20656" lon="4.72568">
        <ele>238.80000305176</ele>
        <time>2022-02-15T11:46:01Z</time>
      </trkpt>
      <trkpt lat="45.20671" lon="4.7258">
        <ele>241.80000305176</ele>
        <time>2022-02-15T11:46:13Z</time>
      </trkpt>
      <trkpt lat="45.20686" lon="4.72605">
        <ele>245</ele>
        <time>2022-02-15T11:46:28Z</time>
      </trkpt>
      <trkpt lat="45.20688" lon="4.72611">
        <ele>245.39999389648</ele>
        <time>2022-02-15T11:46:31Z</time>
      </trkpt>
      <trkpt lat="45.20698" lon="4.72615">
        <ele>247</ele>
        <time>2022-02-15T11:46:38Z</time>
      </trkpt>
      <trkpt lat="45.20694" lon="4.72594">
        <ele>248.80000305176</ele>
        <time>2022-02-15T11:46:48Z</time>
      </trkpt>
      <trkpt lat="45.20694" lon="4.72592">
        <ele>249</ele>
        <time>2022-02-15T11:46:49Z</time>
      </trkpt>
      <trkpt lat="45.20693" lon="4.72577">
        <ele>249.60000610352</ele>
        <time>2022-02-15T11:46:55Z</time>
      </trkpt>
      <trkpt lat="45.20688" lon="4.72564">
        <ele>250.80000305176</ele>
        <time>2022-02-15T11:47:01Z</time>
      </trkpt>
      <trkpt lat="45.20684" lon="4.72543">
        <ele>252.80000305176</ele>
        <time>2022-02-15T11:47:11Z</time>
      </trkpt>
      <trkpt lat="45.20684" lon="4.72541">
        <ele>253</ele>
        <time>2022-02-15T11:47:12Z</time>
      </trkpt>
      <trkpt lat="45.20683" lon="4.72533">
        <ele>253.60000610352</ele>
        <time>2022-02-15T11:47:16Z</time>
      </trkpt>
      <trkpt lat="45.20679" lon="4.72507">
        <ele>255.80000305176</ele>
        <time>2022-02-15T11:47:29Z</time>
      </trkpt>
      <trkpt lat="45.2067" lon="4.72484">
        <ele>258.20001220703</ele>
        <time>2022-02-15T11:47:40Z</time>
      </trkpt>
      <trkpt lat="45.20667" lon="4.72477">
        <ele>258.39999389648</ele>
        <time>2022-02-15T11:47:43Z</time>
      </trkpt>
      <trkpt lat="45.20658" lon="4.7245">
        <ele>260</ele>
        <time>2022-02-15T11:47:54Z</time>
      </trkpt>
      <trkpt lat="45.20643" lon="4.72428">
        <ele>262.60000610352</ele>
        <time>2022-02-15T11:48:06Z</time>
      </trkpt>
      <trkpt lat="45.20641" lon="4.72424">
        <ele>262.79998779297</ele>
        <time>2022-02-15T11:48:08Z</time>
      </trkpt>
      <trkpt lat="45.20638" lon="4.72418">
        <ele>263.39999389648</ele>
        <time>2022-02-15T11:48:11Z</time>
      </trkpt>
      <trkpt lat="45.20632" lon="4.72413">
        <ele>264.60000610352</ele>
        <time>2022-02-15T11:48:15Z</time>
      </trkpt>
      <trkpt lat="45.20628" lon="4.72406">
        <ele>265.60000610352</ele>
        <time>2022-02-15T11:48:19Z</time>
      </trkpt>
      <trkpt lat="45.2062" lon="4.72385">
        <ele>268.60000610352</ele>
        <time>2022-02-15T11:48:30Z</time>
      </trkpt>
      <trkpt lat="45.20628" lon="4.7236">
        <ele>271</ele>
        <time>2022-02-15T11:48:44Z</time>
      </trkpt>
      <trkpt lat="45.20646" lon="4.7235">
        <ele>274</ele>
        <time>2022-02-15T11:48:58Z</time>
      </trkpt>
      <trkpt lat="45.2066" lon="4.72363">
        <ele>276.79998779297</ele>
        <time>2022-02-15T11:49:13Z</time>
      </trkpt>
      <trkpt lat="45.20661" lon="4.72378">
        <ele>278.39999389648</ele>
        <time>2022-02-15T11:49:20Z</time>
      </trkpt>
      <trkpt lat="45.20676" lon="4.72399">
        <ele>280.60000610352</ele>
        <time>2022-02-15T11:49:33Z</time>
      </trkpt>
      <trkpt lat="45.20684" lon="4.7241">
        <ele>281.60000610352</ele>
        <time>2022-02-15T11:49:41Z</time>
      </trkpt>
      <trkpt lat="45.20688" lon="4.72415">
        <ele>282</ele>
        <time>2022-02-15T11:49:45Z</time>
      </trkpt>
      <trkpt lat="45.20701" lon="4.72443">
        <ele>285</ele>
        <time>2022-02-15T11:50:00Z</time>
      </trkpt>
      <trkpt lat="45.20702" lon="4.72444">
        <ele>285.20001220703</ele>
        <time>2022-02-15T11:50:01Z</time>
      </trkpt>
      <trkpt lat="45.20708" lon="4.7243">
        <ele>287</ele>
        <time>2022-02-15T11:50:10Z</time>
      </trkpt>
      <trkpt lat="45.20707" lon="4.72426">
        <ele>287.39999389648</ele>
        <time>2022-02-15T11:50:12Z</time>
      </trkpt>
      <trkpt lat="45.20708" lon="4.72398">
        <ele>289.79998779297</ele>
        <time>2022-02-15T11:50:26Z</time>
      </trkpt>
      <trkpt lat="45.2071" lon="4.72396">
        <ele>290</ele>
        <time>2022-02-15T11:50:28Z</time>
      </trkpt>
      <trkpt lat="45.20716" lon="4.72396">
        <ele>290.60000610352</ele>
        <time>2022-02-15T11:50:32Z</time>
      </trkpt>
      <trkpt lat="45.20732" lon="4.72416">
        <ele>293.60000610352</ele>
        <time>2022-02-15T11:50:47Z</time>
      </trkpt>
      <trkpt lat="45.2075" lon="4.72436">
        <ele>296</ele>
        <time>2022-02-15T11:51:02Z</time>
      </trkpt>
      <trkpt lat="45.20772" lon="4.72443">
        <ele>298.79998779297</ele>
        <time>2022-02-15T11:51:17Z</time>
      </trkpt>
      <trkpt lat="45.20792" lon="4.72442">
        <ele>301.79998779297</ele>
        <time>2022-02-15T11:51:32Z</time>
      </trkpt>
      <trkpt lat="45.20798" lon="4.72439">
        <ele>302.39999389648</ele>
        <time>2022-02-15T11:51:36Z</time>
      </trkpt>
      <trkpt lat="45.20806" lon="4.72435">
        <ele>306.60000610352</ele>
        <time>2022-02-15T11:51:42Z</time>
      </trkpt>
      <trkpt lat="45.2081" lon="4.72434">
        <ele>310.20001220703</ele>
        <time>2022-02-15T11:51:46Z</time>
      </trkpt>
      <trkpt lat="45.20811" lon="4.72434">
        <ele>310.39999389648</ele>
        <time>2022-02-15T11:51:47Z</time>
      </trkpt>
      <trkpt lat="45.20825" lon="4.72432">
        <ele>310.79998779297</ele>
        <time>2022-02-15T11:52:01Z</time>
      </trkpt>
      <trkpt lat="45.20834" lon="4.72428">
        <ele>313</ele>
        <time>2022-02-15T11:52:08Z</time>
      </trkpt>
      <trkpt lat="45.20835" lon="4.72428">
        <ele>313.20001220703</ele>
        <time>2022-02-15T11:52:09Z</time>
      </trkpt>
      <trkpt lat="45.20838" lon="4.72429">
        <ele>316</ele>
        <time>2022-02-15T11:52:12Z</time>
      </trkpt>
      <trkpt lat="45.2084" lon="4.72429">
        <ele>316.79998779297</ele>
        <time>2022-02-15T11:52:14Z</time>
      </trkpt>
      <trkpt lat="45.20845" lon="4.72429">
        <ele>313.60000610352</ele>
        <time>2022-02-15T11:52:19Z</time>
      </trkpt>
      <trkpt lat="45.20875" lon="4.72429">
        <ele>313.60000610352</ele>
        <time>2022-02-15T11:52:40Z</time>
      </trkpt>
      <trkpt lat="45.2089" lon="4.72431">
        <ele>315.60000610352</ele>
        <time>2022-02-15T11:52:50Z</time>
      </trkpt>
      <trkpt lat="45.20912" lon="4.7244">
        <ele>317.79998779297</ele>
        <time>2022-02-15T11:53:05Z</time>
      </trkpt>
      <trkpt lat="45.20936" lon="4.72455">
        <ele>321</ele>
        <time>2022-02-15T11:53:23Z</time>
      </trkpt>
      <trkpt lat="45.20944" lon="4.7246">
        <ele>322</ele>
        <time>2022-02-15T11:53:30Z</time>
      </trkpt>
      <trkpt lat="45.2095" lon="4.72467">
        <ele>322.79998779297</ele>
        <time>2022-02-15T11:53:36Z</time>
      </trkpt>
      <trkpt lat="45.20955" lon="4.7247">
        <ele>325.20001220703</ele>
        <time>2022-02-15T11:53:40Z</time>
      </trkpt>
      <trkpt lat="45.20959" lon="4.72471">
        <ele>327.20001220703</ele>
        <time>2022-02-15T11:53:43Z</time>
      </trkpt>
      <trkpt lat="45.20968" lon="4.72479">
        <ele>327.20001220703</ele>
        <time>2022-02-15T11:53:51Z</time>
      </trkpt>
      <trkpt lat="45.20982" lon="4.72491">
        <ele>327.79998779297</ele>
        <time>2022-02-15T11:54:01Z</time>
      </trkpt>
      <trkpt lat="45.20983" lon="4.72492">
        <ele>327.79998779297</ele>
        <time>2022-02-15T11:54:02Z</time>
      </trkpt>
      <trkpt lat="45.21033" lon="4.72541">
        <ele>327.60000610352</ele>
        <time>2022-02-15T11:54:32Z</time>
      </trkpt>
      <trkpt lat="45.21092" lon="4.72547">
        <ele>328.39999389648</ele>
        <time>2022-02-15T11:54:55Z</time>
      </trkpt>
      <trkpt lat="45.21122" lon="4.72529">
        <ele>330.60000610352</ele>
        <time>2022-02-15T11:55:11Z</time>
      </trkpt>
      <trkpt lat="45.21149" lon="4.72528">
        <ele>331.39999389648</ele>
        <time>2022-02-15T11:55:23Z</time>
      </trkpt>
      <trkpt lat="45.21181" lon="4.72543">
        <ele>333.20001220703</ele>
        <time>2022-02-15T11:55:36Z</time>
      </trkpt>
      <trkpt lat="45.21184" lon="4.72555">
        <ele>334.39999389648</ele>
        <time>2022-02-15T11:55:40Z</time>
      </trkpt>
      <trkpt lat="45.21183" lon="4.72634">
        <ele>336.20001220703</ele>
        <time>2022-02-15T11:55:54Z</time>
      </trkpt>
      <trkpt lat="45.21176" lon="4.72707">
        <ele>334.39999389648</ele>
        <time>2022-02-15T11:56:03Z</time>
      </trkpt>
      <trkpt lat="45.21161" lon="4.72808">
        <ele>334.39999389648</ele>
        <time>2022-02-15T11:56:19Z</time>
      </trkpt>
      <trkpt lat="45.21146" lon="4.72844">
        <ele>333.39999389648</ele>
        <time>2022-02-15T11:56:25Z</time>
      </trkpt>
      <trkpt lat="45.21131" lon="4.72875">
        <ele>332.79998779297</ele>
        <time>2022-02-15T11:56:35Z</time>
      </trkpt>
      <trkpt lat="45.21105" lon="4.72933">
        <ele>335.20001220703</ele>
        <time>2022-02-15T11:56:53Z</time>
      </trkpt>
      <trkpt lat="45.21108" lon="4.72982">
        <ele>338.20001220703</ele>
        <time>2022-02-15T11:57:04Z</time>
      </trkpt>
      <trkpt lat="45.21115" lon="4.73039">
        <ele>340.79998779297</ele>
        <time>2022-02-15T11:57:19Z</time>
      </trkpt>
      <trkpt lat="45.21124" lon="4.73099">
        <ele>342.39999389648</ele>
        <time>2022-02-15T11:57:34Z</time>
      </trkpt>
      <trkpt lat="45.21121" lon="4.73187">
        <ele>341.79998779297</ele>
        <time>2022-02-15T11:57:53Z</time>
      </trkpt>
      <trkpt lat="45.21124" lon="4.73238">
        <ele>344.39999389648</ele>
        <time>2022-02-15T11:58:07Z</time>
      </trkpt>
      <trkpt lat="45.21133" lon="4.7328">
        <ele>347.60000610352</ele>
        <time>2022-02-15T11:58:20Z</time>
      </trkpt>
      <trkpt lat="45.21141" lon="4.73325">
        <ele>350.20001220703</ele>
        <time>2022-02-15T11:58:34Z</time>
      </trkpt>
      <trkpt lat="45.21117" lon="4.73403">
        <ele>350</ele>
        <time>2022-02-15T11:58:55Z</time>
      </trkpt>
      <trkpt lat="45.21118" lon="4.73407">
        <ele>350</ele>
        <time>2022-02-15T11:58:56Z</time>
      </trkpt>
      <trkpt lat="45.21127" lon="4.73419">
        <ele>350.39999389648</ele>
        <time>2022-02-15T11:59:00Z</time>
      </trkpt>
      <trkpt lat="45.21203" lon="4.73481">
        <ele>352.39999389648</ele>
        <time>2022-02-15T11:59:26Z</time>
      </trkpt>
      <trkpt lat="45.21215" lon="4.7349">
        <ele>352.39999389648</ele>
        <time>2022-02-15T11:59:30Z</time>
      </trkpt>
      <trkpt lat="45.21212" lon="4.73534">
        <ele>351.39999389648</ele>
        <time>2022-02-15T11:59:39Z</time>
      </trkpt>
      <trkpt lat="45.21217" lon="4.73681">
        <ele>351.60000610352</ele>
        <time>2022-02-15T12:00:08Z</time>
      </trkpt>
      <trkpt lat="45.21228" lon="4.73808">
        <ele>352.20001220703</ele>
        <time>2022-02-15T12:00:32Z</time>
      </trkpt>
      <trkpt lat="45.2123" lon="4.73817">
        <ele>352.20001220703</ele>
        <time>2022-02-15T12:00:34Z</time>
      </trkpt>
      <trkpt lat="45.21223" lon="4.73864">
        <ele>352.20001220703</ele>
        <time>2022-02-15T12:00:42Z</time>
      </trkpt>
      <trkpt lat="45.21213" lon="4.73922">
        <ele>351.39999389648</ele>
        <time>2022-02-15T12:00:49Z</time>
      </trkpt>
      <trkpt lat="45.21212" lon="4.7393">
        <ele>351.39999389648</ele>
        <time>2022-02-15T12:00:50Z</time>
      </trkpt>
      <trkpt lat="45.21211" lon="4.73967">
        <ele>351.39999389648</ele>
        <time>2022-02-15T12:00:55Z</time>
      </trkpt>
      <trkpt lat="45.21207" lon="4.7399">
        <ele>351.39999389648</ele>
        <time>2022-02-15T12:00:58Z</time>
      </trkpt>
      <trkpt lat="45.21185" lon="4.74107">
        <ele>350</ele>
        <time>2022-02-15T12:01:16Z</time>
      </trkpt>
      <trkpt lat="45.2118" lon="4.74186">
        <ele>349.20001220703</ele>
        <time>2022-02-15T12:01:30Z</time>
      </trkpt>
      <trkpt lat="45.21184" lon="4.7419">
        <ele>349.20001220703</ele>
        <time>2022-02-15T12:01:31Z</time>
      </trkpt>
      <trkpt lat="45.21221" lon="4.74229">
        <ele>349.20001220703</ele>
        <time>2022-02-15T12:01:40Z</time>
      </trkpt>
      <trkpt lat="45.21273" lon="4.74299">
        <ele>347.79998779297</ele>
        <time>2022-02-15T12:01:52Z</time>
      </trkpt>
      <trkpt lat="45.21295" lon="4.74326">
        <ele>346.79998779297</ele>
        <time>2022-02-15T12:01:56Z</time>
      </trkpt>
      <trkpt lat="45.21314" lon="4.7434">
        <ele>345.60000610352</ele>
        <time>2022-02-15T12:01:59Z</time>
      </trkpt>
      <trkpt lat="45.2133" lon="4.74355">
        <ele>344.20001220703</ele>
        <time>2022-02-15T12:02:02Z</time>
      </trkpt>
      <trkpt lat="45.21337" lon="4.74363">
        <ele>343.60000610352</ele>
        <time>2022-02-15T12:02:04Z</time>
      </trkpt>
      <trkpt lat="45.21343" lon="4.74382">
        <ele>340.20001220703</ele>
        <time>2022-02-15T12:02:09Z</time>
      </trkpt>
      <trkpt lat="45.21346" lon="4.74385">
        <ele>339.20001220703</ele>
        <time>2022-02-15T12:02:10Z</time>
      </trkpt>
      <trkpt lat="45.21353" lon="4.74401">
        <ele>337</ele>
        <time>2022-02-15T12:02:15Z</time>
      </trkpt>
      <trkpt lat="45.21351" lon="4.74413">
        <ele>335.39999389648</ele>
        <time>2022-02-15T12:02:18Z</time>
      </trkpt>
      <trkpt lat="45.2135" lon="4.74433">
        <ele>332.20001220703</ele>
        <time>2022-02-15T12:02:24Z</time>
      </trkpt>
      <trkpt lat="45.21352" lon="4.74441">
        <ele>329.20001220703</ele>
        <time>2022-02-15T12:02:37Z</time>
      </trkpt>
      <trkpt lat="45.21361" lon="4.74455">
        <ele>328.20001220703</ele>
        <time>2022-02-15T12:02:43Z</time>
      </trkpt>
      <trkpt lat="45.21396" lon="4.74497">
        <ele>326</ele>
        <time>2022-02-15T12:02:49Z</time>
      </trkpt>
      <trkpt lat="45.21422" lon="4.74515">
        <ele>323.60000610352</ele>
        <time>2022-02-15T12:02:53Z</time>
      </trkpt>
      <trkpt lat="45.21428" lon="4.74517">
        <ele>322.79998779297</ele>
        <time>2022-02-15T12:02:54Z</time>
      </trkpt>
      <trkpt lat="45.2145" lon="4.74534">
        <ele>321.20001220703</ele>
        <time>2022-02-15T12:03:01Z</time>
      </trkpt>
      <trkpt lat="45.21473" lon="4.74563">
        <ele>324.20001220703</ele>
        <time>2022-02-15T12:03:18Z</time>
      </trkpt>
      <trkpt lat="45.21481" lon="4.74589">
        <ele>327.20001220703</ele>
        <time>2022-02-15T12:03:25Z</time>
      </trkpt>
      <trkpt lat="45.21502" lon="4.74653">
        <ele>327.20001220703</ele>
        <time>2022-02-15T12:03:39Z</time>
      </trkpt>
      <trkpt lat="45.21509" lon="4.74672">
        <ele>327</ele>
        <time>2022-02-15T12:03:43Z</time>
      </trkpt>
      <trkpt lat="45.21542" lon="4.74679">
        <ele>327</ele>
        <time>2022-02-15T12:03:51Z</time>
      </trkpt>
      <trkpt lat="45.21549" lon="4.74671">
        <ele>326.60000610352</ele>
        <time>2022-02-15T12:03:53Z</time>
      </trkpt>
      <trkpt lat="45.21585" lon="4.74664">
        <ele>324.60000610352</ele>
        <time>2022-02-15T12:04:04Z</time>
      </trkpt>
      <trkpt lat="45.21661" lon="4.74627">
        <ele>325</ele>
        <time>2022-02-15T12:04:25Z</time>
      </trkpt>
      <trkpt lat="45.21686" lon="4.74626">
        <ele>325.20001220703</ele>
        <time>2022-02-15T12:04:32Z</time>
      </trkpt>
      <trkpt lat="45.21708" lon="4.74597">
        <ele>325.20001220703</ele>
        <time>2022-02-15T12:04:40Z</time>
      </trkpt>
      <trkpt lat="45.21707" lon="4.74584">
        <ele>324.79998779297</ele>
        <time>2022-02-15T12:04:42Z</time>
      </trkpt>
      <trkpt lat="45.21704" lon="4.74552">
        <ele>324.60000610352</ele>
        <time>2022-02-15T12:04:47Z</time>
      </trkpt>
      <trkpt lat="45.21716" lon="4.74525">
        <ele>324.39999389648</ele>
        <time>2022-02-15T12:04:52Z</time>
      </trkpt>
      <trkpt lat="45.21739" lon="4.7448">
        <ele>324.20001220703</ele>
        <time>2022-02-15T12:05:01Z</time>
      </trkpt>
      <trkpt lat="45.21792" lon="4.74426">
        <ele>324.60000610352</ele>
        <time>2022-02-15T12:05:18Z</time>
      </trkpt>
      <trkpt lat="45.21818" lon="4.74375">
        <ele>325.60000610352</ele>
        <time>2022-02-15T12:05:32Z</time>
      </trkpt>
      <trkpt lat="45.21861" lon="4.74313">
        <ele>327.60000610352</ele>
        <time>2022-02-15T12:05:49Z</time>
      </trkpt>
      <trkpt lat="45.21868" lon="4.7431">
        <ele>327.60000610352</ele>
        <time>2022-02-15T12:05:51Z</time>
      </trkpt>
      <trkpt lat="45.21903" lon="4.74297">
        <ele>326.20001220703</ele>
        <time>2022-02-15T12:05:58Z</time>
      </trkpt>
      <trkpt lat="45.21918" lon="4.74292">
        <ele>326</ele>
        <time>2022-02-15T12:06:02Z</time>
      </trkpt>
      <trkpt lat="45.21923" lon="4.74294">
        <ele>326</ele>
        <time>2022-02-15T12:06:04Z</time>
      </trkpt>
      <trkpt lat="45.21939" lon="4.74316">
        <ele>327.20001220703</ele>
        <time>2022-02-15T12:06:14Z</time>
      </trkpt>
      <trkpt lat="45.21951" lon="4.74333">
        <ele>328.60000610352</ele>
        <time>2022-02-15T12:06:20Z</time>
      </trkpt>
      <trkpt lat="45.21967" lon="4.74325">
        <ele>330</ele>
        <time>2022-02-15T12:06:26Z</time>
      </trkpt>
      <trkpt lat="45.21969" lon="4.74323">
        <ele>330</ele>
        <time>2022-02-15T12:06:27Z</time>
      </trkpt>
      <trkpt lat="45.21974" lon="4.74322">
        <ele>331.20001220703</ele>
        <time>2022-02-15T12:06:30Z</time>
      </trkpt>
      <trkpt lat="45.21994" lon="4.74322">
        <ele>334</ele>
        <time>2022-02-15T12:06:42Z</time>
      </trkpt>
      <trkpt lat="45.22001" lon="4.74313">
        <ele>334.60000610352</ele>
        <time>2022-02-15T12:06:47Z</time>
      </trkpt>
      <trkpt lat="45.22007" lon="4.7428">
        <ele>336</ele>
        <time>2022-02-15T12:06:58Z</time>
      </trkpt>
      <trkpt lat="45.22013" lon="4.74268">
        <ele>336.20001220703</ele>
        <time>2022-02-15T12:07:01Z</time>
      </trkpt>
      <trkpt lat="45.22022" lon="4.74245">
        <ele>336.20001220703</ele>
        <time>2022-02-15T12:07:06Z</time>
      </trkpt>
      <trkpt lat="45.22054" lon="4.74196">
        <ele>334.60000610352</ele>
        <time>2022-02-15T12:07:15Z</time>
      </trkpt>
      <trkpt lat="45.22067" lon="4.74177">
        <ele>333.79998779297</ele>
        <time>2022-02-15T12:07:19Z</time>
      </trkpt>
      <trkpt lat="45.22092" lon="4.74143">
        <ele>333.60000610352</ele>
        <time>2022-02-15T12:07:30Z</time>
      </trkpt>
      <trkpt lat="45.22112" lon="4.74149">
        <ele>334.20001220703</ele>
        <time>2022-02-15T12:07:39Z</time>
      </trkpt>
      <trkpt lat="45.22116" lon="4.74154">
        <ele>334.20001220703</ele>
        <time>2022-02-15T12:07:41Z</time>
      </trkpt>
      <trkpt lat="45.22128" lon="4.74169">
        <ele>335</ele>
        <time>2022-02-15T12:07:47Z</time>
      </trkpt>
      <trkpt lat="45.22136" lon="4.74172">
        <ele>335.20001220703</ele>
        <time>2022-02-15T12:07:51Z</time>
      </trkpt>
      <trkpt lat="45.22144" lon="4.74178">
        <ele>336.20001220703</ele>
        <time>2022-02-15T12:07:56Z</time>
      </trkpt>
      <trkpt lat="45.22161" lon="4.74175">
        <ele>337</ele>
        <time>2022-02-15T12:08:01Z</time>
      </trkpt>
      <trkpt lat="45.22165" lon="4.74172">
        <ele>337</ele>
        <time>2022-02-15T12:08:02Z</time>
      </trkpt>
      <trkpt lat="45.22168" lon="4.74158">
        <ele>337.79998779297</ele>
        <time>2022-02-15T12:08:08Z</time>
      </trkpt>
      <trkpt lat="45.22161" lon="4.7414">
        <ele>337.60000610352</ele>
        <time>2022-02-15T12:08:15Z</time>
      </trkpt>
      <trkpt lat="45.22158" lon="4.74138">
        <ele>337.60000610352</ele>
        <time>2022-02-15T12:08:16Z</time>
      </trkpt>
      <trkpt lat="45.22151" lon="4.7413">
        <ele>337.39999389648</ele>
        <time>2022-02-15T12:08:18Z</time>
      </trkpt>
      <trkpt lat="45.22135" lon="4.74098">
        <ele>333.79998779297</ele>
        <time>2022-02-15T12:08:24Z</time>
      </trkpt>
      <trkpt lat="45.22117" lon="4.74061">
        <ele>330.79998779297</ele>
        <time>2022-02-15T12:08:30Z</time>
      </trkpt>
      <trkpt lat="45.22096" lon="4.74022">
        <ele>330.39999389648</ele>
        <time>2022-02-15T12:08:38Z</time>
      </trkpt>
      <trkpt lat="45.2209" lon="4.74008">
        <ele>330.60000610352</ele>
        <time>2022-02-15T12:08:40Z</time>
      </trkpt>
      <trkpt lat="45.22086" lon="4.73996">
        <ele>330.79998779297</ele>
        <time>2022-02-15T12:08:42Z</time>
      </trkpt>
      <trkpt lat="45.22076" lon="4.7395">
        <ele>331.79998779297</ele>
        <time>2022-02-15T12:08:50Z</time>
      </trkpt>
      <trkpt lat="45.22074" lon="4.73945">
        <ele>332</ele>
        <time>2022-02-15T12:08:51Z</time>
      </trkpt>
      <trkpt lat="45.22061" lon="4.73895">
        <ele>333</ele>
        <time>2022-02-15T12:09:01Z</time>
      </trkpt>
      <trkpt lat="45.22052" lon="4.73837">
        <ele>333.60000610352</ele>
        <time>2022-02-15T12:09:11Z</time>
      </trkpt>
      <trkpt lat="45.22052" lon="4.73812">
        <ele>333.79998779297</ele>
        <time>2022-02-15T12:09:15Z</time>
      </trkpt>
      <trkpt lat="45.22049" lon="4.73749">
        <ele>335</ele>
        <time>2022-02-15T12:09:27Z</time>
      </trkpt>
      <trkpt lat="45.22051" lon="4.7371">
        <ele>335.39999389648</ele>
        <time>2022-02-15T12:09:33Z</time>
      </trkpt>
      <trkpt lat="45.22061" lon="4.73672">
        <ele>336.20001220703</ele>
        <time>2022-02-15T12:09:40Z</time>
      </trkpt>
      <trkpt lat="45.22069" lon="4.73629">
        <ele>337.20001220703</ele>
        <time>2022-02-15T12:09:49Z</time>
      </trkpt>
      <trkpt lat="45.22075" lon="4.73601">
        <ele>337.60000610352</ele>
        <time>2022-02-15T12:09:54Z</time>
      </trkpt>
      <trkpt lat="45.22077" lon="4.73576">
        <ele>338.20001220703</ele>
        <time>2022-02-15T12:09:59Z</time>
      </trkpt>
      <trkpt lat="45.22079" lon="4.73571">
        <ele>338.20001220703</ele>
        <time>2022-02-15T12:10:00Z</time>
      </trkpt>
      <trkpt lat="45.22081" lon="4.73563">
        <ele>338.39999389648</ele>
        <time>2022-02-15T12:10:02Z</time>
      </trkpt>
      <trkpt lat="45.22083" lon="4.73549">
        <ele>338.60000610352</ele>
        <time>2022-02-15T12:10:06Z</time>
      </trkpt>
      <trkpt lat="45.22087" lon="4.73544">
        <ele>339</ele>
        <time>2022-02-15T12:10:08Z</time>
      </trkpt>
      <trkpt lat="45.22105" lon="4.73528">
        <ele>339.20001220703</ele>
        <time>2022-02-15T12:10:11Z</time>
      </trkpt>
      <trkpt lat="45.22108" lon="4.73514">
        <ele>339.60000610352</ele>
        <time>2022-02-15T12:10:14Z</time>
      </trkpt>
      <trkpt lat="45.22116" lon="4.73473">
        <ele>340.20001220703</ele>
        <time>2022-02-15T12:10:22Z</time>
      </trkpt>
      <trkpt lat="45.22124" lon="4.73447">
        <ele>340.60000610352</ele>
        <time>2022-02-15T12:10:27Z</time>
      </trkpt>
      <trkpt lat="45.22125" lon="4.73442">
        <ele>340.60000610352</ele>
        <time>2022-02-15T12:10:28Z</time>
      </trkpt>
      <trkpt lat="45.22132" lon="4.73413">
        <ele>341</ele>
        <time>2022-02-15T12:10:34Z</time>
      </trkpt>
      <trkpt lat="45.22149" lon="4.73373">
        <ele>341.60000610352</ele>
        <time>2022-02-15T12:10:42Z</time>
      </trkpt>
      <trkpt lat="45.22155" lon="4.73353">
        <ele>342.20001220703</ele>
        <time>2022-02-15T12:10:47Z</time>
      </trkpt>
      <trkpt lat="45.22187" lon="4.7328">
        <ele>343.20001220703</ele>
        <time>2022-02-15T12:11:04Z</time>
      </trkpt>
      <trkpt lat="45.22228" lon="4.73205">
        <ele>345</ele>
        <time>2022-02-15T12:11:22Z</time>
      </trkpt>
      <trkpt lat="45.2227" lon="4.73148">
        <ele>346.20001220703</ele>
        <time>2022-02-15T12:11:38Z</time>
      </trkpt>
      <trkpt lat="45.22295" lon="4.73121">
        <ele>347.20001220703</ele>
        <time>2022-02-15T12:11:48Z</time>
      </trkpt>
      <trkpt lat="45.22304" lon="4.73111">
        <ele>347.39999389648</ele>
        <time>2022-02-15T12:11:52Z</time>
      </trkpt>
      <trkpt lat="45.22355" lon="4.7307">
        <ele>348.39999389648</ele>
        <time>2022-02-15T12:12:07Z</time>
      </trkpt>
      <trkpt lat="45.22401" lon="4.73044">
        <ele>349.20001220703</ele>
        <time>2022-02-15T12:12:23Z</time>
      </trkpt>
      <trkpt lat="45.22456" lon="4.73011">
        <ele>350.79998779297</ele>
        <time>2022-02-15T12:12:39Z</time>
      </trkpt>
      <trkpt lat="45.22532" lon="4.72969">
        <ele>352.20001220703</ele>
        <time>2022-02-15T12:13:03Z</time>
      </trkpt>
      <trkpt lat="45.22608" lon="4.72927">
        <ele>354.20001220703</ele>
        <time>2022-02-15T12:13:26Z</time>
      </trkpt>
      <trkpt lat="45.22666" lon="4.72895">
        <ele>355.60000610352</ele>
        <time>2022-02-15T12:13:47Z</time>
      </trkpt>
      <trkpt lat="45.22686" lon="4.7288">
        <ele>357.20001220703</ele>
        <time>2022-02-15T12:13:59Z</time>
      </trkpt>
      <trkpt lat="45.22711" lon="4.72858">
        <ele>357.39999389648</ele>
        <time>2022-02-15T12:14:11Z</time>
      </trkpt>
      <trkpt lat="45.2278" lon="4.72818">
        <ele>357.39999389648</ele>
        <time>2022-02-15T12:14:40Z</time>
      </trkpt>
      <trkpt lat="45.2285" lon="4.72765">
        <ele>357.60000610352</ele>
        <time>2022-02-15T12:15:04Z</time>
      </trkpt>
      <trkpt lat="45.22906" lon="4.72699">
        <ele>358.39999389648</ele>
        <time>2022-02-15T12:15:30Z</time>
      </trkpt>
      <trkpt lat="45.22911" lon="4.7268">
        <ele>358.79998779297</ele>
        <time>2022-02-15T12:15:37Z</time>
      </trkpt>
      <trkpt lat="45.22936" lon="4.72658">
        <ele>359.79998779297</ele>
        <time>2022-02-15T12:15:52Z</time>
      </trkpt>
      <trkpt lat="45.22997" lon="4.72579">
        <ele>361.60000610352</ele>
        <time>2022-02-15T12:16:22Z</time>
      </trkpt>
      <trkpt lat="45.23048" lon="4.72503">
        <ele>364.20001220703</ele>
        <time>2022-02-15T12:16:48Z</time>
      </trkpt>
      <trkpt lat="45.23093" lon="4.72418">
        <ele>366</ele>
        <time>2022-02-15T12:17:13Z</time>
      </trkpt>
      <trkpt lat="45.23152" lon="4.72283">
        <ele>368</ele>
        <time>2022-02-15T12:17:50Z</time>
      </trkpt>
      <trkpt lat="45.23164" lon="4.72246">
        <ele>369.20001220703</ele>
        <time>2022-02-15T12:18:03Z</time>
      </trkpt>
      <trkpt lat="45.23198" lon="4.72271">
        <ele>370.60000610352</ele>
        <time>2022-02-15T12:18:18Z</time>
      </trkpt>
      <trkpt lat="45.23241" lon="4.72296">
        <ele>368.39999389648</ele>
        <time>2022-02-15T12:18:28Z</time>
      </trkpt>
      <trkpt lat="45.23282" lon="4.72324">
        <ele>368.60000610352</ele>
        <time>2022-02-15T12:18:40Z</time>
      </trkpt>
      <trkpt lat="45.23351" lon="4.72365">
        <ele>370</ele>
        <time>2022-02-15T12:19:02Z</time>
      </trkpt>
      <trkpt lat="45.23401" lon="4.7237">
        <ele>370</ele>
        <time>2022-02-15T12:19:21Z</time>
      </trkpt>
      <trkpt lat="45.23444" lon="4.7238">
        <ele>371.79998779297</ele>
        <time>2022-02-15T12:19:37Z</time>
      </trkpt>
      <trkpt lat="45.23481" lon="4.72371">
        <ele>374.39999389648</ele>
        <time>2022-02-15T12:19:52Z</time>
      </trkpt>
      <trkpt lat="45.23516" lon="4.72376">
        <ele>375.39999389648</ele>
        <time>2022-02-15T12:20:04Z</time>
      </trkpt>
      <trkpt lat="45.23546" lon="4.72393">
        <ele>375.39999389648</ele>
        <time>2022-02-15T12:20:16Z</time>
      </trkpt>
      <trkpt lat="45.23588" lon="4.72414">
        <ele>376.20001220703</ele>
        <time>2022-02-15T12:20:35Z</time>
      </trkpt>
      <trkpt lat="45.23623" lon="4.72439">
        <ele>375.20001220703</ele>
        <time>2022-02-15T12:20:47Z</time>
      </trkpt>
      <trkpt lat="45.23622" lon="4.72462">
        <ele>375</ele>
        <time>2022-02-15T12:20:51Z</time>
      </trkpt>
      <trkpt lat="45.23606" lon="4.72584">
        <ele>373.60000610352</ele>
        <time>2022-02-15T12:21:09Z</time>
      </trkpt>
      <trkpt lat="45.23593" lon="4.72669">
        <ele>373.20001220703</ele>
        <time>2022-02-15T12:21:25Z</time>
      </trkpt>
      <trkpt lat="45.23582" lon="4.72763">
        <ele>371.60000610352</ele>
        <time>2022-02-15T12:21:39Z</time>
      </trkpt>
      <trkpt lat="45.23577" lon="4.72791">
        <ele>371.60000610352</ele>
        <time>2022-02-15T12:21:43Z</time>
      </trkpt>
      <trkpt lat="45.23572" lon="4.7282">
        <ele>371.79998779297</ele>
        <time>2022-02-15T12:21:47Z</time>
      </trkpt>
      <trkpt lat="45.23564" lon="4.72909">
        <ele>373.79998779297</ele>
        <time>2022-02-15T12:22:02Z</time>
      </trkpt>
      <trkpt lat="45.23552" lon="4.72982">
        <ele>376.20001220703</ele>
        <time>2022-02-15T12:22:17Z</time>
      </trkpt>
      <trkpt lat="45.23549" lon="4.73034">
        <ele>378.60000610352</ele>
        <time>2022-02-15T12:22:31Z</time>
      </trkpt>
      <trkpt lat="45.23562" lon="4.7308">
        <ele>379.20001220703</ele>
        <time>2022-02-15T12:22:42Z</time>
      </trkpt>
      <trkpt lat="45.23574" lon="4.73105">
        <ele>379.20001220703</ele>
        <time>2022-02-15T12:22:47Z</time>
      </trkpt>
      <trkpt lat="45.23583" lon="4.73134">
        <ele>379</ele>
        <time>2022-02-15T12:22:52Z</time>
      </trkpt>
      <trkpt lat="45.23583" lon="4.73203">
        <ele>377.60000610352</ele>
        <time>2022-02-15T12:23:02Z</time>
      </trkpt>
      <trkpt lat="45.23583" lon="4.73219">
        <ele>377.20001220703</ele>
        <time>2022-02-15T12:23:04Z</time>
      </trkpt>
      <trkpt lat="45.2359" lon="4.73257">
        <ele>375.39999389648</ele>
        <time>2022-02-15T12:23:09Z</time>
      </trkpt>
      <trkpt lat="45.23592" lon="4.73264">
        <ele>375.20001220703</ele>
        <time>2022-02-15T12:23:10Z</time>
      </trkpt>
      <trkpt lat="45.23609" lon="4.73318">
        <ele>374</ele>
        <time>2022-02-15T12:23:18Z</time>
      </trkpt>
      <trkpt lat="45.23625" lon="4.73326">
        <ele>373.20001220703</ele>
        <time>2022-02-15T12:23:22Z</time>
      </trkpt>
      <trkpt lat="45.23689" lon="4.7332">
        <ele>372.60000610352</ele>
        <time>2022-02-15T12:23:37Z</time>
      </trkpt>
      <trkpt lat="45.23737" lon="4.73305">
        <ele>373.20001220703</ele>
        <time>2022-02-15T12:23:51Z</time>
      </trkpt>
      <trkpt lat="45.23828" lon="4.73268">
        <ele>376.20001220703</ele>
        <time>2022-02-15T12:24:18Z</time>
      </trkpt>
      <trkpt lat="45.23881" lon="4.73251">
        <ele>377.39999389648</ele>
        <time>2022-02-15T12:24:32Z</time>
      </trkpt>
      <trkpt lat="45.23924" lon="4.73223">
        <ele>377.20001220703</ele>
        <time>2022-02-15T12:24:42Z</time>
      </trkpt>
      <trkpt lat="45.23977" lon="4.73185">
        <ele>374.20001220703</ele>
        <time>2022-02-15T12:24:51Z</time>
      </trkpt>
      <trkpt lat="45.24002" lon="4.73171">
        <ele>372.79998779297</ele>
        <time>2022-02-15T12:24:55Z</time>
      </trkpt>
      <trkpt lat="45.24019" lon="4.73156">
        <ele>371.60000610352</ele>
        <time>2022-02-15T12:24:58Z</time>
      </trkpt>
      <trkpt lat="45.2406" lon="4.73122">
        <ele>368.60000610352</ele>
        <time>2022-02-15T12:25:05Z</time>
      </trkpt>
      <trkpt lat="45.24064" lon="4.73115">
        <ele>368.39999389648</ele>
        <time>2022-02-15T12:25:06Z</time>
      </trkpt>
      <trkpt lat="45.24071" lon="4.731">
        <ele>367</ele>
        <time>2022-02-15T12:25:08Z</time>
      </trkpt>
      <trkpt lat="45.24101" lon="4.73031">
        <ele>364.39999389648</ele>
        <time>2022-02-15T12:25:21Z</time>
      </trkpt>
      <trkpt lat="45.2413" lon="4.72979">
        <ele>364.60000610352</ele>
        <time>2022-02-15T12:25:35Z</time>
      </trkpt>
      <trkpt lat="45.2416" lon="4.72984">
        <ele>364.60000610352</ele>
        <time>2022-02-15T12:25:42Z</time>
      </trkpt>
      <trkpt lat="45.24219" lon="4.72998">
        <ele>361.60000610352</ele>
        <time>2022-02-15T12:25:54Z</time>
      </trkpt>
      <trkpt lat="45.24229" lon="4.72999">
        <ele>361.20001220703</ele>
        <time>2022-02-15T12:25:56Z</time>
      </trkpt>
      <trkpt lat="45.24262" lon="4.7303">
        <ele>360.39999389648</ele>
        <time>2022-02-15T12:26:07Z</time>
      </trkpt>
      <trkpt lat="45.243" lon="4.73055">
        <ele>364</ele>
        <time>2022-02-15T12:26:24Z</time>
      </trkpt>
      <trkpt lat="45.24326" lon="4.73061">
        <ele>366.20001220703</ele>
        <time>2022-02-15T12:26:38Z</time>
      </trkpt>
      <trkpt lat="45.24359" lon="4.73067">
        <ele>367.79998779297</ele>
        <time>2022-02-15T12:26:53Z</time>
      </trkpt>
      <trkpt lat="45.24394" lon="4.73075">
        <ele>369.79998779297</ele>
        <time>2022-02-15T12:27:08Z</time>
      </trkpt>
      <trkpt lat="45.24432" lon="4.73077">
        <ele>371.39999389648</ele>
        <time>2022-02-15T12:27:23Z</time>
      </trkpt>
      <trkpt lat="45.24464" lon="4.73074">
        <ele>373</ele>
        <time>2022-02-15T12:27:36Z</time>
      </trkpt>
      <trkpt lat="45.24507" lon="4.73075">
        <ele>374.79998779297</ele>
        <time>2022-02-15T12:27:54Z</time>
      </trkpt>
      <trkpt lat="45.24555" lon="4.73081">
        <ele>377.79998779297</ele>
        <time>2022-02-15T12:28:13Z</time>
      </trkpt>
      <trkpt lat="45.24606" lon="4.73085">
        <ele>378.60000610352</ele>
        <time>2022-02-15T12:28:33Z</time>
      </trkpt>
      <trkpt lat="45.24671" lon="4.73053">
        <ele>379.79998779297</ele>
        <time>2022-02-15T12:28:59Z</time>
      </trkpt>
      <trkpt lat="45.24799" lon="4.73007">
        <ele>382</ele>
        <time>2022-02-15T12:29:44Z</time>
      </trkpt>
      <trkpt lat="45.24845" lon="4.72989">
        <ele>383.60000610352</ele>
        <time>2022-02-15T12:30:01Z</time>
      </trkpt>
      <trkpt lat="45.24864" lon="4.72982">
        <ele>384.20001220703</ele>
        <time>2022-02-15T12:30:08Z</time>
      </trkpt>
      <trkpt lat="45.24875" lon="4.72987">
        <ele>384.60000610352</ele>
        <time>2022-02-15T12:30:12Z</time>
      </trkpt>
      <trkpt lat="45.24919" lon="4.73018">
        <ele>386</ele>
        <time>2022-02-15T12:30:26Z</time>
      </trkpt>
      <trkpt lat="45.24996" lon="4.7304">
        <ele>384.20001220703</ele>
        <time>2022-02-15T12:30:42Z</time>
      </trkpt>
      <trkpt lat="45.25018" lon="4.73051">
        <ele>383.60000610352</ele>
        <time>2022-02-15T12:30:47Z</time>
      </trkpt>
      <trkpt lat="45.25062" lon="4.73061">
        <ele>383.20001220703</ele>
        <time>2022-02-15T12:30:56Z</time>
      </trkpt>
      <trkpt lat="45.25171" lon="4.73087">
        <ele>382</ele>
        <time>2022-02-15T12:31:18Z</time>
      </trkpt>
      <trkpt lat="45.25176" lon="4.73089">
        <ele>382</ele>
        <time>2022-02-15T12:31:19Z</time>
      </trkpt>
      <trkpt lat="45.2519" lon="4.73122">
        <ele>380.79998779297</ele>
        <time>2022-02-15T12:31:26Z</time>
      </trkpt>
      <trkpt lat="45.25201" lon="4.73136">
        <ele>379.79998779297</ele>
        <time>2022-02-15T12:31:29Z</time>
      </trkpt>
      <trkpt lat="45.25264" lon="4.73191">
        <ele>377.60000610352</ele>
        <time>2022-02-15T12:31:40Z</time>
      </trkpt>
      <trkpt lat="45.25298" lon="4.73227">
        <ele>375.39999389648</ele>
        <time>2022-02-15T12:31:46Z</time>
      </trkpt>
      <trkpt lat="45.25354" lon="4.73304">
        <ele>372.39999389648</ele>
        <time>2022-02-15T12:31:56Z</time>
      </trkpt>
      <trkpt lat="45.25382" lon="4.73353">
        <ele>370.20001220703</ele>
        <time>2022-02-15T12:32:01Z</time>
      </trkpt>
      <trkpt lat="45.25418" lon="4.73414">
        <ele>366.60000610352</ele>
        <time>2022-02-15T12:32:07Z</time>
      </trkpt>
      <trkpt lat="45.25424" lon="4.73425">
        <ele>366.39999389648</ele>
        <time>2022-02-15T12:32:08Z</time>
      </trkpt>
      <trkpt lat="45.25469" lon="4.73501">
        <ele>362.60000610352</ele>
        <time>2022-02-15T12:32:15Z</time>
      </trkpt>
      <trkpt lat="45.25505" lon="4.73564">
        <ele>359.60000610352</ele>
        <time>2022-02-15T12:32:21Z</time>
      </trkpt>
      <trkpt lat="45.25523" lon="4.73595">
        <ele>358</ele>
        <time>2022-02-15T12:32:24Z</time>
      </trkpt>
      <trkpt lat="45.25538" lon="4.73618">
        <ele>356.60000610352</ele>
        <time>2022-02-15T12:32:27Z</time>
      </trkpt>
      <trkpt lat="45.25542" lon="4.73628">
        <ele>354</ele>
        <time>2022-02-15T12:32:31Z</time>
      </trkpt>
      <trkpt lat="45.25558" lon="4.7365">
        <ele>352</ele>
        <time>2022-02-15T12:32:40Z</time>
      </trkpt>
      <trkpt lat="45.25563" lon="4.73663">
        <ele>351.39999389648</ele>
        <time>2022-02-15T12:32:44Z</time>
      </trkpt>
      <trkpt lat="45.25568" lon="4.73672">
        <ele>351.39999389648</ele>
        <time>2022-02-15T12:32:46Z</time>
      </trkpt>
      <trkpt lat="45.25578" lon="4.73691">
        <ele>351</ele>
        <time>2022-02-15T12:32:50Z</time>
      </trkpt>
      <trkpt lat="45.25611" lon="4.73756">
        <ele>349.39999389648</ele>
        <time>2022-02-15T12:33:01Z</time>
      </trkpt>
      <trkpt lat="45.25633" lon="4.73836">
        <ele>347.60000610352</ele>
        <time>2022-02-15T12:33:10Z</time>
      </trkpt>
      <trkpt lat="45.25648" lon="4.73873">
        <ele>346.39999389648</ele>
        <time>2022-02-15T12:33:14Z</time>
      </trkpt>
      <trkpt lat="45.257" lon="4.73971">
        <ele>342.20001220703</ele>
        <time>2022-02-15T12:33:25Z</time>
      </trkpt>
      <trkpt lat="45.25728" lon="4.74023">
        <ele>339.20001220703</ele>
        <time>2022-02-15T12:33:31Z</time>
      </trkpt>
      <trkpt lat="45.25754" lon="4.74073">
        <ele>338</ele>
        <time>2022-02-15T12:33:38Z</time>
      </trkpt>
      <trkpt lat="45.25777" lon="4.74071">
        <ele>336.60000610352</ele>
        <time>2022-02-15T12:33:44Z</time>
      </trkpt>
      <trkpt lat="45.25788" lon="4.74069">
        <ele>336.39999389648</ele>
        <time>2022-02-15T12:33:46Z</time>
      </trkpt>
      <trkpt lat="45.25805" lon="4.74069">
        <ele>334.39999389648</ele>
        <time>2022-02-15T12:33:49Z</time>
      </trkpt>
      <trkpt lat="45.25822" lon="4.74076">
        <ele>332.39999389648</ele>
        <time>2022-02-15T12:33:53Z</time>
      </trkpt>
      <trkpt lat="45.25835" lon="4.74085">
        <ele>331.39999389648</ele>
        <time>2022-02-15T12:33:56Z</time>
      </trkpt>
      <trkpt lat="45.25841" lon="4.74094">
        <ele>331.20001220703</ele>
        <time>2022-02-15T12:33:58Z</time>
      </trkpt>
      <trkpt lat="45.25845" lon="4.74111">
        <ele>328.79998779297</ele>
        <time>2022-02-15T12:34:01Z</time>
      </trkpt>
      <trkpt lat="45.25846" lon="4.74117">
        <ele>328.60000610352</ele>
        <time>2022-02-15T12:34:02Z</time>
      </trkpt>
      <trkpt lat="45.25857" lon="4.74118">
        <ele>326.60000610352</ele>
        <time>2022-02-15T12:34:07Z</time>
      </trkpt>
      <trkpt lat="45.25877" lon="4.74091">
        <ele>323.60000610352</ele>
        <time>2022-02-15T12:34:14Z</time>
      </trkpt>
      <trkpt lat="45.25881" lon="4.74084">
        <ele>322.39999389648</ele>
        <time>2022-02-15T12:34:15Z</time>
      </trkpt>
      <trkpt lat="45.25899" lon="4.74036">
        <ele>319.79998779297</ele>
        <time>2022-02-15T12:34:20Z</time>
      </trkpt>
      <trkpt lat="45.25902" lon="4.74027">
        <ele>319</ele>
        <time>2022-02-15T12:34:21Z</time>
      </trkpt>
      <trkpt lat="45.2592" lon="4.74021">
        <ele>316.79998779297</ele>
        <time>2022-02-15T12:34:26Z</time>
      </trkpt>
      <trkpt lat="45.25922" lon="4.74023">
        <ele>316.79998779297</ele>
        <time>2022-02-15T12:34:27Z</time>
      </trkpt>
      <trkpt lat="45.25928" lon="4.74032">
        <ele>316.79998779297</ele>
        <time>2022-02-15T12:34:30Z</time>
      </trkpt>
      <trkpt lat="45.25942" lon="4.74047">
        <ele>318</ele>
        <time>2022-02-15T12:34:37Z</time>
      </trkpt>
      <trkpt lat="45.25948" lon="4.74056">
        <ele>319.20001220703</ele>
        <time>2022-02-15T12:34:42Z</time>
      </trkpt>
      <trkpt lat="45.25951" lon="4.74069">
        <ele>320</ele>
        <time>2022-02-15T12:34:46Z</time>
      </trkpt>
      <trkpt lat="45.25956" lon="4.74099">
        <ele>321.79998779297</ele>
        <time>2022-02-15T12:34:58Z</time>
      </trkpt>
      <trkpt lat="45.25958" lon="4.74118">
        <ele>324</ele>
        <time>2022-02-15T12:35:07Z</time>
      </trkpt>
      <trkpt lat="45.25958" lon="4.74124">
        <ele>324.39999389648</ele>
        <time>2022-02-15T12:35:10Z</time>
      </trkpt>
      <trkpt lat="45.25961" lon="4.74146">
        <ele>326.60000610352</ele>
        <time>2022-02-15T12:35:22Z</time>
      </trkpt>
      <trkpt lat="45.25965" lon="4.74171">
        <ele>329.39999389648</ele>
        <time>2022-02-15T12:35:36Z</time>
      </trkpt>
      <trkpt lat="45.25976" lon="4.74196">
        <ele>332.39999389648</ele>
        <time>2022-02-15T12:35:50Z</time>
      </trkpt>
      <trkpt lat="45.25996" lon="4.74214">
        <ele>334.60000610352</ele>
        <time>2022-02-15T12:36:06Z</time>
      </trkpt>
      <trkpt lat="45.26019" lon="4.74201">
        <ele>337</ele>
        <time>2022-02-15T12:36:22Z</time>
      </trkpt>
      <trkpt lat="45.26043" lon="4.74185">
        <ele>338.39999389648</ele>
        <time>2022-02-15T12:36:39Z</time>
      </trkpt>
      <trkpt lat="45.26064" lon="4.7417">
        <ele>339.79998779297</ele>
        <time>2022-02-15T12:36:54Z</time>
      </trkpt>
      <trkpt lat="45.261" lon="4.7415">
        <ele>342.60000610352</ele>
        <time>2022-02-15T12:37:14Z</time>
      </trkpt>
      <trkpt lat="45.26126" lon="4.74133">
        <ele>344</ele>
        <time>2022-02-15T12:37:27Z</time>
      </trkpt>
      <trkpt lat="45.26156" lon="4.74114">
        <ele>345.39999389648</ele>
        <time>2022-02-15T12:37:41Z</time>
      </trkpt>
      <trkpt lat="45.26186" lon="4.74096">
        <ele>347.20001220703</ele>
        <time>2022-02-15T12:37:55Z</time>
      </trkpt>
      <trkpt lat="45.26209" lon="4.74094">
        <ele>348.79998779297</ele>
        <time>2022-02-15T12:38:03Z</time>
      </trkpt>
      <trkpt lat="45.26264" lon="4.74115">
        <ele>347.39999389648</ele>
        <time>2022-02-15T12:38:12Z</time>
      </trkpt>
      <trkpt lat="45.26282" lon="4.74102">
        <ele>342.79998779297</ele>
        <time>2022-02-15T12:38:16Z</time>
      </trkpt>
      <trkpt lat="45.26288" lon="4.74115">
        <ele>339.60000610352</ele>
        <time>2022-02-15T12:38:20Z</time>
      </trkpt>
      <trkpt lat="45.26288" lon="4.74123">
        <ele>338.60000610352</ele>
        <time>2022-02-15T12:38:21Z</time>
      </trkpt>
      <trkpt lat="45.26288" lon="4.74141">
        <ele>337.60000610352</ele>
        <time>2022-02-15T12:38:23Z</time>
      </trkpt>
      <trkpt lat="45.26275" lon="4.74197">
        <ele>334.79998779297</ele>
        <time>2022-02-15T12:38:28Z</time>
      </trkpt>
      <trkpt lat="45.26273" lon="4.74206">
        <ele>334.60000610352</ele>
        <time>2022-02-15T12:38:29Z</time>
      </trkpt>
      <trkpt lat="45.26271" lon="4.74214">
        <ele>333.60000610352</ele>
        <time>2022-02-15T12:38:30Z</time>
      </trkpt>
      <trkpt lat="45.26281" lon="4.74244">
        <ele>331</ele>
        <time>2022-02-15T12:38:34Z</time>
      </trkpt>
      <trkpt lat="45.26293" lon="4.74258">
        <ele>330</ele>
        <time>2022-02-15T12:38:36Z</time>
      </trkpt>
      <trkpt lat="45.26309" lon="4.74276">
        <ele>328.79998779297</ele>
        <time>2022-02-15T12:38:39Z</time>
      </trkpt>
      <trkpt lat="45.26319" lon="4.74286">
        <ele>328</ele>
        <time>2022-02-15T12:38:44Z</time>
      </trkpt>
      <trkpt lat="45.26329" lon="4.74287">
        <ele>328.20001220703</ele>
        <time>2022-02-15T12:38:49Z</time>
      </trkpt>
      <trkpt lat="45.26375" lon="4.74262">
        <ele>330</ele>
        <time>2022-02-15T12:39:11Z</time>
      </trkpt>
      <trkpt lat="45.26436" lon="4.74231">
        <ele>331.60000610352</ele>
        <time>2022-02-15T12:39:39Z</time>
      </trkpt>
      <trkpt lat="45.26467" lon="4.74215">
        <ele>334</ele>
        <time>2022-02-15T12:39:56Z</time>
      </trkpt>
      <trkpt lat="45.26492" lon="4.74189">
        <ele>336.39999389648</ele>
        <time>2022-02-15T12:40:15Z</time>
      </trkpt>
      <trkpt lat="45.2651" lon="4.74165">
        <ele>338.20001220703</ele>
        <time>2022-02-15T12:40:30Z</time>
      </trkpt>
      <trkpt lat="45.26524" lon="4.74162">
        <ele>340</ele>
        <time>2022-02-15T12:40:40Z</time>
      </trkpt>
      <trkpt lat="45.2654" lon="4.74174">
        <ele>340</ele>
        <time>2022-02-15T12:40:51Z</time>
      </trkpt>
      <trkpt lat="45.26556" lon="4.74193">
        <ele>342.20001220703</ele>
        <time>2022-02-15T12:41:04Z</time>
      </trkpt>
      <trkpt lat="45.26569" lon="4.74204">
        <ele>344</ele>
        <time>2022-02-15T12:41:14Z</time>
      </trkpt>
      <trkpt lat="45.2658" lon="4.74209">
        <ele>345.39999389648</ele>
        <time>2022-02-15T12:41:22Z</time>
      </trkpt>
      <trkpt lat="45.26586" lon="4.74211">
        <ele>345.60000610352</ele>
        <time>2022-02-15T12:41:26Z</time>
      </trkpt>
      <trkpt lat="45.26611" lon="4.7422">
        <ele>346.79998779297</ele>
        <time>2022-02-15T12:41:41Z</time>
      </trkpt>
      <trkpt lat="45.26651" lon="4.74238">
        <ele>349</ele>
        <time>2022-02-15T12:42:03Z</time>
      </trkpt>
      <trkpt lat="45.26678" lon="4.74235">
        <ele>351.39999389648</ele>
        <time>2022-02-15T12:42:19Z</time>
      </trkpt>
      <trkpt lat="45.26682" lon="4.74234">
        <ele>352</ele>
        <time>2022-02-15T12:42:22Z</time>
      </trkpt>
      <trkpt lat="45.267" lon="4.74259">
        <ele>353.60000610352</ele>
        <time>2022-02-15T12:42:36Z</time>
      </trkpt>
      <trkpt lat="45.26706" lon="4.74264">
        <ele>354</ele>
        <time>2022-02-15T12:42:40Z</time>
      </trkpt>
      <trkpt lat="45.26725" lon="4.74255">
        <ele>355.39999389648</ele>
        <time>2022-02-15T12:42:49Z</time>
      </trkpt>
      <trkpt lat="45.26736" lon="4.74226">
        <ele>355.79998779297</ele>
        <time>2022-02-15T12:42:57Z</time>
      </trkpt>
      <trkpt lat="45.26747" lon="4.74166">
        <ele>355.39999389648</ele>
        <time>2022-02-15T12:43:10Z</time>
      </trkpt>
      <trkpt lat="45.2676" lon="4.741">
        <ele>355.60000610352</ele>
        <time>2022-02-15T12:43:26Z</time>
      </trkpt>
      <trkpt lat="45.2679" lon="4.73971">
        <ele>355.79998779297</ele>
        <time>2022-02-15T12:43:55Z</time>
      </trkpt>
      <trkpt lat="45.26815" lon="4.73961">
        <ele>355.60000610352</ele>
        <time>2022-02-15T12:44:05Z</time>
      </trkpt>
      <trkpt lat="45.26847" lon="4.73959">
        <ele>357</ele>
        <time>2022-02-15T12:44:19Z</time>
      </trkpt>
      <trkpt lat="45.26852" lon="4.7395">
        <ele>357</ele>
        <time>2022-02-15T12:44:22Z</time>
      </trkpt>
      <trkpt lat="45.26853" lon="4.739">
        <ele>355.60000610352</ele>
        <time>2022-02-15T12:44:34Z</time>
      </trkpt>
      <trkpt lat="45.26854" lon="4.73805">
        <ele>357.60000610352</ele>
        <time>2022-02-15T12:44:56Z</time>
      </trkpt>
      <trkpt lat="45.26862" lon="4.73775">
        <ele>359.60000610352</ele>
        <time>2022-02-15T12:45:06Z</time>
      </trkpt>
      <trkpt lat="45.26862" lon="4.73768">
        <ele>359.60000610352</ele>
        <time>2022-02-15T12:45:08Z</time>
      </trkpt>
      <trkpt lat="45.26868" lon="4.73761">
        <ele>360</ele>
        <time>2022-02-15T12:45:12Z</time>
      </trkpt>
      <trkpt lat="45.2688" lon="4.73762">
        <ele>360.20001220703</ele>
        <time>2022-02-15T12:45:41Z</time>
      </trkpt>
      <trkpt lat="45.26909" lon="4.73765">
        <ele>361.39999389648</ele>
        <time>2022-02-15T12:47:42Z</time>
      </trkpt>
      <trkpt lat="45.26955" lon="4.73746">
        <ele>363</ele>
        <time>2022-02-15T12:48:03Z</time>
      </trkpt>
      <trkpt lat="45.26983" lon="4.73729">
        <ele>365</ele>
        <time>2022-02-15T12:48:17Z</time>
      </trkpt>
      <trkpt lat="45.27016" lon="4.73707">
        <ele>365</ele>
        <time>2022-02-15T12:48:32Z</time>
      </trkpt>
      <trkpt lat="45.27114" lon="4.73644">
        <ele>367.20001220703</ele>
        <time>2022-02-15T12:49:15Z</time>
      </trkpt>
      <trkpt lat="45.27161" lon="4.73612">
        <ele>369.60000610352</ele>
        <time>2022-02-15T12:49:37Z</time>
      </trkpt>
      <trkpt lat="45.27195" lon="4.73592">
        <ele>372</ele>
        <time>2022-02-15T12:49:52Z</time>
      </trkpt>
      <trkpt lat="45.2726" lon="4.73553">
        <ele>372.20001220703</ele>
        <time>2022-02-15T12:50:18Z</time>
      </trkpt>
      <trkpt lat="45.2731" lon="4.73526">
        <ele>372</ele>
        <time>2022-02-15T12:50:38Z</time>
      </trkpt>
      <trkpt lat="45.27361" lon="4.73497">
        <ele>373.39999389648</ele>
        <time>2022-02-15T12:51:00Z</time>
      </trkpt>
      <trkpt lat="45.27393" lon="4.73479">
        <ele>376</ele>
        <time>2022-02-15T12:51:17Z</time>
      </trkpt>
      <trkpt lat="45.27403" lon="4.73469">
        <ele>377.39999389648</ele>
        <time>2022-02-15T12:51:23Z</time>
      </trkpt>
      <trkpt lat="45.27414" lon="4.73462">
        <ele>377.39999389648</ele>
        <time>2022-02-15T12:51:29Z</time>
      </trkpt>
      <trkpt lat="45.27444" lon="4.73445">
        <ele>379.60000610352</ele>
        <time>2022-02-15T12:51:46Z</time>
      </trkpt>
      <trkpt lat="45.27474" lon="4.73427">
        <ele>382</ele>
        <time>2022-02-15T12:52:04Z</time>
      </trkpt>
      <trkpt lat="45.27493" lon="4.73417">
        <ele>385</ele>
        <time>2022-02-15T12:52:18Z</time>
      </trkpt>
      <trkpt lat="45.27496" lon="4.73416">
        <ele>385.60000610352</ele>
        <time>2022-02-15T12:52:20Z</time>
      </trkpt>
      <trkpt lat="45.27508" lon="4.73407">
        <ele>387.79998779297</ele>
        <time>2022-02-15T12:52:30Z</time>
      </trkpt>
      <trkpt lat="45.2753" lon="4.73395">
        <ele>389.79998779297</ele>
        <time>2022-02-15T12:52:45Z</time>
      </trkpt>
      <trkpt lat="45.27553" lon="4.7338">
        <ele>391.20001220703</ele>
        <time>2022-02-15T12:52:58Z</time>
      </trkpt>
      <trkpt lat="45.27579" lon="4.73364">
        <ele>392.60000610352</ele>
        <time>2022-02-15T12:53:12Z</time>
      </trkpt>
      <trkpt lat="45.27603" lon="4.73351">
        <ele>394.39999389648</ele>
        <time>2022-02-15T12:53:26Z</time>
      </trkpt>
      <trkpt lat="45.27649" lon="4.73321">
        <ele>396</ele>
        <time>2022-02-15T12:53:47Z</time>
      </trkpt>
      <trkpt lat="45.27688" lon="4.73299">
        <ele>399.39999389648</ele>
        <time>2022-02-15T12:54:05Z</time>
      </trkpt>
      <trkpt lat="45.27725" lon="4.73277">
        <ele>401.39999389648</ele>
        <time>2022-02-15T12:54:22Z</time>
      </trkpt>
      <trkpt lat="45.27771" lon="4.73261">
        <ele>402.20001220703</ele>
        <time>2022-02-15T12:54:41Z</time>
      </trkpt>
      <trkpt lat="45.27814" lon="4.73243">
        <ele>403.79998779297</ele>
        <time>2022-02-15T12:55:00Z</time>
      </trkpt>
      <trkpt lat="45.27926" lon="4.73204">
        <ele>402.79998779297</ele>
        <time>2022-02-15T12:55:40Z</time>
      </trkpt>
      <trkpt lat="45.27941" lon="4.73207">
        <ele>401.60000610352</ele>
        <time>2022-02-15T12:55:49Z</time>
      </trkpt>
      <trkpt lat="45.27981" lon="4.73266">
        <ele>400</ele>
        <time>2022-02-15T12:56:06Z</time>
      </trkpt>
      <trkpt lat="45.2807" lon="4.73367">
        <ele>399</ele>
        <time>2022-02-15T12:56:34Z</time>
      </trkpt>
      <trkpt lat="45.28116" lon="4.73407">
        <ele>399.39999389648</ele>
        <time>2022-02-15T12:56:47Z</time>
      </trkpt>
      <trkpt lat="45.28159" lon="4.73473">
        <ele>398</ele>
        <time>2022-02-15T12:57:02Z</time>
      </trkpt>
      <trkpt lat="45.28182" lon="4.73563">
        <ele>396.79998779297</ele>
        <time>2022-02-15T12:57:18Z</time>
      </trkpt>
      <trkpt lat="45.28211" lon="4.73689">
        <ele>393.79998779297</ele>
        <time>2022-02-15T12:57:38Z</time>
      </trkpt>
      <trkpt lat="45.28218" lon="4.73715">
        <ele>393</ele>
        <time>2022-02-15T12:57:41Z</time>
      </trkpt>
      <trkpt lat="45.28226" lon="4.73757">
        <ele>390.79998779297</ele>
        <time>2022-02-15T12:57:45Z</time>
      </trkpt>
      <trkpt lat="45.28235" lon="4.73787">
        <ele>387.60000610352</ele>
        <time>2022-02-15T12:57:48Z</time>
      </trkpt>
      <trkpt lat="45.28253" lon="4.7384">
        <ele>384.20001220703</ele>
        <time>2022-02-15T12:57:54Z</time>
      </trkpt>
      <trkpt lat="45.28256" lon="4.7385">
        <ele>382</ele>
        <time>2022-02-15T12:57:57Z</time>
      </trkpt>
      <trkpt lat="45.28285" lon="4.73827">
        <ele>380.39999389648</ele>
        <time>2022-02-15T12:58:09Z</time>
      </trkpt>
      <trkpt lat="45.28345" lon="4.73738">
        <ele>377.79998779297</ele>
        <time>2022-02-15T12:58:28Z</time>
      </trkpt>
      <trkpt lat="45.28434" lon="4.73607">
        <ele>374.79998779297</ele>
        <time>2022-02-15T12:58:56Z</time>
      </trkpt>
      <trkpt lat="45.28481" lon="4.73507">
        <ele>373.20001220703</ele>
        <time>2022-02-15T12:59:13Z</time>
      </trkpt>
      <trkpt lat="45.28506" lon="4.73462">
        <ele>372.20001220703</ele>
        <time>2022-02-15T12:59:21Z</time>
      </trkpt>
      <trkpt lat="45.28552" lon="4.73351">
        <ele>369.20001220703</ele>
        <time>2022-02-15T12:59:36Z</time>
      </trkpt>
      <trkpt lat="45.28554" lon="4.73343">
        <ele>369</ele>
        <time>2022-02-15T12:59:37Z</time>
      </trkpt>
      <trkpt lat="45.28576" lon="4.73259">
        <ele>366.39999389648</ele>
        <time>2022-02-15T12:59:45Z</time>
      </trkpt>
      <trkpt lat="45.28599" lon="4.7322">
        <ele>364.79998779297</ele>
        <time>2022-02-15T12:59:50Z</time>
      </trkpt>
      <trkpt lat="45.28631" lon="4.7317">
        <ele>366.39999389648</ele>
        <time>2022-02-15T12:59:58Z</time>
      </trkpt>
      <trkpt lat="45.28637" lon="4.73153">
        <ele>366.39999389648</ele>
        <time>2022-02-15T13:00:00Z</time>
      </trkpt>
      <trkpt lat="45.2865" lon="4.73112">
        <ele>366.20001220703</ele>
        <time>2022-02-15T13:00:04Z</time>
      </trkpt>
      <trkpt lat="45.28655" lon="4.73093">
        <ele>364.39999389648</ele>
        <time>2022-02-15T13:00:06Z</time>
      </trkpt>
      <trkpt lat="45.28662" lon="4.73037">
        <ele>363.39999389648</ele>
        <time>2022-02-15T13:00:13Z</time>
      </trkpt>
      <trkpt lat="45.28662" lon="4.73024">
        <ele>363.79998779297</ele>
        <time>2022-02-15T13:00:15Z</time>
      </trkpt>
      <trkpt lat="45.28669" lon="4.72979">
        <ele>364.60000610352</ele>
        <time>2022-02-15T13:00:22Z</time>
      </trkpt>
      <trkpt lat="45.28677" lon="4.72963">
        <ele>364.79998779297</ele>
        <time>2022-02-15T13:00:25Z</time>
      </trkpt>
      <trkpt lat="45.28686" lon="4.72938">
        <ele>365</ele>
        <time>2022-02-15T13:00:29Z</time>
      </trkpt>
      <trkpt lat="45.28689" lon="4.72918">
        <ele>365</ele>
        <time>2022-02-15T13:00:32Z</time>
      </trkpt>
      <trkpt lat="45.28681" lon="4.72874">
        <ele>364.39999389648</ele>
        <time>2022-02-15T13:00:38Z</time>
      </trkpt>
      <trkpt lat="45.28692" lon="4.7285">
        <ele>363.60000610352</ele>
        <time>2022-02-15T13:00:43Z</time>
      </trkpt>
      <trkpt lat="45.28699" lon="4.72854">
        <ele>362.79998779297</ele>
        <time>2022-02-15T13:00:45Z</time>
      </trkpt>
      <trkpt lat="45.28741" lon="4.72882">
        <ele>361.79998779297</ele>
        <time>2022-02-15T13:00:55Z</time>
      </trkpt>
      <trkpt lat="45.28763" lon="4.72898">
        <ele>360.79998779297</ele>
        <time>2022-02-15T13:01:00Z</time>
      </trkpt>
      <trkpt lat="45.288" lon="4.72929">
        <ele>359.79998779297</ele>
        <time>2022-02-15T13:01:07Z</time>
      </trkpt>
      <trkpt lat="45.28831" lon="4.72983">
        <ele>358.20001220703</ele>
        <time>2022-02-15T13:01:16Z</time>
      </trkpt>
      <trkpt lat="45.2888" lon="4.73122">
        <ele>357.20001220703</ele>
        <time>2022-02-15T13:01:37Z</time>
      </trkpt>
      <trkpt lat="45.28929" lon="4.73196">
        <ele>357.39999389648</ele>
        <time>2022-02-15T13:01:52Z</time>
      </trkpt>
      <trkpt lat="45.28966" lon="4.73246">
        <ele>357.79998779297</ele>
        <time>2022-02-15T13:02:03Z</time>
      </trkpt>
      <trkpt lat="45.2899" lon="4.73285">
        <ele>358</ele>
        <time>2022-02-15T13:02:11Z</time>
      </trkpt>
      <trkpt lat="45.29037" lon="4.73352">
        <ele>359.20001220703</ele>
        <time>2022-02-15T13:02:26Z</time>
      </trkpt>
      <trkpt lat="45.29044" lon="4.73364">
        <ele>359.39999389648</ele>
        <time>2022-02-15T13:02:29Z</time>
      </trkpt>
      <trkpt lat="45.29053" lon="4.73379">
        <ele>359.79998779297</ele>
        <time>2022-02-15T13:02:33Z</time>
      </trkpt>
      <trkpt lat="45.29064" lon="4.73393">
        <ele>360.20001220703</ele>
        <time>2022-02-15T13:02:36Z</time>
      </trkpt>
      <trkpt lat="45.29069" lon="4.73399">
        <ele>360.79998779297</ele>
        <time>2022-02-15T13:02:39Z</time>
      </trkpt>
      <trkpt lat="45.29077" lon="4.73406">
        <ele>360.79998779297</ele>
        <time>2022-02-15T13:02:42Z</time>
      </trkpt>
      <trkpt lat="45.29088" lon="4.73409">
        <ele>361.20001220703</ele>
        <time>2022-02-15T13:02:46Z</time>
      </trkpt>
      <trkpt lat="45.29099" lon="4.73421">
        <ele>361.60000610352</ele>
        <time>2022-02-15T13:02:50Z</time>
      </trkpt>
      <trkpt lat="45.29127" lon="4.73427">
        <ele>362.39999389648</ele>
        <time>2022-02-15T13:03:02Z</time>
      </trkpt>
      <trkpt lat="45.29139" lon="4.7341">
        <ele>362.60000610352</ele>
        <time>2022-02-15T13:03:08Z</time>
      </trkpt>
      <trkpt lat="45.29139" lon="4.7341">
        <ele>362.60000610352</ele>
        <time>2022-02-15T13:03:09Z</time>
      </trkpt>
      <trkpt lat="45.29145" lon="4.73398">
        <ele>363.39999389648</ele>
        <time>2022-02-15T13:03:13Z</time>
      </trkpt>
      <trkpt lat="45.29148" lon="4.73395">
        <ele>363.79998779297</ele>
        <time>2022-02-15T13:03:15Z</time>
      </trkpt>
      <trkpt lat="45.29158" lon="4.73405">
        <ele>365.20001220703</ele>
        <time>2022-02-15T13:03:21Z</time>
      </trkpt>
      <trkpt lat="45.2916" lon="4.73407">
        <ele>365.60000610352</ele>
        <time>2022-02-15T13:03:23Z</time>
      </trkpt>
      <trkpt lat="45.2917" lon="4.73419">
        <ele>365.60000610352</ele>
        <time>2022-02-15T13:03:27Z</time>
      </trkpt>
      <trkpt lat="45.29177" lon="4.73431">
        <ele>365.79998779297</ele>
        <time>2022-02-15T13:03:32Z</time>
      </trkpt>
      <trkpt lat="45.29181" lon="4.73437">
        <ele>365.79998779297</ele>
        <time>2022-02-15T13:03:33Z</time>
      </trkpt>
      <trkpt lat="45.29189" lon="4.73433">
        <ele>365.60000610352</ele>
        <time>2022-02-15T13:03:38Z</time>
      </trkpt>
      <trkpt lat="45.29211" lon="4.73418">
        <ele>366.39999389648</ele>
        <time>2022-02-15T13:03:51Z</time>
      </trkpt>
      <trkpt lat="45.29238" lon="4.73389">
        <ele>367.79998779297</ele>
        <time>2022-02-15T13:04:09Z</time>
      </trkpt>
      <trkpt lat="45.29242" lon="4.73392">
        <ele>368.39999389648</ele>
        <time>2022-02-15T13:04:19Z</time>
      </trkpt>
      <trkpt lat="45.29249" lon="4.73412">
        <ele>368.60000610352</ele>
        <time>2022-02-15T13:04:27Z</time>
      </trkpt>
      <trkpt lat="45.29254" lon="4.73426">
        <ele>368.79998779297</ele>
        <time>2022-02-15T13:04:32Z</time>
      </trkpt>
      <trkpt lat="45.29258" lon="4.7343">
        <ele>368.79998779297</ele>
        <time>2022-02-15T13:04:45Z</time>
      </trkpt>
      <trkpt lat="45.29258" lon="4.7343">
        <ele>368.39999389648</ele>
        <time>2022-02-15T13:04:50Z</time>
      </trkpt>
    </trkseg>
  </trk>
</gpx>